<?xml version="1.0" encoding="UTF-8" standalone="no" ?>
<gpx xmlns="http://www.topografix.com/GPX/1/1" xmlns:xsi="http://www.w3.org/2001/XMLSchema-instance" xsi:schemaLocation="http://www.topografix.com/GPX/1/1 http://www.topografix.com/GPX/1/1/gpx.xsd" version="1.1" creator="VisuGPX - https://www.visugpx.com">
  <metadata>
    <name>Reculée de Conliège </name>
  </metadata>
  <trk>
    <name><![CDATA[Perrigny reculée de Conliège GMM 14]]></name>
    <trkseg>
      <trkpt lat="46.66833" lon="5.58904">
        <ele>362</ele>
        <time>2023-10-03T07:02:33Z</time>
      </trkpt>
      <trkpt lat="46.66832" lon="5.58904">
        <ele>362</ele>
        <time>2023-10-03T07:02:35Z</time>
      </trkpt>
      <trkpt lat="46.66833" lon="5.58904">
        <ele>362</ele>
        <time>2023-10-03T07:02:40Z</time>
      </trkpt>
      <trkpt lat="46.66836" lon="5.58904">
        <ele>361</ele>
        <time>2023-10-03T07:02:42Z</time>
      </trkpt>
      <trkpt lat="46.66838" lon="5.58907">
        <ele>361</ele>
        <time>2023-10-03T07:02:45Z</time>
      </trkpt>
      <trkpt lat="46.6684" lon="5.58909">
        <ele>361</ele>
        <time>2023-10-03T07:02:50Z</time>
      </trkpt>
      <trkpt lat="46.66839" lon="5.58909">
        <ele>361</ele>
        <time>2023-10-03T07:03:21Z</time>
      </trkpt>
      <trkpt lat="46.66837" lon="5.58907">
        <ele>361</ele>
        <time>2023-10-03T07:03:26Z</time>
      </trkpt>
      <trkpt lat="46.66834" lon="5.58906">
        <ele>361</ele>
        <time>2023-10-03T07:03:37Z</time>
      </trkpt>
      <trkpt lat="46.66832" lon="5.58902">
        <ele>361</ele>
        <time>2023-10-03T07:03:39Z</time>
      </trkpt>
      <trkpt lat="46.66831" lon="5.58903">
        <ele>361</ele>
        <time>2023-10-03T07:03:46Z</time>
      </trkpt>
      <trkpt lat="46.66833" lon="5.58903">
        <ele>361</ele>
        <time>2023-10-03T07:03:51Z</time>
      </trkpt>
      <trkpt lat="46.66835" lon="5.58904">
        <ele>361</ele>
        <time>2023-10-03T07:03:55Z</time>
      </trkpt>
      <trkpt lat="46.66838" lon="5.58907">
        <ele>361</ele>
        <time>2023-10-03T07:03:58Z</time>
      </trkpt>
      <trkpt lat="46.6684" lon="5.58909">
        <ele>361</ele>
        <time>2023-10-03T07:04:01Z</time>
      </trkpt>
      <trkpt lat="46.66839" lon="5.58911">
        <ele>361</ele>
        <time>2023-10-03T07:04:08Z</time>
      </trkpt>
      <trkpt lat="46.66837" lon="5.5891">
        <ele>361</ele>
        <time>2023-10-03T07:04:11Z</time>
      </trkpt>
      <trkpt lat="46.66834" lon="5.5891">
        <ele>361</ele>
        <time>2023-10-03T07:04:13Z</time>
      </trkpt>
      <trkpt lat="46.66831" lon="5.58909">
        <ele>361</ele>
        <time>2023-10-03T07:04:15Z</time>
      </trkpt>
      <trkpt lat="46.66829" lon="5.58909">
        <ele>361</ele>
        <time>2023-10-03T07:04:16Z</time>
      </trkpt>
      <trkpt lat="46.66826" lon="5.58908">
        <ele>361</ele>
        <time>2023-10-03T07:04:19Z</time>
      </trkpt>
      <trkpt lat="46.66823" lon="5.58908">
        <ele>361</ele>
        <time>2023-10-03T07:04:21Z</time>
      </trkpt>
      <trkpt lat="46.66819" lon="5.58907">
        <ele>361</ele>
        <time>2023-10-03T07:04:23Z</time>
      </trkpt>
      <trkpt lat="46.66816" lon="5.58907">
        <ele>361</ele>
        <time>2023-10-03T07:04:25Z</time>
      </trkpt>
      <trkpt lat="46.66813" lon="5.58907">
        <ele>361</ele>
        <time>2023-10-03T07:04:28Z</time>
      </trkpt>
      <trkpt lat="46.6681" lon="5.58908">
        <ele>360</ele>
        <time>2023-10-03T07:04:31Z</time>
      </trkpt>
      <trkpt lat="46.66806" lon="5.58909">
        <ele>360</ele>
        <time>2023-10-03T07:04:34Z</time>
      </trkpt>
      <trkpt lat="46.66803" lon="5.58909">
        <ele>360</ele>
        <time>2023-10-03T07:04:37Z</time>
      </trkpt>
      <trkpt lat="46.66799" lon="5.58909">
        <ele>359</ele>
        <time>2023-10-03T07:04:40Z</time>
      </trkpt>
      <trkpt lat="46.66796" lon="5.5891">
        <ele>359</ele>
        <time>2023-10-03T07:04:43Z</time>
      </trkpt>
      <trkpt lat="46.66792" lon="5.58911">
        <ele>359</ele>
        <time>2023-10-03T07:04:46Z</time>
      </trkpt>
      <trkpt lat="46.6679" lon="5.58914">
        <ele>359</ele>
        <time>2023-10-03T07:04:49Z</time>
      </trkpt>
      <trkpt lat="46.66787" lon="5.58916">
        <ele>360</ele>
        <time>2023-10-03T07:04:52Z</time>
      </trkpt>
      <trkpt lat="46.66785" lon="5.58919">
        <ele>360</ele>
        <time>2023-10-03T07:04:55Z</time>
      </trkpt>
      <trkpt lat="46.66782" lon="5.58922">
        <ele>360</ele>
        <time>2023-10-03T07:04:58Z</time>
      </trkpt>
      <trkpt lat="46.6678" lon="5.58925">
        <ele>360</ele>
        <time>2023-10-03T07:05:01Z</time>
      </trkpt>
      <trkpt lat="46.66777" lon="5.58927">
        <ele>360</ele>
        <time>2023-10-03T07:05:04Z</time>
      </trkpt>
      <trkpt lat="46.66774" lon="5.5893">
        <ele>361</ele>
        <time>2023-10-03T07:05:07Z</time>
      </trkpt>
      <trkpt lat="46.66772" lon="5.58933">
        <ele>361</ele>
        <time>2023-10-03T07:05:09Z</time>
      </trkpt>
      <trkpt lat="46.66769" lon="5.58935">
        <ele>362</ele>
        <time>2023-10-03T07:05:12Z</time>
      </trkpt>
      <trkpt lat="46.66766" lon="5.58938">
        <ele>362</ele>
        <time>2023-10-03T07:05:16Z</time>
      </trkpt>
      <trkpt lat="46.66763" lon="5.5894">
        <ele>362</ele>
        <time>2023-10-03T07:05:20Z</time>
      </trkpt>
      <trkpt lat="46.66761" lon="5.58942">
        <ele>363</ele>
        <time>2023-10-03T07:05:23Z</time>
      </trkpt>
      <trkpt lat="46.66758" lon="5.58943">
        <ele>363</ele>
        <time>2023-10-03T07:05:26Z</time>
      </trkpt>
      <trkpt lat="46.66755" lon="5.58945">
        <ele>363</ele>
        <time>2023-10-03T07:05:29Z</time>
      </trkpt>
      <trkpt lat="46.66752" lon="5.58946">
        <ele>364</ele>
        <time>2023-10-03T07:05:32Z</time>
      </trkpt>
      <trkpt lat="46.66749" lon="5.58948">
        <ele>364</ele>
        <time>2023-10-03T07:05:35Z</time>
      </trkpt>
      <trkpt lat="46.66747" lon="5.58949">
        <ele>364</ele>
        <time>2023-10-03T07:05:38Z</time>
      </trkpt>
      <trkpt lat="46.66744" lon="5.58952">
        <ele>364</ele>
        <time>2023-10-03T07:05:42Z</time>
      </trkpt>
      <trkpt lat="46.66742" lon="5.58953">
        <ele>365</ele>
        <time>2023-10-03T07:05:44Z</time>
      </trkpt>
      <trkpt lat="46.66739" lon="5.58954">
        <ele>365</ele>
        <time>2023-10-03T07:05:48Z</time>
      </trkpt>
      <trkpt lat="46.66737" lon="5.58956">
        <ele>366</ele>
        <time>2023-10-03T07:05:51Z</time>
      </trkpt>
      <trkpt lat="46.66733" lon="5.58957">
        <ele>366</ele>
        <time>2023-10-03T07:05:54Z</time>
      </trkpt>
      <trkpt lat="46.6673" lon="5.58959">
        <ele>366</ele>
        <time>2023-10-03T07:05:58Z</time>
      </trkpt>
      <trkpt lat="46.66727" lon="5.5896">
        <ele>367</ele>
        <time>2023-10-03T07:06:02Z</time>
      </trkpt>
      <trkpt lat="46.66724" lon="5.58961">
        <ele>367</ele>
        <time>2023-10-03T07:06:05Z</time>
      </trkpt>
      <trkpt lat="46.66721" lon="5.58962">
        <ele>368</ele>
        <time>2023-10-03T07:06:08Z</time>
      </trkpt>
      <trkpt lat="46.66718" lon="5.58964">
        <ele>368</ele>
        <time>2023-10-03T07:06:11Z</time>
      </trkpt>
      <trkpt lat="46.66716" lon="5.58966">
        <ele>369</ele>
        <time>2023-10-03T07:06:14Z</time>
      </trkpt>
      <trkpt lat="46.66713" lon="5.58969">
        <ele>369</ele>
        <time>2023-10-03T07:06:17Z</time>
      </trkpt>
      <trkpt lat="46.6671" lon="5.58971">
        <ele>369</ele>
        <time>2023-10-03T07:06:20Z</time>
      </trkpt>
      <trkpt lat="46.66707" lon="5.58973">
        <ele>370</ele>
        <time>2023-10-03T07:06:23Z</time>
      </trkpt>
      <trkpt lat="46.66705" lon="5.58976">
        <ele>370</ele>
        <time>2023-10-03T07:06:27Z</time>
      </trkpt>
      <trkpt lat="46.66702" lon="5.58979">
        <ele>371</ele>
        <time>2023-10-03T07:06:31Z</time>
      </trkpt>
      <trkpt lat="46.667" lon="5.58983">
        <ele>371</ele>
        <time>2023-10-03T07:06:35Z</time>
      </trkpt>
      <trkpt lat="46.66699" lon="5.58987">
        <ele>372</ele>
        <time>2023-10-03T07:06:38Z</time>
      </trkpt>
      <trkpt lat="46.66698" lon="5.58992">
        <ele>372</ele>
        <time>2023-10-03T07:06:41Z</time>
      </trkpt>
      <trkpt lat="46.66698" lon="5.58996">
        <ele>372</ele>
        <time>2023-10-03T07:06:43Z</time>
      </trkpt>
      <trkpt lat="46.66699" lon="5.59">
        <ele>373</ele>
        <time>2023-10-03T07:06:45Z</time>
      </trkpt>
      <trkpt lat="46.66698" lon="5.59004">
        <ele>373</ele>
        <time>2023-10-03T07:06:48Z</time>
      </trkpt>
      <trkpt lat="46.66697" lon="5.59007">
        <ele>373</ele>
        <time>2023-10-03T07:06:51Z</time>
      </trkpt>
      <trkpt lat="46.66697" lon="5.59012">
        <ele>374</ele>
        <time>2023-10-03T07:06:54Z</time>
      </trkpt>
      <trkpt lat="46.66697" lon="5.59016">
        <ele>374</ele>
        <time>2023-10-03T07:06:56Z</time>
      </trkpt>
      <trkpt lat="46.66696" lon="5.5902">
        <ele>374</ele>
        <time>2023-10-03T07:06:59Z</time>
      </trkpt>
      <trkpt lat="46.66696" lon="5.59024">
        <ele>375</ele>
        <time>2023-10-03T07:07:03Z</time>
      </trkpt>
      <trkpt lat="46.66695" lon="5.59029">
        <ele>376</ele>
        <time>2023-10-03T07:07:08Z</time>
      </trkpt>
      <trkpt lat="46.66694" lon="5.59033">
        <ele>376</ele>
        <time>2023-10-03T07:07:11Z</time>
      </trkpt>
      <trkpt lat="46.66693" lon="5.59037">
        <ele>376</ele>
        <time>2023-10-03T07:07:14Z</time>
      </trkpt>
      <trkpt lat="46.66692" lon="5.59042">
        <ele>377</ele>
        <time>2023-10-03T07:07:17Z</time>
      </trkpt>
      <trkpt lat="46.6669" lon="5.59047">
        <ele>377</ele>
        <time>2023-10-03T07:07:21Z</time>
      </trkpt>
      <trkpt lat="46.66689" lon="5.59051">
        <ele>378</ele>
        <time>2023-10-03T07:07:24Z</time>
      </trkpt>
      <trkpt lat="46.66688" lon="5.59055">
        <ele>378</ele>
        <time>2023-10-03T07:07:27Z</time>
      </trkpt>
      <trkpt lat="46.66688" lon="5.5906">
        <ele>378</ele>
        <time>2023-10-03T07:07:30Z</time>
      </trkpt>
      <trkpt lat="46.66687" lon="5.59064">
        <ele>378</ele>
        <time>2023-10-03T07:07:33Z</time>
      </trkpt>
      <trkpt lat="46.66686" lon="5.59069">
        <ele>378</ele>
        <time>2023-10-03T07:07:37Z</time>
      </trkpt>
      <trkpt lat="46.66684" lon="5.59073">
        <ele>379</ele>
        <time>2023-10-03T07:07:42Z</time>
      </trkpt>
      <trkpt lat="46.66682" lon="5.59078">
        <ele>379</ele>
        <time>2023-10-03T07:07:45Z</time>
      </trkpt>
      <trkpt lat="46.66681" lon="5.59082">
        <ele>380</ele>
        <time>2023-10-03T07:07:47Z</time>
      </trkpt>
      <trkpt lat="46.66679" lon="5.59086">
        <ele>380</ele>
        <time>2023-10-03T07:07:50Z</time>
      </trkpt>
      <trkpt lat="46.66679" lon="5.59091">
        <ele>380</ele>
        <time>2023-10-03T07:07:53Z</time>
      </trkpt>
      <trkpt lat="46.66678" lon="5.59096">
        <ele>380</ele>
        <time>2023-10-03T07:07:56Z</time>
      </trkpt>
      <trkpt lat="46.66676" lon="5.591">
        <ele>380</ele>
        <time>2023-10-03T07:08:00Z</time>
      </trkpt>
      <trkpt lat="46.66673" lon="5.59102">
        <ele>380</ele>
        <time>2023-10-03T07:08:03Z</time>
      </trkpt>
      <trkpt lat="46.6667" lon="5.59103">
        <ele>380</ele>
        <time>2023-10-03T07:08:06Z</time>
      </trkpt>
      <trkpt lat="46.66667" lon="5.59104">
        <ele>380</ele>
        <time>2023-10-03T07:08:10Z</time>
      </trkpt>
      <trkpt lat="46.66664" lon="5.59106">
        <ele>381</ele>
        <time>2023-10-03T07:08:13Z</time>
      </trkpt>
      <trkpt lat="46.66662" lon="5.59109">
        <ele>381</ele>
        <time>2023-10-03T07:08:17Z</time>
      </trkpt>
      <trkpt lat="46.66661" lon="5.59113">
        <ele>382</ele>
        <time>2023-10-03T07:08:20Z</time>
      </trkpt>
      <trkpt lat="46.6666" lon="5.59117">
        <ele>382</ele>
        <time>2023-10-03T07:08:23Z</time>
      </trkpt>
      <trkpt lat="46.66659" lon="5.59122">
        <ele>382</ele>
        <time>2023-10-03T07:08:26Z</time>
      </trkpt>
      <trkpt lat="46.66658" lon="5.59126">
        <ele>382</ele>
        <time>2023-10-03T07:08:29Z</time>
      </trkpt>
      <trkpt lat="46.66657" lon="5.5913">
        <ele>383</ele>
        <time>2023-10-03T07:08:33Z</time>
      </trkpt>
      <trkpt lat="46.66656" lon="5.59134">
        <ele>383</ele>
        <time>2023-10-03T07:08:38Z</time>
      </trkpt>
      <trkpt lat="46.66657" lon="5.59139">
        <ele>384</ele>
        <time>2023-10-03T07:08:41Z</time>
      </trkpt>
      <trkpt lat="46.66658" lon="5.59143">
        <ele>385</ele>
        <time>2023-10-03T07:08:46Z</time>
      </trkpt>
      <trkpt lat="46.66658" lon="5.59147">
        <ele>386</ele>
        <time>2023-10-03T07:08:51Z</time>
      </trkpt>
      <trkpt lat="46.66657" lon="5.59151">
        <ele>385</ele>
        <time>2023-10-03T07:08:53Z</time>
      </trkpt>
      <trkpt lat="46.66656" lon="5.59154">
        <ele>385</ele>
        <time>2023-10-03T07:08:55Z</time>
      </trkpt>
      <trkpt lat="46.66654" lon="5.59157">
        <ele>386</ele>
        <time>2023-10-03T07:08:57Z</time>
      </trkpt>
      <trkpt lat="46.66652" lon="5.5916">
        <ele>387</ele>
        <time>2023-10-03T07:09:00Z</time>
      </trkpt>
      <trkpt lat="46.66649" lon="5.59163">
        <ele>387</ele>
        <time>2023-10-03T07:09:03Z</time>
      </trkpt>
      <trkpt lat="46.66647" lon="5.59165">
        <ele>388</ele>
        <time>2023-10-03T07:09:08Z</time>
      </trkpt>
      <trkpt lat="46.66644" lon="5.59166">
        <ele>389</ele>
        <time>2023-10-03T07:09:12Z</time>
      </trkpt>
      <trkpt lat="46.66641" lon="5.59169">
        <ele>390</ele>
        <time>2023-10-03T07:09:18Z</time>
      </trkpt>
      <trkpt lat="46.66639" lon="5.59172">
        <ele>390</ele>
        <time>2023-10-03T07:09:22Z</time>
      </trkpt>
      <trkpt lat="46.66637" lon="5.59175">
        <ele>391</ele>
        <time>2023-10-03T07:09:26Z</time>
      </trkpt>
      <trkpt lat="46.66636" lon="5.59179">
        <ele>392</ele>
        <time>2023-10-03T07:09:30Z</time>
      </trkpt>
      <trkpt lat="46.66634" lon="5.59183">
        <ele>392</ele>
        <time>2023-10-03T07:09:37Z</time>
      </trkpt>
      <trkpt lat="46.66633" lon="5.59187">
        <ele>393</ele>
        <time>2023-10-03T07:09:40Z</time>
      </trkpt>
      <trkpt lat="46.66633" lon="5.59191">
        <ele>393</ele>
        <time>2023-10-03T07:09:43Z</time>
      </trkpt>
      <trkpt lat="46.66633" lon="5.59196">
        <ele>394</ele>
        <time>2023-10-03T07:09:46Z</time>
      </trkpt>
      <trkpt lat="46.66633" lon="5.592">
        <ele>394</ele>
        <time>2023-10-03T07:09:49Z</time>
      </trkpt>
      <trkpt lat="46.66632" lon="5.59205">
        <ele>394</ele>
        <time>2023-10-03T07:09:52Z</time>
      </trkpt>
      <trkpt lat="46.66632" lon="5.5921">
        <ele>394</ele>
        <time>2023-10-03T07:09:55Z</time>
      </trkpt>
      <trkpt lat="46.66631" lon="5.59215">
        <ele>394</ele>
        <time>2023-10-03T07:09:58Z</time>
      </trkpt>
      <trkpt lat="46.6663" lon="5.59219">
        <ele>395</ele>
        <time>2023-10-03T07:10:02Z</time>
      </trkpt>
      <trkpt lat="46.66629" lon="5.59224">
        <ele>395</ele>
        <time>2023-10-03T07:10:05Z</time>
      </trkpt>
      <trkpt lat="46.66628" lon="5.59229">
        <ele>395</ele>
        <time>2023-10-03T07:10:08Z</time>
      </trkpt>
      <trkpt lat="46.66626" lon="5.59233">
        <ele>396</ele>
        <time>2023-10-03T07:10:13Z</time>
      </trkpt>
      <trkpt lat="46.66625" lon="5.59237">
        <ele>397</ele>
        <time>2023-10-03T07:10:16Z</time>
      </trkpt>
      <trkpt lat="46.66624" lon="5.59241">
        <ele>397</ele>
        <time>2023-10-03T07:10:22Z</time>
      </trkpt>
      <trkpt lat="46.66623" lon="5.59246">
        <ele>398</ele>
        <time>2023-10-03T07:10:25Z</time>
      </trkpt>
      <trkpt lat="46.66622" lon="5.59251">
        <ele>398</ele>
        <time>2023-10-03T07:10:29Z</time>
      </trkpt>
      <trkpt lat="46.66623" lon="5.59255">
        <ele>399</ele>
        <time>2023-10-03T07:10:32Z</time>
      </trkpt>
      <trkpt lat="46.66623" lon="5.59259">
        <ele>399</ele>
        <time>2023-10-03T07:10:35Z</time>
      </trkpt>
      <trkpt lat="46.66624" lon="5.59263">
        <ele>399</ele>
        <time>2023-10-03T07:10:39Z</time>
      </trkpt>
      <trkpt lat="46.66625" lon="5.59268">
        <ele>399</ele>
        <time>2023-10-03T07:10:42Z</time>
      </trkpt>
      <trkpt lat="46.66627" lon="5.59272">
        <ele>400</ele>
        <time>2023-10-03T07:10:47Z</time>
      </trkpt>
      <trkpt lat="46.66628" lon="5.59277">
        <ele>401</ele>
        <time>2023-10-03T07:10:52Z</time>
      </trkpt>
      <trkpt lat="46.66629" lon="5.59281">
        <ele>401</ele>
        <time>2023-10-03T07:10:57Z</time>
      </trkpt>
      <trkpt lat="46.66628" lon="5.59286">
        <ele>402</ele>
        <time>2023-10-03T07:11:01Z</time>
      </trkpt>
      <trkpt lat="46.66628" lon="5.5929">
        <ele>402</ele>
        <time>2023-10-03T07:11:04Z</time>
      </trkpt>
      <trkpt lat="46.66628" lon="5.59295">
        <ele>402</ele>
        <time>2023-10-03T07:11:08Z</time>
      </trkpt>
      <trkpt lat="46.66627" lon="5.59299">
        <ele>403</ele>
        <time>2023-10-03T07:11:13Z</time>
      </trkpt>
      <trkpt lat="46.66626" lon="5.59304">
        <ele>403</ele>
        <time>2023-10-03T07:11:16Z</time>
      </trkpt>
      <trkpt lat="46.66625" lon="5.59309">
        <ele>403</ele>
        <time>2023-10-03T07:11:18Z</time>
      </trkpt>
      <trkpt lat="46.66625" lon="5.59313">
        <ele>404</ele>
        <time>2023-10-03T07:11:21Z</time>
      </trkpt>
      <trkpt lat="46.66626" lon="5.59318">
        <ele>404</ele>
        <time>2023-10-03T07:11:24Z</time>
      </trkpt>
      <trkpt lat="46.66628" lon="5.59323">
        <ele>404</ele>
        <time>2023-10-03T07:11:27Z</time>
      </trkpt>
      <trkpt lat="46.6663" lon="5.59327">
        <ele>405</ele>
        <time>2023-10-03T07:11:30Z</time>
      </trkpt>
      <trkpt lat="46.66631" lon="5.59332">
        <ele>405</ele>
        <time>2023-10-03T07:11:33Z</time>
      </trkpt>
      <trkpt lat="46.66631" lon="5.59336">
        <ele>406</ele>
        <time>2023-10-03T07:11:40Z</time>
      </trkpt>
      <trkpt lat="46.66631" lon="5.59341">
        <ele>407</ele>
        <time>2023-10-03T07:11:44Z</time>
      </trkpt>
      <trkpt lat="46.6663" lon="5.59346">
        <ele>408</ele>
        <time>2023-10-03T07:11:55Z</time>
      </trkpt>
      <trkpt lat="46.66629" lon="5.59349">
        <ele>408</ele>
        <time>2023-10-03T07:11:57Z</time>
      </trkpt>
      <trkpt lat="46.66626" lon="5.59352">
        <ele>408</ele>
        <time>2023-10-03T07:11:59Z</time>
      </trkpt>
      <trkpt lat="46.66624" lon="5.59354">
        <ele>409</ele>
        <time>2023-10-03T07:12:01Z</time>
      </trkpt>
      <trkpt lat="46.66621" lon="5.59357">
        <ele>409</ele>
        <time>2023-10-03T07:12:04Z</time>
      </trkpt>
      <trkpt lat="46.66619" lon="5.59359">
        <ele>409</ele>
        <time>2023-10-03T07:12:09Z</time>
      </trkpt>
      <trkpt lat="46.66616" lon="5.59361">
        <ele>410</ele>
        <time>2023-10-03T07:12:14Z</time>
      </trkpt>
      <trkpt lat="46.66615" lon="5.59365">
        <ele>410</ele>
        <time>2023-10-03T07:12:18Z</time>
      </trkpt>
      <trkpt lat="46.66613" lon="5.59369">
        <ele>410</ele>
        <time>2023-10-03T07:12:21Z</time>
      </trkpt>
      <trkpt lat="46.66613" lon="5.59373">
        <ele>410</ele>
        <time>2023-10-03T07:12:23Z</time>
      </trkpt>
      <trkpt lat="46.66612" lon="5.59379">
        <ele>410</ele>
        <time>2023-10-03T07:12:26Z</time>
      </trkpt>
      <trkpt lat="46.66612" lon="5.59384">
        <ele>410</ele>
        <time>2023-10-03T07:12:29Z</time>
      </trkpt>
      <trkpt lat="46.66612" lon="5.59388">
        <ele>411</ele>
        <time>2023-10-03T07:12:32Z</time>
      </trkpt>
      <trkpt lat="46.66613" lon="5.59393">
        <ele>411</ele>
        <time>2023-10-03T07:12:36Z</time>
      </trkpt>
      <trkpt lat="46.66614" lon="5.59397">
        <ele>411</ele>
        <time>2023-10-03T07:12:40Z</time>
      </trkpt>
      <trkpt lat="46.66616" lon="5.59401">
        <ele>412</ele>
        <time>2023-10-03T07:12:44Z</time>
      </trkpt>
      <trkpt lat="46.66616" lon="5.59405">
        <ele>412</ele>
        <time>2023-10-03T07:12:48Z</time>
      </trkpt>
      <trkpt lat="46.66617" lon="5.5941">
        <ele>413</ele>
        <time>2023-10-03T07:12:51Z</time>
      </trkpt>
      <trkpt lat="46.66617" lon="5.59414">
        <ele>413</ele>
        <time>2023-10-03T07:12:56Z</time>
      </trkpt>
      <trkpt lat="46.66618" lon="5.59418">
        <ele>414</ele>
        <time>2023-10-03T07:13:02Z</time>
      </trkpt>
      <trkpt lat="46.6662" lon="5.59422">
        <ele>414</ele>
        <time>2023-10-03T07:13:05Z</time>
      </trkpt>
      <trkpt lat="46.66622" lon="5.59426">
        <ele>414</ele>
        <time>2023-10-03T07:13:09Z</time>
      </trkpt>
      <trkpt lat="46.66624" lon="5.5943">
        <ele>415</ele>
        <time>2023-10-03T07:13:13Z</time>
      </trkpt>
      <trkpt lat="46.66626" lon="5.59434">
        <ele>415</ele>
        <time>2023-10-03T07:13:17Z</time>
      </trkpt>
      <trkpt lat="46.66628" lon="5.59438">
        <ele>416</ele>
        <time>2023-10-03T07:13:21Z</time>
      </trkpt>
      <trkpt lat="46.6663" lon="5.59443">
        <ele>416</ele>
        <time>2023-10-03T07:13:24Z</time>
      </trkpt>
      <trkpt lat="46.66631" lon="5.59447">
        <ele>416</ele>
        <time>2023-10-03T07:13:27Z</time>
      </trkpt>
      <trkpt lat="46.66633" lon="5.5945">
        <ele>417</ele>
        <time>2023-10-03T07:13:29Z</time>
      </trkpt>
      <trkpt lat="46.66634" lon="5.59455">
        <ele>417</ele>
        <time>2023-10-03T07:13:32Z</time>
      </trkpt>
      <trkpt lat="46.66634" lon="5.59459">
        <ele>417</ele>
        <time>2023-10-03T07:13:35Z</time>
      </trkpt>
      <trkpt lat="46.66634" lon="5.59463">
        <ele>418</ele>
        <time>2023-10-03T07:13:41Z</time>
      </trkpt>
      <trkpt lat="46.66635" lon="5.59467">
        <ele>418</ele>
        <time>2023-10-03T07:13:45Z</time>
      </trkpt>
      <trkpt lat="46.66636" lon="5.59471">
        <ele>418</ele>
        <time>2023-10-03T07:13:49Z</time>
      </trkpt>
      <trkpt lat="46.66638" lon="5.59476">
        <ele>419</ele>
        <time>2023-10-03T07:13:52Z</time>
      </trkpt>
      <trkpt lat="46.6664" lon="5.5948">
        <ele>419</ele>
        <time>2023-10-03T07:13:54Z</time>
      </trkpt>
      <trkpt lat="46.66642" lon="5.59484">
        <ele>419</ele>
        <time>2023-10-03T07:13:57Z</time>
      </trkpt>
      <trkpt lat="46.66643" lon="5.59489">
        <ele>419</ele>
        <time>2023-10-03T07:14:01Z</time>
      </trkpt>
      <trkpt lat="46.66643" lon="5.59494">
        <ele>420</ele>
        <time>2023-10-03T07:14:03Z</time>
      </trkpt>
      <trkpt lat="46.66644" lon="5.59498">
        <ele>420</ele>
        <time>2023-10-03T07:14:07Z</time>
      </trkpt>
      <trkpt lat="46.66645" lon="5.59503">
        <ele>421</ele>
        <time>2023-10-03T07:14:12Z</time>
      </trkpt>
      <trkpt lat="46.66646" lon="5.59507">
        <ele>421</ele>
        <time>2023-10-03T07:14:17Z</time>
      </trkpt>
      <trkpt lat="46.66648" lon="5.5951">
        <ele>422</ele>
        <time>2023-10-03T07:14:20Z</time>
      </trkpt>
      <trkpt lat="46.6665" lon="5.59513">
        <ele>422</ele>
        <time>2023-10-03T07:14:23Z</time>
      </trkpt>
      <trkpt lat="46.66652" lon="5.59516">
        <ele>423</ele>
        <time>2023-10-03T07:14:26Z</time>
      </trkpt>
      <trkpt lat="46.66654" lon="5.5952">
        <ele>423</ele>
        <time>2023-10-03T07:14:29Z</time>
      </trkpt>
      <trkpt lat="46.66655" lon="5.59524">
        <ele>423</ele>
        <time>2023-10-03T07:14:32Z</time>
      </trkpt>
      <trkpt lat="46.66654" lon="5.59528">
        <ele>424</ele>
        <time>2023-10-03T07:14:35Z</time>
      </trkpt>
      <trkpt lat="46.66654" lon="5.59533">
        <ele>424</ele>
        <time>2023-10-03T07:14:38Z</time>
      </trkpt>
      <trkpt lat="46.66654" lon="5.59537">
        <ele>425</ele>
        <time>2023-10-03T07:14:44Z</time>
      </trkpt>
      <trkpt lat="46.66655" lon="5.59542">
        <ele>425</ele>
        <time>2023-10-03T07:14:49Z</time>
      </trkpt>
      <trkpt lat="46.66654" lon="5.59546">
        <ele>425</ele>
        <time>2023-10-03T07:14:52Z</time>
      </trkpt>
      <trkpt lat="46.66655" lon="5.59549">
        <ele>426</ele>
        <time>2023-10-03T07:14:56Z</time>
      </trkpt>
      <trkpt lat="46.66657" lon="5.59552">
        <ele>426</ele>
        <time>2023-10-03T07:15:01Z</time>
      </trkpt>
      <trkpt lat="46.66658" lon="5.59556">
        <ele>427</ele>
        <time>2023-10-03T07:15:04Z</time>
      </trkpt>
      <trkpt lat="46.66659" lon="5.59561">
        <ele>427</ele>
        <time>2023-10-03T07:15:07Z</time>
      </trkpt>
      <trkpt lat="46.6666" lon="5.59565">
        <ele>428</ele>
        <time>2023-10-03T07:15:10Z</time>
      </trkpt>
      <trkpt lat="46.6666" lon="5.59569">
        <ele>428</ele>
        <time>2023-10-03T07:15:12Z</time>
      </trkpt>
      <trkpt lat="46.6666" lon="5.59574">
        <ele>429</ele>
        <time>2023-10-03T07:15:15Z</time>
      </trkpt>
      <trkpt lat="46.66659" lon="5.59578">
        <ele>429</ele>
        <time>2023-10-03T07:15:17Z</time>
      </trkpt>
      <trkpt lat="46.66657" lon="5.5958">
        <ele>429</ele>
        <time>2023-10-03T07:15:21Z</time>
      </trkpt>
      <trkpt lat="46.66655" lon="5.59583">
        <ele>430</ele>
        <time>2023-10-03T07:15:28Z</time>
      </trkpt>
      <trkpt lat="46.66654" lon="5.59586">
        <ele>431</ele>
        <time>2023-10-03T07:15:32Z</time>
      </trkpt>
      <trkpt lat="46.66653" lon="5.59591">
        <ele>431</ele>
        <time>2023-10-03T07:15:36Z</time>
      </trkpt>
      <trkpt lat="46.66653" lon="5.59595">
        <ele>432</ele>
        <time>2023-10-03T07:15:38Z</time>
      </trkpt>
      <trkpt lat="46.66653" lon="5.59599">
        <ele>432</ele>
        <time>2023-10-03T07:15:43Z</time>
      </trkpt>
      <trkpt lat="46.66654" lon="5.59602">
        <ele>432</ele>
        <time>2023-10-03T07:15:48Z</time>
      </trkpt>
      <trkpt lat="46.66655" lon="5.59605">
        <ele>434</ele>
        <time>2023-10-03T07:15:55Z</time>
      </trkpt>
      <trkpt lat="46.66656" lon="5.5961">
        <ele>434</ele>
        <time>2023-10-03T07:15:59Z</time>
      </trkpt>
      <trkpt lat="46.66655" lon="5.59614">
        <ele>435</ele>
        <time>2023-10-03T07:16:02Z</time>
      </trkpt>
      <trkpt lat="46.66654" lon="5.59618">
        <ele>435</ele>
        <time>2023-10-03T07:16:05Z</time>
      </trkpt>
      <trkpt lat="46.66653" lon="5.59622">
        <ele>436</ele>
        <time>2023-10-03T07:16:10Z</time>
      </trkpt>
      <trkpt lat="46.66652" lon="5.59626">
        <ele>437</ele>
        <time>2023-10-03T07:16:15Z</time>
      </trkpt>
      <trkpt lat="46.66651" lon="5.5963">
        <ele>437</ele>
        <time>2023-10-03T07:16:19Z</time>
      </trkpt>
      <trkpt lat="46.66651" lon="5.59635">
        <ele>438</ele>
        <time>2023-10-03T07:16:23Z</time>
      </trkpt>
      <trkpt lat="46.6665" lon="5.5964">
        <ele>438</ele>
        <time>2023-10-03T07:16:29Z</time>
      </trkpt>
      <trkpt lat="46.66649" lon="5.59644">
        <ele>439</ele>
        <time>2023-10-03T07:16:33Z</time>
      </trkpt>
      <trkpt lat="46.66648" lon="5.59648">
        <ele>439</ele>
        <time>2023-10-03T07:16:36Z</time>
      </trkpt>
      <trkpt lat="46.66647" lon="5.59652">
        <ele>440</ele>
        <time>2023-10-03T07:16:39Z</time>
      </trkpt>
      <trkpt lat="46.66646" lon="5.59656">
        <ele>441</ele>
        <time>2023-10-03T07:16:45Z</time>
      </trkpt>
      <trkpt lat="46.66645" lon="5.5966">
        <ele>441</ele>
        <time>2023-10-03T07:16:52Z</time>
      </trkpt>
      <trkpt lat="46.66645" lon="5.59665">
        <ele>442</ele>
        <time>2023-10-03T07:16:56Z</time>
      </trkpt>
      <trkpt lat="46.66644" lon="5.5967">
        <ele>442</ele>
        <time>2023-10-03T07:16:58Z</time>
      </trkpt>
      <trkpt lat="46.66644" lon="5.59675">
        <ele>443</ele>
        <time>2023-10-03T07:17:04Z</time>
      </trkpt>
      <trkpt lat="46.66644" lon="5.59679">
        <ele>443</ele>
        <time>2023-10-03T07:17:09Z</time>
      </trkpt>
      <trkpt lat="46.66644" lon="5.59684">
        <ele>444</ele>
        <time>2023-10-03T07:17:14Z</time>
      </trkpt>
      <trkpt lat="46.66643" lon="5.59689">
        <ele>444</ele>
        <time>2023-10-03T07:17:20Z</time>
      </trkpt>
      <trkpt lat="46.66642" lon="5.59693">
        <ele>445</ele>
        <time>2023-10-03T07:17:25Z</time>
      </trkpt>
      <trkpt lat="46.6664" lon="5.59697">
        <ele>446</ele>
        <time>2023-10-03T07:17:30Z</time>
      </trkpt>
      <trkpt lat="46.6664" lon="5.59701">
        <ele>446</ele>
        <time>2023-10-03T07:17:33Z</time>
      </trkpt>
      <trkpt lat="46.66639" lon="5.59706">
        <ele>447</ele>
        <time>2023-10-03T07:17:36Z</time>
      </trkpt>
      <trkpt lat="46.66639" lon="5.5971">
        <ele>448</ele>
        <time>2023-10-03T07:17:43Z</time>
      </trkpt>
      <trkpt lat="46.66639" lon="5.59714">
        <ele>449</ele>
        <time>2023-10-03T07:17:46Z</time>
      </trkpt>
      <trkpt lat="46.66637" lon="5.59719">
        <ele>450</ele>
        <time>2023-10-03T07:17:50Z</time>
      </trkpt>
      <trkpt lat="46.66636" lon="5.59723">
        <ele>450</ele>
        <time>2023-10-03T07:17:55Z</time>
      </trkpt>
      <trkpt lat="46.66635" lon="5.59727">
        <ele>451</ele>
        <time>2023-10-03T07:18:00Z</time>
      </trkpt>
      <trkpt lat="46.66635" lon="5.59731">
        <ele>452</ele>
        <time>2023-10-03T07:18:03Z</time>
      </trkpt>
      <trkpt lat="46.66635" lon="5.59735">
        <ele>452</ele>
        <time>2023-10-03T07:18:06Z</time>
      </trkpt>
      <trkpt lat="46.66634" lon="5.59738">
        <ele>453</ele>
        <time>2023-10-03T07:18:11Z</time>
      </trkpt>
      <trkpt lat="46.66632" lon="5.59742">
        <ele>454</ele>
        <time>2023-10-03T07:18:18Z</time>
      </trkpt>
      <trkpt lat="46.66631" lon="5.59746">
        <ele>454</ele>
        <time>2023-10-03T07:18:22Z</time>
      </trkpt>
      <trkpt lat="46.66631" lon="5.5975">
        <ele>455</ele>
        <time>2023-10-03T07:18:25Z</time>
      </trkpt>
      <trkpt lat="46.6663" lon="5.59754">
        <ele>455</ele>
        <time>2023-10-03T07:18:28Z</time>
      </trkpt>
      <trkpt lat="46.66629" lon="5.59758">
        <ele>456</ele>
        <time>2023-10-03T07:18:32Z</time>
      </trkpt>
      <trkpt lat="46.66628" lon="5.59762">
        <ele>456</ele>
        <time>2023-10-03T07:18:36Z</time>
      </trkpt>
      <trkpt lat="46.66626" lon="5.59766">
        <ele>456</ele>
        <time>2023-10-03T07:18:39Z</time>
      </trkpt>
      <trkpt lat="46.66625" lon="5.59769">
        <ele>456</ele>
        <time>2023-10-03T07:18:43Z</time>
      </trkpt>
      <trkpt lat="46.66623" lon="5.59774">
        <ele>457</ele>
        <time>2023-10-03T07:18:46Z</time>
      </trkpt>
      <trkpt lat="46.66622" lon="5.59779">
        <ele>457</ele>
        <time>2023-10-03T07:18:49Z</time>
      </trkpt>
      <trkpt lat="46.66621" lon="5.59783">
        <ele>457</ele>
        <time>2023-10-03T07:18:51Z</time>
      </trkpt>
      <trkpt lat="46.66621" lon="5.59788">
        <ele>457</ele>
        <time>2023-10-03T07:18:55Z</time>
      </trkpt>
      <trkpt lat="46.66621" lon="5.59792">
        <ele>458</ele>
        <time>2023-10-03T07:19:00Z</time>
      </trkpt>
      <trkpt lat="46.6662" lon="5.59795">
        <ele>459</ele>
        <time>2023-10-03T07:19:08Z</time>
      </trkpt>
      <trkpt lat="46.66619" lon="5.59799">
        <ele>460</ele>
        <time>2023-10-03T07:19:12Z</time>
      </trkpt>
      <trkpt lat="46.66617" lon="5.59803">
        <ele>461</ele>
        <time>2023-10-03T07:19:16Z</time>
      </trkpt>
      <trkpt lat="46.66615" lon="5.59807">
        <ele>461</ele>
        <time>2023-10-03T07:19:20Z</time>
      </trkpt>
      <trkpt lat="46.66613" lon="5.5981">
        <ele>462</ele>
        <time>2023-10-03T07:19:24Z</time>
      </trkpt>
      <trkpt lat="46.66612" lon="5.59814">
        <ele>462</ele>
        <time>2023-10-03T07:19:27Z</time>
      </trkpt>
      <trkpt lat="46.66612" lon="5.59818">
        <ele>463</ele>
        <time>2023-10-03T07:19:31Z</time>
      </trkpt>
      <trkpt lat="46.66612" lon="5.59822">
        <ele>463</ele>
        <time>2023-10-03T07:19:34Z</time>
      </trkpt>
      <trkpt lat="46.66612" lon="5.59827">
        <ele>463</ele>
        <time>2023-10-03T07:19:38Z</time>
      </trkpt>
      <trkpt lat="46.66611" lon="5.59831">
        <ele>464</ele>
        <time>2023-10-03T07:19:41Z</time>
      </trkpt>
      <trkpt lat="46.66609" lon="5.59834">
        <ele>464</ele>
        <time>2023-10-03T07:19:44Z</time>
      </trkpt>
      <trkpt lat="46.66607" lon="5.59837">
        <ele>465</ele>
        <time>2023-10-03T07:19:47Z</time>
      </trkpt>
      <trkpt lat="46.66606" lon="5.59841">
        <ele>466</ele>
        <time>2023-10-03T07:19:51Z</time>
      </trkpt>
      <trkpt lat="46.66604" lon="5.59845">
        <ele>466</ele>
        <time>2023-10-03T07:19:54Z</time>
      </trkpt>
      <trkpt lat="46.66603" lon="5.59849">
        <ele>467</ele>
        <time>2023-10-03T07:19:57Z</time>
      </trkpt>
      <trkpt lat="46.66601" lon="5.59852">
        <ele>467</ele>
        <time>2023-10-03T07:20:01Z</time>
      </trkpt>
      <trkpt lat="46.66599" lon="5.59855">
        <ele>469</ele>
        <time>2023-10-03T07:20:10Z</time>
      </trkpt>
      <trkpt lat="46.66598" lon="5.59859">
        <ele>469</ele>
        <time>2023-10-03T07:20:13Z</time>
      </trkpt>
      <trkpt lat="46.66597" lon="5.59863">
        <ele>470</ele>
        <time>2023-10-03T07:20:16Z</time>
      </trkpt>
      <trkpt lat="46.66596" lon="5.59866">
        <ele>470</ele>
        <time>2023-10-03T07:20:19Z</time>
      </trkpt>
      <trkpt lat="46.66594" lon="5.59869">
        <ele>470</ele>
        <time>2023-10-03T07:20:22Z</time>
      </trkpt>
      <trkpt lat="46.66591" lon="5.59871">
        <ele>471</ele>
        <time>2023-10-03T07:20:25Z</time>
      </trkpt>
      <trkpt lat="46.66589" lon="5.59873">
        <ele>471</ele>
        <time>2023-10-03T07:20:28Z</time>
      </trkpt>
      <trkpt lat="46.66586" lon="5.59875">
        <ele>471</ele>
        <time>2023-10-03T07:20:32Z</time>
      </trkpt>
      <trkpt lat="46.66584" lon="5.59878">
        <ele>472</ele>
        <time>2023-10-03T07:20:35Z</time>
      </trkpt>
      <trkpt lat="46.66582" lon="5.59881">
        <ele>472</ele>
        <time>2023-10-03T07:20:38Z</time>
      </trkpt>
      <trkpt lat="46.66581" lon="5.59884">
        <ele>472</ele>
        <time>2023-10-03T07:20:43Z</time>
      </trkpt>
      <trkpt lat="46.66579" lon="5.59886">
        <ele>473</ele>
        <time>2023-10-03T07:20:47Z</time>
      </trkpt>
      <trkpt lat="46.66576" lon="5.59889">
        <ele>473</ele>
        <time>2023-10-03T07:20:51Z</time>
      </trkpt>
      <trkpt lat="46.66574" lon="5.59892">
        <ele>474</ele>
        <time>2023-10-03T07:20:58Z</time>
      </trkpt>
      <trkpt lat="46.66572" lon="5.59891">
        <ele>473</ele>
        <time>2023-10-03T07:21:24Z</time>
      </trkpt>
      <trkpt lat="46.66569" lon="5.59891">
        <ele>473</ele>
        <time>2023-10-03T07:21:29Z</time>
      </trkpt>
      <trkpt lat="46.66566" lon="5.59889">
        <ele>473</ele>
        <time>2023-10-03T07:21:32Z</time>
      </trkpt>
      <trkpt lat="46.66563" lon="5.59889">
        <ele>473</ele>
        <time>2023-10-03T07:21:37Z</time>
      </trkpt>
      <trkpt lat="46.66563" lon="5.59892">
        <ele>473</ele>
        <time>2023-10-03T07:21:39Z</time>
      </trkpt>
      <trkpt lat="46.66564" lon="5.59894">
        <ele>473</ele>
        <time>2023-10-03T07:21:41Z</time>
      </trkpt>
      <trkpt lat="46.66566" lon="5.59895">
        <ele>473</ele>
        <time>2023-10-03T07:21:44Z</time>
      </trkpt>
      <trkpt lat="46.66569" lon="5.59892">
        <ele>473</ele>
        <time>2023-10-03T07:21:51Z</time>
      </trkpt>
      <trkpt lat="46.66571" lon="5.59887">
        <ele>473</ele>
        <time>2023-10-03T07:22:02Z</time>
      </trkpt>
      <trkpt lat="46.66573" lon="5.59888">
        <ele>474</ele>
        <time>2023-10-03T07:22:15Z</time>
      </trkpt>
      <trkpt lat="46.66577" lon="5.59891">
        <ele>474</ele>
        <time>2023-10-03T07:22:23Z</time>
      </trkpt>
      <trkpt lat="46.6658" lon="5.59892">
        <ele>474</ele>
        <time>2023-10-03T07:22:40Z</time>
      </trkpt>
      <trkpt lat="46.66579" lon="5.59891">
        <ele>474</ele>
        <time>2023-10-03T07:22:46Z</time>
      </trkpt>
      <trkpt lat="46.66577" lon="5.59891">
        <ele>474</ele>
        <time>2023-10-03T07:23:09Z</time>
      </trkpt>
      <trkpt lat="46.66575" lon="5.59888">
        <ele>474</ele>
        <time>2023-10-03T07:23:34Z</time>
      </trkpt>
      <trkpt lat="46.66575" lon="5.59885">
        <ele>474</ele>
        <time>2023-10-03T07:23:36Z</time>
      </trkpt>
      <trkpt lat="46.66577" lon="5.59887">
        <ele>474</ele>
        <time>2023-10-03T07:24:14Z</time>
      </trkpt>
      <trkpt lat="46.66576" lon="5.5989">
        <ele>473</ele>
        <time>2023-10-03T07:24:50Z</time>
      </trkpt>
      <trkpt lat="46.66574" lon="5.59892">
        <ele>473</ele>
        <time>2023-10-03T07:24:52Z</time>
      </trkpt>
      <trkpt lat="46.66572" lon="5.59895">
        <ele>473</ele>
        <time>2023-10-03T07:24:55Z</time>
      </trkpt>
      <trkpt lat="46.66569" lon="5.59897">
        <ele>473</ele>
        <time>2023-10-03T07:24:57Z</time>
      </trkpt>
      <trkpt lat="46.66566" lon="5.59897">
        <ele>473</ele>
        <time>2023-10-03T07:25:00Z</time>
      </trkpt>
      <trkpt lat="46.66563" lon="5.59899">
        <ele>473</ele>
        <time>2023-10-03T07:25:04Z</time>
      </trkpt>
      <trkpt lat="46.66561" lon="5.59902">
        <ele>474</ele>
        <time>2023-10-03T07:25:07Z</time>
      </trkpt>
      <trkpt lat="46.66558" lon="5.59906">
        <ele>474</ele>
        <time>2023-10-03T07:25:10Z</time>
      </trkpt>
      <trkpt lat="46.66557" lon="5.5991">
        <ele>474</ele>
        <time>2023-10-03T07:25:13Z</time>
      </trkpt>
      <trkpt lat="46.66554" lon="5.59913">
        <ele>475</ele>
        <time>2023-10-03T07:25:17Z</time>
      </trkpt>
      <trkpt lat="46.66552" lon="5.59916">
        <ele>475</ele>
        <time>2023-10-03T07:25:22Z</time>
      </trkpt>
      <trkpt lat="46.6655" lon="5.59918">
        <ele>475</ele>
        <time>2023-10-03T07:25:25Z</time>
      </trkpt>
      <trkpt lat="46.66547" lon="5.59921">
        <ele>476</ele>
        <time>2023-10-03T07:25:28Z</time>
      </trkpt>
      <trkpt lat="46.66544" lon="5.59922">
        <ele>476</ele>
        <time>2023-10-03T07:25:31Z</time>
      </trkpt>
      <trkpt lat="46.66541" lon="5.59924">
        <ele>476</ele>
        <time>2023-10-03T07:25:34Z</time>
      </trkpt>
      <trkpt lat="46.66538" lon="5.59925">
        <ele>476</ele>
        <time>2023-10-03T07:25:37Z</time>
      </trkpt>
      <trkpt lat="46.66535" lon="5.59927">
        <ele>477</ele>
        <time>2023-10-03T07:25:40Z</time>
      </trkpt>
      <trkpt lat="46.66532" lon="5.59929">
        <ele>477</ele>
        <time>2023-10-03T07:25:44Z</time>
      </trkpt>
      <trkpt lat="46.66529" lon="5.5993">
        <ele>478</ele>
        <time>2023-10-03T07:25:49Z</time>
      </trkpt>
      <trkpt lat="46.66526" lon="5.59932">
        <ele>478</ele>
        <time>2023-10-03T07:25:52Z</time>
      </trkpt>
      <trkpt lat="46.66524" lon="5.59934">
        <ele>478</ele>
        <time>2023-10-03T07:25:55Z</time>
      </trkpt>
      <trkpt lat="46.66521" lon="5.59937">
        <ele>478</ele>
        <time>2023-10-03T07:25:58Z</time>
      </trkpt>
      <trkpt lat="46.6652" lon="5.59941">
        <ele>478</ele>
        <time>2023-10-03T07:26:01Z</time>
      </trkpt>
      <trkpt lat="46.66517" lon="5.59944">
        <ele>478</ele>
        <time>2023-10-03T07:26:05Z</time>
      </trkpt>
      <trkpt lat="46.66515" lon="5.59947">
        <ele>478</ele>
        <time>2023-10-03T07:26:08Z</time>
      </trkpt>
      <trkpt lat="46.66512" lon="5.5995">
        <ele>478</ele>
        <time>2023-10-03T07:26:11Z</time>
      </trkpt>
      <trkpt lat="46.6651" lon="5.59952">
        <ele>479</ele>
        <time>2023-10-03T07:26:14Z</time>
      </trkpt>
      <trkpt lat="46.66507" lon="5.59954">
        <ele>479</ele>
        <time>2023-10-03T07:26:18Z</time>
      </trkpt>
      <trkpt lat="46.66505" lon="5.59957">
        <ele>479</ele>
        <time>2023-10-03T07:26:23Z</time>
      </trkpt>
      <trkpt lat="46.66503" lon="5.59961">
        <ele>480</ele>
        <time>2023-10-03T07:26:27Z</time>
      </trkpt>
      <trkpt lat="46.665" lon="5.59964">
        <ele>480</ele>
        <time>2023-10-03T07:26:31Z</time>
      </trkpt>
      <trkpt lat="46.66498" lon="5.59966">
        <ele>481</ele>
        <time>2023-10-03T07:26:35Z</time>
      </trkpt>
      <trkpt lat="46.66495" lon="5.59969">
        <ele>481</ele>
        <time>2023-10-03T07:26:37Z</time>
      </trkpt>
      <trkpt lat="46.66493" lon="5.59972">
        <ele>481</ele>
        <time>2023-10-03T07:26:41Z</time>
      </trkpt>
      <trkpt lat="46.6649" lon="5.59974">
        <ele>481</ele>
        <time>2023-10-03T07:26:45Z</time>
      </trkpt>
      <trkpt lat="46.66487" lon="5.59976">
        <ele>481</ele>
        <time>2023-10-03T07:26:49Z</time>
      </trkpt>
      <trkpt lat="46.66484" lon="5.59978">
        <ele>481</ele>
        <time>2023-10-03T07:26:51Z</time>
      </trkpt>
      <trkpt lat="46.66481" lon="5.59978">
        <ele>481</ele>
        <time>2023-10-03T07:26:53Z</time>
      </trkpt>
      <trkpt lat="46.66478" lon="5.59977">
        <ele>481</ele>
        <time>2023-10-03T07:26:55Z</time>
      </trkpt>
      <trkpt lat="46.66475" lon="5.59976">
        <ele>481</ele>
        <time>2023-10-03T07:26:57Z</time>
      </trkpt>
      <trkpt lat="46.66472" lon="5.59977">
        <ele>482</ele>
        <time>2023-10-03T07:27:00Z</time>
      </trkpt>
      <trkpt lat="46.66469" lon="5.59978">
        <ele>482</ele>
        <time>2023-10-03T07:27:02Z</time>
      </trkpt>
      <trkpt lat="46.66466" lon="5.59979">
        <ele>482</ele>
        <time>2023-10-03T07:27:04Z</time>
      </trkpt>
      <trkpt lat="46.66463" lon="5.59981">
        <ele>482</ele>
        <time>2023-10-03T07:27:07Z</time>
      </trkpt>
      <trkpt lat="46.6646" lon="5.59984">
        <ele>482</ele>
        <time>2023-10-03T07:27:10Z</time>
      </trkpt>
      <trkpt lat="46.66458" lon="5.59988">
        <ele>482</ele>
        <time>2023-10-03T07:27:13Z</time>
      </trkpt>
      <trkpt lat="46.66457" lon="5.59992">
        <ele>482</ele>
        <time>2023-10-03T07:27:16Z</time>
      </trkpt>
      <trkpt lat="46.66455" lon="5.59996">
        <ele>483</ele>
        <time>2023-10-03T07:27:21Z</time>
      </trkpt>
      <trkpt lat="46.66453" lon="5.59999">
        <ele>484</ele>
        <time>2023-10-03T07:27:26Z</time>
      </trkpt>
      <trkpt lat="46.6645" lon="5.60002">
        <ele>484</ele>
        <time>2023-10-03T07:27:31Z</time>
      </trkpt>
      <trkpt lat="46.66447" lon="5.60004">
        <ele>485</ele>
        <time>2023-10-03T07:27:34Z</time>
      </trkpt>
      <trkpt lat="46.66444" lon="5.60005">
        <ele>485</ele>
        <time>2023-10-03T07:27:37Z</time>
      </trkpt>
      <trkpt lat="46.66441" lon="5.60007">
        <ele>485</ele>
        <time>2023-10-03T07:27:40Z</time>
      </trkpt>
      <trkpt lat="46.66437" lon="5.60009">
        <ele>485</ele>
        <time>2023-10-03T07:27:43Z</time>
      </trkpt>
      <trkpt lat="46.66434" lon="5.6001">
        <ele>486</ele>
        <time>2023-10-03T07:27:46Z</time>
      </trkpt>
      <trkpt lat="46.66432" lon="5.60013">
        <ele>486</ele>
        <time>2023-10-03T07:27:50Z</time>
      </trkpt>
      <trkpt lat="46.66429" lon="5.60015">
        <ele>486</ele>
        <time>2023-10-03T07:27:53Z</time>
      </trkpt>
      <trkpt lat="46.66427" lon="5.60016">
        <ele>487</ele>
        <time>2023-10-03T07:27:57Z</time>
      </trkpt>
      <trkpt lat="46.66423" lon="5.60017">
        <ele>487</ele>
        <time>2023-10-03T07:28:01Z</time>
      </trkpt>
      <trkpt lat="46.6642" lon="5.60018">
        <ele>487</ele>
        <time>2023-10-03T07:28:04Z</time>
      </trkpt>
      <trkpt lat="46.66417" lon="5.6002">
        <ele>488</ele>
        <time>2023-10-03T07:28:07Z</time>
      </trkpt>
      <trkpt lat="46.66414" lon="5.60022">
        <ele>488</ele>
        <time>2023-10-03T07:28:10Z</time>
      </trkpt>
      <trkpt lat="46.66411" lon="5.60024">
        <ele>488</ele>
        <time>2023-10-03T07:28:13Z</time>
      </trkpt>
      <trkpt lat="46.66408" lon="5.60024">
        <ele>488</ele>
        <time>2023-10-03T07:28:16Z</time>
      </trkpt>
      <trkpt lat="46.66405" lon="5.60025">
        <ele>488</ele>
        <time>2023-10-03T07:28:20Z</time>
      </trkpt>
      <trkpt lat="46.66402" lon="5.60028">
        <ele>488</ele>
        <time>2023-10-03T07:28:23Z</time>
      </trkpt>
      <trkpt lat="46.66399" lon="5.6003">
        <ele>488</ele>
        <time>2023-10-03T07:28:27Z</time>
      </trkpt>
      <trkpt lat="46.66396" lon="5.60033">
        <ele>489</ele>
        <time>2023-10-03T07:28:31Z</time>
      </trkpt>
      <trkpt lat="46.66393" lon="5.60035">
        <ele>490</ele>
        <time>2023-10-03T07:28:35Z</time>
      </trkpt>
      <trkpt lat="46.66391" lon="5.60037">
        <ele>491</ele>
        <time>2023-10-03T07:28:39Z</time>
      </trkpt>
      <trkpt lat="46.66388" lon="5.6004">
        <ele>491</ele>
        <time>2023-10-03T07:28:43Z</time>
      </trkpt>
      <trkpt lat="46.66386" lon="5.60043">
        <ele>491</ele>
        <time>2023-10-03T07:28:46Z</time>
      </trkpt>
      <trkpt lat="46.66384" lon="5.60045">
        <ele>491</ele>
        <time>2023-10-03T07:28:50Z</time>
      </trkpt>
      <trkpt lat="46.6638" lon="5.60046">
        <ele>491</ele>
        <time>2023-10-03T07:28:53Z</time>
      </trkpt>
      <trkpt lat="46.66377" lon="5.60048">
        <ele>492</ele>
        <time>2023-10-03T07:28:56Z</time>
      </trkpt>
      <trkpt lat="46.66374" lon="5.60049">
        <ele>492</ele>
        <time>2023-10-03T07:28:59Z</time>
      </trkpt>
      <trkpt lat="46.66371" lon="5.6005">
        <ele>492</ele>
        <time>2023-10-03T07:29:02Z</time>
      </trkpt>
      <trkpt lat="46.66368" lon="5.6005">
        <ele>492</ele>
        <time>2023-10-03T07:29:05Z</time>
      </trkpt>
      <trkpt lat="46.66364" lon="5.60049">
        <ele>493</ele>
        <time>2023-10-03T07:29:10Z</time>
      </trkpt>
      <trkpt lat="46.66361" lon="5.6005">
        <ele>493</ele>
        <time>2023-10-03T07:29:13Z</time>
      </trkpt>
      <trkpt lat="46.66358" lon="5.60051">
        <ele>493</ele>
        <time>2023-10-03T07:29:16Z</time>
      </trkpt>
      <trkpt lat="46.66356" lon="5.60053">
        <ele>493</ele>
        <time>2023-10-03T07:29:20Z</time>
      </trkpt>
      <trkpt lat="46.66353" lon="5.60055">
        <ele>494</ele>
        <time>2023-10-03T07:29:23Z</time>
      </trkpt>
      <trkpt lat="46.66351" lon="5.60056">
        <ele>494</ele>
        <time>2023-10-03T07:29:26Z</time>
      </trkpt>
      <trkpt lat="46.66348" lon="5.60055">
        <ele>495</ele>
        <time>2023-10-03T07:29:29Z</time>
      </trkpt>
      <trkpt lat="46.66344" lon="5.60055">
        <ele>495</ele>
        <time>2023-10-03T07:29:33Z</time>
      </trkpt>
      <trkpt lat="46.66341" lon="5.60055">
        <ele>495</ele>
        <time>2023-10-03T07:29:37Z</time>
      </trkpt>
      <trkpt lat="46.66338" lon="5.60056">
        <ele>496</ele>
        <time>2023-10-03T07:29:40Z</time>
      </trkpt>
      <trkpt lat="46.66335" lon="5.60056">
        <ele>496</ele>
        <time>2023-10-03T07:29:44Z</time>
      </trkpt>
      <trkpt lat="46.66332" lon="5.60059">
        <ele>497</ele>
        <time>2023-10-03T07:29:48Z</time>
      </trkpt>
      <trkpt lat="46.6633" lon="5.6006">
        <ele>497</ele>
        <time>2023-10-03T07:29:52Z</time>
      </trkpt>
      <trkpt lat="46.66326" lon="5.60062">
        <ele>498</ele>
        <time>2023-10-03T07:29:56Z</time>
      </trkpt>
      <trkpt lat="46.66324" lon="5.60064">
        <ele>498</ele>
        <time>2023-10-03T07:29:59Z</time>
      </trkpt>
      <trkpt lat="46.66322" lon="5.60067">
        <ele>498</ele>
        <time>2023-10-03T07:30:05Z</time>
      </trkpt>
      <trkpt lat="46.66318" lon="5.60068">
        <ele>499</ele>
        <time>2023-10-03T07:30:08Z</time>
      </trkpt>
      <trkpt lat="46.66315" lon="5.60069">
        <ele>499</ele>
        <time>2023-10-03T07:30:11Z</time>
      </trkpt>
      <trkpt lat="46.66312" lon="5.60071">
        <ele>499</ele>
        <time>2023-10-03T07:30:14Z</time>
      </trkpt>
      <trkpt lat="46.66309" lon="5.60073">
        <ele>500</ele>
        <time>2023-10-03T07:30:18Z</time>
      </trkpt>
      <trkpt lat="46.66307" lon="5.60076">
        <ele>500</ele>
        <time>2023-10-03T07:30:22Z</time>
      </trkpt>
      <trkpt lat="46.66305" lon="5.6008">
        <ele>501</ele>
        <time>2023-10-03T07:30:25Z</time>
      </trkpt>
      <trkpt lat="46.66302" lon="5.60084">
        <ele>501</ele>
        <time>2023-10-03T07:30:28Z</time>
      </trkpt>
      <trkpt lat="46.66301" lon="5.60088">
        <ele>501</ele>
        <time>2023-10-03T07:30:32Z</time>
      </trkpt>
      <trkpt lat="46.66299" lon="5.60091">
        <ele>502</ele>
        <time>2023-10-03T07:30:39Z</time>
      </trkpt>
      <trkpt lat="46.66297" lon="5.60094">
        <ele>502</ele>
        <time>2023-10-03T07:30:43Z</time>
      </trkpt>
      <trkpt lat="46.66295" lon="5.60096">
        <ele>503</ele>
        <time>2023-10-03T07:30:47Z</time>
      </trkpt>
      <trkpt lat="46.66292" lon="5.60097">
        <ele>503</ele>
        <time>2023-10-03T07:30:50Z</time>
      </trkpt>
      <trkpt lat="46.66289" lon="5.60099">
        <ele>503</ele>
        <time>2023-10-03T07:30:53Z</time>
      </trkpt>
      <trkpt lat="46.66287" lon="5.60101">
        <ele>504</ele>
        <time>2023-10-03T07:30:57Z</time>
      </trkpt>
      <trkpt lat="46.66285" lon="5.60104">
        <ele>505</ele>
        <time>2023-10-03T07:31:01Z</time>
      </trkpt>
      <trkpt lat="46.66283" lon="5.60107">
        <ele>505</ele>
        <time>2023-10-03T07:31:06Z</time>
      </trkpt>
      <trkpt lat="46.6628" lon="5.6011">
        <ele>506</ele>
        <time>2023-10-03T07:31:10Z</time>
      </trkpt>
      <trkpt lat="46.66277" lon="5.60112">
        <ele>506</ele>
        <time>2023-10-03T07:31:13Z</time>
      </trkpt>
      <trkpt lat="46.66274" lon="5.60112">
        <ele>506</ele>
        <time>2023-10-03T07:31:16Z</time>
      </trkpt>
      <trkpt lat="46.6627" lon="5.60111">
        <ele>507</ele>
        <time>2023-10-03T07:31:19Z</time>
      </trkpt>
      <trkpt lat="46.66267" lon="5.60109">
        <ele>507</ele>
        <time>2023-10-03T07:31:22Z</time>
      </trkpt>
      <trkpt lat="46.66264" lon="5.60108">
        <ele>508</ele>
        <time>2023-10-03T07:31:25Z</time>
      </trkpt>
      <trkpt lat="46.66262" lon="5.60109">
        <ele>508</ele>
        <time>2023-10-03T07:31:29Z</time>
      </trkpt>
      <trkpt lat="46.6626" lon="5.60111">
        <ele>508</ele>
        <time>2023-10-03T07:31:32Z</time>
      </trkpt>
      <trkpt lat="46.66257" lon="5.60113">
        <ele>508</ele>
        <time>2023-10-03T07:31:36Z</time>
      </trkpt>
      <trkpt lat="46.66254" lon="5.60115">
        <ele>509</ele>
        <time>2023-10-03T07:31:41Z</time>
      </trkpt>
      <trkpt lat="46.66251" lon="5.60118">
        <ele>509</ele>
        <time>2023-10-03T07:31:45Z</time>
      </trkpt>
      <trkpt lat="46.66248" lon="5.60119">
        <ele>510</ele>
        <time>2023-10-03T07:31:49Z</time>
      </trkpt>
      <trkpt lat="46.66245" lon="5.60121">
        <ele>510</ele>
        <time>2023-10-03T07:31:51Z</time>
      </trkpt>
      <trkpt lat="46.66242" lon="5.60121">
        <ele>510</ele>
        <time>2023-10-03T07:31:53Z</time>
      </trkpt>
      <trkpt lat="46.66239" lon="5.6012">
        <ele>510</ele>
        <time>2023-10-03T07:31:55Z</time>
      </trkpt>
      <trkpt lat="46.66236" lon="5.6012">
        <ele>511</ele>
        <time>2023-10-03T07:31:57Z</time>
      </trkpt>
      <trkpt lat="46.66233" lon="5.60121">
        <ele>511</ele>
        <time>2023-10-03T07:32:00Z</time>
      </trkpt>
      <trkpt lat="46.6623" lon="5.60121">
        <ele>512</ele>
        <time>2023-10-03T07:32:04Z</time>
      </trkpt>
      <trkpt lat="46.66227" lon="5.60121">
        <ele>512</ele>
        <time>2023-10-03T07:32:08Z</time>
      </trkpt>
      <trkpt lat="46.66224" lon="5.60123">
        <ele>513</ele>
        <time>2023-10-03T07:32:12Z</time>
      </trkpt>
      <trkpt lat="46.66222" lon="5.60125">
        <ele>513</ele>
        <time>2023-10-03T07:32:18Z</time>
      </trkpt>
      <trkpt lat="46.66219" lon="5.60127">
        <ele>513</ele>
        <time>2023-10-03T07:32:22Z</time>
      </trkpt>
      <trkpt lat="46.66216" lon="5.60127">
        <ele>514</ele>
        <time>2023-10-03T07:32:26Z</time>
      </trkpt>
      <trkpt lat="46.66213" lon="5.60127">
        <ele>514</ele>
        <time>2023-10-03T07:32:29Z</time>
      </trkpt>
      <trkpt lat="46.66209" lon="5.60126">
        <ele>514</ele>
        <time>2023-10-03T07:32:32Z</time>
      </trkpt>
      <trkpt lat="46.66206" lon="5.60126">
        <ele>514</ele>
        <time>2023-10-03T07:32:34Z</time>
      </trkpt>
      <trkpt lat="46.66204" lon="5.60127">
        <ele>514</ele>
        <time>2023-10-03T07:32:36Z</time>
      </trkpt>
      <trkpt lat="46.66201" lon="5.60128">
        <ele>515</ele>
        <time>2023-10-03T07:32:40Z</time>
      </trkpt>
      <trkpt lat="46.66198" lon="5.60129">
        <ele>515</ele>
        <time>2023-10-03T07:32:52Z</time>
      </trkpt>
      <trkpt lat="46.66195" lon="5.6013">
        <ele>516</ele>
        <time>2023-10-03T07:32:55Z</time>
      </trkpt>
      <trkpt lat="46.66192" lon="5.60131">
        <ele>516</ele>
        <time>2023-10-03T07:32:58Z</time>
      </trkpt>
      <trkpt lat="46.6619" lon="5.60131">
        <ele>516</ele>
        <time>2023-10-03T07:33:02Z</time>
      </trkpt>
      <trkpt lat="46.66187" lon="5.60133">
        <ele>517</ele>
        <time>2023-10-03T07:33:07Z</time>
      </trkpt>
      <trkpt lat="46.66184" lon="5.60135">
        <ele>517</ele>
        <time>2023-10-03T07:33:10Z</time>
      </trkpt>
      <trkpt lat="46.66181" lon="5.60136">
        <ele>518</ele>
        <time>2023-10-03T07:33:13Z</time>
      </trkpt>
      <trkpt lat="46.66179" lon="5.60139">
        <ele>519</ele>
        <time>2023-10-03T07:33:18Z</time>
      </trkpt>
      <trkpt lat="46.66176" lon="5.60141">
        <ele>519</ele>
        <time>2023-10-03T07:33:22Z</time>
      </trkpt>
      <trkpt lat="46.66174" lon="5.60145">
        <ele>519</ele>
        <time>2023-10-03T07:33:28Z</time>
      </trkpt>
      <trkpt lat="46.66176" lon="5.60147">
        <ele>519</ele>
        <time>2023-10-03T07:33:38Z</time>
      </trkpt>
      <trkpt lat="46.66176" lon="5.6015">
        <ele>518</ele>
        <time>2023-10-03T07:34:09Z</time>
      </trkpt>
      <trkpt lat="46.66177" lon="5.60148">
        <ele>518</ele>
        <time>2023-10-03T07:34:13Z</time>
      </trkpt>
      <trkpt lat="46.66179" lon="5.6015">
        <ele>518</ele>
        <time>2023-10-03T07:35:37Z</time>
      </trkpt>
      <trkpt lat="46.66178" lon="5.60147">
        <ele>517</ele>
        <time>2023-10-03T07:37:24Z</time>
      </trkpt>
      <trkpt lat="46.66176" lon="5.60145">
        <ele>516</ele>
        <time>2023-10-03T07:37:26Z</time>
      </trkpt>
      <trkpt lat="46.66173" lon="5.60142">
        <ele>516</ele>
        <time>2023-10-03T07:37:28Z</time>
      </trkpt>
      <trkpt lat="46.66171" lon="5.6014">
        <ele>516</ele>
        <time>2023-10-03T07:37:30Z</time>
      </trkpt>
      <trkpt lat="46.66168" lon="5.60139">
        <ele>516</ele>
        <time>2023-10-03T07:37:32Z</time>
      </trkpt>
      <trkpt lat="46.66165" lon="5.60138">
        <ele>515</ele>
        <time>2023-10-03T07:37:34Z</time>
      </trkpt>
      <trkpt lat="46.66162" lon="5.60137">
        <ele>515</ele>
        <time>2023-10-03T07:37:36Z</time>
      </trkpt>
      <trkpt lat="46.66159" lon="5.60136">
        <ele>515</ele>
        <time>2023-10-03T07:37:38Z</time>
      </trkpt>
      <trkpt lat="46.66156" lon="5.60135">
        <ele>515</ele>
        <time>2023-10-03T07:37:41Z</time>
      </trkpt>
      <trkpt lat="46.66153" lon="5.60134">
        <ele>515</ele>
        <time>2023-10-03T07:37:43Z</time>
      </trkpt>
      <trkpt lat="46.66151" lon="5.60133">
        <ele>514</ele>
        <time>2023-10-03T07:37:45Z</time>
      </trkpt>
      <trkpt lat="46.66147" lon="5.60132">
        <ele>514</ele>
        <time>2023-10-03T07:37:48Z</time>
      </trkpt>
      <trkpt lat="46.66144" lon="5.60131">
        <ele>514</ele>
        <time>2023-10-03T07:37:51Z</time>
      </trkpt>
      <trkpt lat="46.6614" lon="5.60131">
        <ele>514</ele>
        <time>2023-10-03T07:37:54Z</time>
      </trkpt>
      <trkpt lat="46.66137" lon="5.60131">
        <ele>513</ele>
        <time>2023-10-03T07:37:58Z</time>
      </trkpt>
      <trkpt lat="46.66134" lon="5.60131">
        <ele>513</ele>
        <time>2023-10-03T07:38:02Z</time>
      </trkpt>
      <trkpt lat="46.66131" lon="5.60132">
        <ele>513</ele>
        <time>2023-10-03T07:38:05Z</time>
      </trkpt>
      <trkpt lat="46.66128" lon="5.60133">
        <ele>513</ele>
        <time>2023-10-03T07:38:08Z</time>
      </trkpt>
      <trkpt lat="46.66126" lon="5.60134">
        <ele>513</ele>
        <time>2023-10-03T07:38:09Z</time>
      </trkpt>
      <trkpt lat="46.66123" lon="5.60134">
        <ele>513</ele>
        <time>2023-10-03T07:38:12Z</time>
      </trkpt>
      <trkpt lat="46.6612" lon="5.60133">
        <ele>513</ele>
        <time>2023-10-03T07:38:14Z</time>
      </trkpt>
      <trkpt lat="46.66117" lon="5.60133">
        <ele>512</ele>
        <time>2023-10-03T07:38:16Z</time>
      </trkpt>
      <trkpt lat="46.66114" lon="5.60132">
        <ele>512</ele>
        <time>2023-10-03T07:38:18Z</time>
      </trkpt>
      <trkpt lat="46.66111" lon="5.6013">
        <ele>512</ele>
        <time>2023-10-03T07:38:21Z</time>
      </trkpt>
      <trkpt lat="46.66107" lon="5.60129">
        <ele>512</ele>
        <time>2023-10-03T07:38:24Z</time>
      </trkpt>
      <trkpt lat="46.66104" lon="5.60129">
        <ele>511</ele>
        <time>2023-10-03T07:38:28Z</time>
      </trkpt>
      <trkpt lat="46.66101" lon="5.60129">
        <ele>510</ele>
        <time>2023-10-03T07:38:32Z</time>
      </trkpt>
      <trkpt lat="46.66098" lon="5.60129">
        <ele>509</ele>
        <time>2023-10-03T07:38:35Z</time>
      </trkpt>
      <trkpt lat="46.66095" lon="5.6013">
        <ele>509</ele>
        <time>2023-10-03T07:38:37Z</time>
      </trkpt>
      <trkpt lat="46.66092" lon="5.60131">
        <ele>508</ele>
        <time>2023-10-03T07:38:40Z</time>
      </trkpt>
      <trkpt lat="46.66089" lon="5.60133">
        <ele>508</ele>
        <time>2023-10-03T07:38:44Z</time>
      </trkpt>
      <trkpt lat="46.66086" lon="5.60135">
        <ele>508</ele>
        <time>2023-10-03T07:38:47Z</time>
      </trkpt>
      <trkpt lat="46.66083" lon="5.60138">
        <ele>508</ele>
        <time>2023-10-03T07:38:50Z</time>
      </trkpt>
      <trkpt lat="46.6608" lon="5.60139">
        <ele>507</ele>
        <time>2023-10-03T07:38:53Z</time>
      </trkpt>
      <trkpt lat="46.66077" lon="5.60141">
        <ele>506</ele>
        <time>2023-10-03T07:38:57Z</time>
      </trkpt>
      <trkpt lat="46.66074" lon="5.60142">
        <ele>506</ele>
        <time>2023-10-03T07:39:00Z</time>
      </trkpt>
      <trkpt lat="46.66071" lon="5.60143">
        <ele>505</ele>
        <time>2023-10-03T07:39:03Z</time>
      </trkpt>
      <trkpt lat="46.66068" lon="5.60144">
        <ele>504</ele>
        <time>2023-10-03T07:39:06Z</time>
      </trkpt>
      <trkpt lat="46.66065" lon="5.60145">
        <ele>503</ele>
        <time>2023-10-03T07:39:08Z</time>
      </trkpt>
      <trkpt lat="46.66061" lon="5.60146">
        <ele>502</ele>
        <time>2023-10-03T07:39:11Z</time>
      </trkpt>
      <trkpt lat="46.66058" lon="5.60147">
        <ele>502</ele>
        <time>2023-10-03T07:39:14Z</time>
      </trkpt>
      <trkpt lat="46.66055" lon="5.60148">
        <ele>501</ele>
        <time>2023-10-03T07:39:17Z</time>
      </trkpt>
      <trkpt lat="46.66052" lon="5.60147">
        <ele>501</ele>
        <time>2023-10-03T07:39:19Z</time>
      </trkpt>
      <trkpt lat="46.66049" lon="5.60148">
        <ele>501</ele>
        <time>2023-10-03T07:39:22Z</time>
      </trkpt>
      <trkpt lat="46.66046" lon="5.60149">
        <ele>501</ele>
        <time>2023-10-03T07:39:26Z</time>
      </trkpt>
      <trkpt lat="46.66043" lon="5.60151">
        <ele>501</ele>
        <time>2023-10-03T07:39:29Z</time>
      </trkpt>
      <trkpt lat="46.66041" lon="5.60153">
        <ele>501</ele>
        <time>2023-10-03T07:39:32Z</time>
      </trkpt>
      <trkpt lat="46.66038" lon="5.60155">
        <ele>501</ele>
        <time>2023-10-03T07:39:35Z</time>
      </trkpt>
      <trkpt lat="46.66035" lon="5.60158">
        <ele>500</ele>
        <time>2023-10-03T07:39:39Z</time>
      </trkpt>
      <trkpt lat="46.66032" lon="5.6016">
        <ele>499</ele>
        <time>2023-10-03T07:39:43Z</time>
      </trkpt>
      <trkpt lat="46.66029" lon="5.60163">
        <ele>499</ele>
        <time>2023-10-03T07:39:48Z</time>
      </trkpt>
      <trkpt lat="46.66027" lon="5.60166">
        <ele>498</ele>
        <time>2023-10-03T07:39:53Z</time>
      </trkpt>
      <trkpt lat="46.66024" lon="5.60169">
        <ele>498</ele>
        <time>2023-10-03T07:39:56Z</time>
      </trkpt>
      <trkpt lat="46.66022" lon="5.60173">
        <ele>498</ele>
        <time>2023-10-03T07:39:59Z</time>
      </trkpt>
      <trkpt lat="46.6602" lon="5.60176">
        <ele>498</ele>
        <time>2023-10-03T07:40:02Z</time>
      </trkpt>
      <trkpt lat="46.66017" lon="5.60179">
        <ele>497</ele>
        <time>2023-10-03T07:40:05Z</time>
      </trkpt>
      <trkpt lat="46.66014" lon="5.60182">
        <ele>497</ele>
        <time>2023-10-03T07:40:08Z</time>
      </trkpt>
      <trkpt lat="46.66011" lon="5.60185">
        <ele>497</ele>
        <time>2023-10-03T07:40:11Z</time>
      </trkpt>
      <trkpt lat="46.66008" lon="5.60187">
        <ele>497</ele>
        <time>2023-10-03T07:40:13Z</time>
      </trkpt>
      <trkpt lat="46.66005" lon="5.60187">
        <ele>497</ele>
        <time>2023-10-03T07:40:16Z</time>
      </trkpt>
      <trkpt lat="46.66002" lon="5.60187">
        <ele>497</ele>
        <time>2023-10-03T07:40:19Z</time>
      </trkpt>
      <trkpt lat="46.66001" lon="5.60183">
        <ele>497</ele>
        <time>2023-10-03T07:41:03Z</time>
      </trkpt>
      <trkpt lat="46.66003" lon="5.60184">
        <ele>495</ele>
        <time>2023-10-03T07:41:48Z</time>
      </trkpt>
      <trkpt lat="46.66002" lon="5.60184">
        <ele>496</ele>
        <time>2023-10-03T07:42:07Z</time>
      </trkpt>
      <trkpt lat="46.66" lon="5.60182">
        <ele>496</ele>
        <time>2023-10-03T07:42:09Z</time>
      </trkpt>
      <trkpt lat="46.65998" lon="5.60181">
        <ele>494</ele>
        <time>2023-10-03T07:42:19Z</time>
      </trkpt>
      <trkpt lat="46.65996" lon="5.60184">
        <ele>494</ele>
        <time>2023-10-03T07:42:22Z</time>
      </trkpt>
      <trkpt lat="46.65996" lon="5.60189">
        <ele>494</ele>
        <time>2023-10-03T07:42:24Z</time>
      </trkpt>
      <trkpt lat="46.65996" lon="5.60194">
        <ele>493</ele>
        <time>2023-10-03T07:42:26Z</time>
      </trkpt>
      <trkpt lat="46.65997" lon="5.60199">
        <ele>493</ele>
        <time>2023-10-03T07:42:29Z</time>
      </trkpt>
      <trkpt lat="46.65998" lon="5.60203">
        <ele>493</ele>
        <time>2023-10-03T07:42:32Z</time>
      </trkpt>
      <trkpt lat="46.65998" lon="5.60208">
        <ele>493</ele>
        <time>2023-10-03T07:42:35Z</time>
      </trkpt>
      <trkpt lat="46.65999" lon="5.60212">
        <ele>493</ele>
        <time>2023-10-03T07:42:37Z</time>
      </trkpt>
      <trkpt lat="46.65999" lon="5.60216">
        <ele>493</ele>
        <time>2023-10-03T07:42:39Z</time>
      </trkpt>
      <trkpt lat="46.66" lon="5.6022">
        <ele>493</ele>
        <time>2023-10-03T07:42:43Z</time>
      </trkpt>
      <trkpt lat="46.66" lon="5.60225">
        <ele>493</ele>
        <time>2023-10-03T07:42:46Z</time>
      </trkpt>
      <trkpt lat="46.65999" lon="5.6023">
        <ele>493</ele>
        <time>2023-10-03T07:42:48Z</time>
      </trkpt>
      <trkpt lat="46.65999" lon="5.60234">
        <ele>492</ele>
        <time>2023-10-03T07:42:50Z</time>
      </trkpt>
      <trkpt lat="46.65999" lon="5.60238">
        <ele>492</ele>
        <time>2023-10-03T07:42:53Z</time>
      </trkpt>
      <trkpt lat="46.65999" lon="5.60242">
        <ele>492</ele>
        <time>2023-10-03T07:42:55Z</time>
      </trkpt>
      <trkpt lat="46.66" lon="5.60247">
        <ele>492</ele>
        <time>2023-10-03T07:42:58Z</time>
      </trkpt>
      <trkpt lat="46.66" lon="5.60251">
        <ele>491</ele>
        <time>2023-10-03T07:43:01Z</time>
      </trkpt>
      <trkpt lat="46.65999" lon="5.60256">
        <ele>491</ele>
        <time>2023-10-03T07:43:04Z</time>
      </trkpt>
      <trkpt lat="46.65999" lon="5.6026">
        <ele>491</ele>
        <time>2023-10-03T07:43:07Z</time>
      </trkpt>
      <trkpt lat="46.65998" lon="5.60262">
        <ele>490</ele>
        <time>2023-10-03T07:43:11Z</time>
      </trkpt>
      <trkpt lat="46.65996" lon="5.6026">
        <ele>489</ele>
        <time>2023-10-03T07:43:14Z</time>
      </trkpt>
      <trkpt lat="46.65996" lon="5.60256">
        <ele>489</ele>
        <time>2023-10-03T07:43:18Z</time>
      </trkpt>
      <trkpt lat="46.65996" lon="5.60251">
        <ele>489</ele>
        <time>2023-10-03T07:43:21Z</time>
      </trkpt>
      <trkpt lat="46.65996" lon="5.60246">
        <ele>488</ele>
        <time>2023-10-03T07:43:24Z</time>
      </trkpt>
      <trkpt lat="46.65995" lon="5.60241">
        <ele>488</ele>
        <time>2023-10-03T07:43:27Z</time>
      </trkpt>
      <trkpt lat="46.65995" lon="5.60236">
        <ele>488</ele>
        <time>2023-10-03T07:43:31Z</time>
      </trkpt>
      <trkpt lat="46.65994" lon="5.60231">
        <ele>487</ele>
        <time>2023-10-03T07:43:35Z</time>
      </trkpt>
      <trkpt lat="46.65994" lon="5.60226">
        <ele>487</ele>
        <time>2023-10-03T07:43:39Z</time>
      </trkpt>
      <trkpt lat="46.65995" lon="5.60223">
        <ele>486</ele>
        <time>2023-10-03T07:43:45Z</time>
      </trkpt>
      <trkpt lat="46.65994" lon="5.6022">
        <ele>487</ele>
        <time>2023-10-03T07:43:48Z</time>
      </trkpt>
      <trkpt lat="46.65993" lon="5.60218">
        <ele>487</ele>
        <time>2023-10-03T07:43:50Z</time>
      </trkpt>
      <trkpt lat="46.65991" lon="5.60215">
        <ele>487</ele>
        <time>2023-10-03T07:43:56Z</time>
      </trkpt>
      <trkpt lat="46.6599" lon="5.60211">
        <ele>486</ele>
        <time>2023-10-03T07:43:59Z</time>
      </trkpt>
      <trkpt lat="46.65988" lon="5.60208">
        <ele>486</ele>
        <time>2023-10-03T07:44:02Z</time>
      </trkpt>
      <trkpt lat="46.65987" lon="5.60204">
        <ele>486</ele>
        <time>2023-10-03T07:44:05Z</time>
      </trkpt>
      <trkpt lat="46.65988" lon="5.60202">
        <ele>486</ele>
        <time>2023-10-03T07:44:10Z</time>
      </trkpt>
      <trkpt lat="46.65988" lon="5.60202">
        <ele>486</ele>
        <time>2023-10-03T07:44:15Z</time>
      </trkpt>
      <trkpt lat="46.65986" lon="5.60204">
        <ele>486</ele>
        <time>2023-10-03T07:44:19Z</time>
      </trkpt>
      <trkpt lat="46.65986" lon="5.60208">
        <ele>486</ele>
        <time>2023-10-03T07:44:41Z</time>
      </trkpt>
      <trkpt lat="46.65987" lon="5.60207">
        <ele>486</ele>
        <time>2023-10-03T07:44:47Z</time>
      </trkpt>
      <trkpt lat="46.65987" lon="5.60204">
        <ele>486</ele>
        <time>2023-10-03T07:44:50Z</time>
      </trkpt>
      <trkpt lat="46.65987" lon="5.602">
        <ele>486</ele>
        <time>2023-10-03T07:44:52Z</time>
      </trkpt>
      <trkpt lat="46.65988" lon="5.60196">
        <ele>486</ele>
        <time>2023-10-03T07:44:54Z</time>
      </trkpt>
      <trkpt lat="46.65988" lon="5.60191">
        <ele>486</ele>
        <time>2023-10-03T07:45:00Z</time>
      </trkpt>
      <trkpt lat="46.65987" lon="5.60187">
        <ele>486</ele>
        <time>2023-10-03T07:45:02Z</time>
      </trkpt>
      <trkpt lat="46.65987" lon="5.60183">
        <ele>486</ele>
        <time>2023-10-03T07:45:06Z</time>
      </trkpt>
      <trkpt lat="46.65986" lon="5.60178">
        <ele>487</ele>
        <time>2023-10-03T07:45:09Z</time>
      </trkpt>
      <trkpt lat="46.65987" lon="5.60174">
        <ele>487</ele>
        <time>2023-10-03T07:45:11Z</time>
      </trkpt>
      <trkpt lat="46.6599" lon="5.6017">
        <ele>487</ele>
        <time>2023-10-03T07:45:13Z</time>
      </trkpt>
      <trkpt lat="46.66001" lon="5.60185">
        <ele>487</ele>
        <time>2023-10-03T07:45:17Z</time>
      </trkpt>
      <trkpt lat="46.66005" lon="5.60192">
        <ele>487</ele>
        <time>2023-10-03T07:45:19Z</time>
      </trkpt>
      <trkpt lat="46.66009" lon="5.60196">
        <ele>487</ele>
        <time>2023-10-03T07:45:22Z</time>
      </trkpt>
      <trkpt lat="46.66011" lon="5.602">
        <ele>487</ele>
        <time>2023-10-03T07:45:26Z</time>
      </trkpt>
      <trkpt lat="46.66014" lon="5.60203">
        <ele>487</ele>
        <time>2023-10-03T07:45:29Z</time>
      </trkpt>
      <trkpt lat="46.66005" lon="5.60191">
        <ele>487</ele>
        <time>2023-10-03T07:45:36Z</time>
      </trkpt>
      <trkpt lat="46.66004" lon="5.60188">
        <ele>487</ele>
        <time>2023-10-03T07:45:39Z</time>
      </trkpt>
      <trkpt lat="46.66006" lon="5.60186">
        <ele>487</ele>
        <time>2023-10-03T07:45:41Z</time>
      </trkpt>
      <trkpt lat="46.66005" lon="5.60183">
        <ele>487</ele>
        <time>2023-10-03T07:45:47Z</time>
      </trkpt>
      <trkpt lat="46.66005" lon="5.60183">
        <ele>488</ele>
        <time>2023-10-03T07:45:54Z</time>
      </trkpt>
      <trkpt lat="46.66007" lon="5.60183">
        <ele>488</ele>
        <time>2023-10-03T07:45:55Z</time>
      </trkpt>
      <trkpt lat="46.66009" lon="5.60182">
        <ele>489</ele>
        <time>2023-10-03T07:46:02Z</time>
      </trkpt>
      <trkpt lat="46.66013" lon="5.60183">
        <ele>489</ele>
        <time>2023-10-03T07:46:03Z</time>
      </trkpt>
      <trkpt lat="46.66015" lon="5.60189">
        <ele>489</ele>
        <time>2023-10-03T07:46:05Z</time>
      </trkpt>
      <trkpt lat="46.66015" lon="5.60194">
        <ele>489</ele>
        <time>2023-10-03T07:46:06Z</time>
      </trkpt>
      <trkpt lat="46.66014" lon="5.602">
        <ele>489</ele>
        <time>2023-10-03T07:46:07Z</time>
      </trkpt>
      <trkpt lat="46.66012" lon="5.60204">
        <ele>489</ele>
        <time>2023-10-03T07:46:09Z</time>
      </trkpt>
      <trkpt lat="46.66008" lon="5.60205">
        <ele>489</ele>
        <time>2023-10-03T07:46:11Z</time>
      </trkpt>
      <trkpt lat="46.66004" lon="5.60204">
        <ele>489</ele>
        <time>2023-10-03T07:46:12Z</time>
      </trkpt>
      <trkpt lat="46.66002" lon="5.60202">
        <ele>489</ele>
        <time>2023-10-03T07:46:14Z</time>
      </trkpt>
      <trkpt lat="46.66" lon="5.602">
        <ele>489</ele>
        <time>2023-10-03T07:46:16Z</time>
      </trkpt>
      <trkpt lat="46.66001" lon="5.60202">
        <ele>489</ele>
        <time>2023-10-03T07:46:20Z</time>
      </trkpt>
      <trkpt lat="46.66002" lon="5.60201">
        <ele>489</ele>
        <time>2023-10-03T07:46:29Z</time>
      </trkpt>
      <trkpt lat="46.66004" lon="5.60197">
        <ele>489</ele>
        <time>2023-10-03T07:46:33Z</time>
      </trkpt>
      <trkpt lat="46.66004" lon="5.60198">
        <ele>489</ele>
        <time>2023-10-03T07:46:49Z</time>
      </trkpt>
      <trkpt lat="46.66002" lon="5.60201">
        <ele>489</ele>
        <time>2023-10-03T07:46:53Z</time>
      </trkpt>
      <trkpt lat="46.65999" lon="5.60202">
        <ele>489</ele>
        <time>2023-10-03T07:46:55Z</time>
      </trkpt>
      <trkpt lat="46.65996" lon="5.60204">
        <ele>489</ele>
        <time>2023-10-03T07:46:57Z</time>
      </trkpt>
      <trkpt lat="46.66004" lon="5.60202">
        <ele>488</ele>
        <time>2023-10-03T07:47:19Z</time>
      </trkpt>
      <trkpt lat="46.66005" lon="5.60202">
        <ele>489</ele>
        <time>2023-10-03T07:47:23Z</time>
      </trkpt>
      <trkpt lat="46.66003" lon="5.60206">
        <ele>489</ele>
        <time>2023-10-03T07:47:25Z</time>
      </trkpt>
      <trkpt lat="46.66" lon="5.60209">
        <ele>489</ele>
        <time>2023-10-03T07:47:26Z</time>
      </trkpt>
      <trkpt lat="46.65998" lon="5.60212">
        <ele>489</ele>
        <time>2023-10-03T07:47:27Z</time>
      </trkpt>
      <trkpt lat="46.65994" lon="5.60216">
        <ele>489</ele>
        <time>2023-10-03T07:47:29Z</time>
      </trkpt>
      <trkpt lat="46.65996" lon="5.60168">
        <ele>489</ele>
        <time>2023-10-03T07:47:45Z</time>
      </trkpt>
      <trkpt lat="46.65997" lon="5.60146">
        <ele>489</ele>
        <time>2023-10-03T07:47:46Z</time>
      </trkpt>
      <trkpt lat="46.65997" lon="5.60134">
        <ele>489</ele>
        <time>2023-10-03T07:47:47Z</time>
      </trkpt>
      <trkpt lat="46.65984" lon="5.60137">
        <ele>489</ele>
        <time>2023-10-03T07:47:56Z</time>
      </trkpt>
      <trkpt lat="46.65981" lon="5.60141">
        <ele>489</ele>
        <time>2023-10-03T07:47:58Z</time>
      </trkpt>
      <trkpt lat="46.65982" lon="5.60147">
        <ele>489</ele>
        <time>2023-10-03T07:48:00Z</time>
      </trkpt>
      <trkpt lat="46.6599" lon="5.60162">
        <ele>489</ele>
        <time>2023-10-03T07:48:01Z</time>
      </trkpt>
      <trkpt lat="46.65991" lon="5.60164">
        <ele>489</ele>
        <time>2023-10-03T07:48:02Z</time>
      </trkpt>
      <trkpt lat="46.6599" lon="5.60163">
        <ele>489</ele>
        <time>2023-10-03T07:48:03Z</time>
      </trkpt>
      <trkpt lat="46.65989" lon="5.60164">
        <ele>489</ele>
        <time>2023-10-03T07:48:16Z</time>
      </trkpt>
      <trkpt lat="46.6599" lon="5.60165">
        <ele>489</ele>
        <time>2023-10-03T07:48:20Z</time>
      </trkpt>
      <trkpt lat="46.65992" lon="5.60167">
        <ele>489</ele>
        <time>2023-10-03T07:48:21Z</time>
      </trkpt>
      <trkpt lat="46.65996" lon="5.60181">
        <ele>489</ele>
        <time>2023-10-03T07:48:28Z</time>
      </trkpt>
      <trkpt lat="46.65995" lon="5.60188">
        <ele>489</ele>
        <time>2023-10-03T07:48:33Z</time>
      </trkpt>
      <trkpt lat="46.65993" lon="5.60187">
        <ele>489</ele>
        <time>2023-10-03T07:48:39Z</time>
      </trkpt>
      <trkpt lat="46.6599" lon="5.60182">
        <ele>489</ele>
        <time>2023-10-03T07:48:41Z</time>
      </trkpt>
      <trkpt lat="46.65988" lon="5.60178">
        <ele>489</ele>
        <time>2023-10-03T07:48:42Z</time>
      </trkpt>
      <trkpt lat="46.65986" lon="5.60174">
        <ele>489</ele>
        <time>2023-10-03T07:48:43Z</time>
      </trkpt>
      <trkpt lat="46.65984" lon="5.60169">
        <ele>489</ele>
        <time>2023-10-03T07:48:45Z</time>
      </trkpt>
      <trkpt lat="46.65981" lon="5.60169">
        <ele>489</ele>
        <time>2023-10-03T07:48:49Z</time>
      </trkpt>
      <trkpt lat="46.65981" lon="5.60171">
        <ele>489</ele>
        <time>2023-10-03T07:48:52Z</time>
      </trkpt>
      <trkpt lat="46.65983" lon="5.60172">
        <ele>489</ele>
        <time>2023-10-03T07:48:54Z</time>
      </trkpt>
      <trkpt lat="46.65986" lon="5.60173">
        <ele>489</ele>
        <time>2023-10-03T07:48:57Z</time>
      </trkpt>
      <trkpt lat="46.65987" lon="5.60177">
        <ele>489</ele>
        <time>2023-10-03T07:49:02Z</time>
      </trkpt>
      <trkpt lat="46.65989" lon="5.60182">
        <ele>489</ele>
        <time>2023-10-03T07:49:04Z</time>
      </trkpt>
      <trkpt lat="46.65992" lon="5.60186">
        <ele>489</ele>
        <time>2023-10-03T07:49:07Z</time>
      </trkpt>
      <trkpt lat="46.65995" lon="5.60187">
        <ele>489</ele>
        <time>2023-10-03T07:49:13Z</time>
      </trkpt>
      <trkpt lat="46.65998" lon="5.60188">
        <ele>489</ele>
        <time>2023-10-03T07:49:15Z</time>
      </trkpt>
      <trkpt lat="46.66001" lon="5.60187">
        <ele>489</ele>
        <time>2023-10-03T07:49:18Z</time>
      </trkpt>
      <trkpt lat="46.66" lon="5.60186">
        <ele>489</ele>
        <time>2023-10-03T07:49:20Z</time>
      </trkpt>
      <trkpt lat="46.65998" lon="5.60184">
        <ele>489</ele>
        <time>2023-10-03T07:49:22Z</time>
      </trkpt>
      <trkpt lat="46.65998" lon="5.60186">
        <ele>489</ele>
        <time>2023-10-03T07:49:23Z</time>
      </trkpt>
      <trkpt lat="46.66" lon="5.6019">
        <ele>489</ele>
        <time>2023-10-03T07:49:28Z</time>
      </trkpt>
      <trkpt lat="46.66004" lon="5.60196">
        <ele>489</ele>
        <time>2023-10-03T07:49:33Z</time>
      </trkpt>
      <trkpt lat="46.66004" lon="5.60198">
        <ele>488</ele>
        <time>2023-10-03T07:49:56Z</time>
      </trkpt>
      <trkpt lat="46.66001" lon="5.60197">
        <ele>488</ele>
        <time>2023-10-03T07:49:59Z</time>
      </trkpt>
      <trkpt lat="46.65998" lon="5.60196">
        <ele>488</ele>
        <time>2023-10-03T07:50:03Z</time>
      </trkpt>
      <trkpt lat="46.65997" lon="5.60193">
        <ele>488</ele>
        <time>2023-10-03T07:50:06Z</time>
      </trkpt>
      <trkpt lat="46.65996" lon="5.60192">
        <ele>488</ele>
        <time>2023-10-03T07:51:28Z</time>
      </trkpt>
      <trkpt lat="46.65994" lon="5.60188">
        <ele>488</ele>
        <time>2023-10-03T07:51:48Z</time>
      </trkpt>
      <trkpt lat="46.65994" lon="5.60188">
        <ele>488</ele>
        <time>2023-10-03T07:52:40Z</time>
      </trkpt>
      <trkpt lat="46.65993" lon="5.60186">
        <ele>488</ele>
        <time>2023-10-03T07:52:47Z</time>
      </trkpt>
      <trkpt lat="46.65993" lon="5.60183">
        <ele>488</ele>
        <time>2023-10-03T07:52:50Z</time>
      </trkpt>
      <trkpt lat="46.65991" lon="5.60182">
        <ele>488</ele>
        <time>2023-10-03T07:52:59Z</time>
      </trkpt>
      <trkpt lat="46.65993" lon="5.60184">
        <ele>488</ele>
        <time>2023-10-03T07:53:13Z</time>
      </trkpt>
      <trkpt lat="46.65992" lon="5.60181">
        <ele>488</ele>
        <time>2023-10-03T07:53:15Z</time>
      </trkpt>
      <trkpt lat="46.6599" lon="5.60176">
        <ele>488</ele>
        <time>2023-10-03T07:53:17Z</time>
      </trkpt>
      <trkpt lat="46.65987" lon="5.60175">
        <ele>488</ele>
        <time>2023-10-03T07:53:25Z</time>
      </trkpt>
      <trkpt lat="46.65987" lon="5.60178">
        <ele>488</ele>
        <time>2023-10-03T07:53:31Z</time>
      </trkpt>
      <trkpt lat="46.65988" lon="5.60181">
        <ele>488</ele>
        <time>2023-10-03T07:53:34Z</time>
      </trkpt>
      <trkpt lat="46.65991" lon="5.60194">
        <ele>488</ele>
        <time>2023-10-03T07:53:42Z</time>
      </trkpt>
      <trkpt lat="46.65993" lon="5.60199">
        <ele>487</ele>
        <time>2023-10-03T07:53:52Z</time>
      </trkpt>
      <trkpt lat="46.65993" lon="5.60199">
        <ele>487</ele>
        <time>2023-10-03T07:54:07Z</time>
      </trkpt>
      <trkpt lat="46.65992" lon="5.60192">
        <ele>487</ele>
        <time>2023-10-03T07:54:19Z</time>
      </trkpt>
      <trkpt lat="46.65992" lon="5.60186">
        <ele>487</ele>
        <time>2023-10-03T07:54:21Z</time>
      </trkpt>
      <trkpt lat="46.65991" lon="5.60181">
        <ele>487</ele>
        <time>2023-10-03T07:54:27Z</time>
      </trkpt>
      <trkpt lat="46.6599" lon="5.60178">
        <ele>487</ele>
        <time>2023-10-03T07:54:30Z</time>
      </trkpt>
      <trkpt lat="46.6599" lon="5.60173">
        <ele>487</ele>
        <time>2023-10-03T07:54:32Z</time>
      </trkpt>
      <trkpt lat="46.65991" lon="5.60175">
        <ele>487</ele>
        <time>2023-10-03T07:55:54Z</time>
      </trkpt>
      <trkpt lat="46.65991" lon="5.60178">
        <ele>487</ele>
        <time>2023-10-03T07:55:55Z</time>
      </trkpt>
      <trkpt lat="46.65992" lon="5.60182">
        <ele>487</ele>
        <time>2023-10-03T07:55:56Z</time>
      </trkpt>
      <trkpt lat="46.65993" lon="5.60194">
        <ele>487</ele>
        <time>2023-10-03T07:56:00Z</time>
      </trkpt>
      <trkpt lat="46.65995" lon="5.60198">
        <ele>487</ele>
        <time>2023-10-03T07:56:02Z</time>
      </trkpt>
      <trkpt lat="46.65997" lon="5.60203">
        <ele>487</ele>
        <time>2023-10-03T07:56:04Z</time>
      </trkpt>
      <trkpt lat="46.66" lon="5.60208">
        <ele>487</ele>
        <time>2023-10-03T07:56:06Z</time>
      </trkpt>
      <trkpt lat="46.66002" lon="5.60212">
        <ele>487</ele>
        <time>2023-10-03T07:56:08Z</time>
      </trkpt>
      <trkpt lat="46.66005" lon="5.60214">
        <ele>487</ele>
        <time>2023-10-03T07:56:10Z</time>
      </trkpt>
      <trkpt lat="46.66008" lon="5.60213">
        <ele>487</ele>
        <time>2023-10-03T07:56:12Z</time>
      </trkpt>
      <trkpt lat="46.66006" lon="5.60194">
        <ele>487</ele>
        <time>2023-10-03T07:56:14Z</time>
      </trkpt>
      <trkpt lat="46.66005" lon="5.6019">
        <ele>487</ele>
        <time>2023-10-03T07:56:15Z</time>
      </trkpt>
      <trkpt lat="46.66006" lon="5.60191">
        <ele>487</ele>
        <time>2023-10-03T07:56:21Z</time>
      </trkpt>
      <trkpt lat="46.66005" lon="5.60196">
        <ele>487</ele>
        <time>2023-10-03T07:56:23Z</time>
      </trkpt>
      <trkpt lat="46.66006" lon="5.60203">
        <ele>487</ele>
        <time>2023-10-03T07:56:24Z</time>
      </trkpt>
      <trkpt lat="46.66007" lon="5.6021">
        <ele>487</ele>
        <time>2023-10-03T07:56:25Z</time>
      </trkpt>
      <trkpt lat="46.66008" lon="5.60217">
        <ele>487</ele>
        <time>2023-10-03T07:56:26Z</time>
      </trkpt>
      <trkpt lat="46.66009" lon="5.60222">
        <ele>487</ele>
        <time>2023-10-03T07:56:27Z</time>
      </trkpt>
      <trkpt lat="46.66009" lon="5.60227">
        <ele>487</ele>
        <time>2023-10-03T07:56:28Z</time>
      </trkpt>
      <trkpt lat="46.66009" lon="5.60232">
        <ele>487</ele>
        <time>2023-10-03T07:56:30Z</time>
      </trkpt>
      <trkpt lat="46.66001" lon="5.60212">
        <ele>486</ele>
        <time>2023-10-03T07:56:33Z</time>
      </trkpt>
      <trkpt lat="46.65998" lon="5.60204">
        <ele>486</ele>
        <time>2023-10-03T07:56:34Z</time>
      </trkpt>
      <trkpt lat="46.65996" lon="5.60195">
        <ele>486</ele>
        <time>2023-10-03T07:56:35Z</time>
      </trkpt>
      <trkpt lat="46.65995" lon="5.60192">
        <ele>486</ele>
        <time>2023-10-03T07:57:07Z</time>
      </trkpt>
      <trkpt lat="46.65994" lon="5.60187">
        <ele>487</ele>
        <time>2023-10-03T07:58:09Z</time>
      </trkpt>
      <trkpt lat="46.65993" lon="5.60185">
        <ele>487</ele>
        <time>2023-10-03T07:58:11Z</time>
      </trkpt>
      <trkpt lat="46.65995" lon="5.60186">
        <ele>486</ele>
        <time>2023-10-03T07:58:19Z</time>
      </trkpt>
      <trkpt lat="46.65997" lon="5.60186">
        <ele>483</ele>
        <time>2023-10-03T07:58:29Z</time>
      </trkpt>
      <trkpt lat="46.66001" lon="5.60185">
        <ele>483</ele>
        <time>2023-10-03T07:58:32Z</time>
      </trkpt>
      <trkpt lat="46.66004" lon="5.60184">
        <ele>483</ele>
        <time>2023-10-03T07:58:34Z</time>
      </trkpt>
      <trkpt lat="46.66008" lon="5.60184">
        <ele>483</ele>
        <time>2023-10-03T07:58:36Z</time>
      </trkpt>
      <trkpt lat="46.6601" lon="5.60186">
        <ele>483</ele>
        <time>2023-10-03T07:58:38Z</time>
      </trkpt>
      <trkpt lat="46.66" lon="5.60192">
        <ele>483</ele>
        <time>2023-10-03T07:58:40Z</time>
      </trkpt>
      <trkpt lat="46.65994" lon="5.60196">
        <ele>483</ele>
        <time>2023-10-03T07:58:46Z</time>
      </trkpt>
      <trkpt lat="46.65989" lon="5.60198">
        <ele>484</ele>
        <time>2023-10-03T07:58:48Z</time>
      </trkpt>
      <trkpt lat="46.65986" lon="5.60196">
        <ele>484</ele>
        <time>2023-10-03T07:58:50Z</time>
      </trkpt>
      <trkpt lat="46.65984" lon="5.60193">
        <ele>484</ele>
        <time>2023-10-03T07:58:54Z</time>
      </trkpt>
      <trkpt lat="46.65982" lon="5.60192">
        <ele>484</ele>
        <time>2023-10-03T07:58:56Z</time>
      </trkpt>
      <trkpt lat="46.65981" lon="5.60191">
        <ele>484</ele>
        <time>2023-10-03T07:58:57Z</time>
      </trkpt>
      <trkpt lat="46.65982" lon="5.60189">
        <ele>484</ele>
        <time>2023-10-03T07:58:59Z</time>
      </trkpt>
      <trkpt lat="46.65984" lon="5.60185">
        <ele>485</ele>
        <time>2023-10-03T07:59:01Z</time>
      </trkpt>
      <trkpt lat="46.65987" lon="5.60184">
        <ele>485</ele>
        <time>2023-10-03T07:59:05Z</time>
      </trkpt>
      <trkpt lat="46.6599" lon="5.60182">
        <ele>484</ele>
        <time>2023-10-03T07:59:10Z</time>
      </trkpt>
      <trkpt lat="46.65988" lon="5.60182">
        <ele>485</ele>
        <time>2023-10-03T07:59:12Z</time>
      </trkpt>
      <trkpt lat="46.65987" lon="5.60184">
        <ele>484</ele>
        <time>2023-10-03T07:59:18Z</time>
      </trkpt>
      <trkpt lat="46.65989" lon="5.60185">
        <ele>484</ele>
        <time>2023-10-03T07:59:25Z</time>
      </trkpt>
      <trkpt lat="46.6599" lon="5.60182">
        <ele>484</ele>
        <time>2023-10-03T07:59:31Z</time>
      </trkpt>
      <trkpt lat="46.6599" lon="5.60184">
        <ele>484</ele>
        <time>2023-10-03T08:00:00Z</time>
      </trkpt>
      <trkpt lat="46.6599" lon="5.60188">
        <ele>484</ele>
        <time>2023-10-03T08:00:04Z</time>
      </trkpt>
      <trkpt lat="46.65989" lon="5.60193">
        <ele>484</ele>
        <time>2023-10-03T08:00:06Z</time>
      </trkpt>
      <trkpt lat="46.65989" lon="5.60196">
        <ele>484</ele>
        <time>2023-10-03T08:00:08Z</time>
      </trkpt>
      <trkpt lat="46.65989" lon="5.602">
        <ele>484</ele>
        <time>2023-10-03T08:00:11Z</time>
      </trkpt>
      <trkpt lat="46.65988" lon="5.60204">
        <ele>484</ele>
        <time>2023-10-03T08:00:15Z</time>
      </trkpt>
      <trkpt lat="46.65988" lon="5.60209">
        <ele>484</ele>
        <time>2023-10-03T08:00:33Z</time>
      </trkpt>
      <trkpt lat="46.65989" lon="5.60214">
        <ele>483</ele>
        <time>2023-10-03T08:00:36Z</time>
      </trkpt>
      <trkpt lat="46.6599" lon="5.60219">
        <ele>483</ele>
        <time>2023-10-03T08:00:39Z</time>
      </trkpt>
      <trkpt lat="46.65991" lon="5.60224">
        <ele>483</ele>
        <time>2023-10-03T08:00:42Z</time>
      </trkpt>
      <trkpt lat="46.65992" lon="5.60228">
        <ele>483</ele>
        <time>2023-10-03T08:00:45Z</time>
      </trkpt>
      <trkpt lat="46.65992" lon="5.60232">
        <ele>483</ele>
        <time>2023-10-03T08:00:48Z</time>
      </trkpt>
      <trkpt lat="46.65994" lon="5.60236">
        <ele>482</ele>
        <time>2023-10-03T08:00:51Z</time>
      </trkpt>
      <trkpt lat="46.65994" lon="5.6024">
        <ele>481</ele>
        <time>2023-10-03T08:00:54Z</time>
      </trkpt>
      <trkpt lat="46.65996" lon="5.60244">
        <ele>481</ele>
        <time>2023-10-03T08:00:57Z</time>
      </trkpt>
      <trkpt lat="46.65998" lon="5.60248">
        <ele>481</ele>
        <time>2023-10-03T08:01:00Z</time>
      </trkpt>
      <trkpt lat="46.66" lon="5.60251">
        <ele>481</ele>
        <time>2023-10-03T08:01:03Z</time>
      </trkpt>
      <trkpt lat="46.65999" lon="5.60255">
        <ele>481</ele>
        <time>2023-10-03T08:01:09Z</time>
      </trkpt>
      <trkpt lat="46.65999" lon="5.60259">
        <ele>481</ele>
        <time>2023-10-03T08:01:12Z</time>
      </trkpt>
      <trkpt lat="46.65998" lon="5.60264">
        <ele>481</ele>
        <time>2023-10-03T08:01:15Z</time>
      </trkpt>
      <trkpt lat="46.65997" lon="5.60268">
        <ele>481</ele>
        <time>2023-10-03T08:01:18Z</time>
      </trkpt>
      <trkpt lat="46.65997" lon="5.60272">
        <ele>481</ele>
        <time>2023-10-03T08:01:21Z</time>
      </trkpt>
      <trkpt lat="46.65995" lon="5.60276">
        <ele>481</ele>
        <time>2023-10-03T08:01:24Z</time>
      </trkpt>
      <trkpt lat="46.65995" lon="5.60281">
        <ele>481</ele>
        <time>2023-10-03T08:01:26Z</time>
      </trkpt>
      <trkpt lat="46.65995" lon="5.60285">
        <ele>481</ele>
        <time>2023-10-03T08:01:29Z</time>
      </trkpt>
      <trkpt lat="46.65995" lon="5.60289">
        <ele>481</ele>
        <time>2023-10-03T08:01:32Z</time>
      </trkpt>
      <trkpt lat="46.65996" lon="5.60294">
        <ele>481</ele>
        <time>2023-10-03T08:01:35Z</time>
      </trkpt>
      <trkpt lat="46.65997" lon="5.60298">
        <ele>481</ele>
        <time>2023-10-03T08:01:37Z</time>
      </trkpt>
      <trkpt lat="46.65996" lon="5.60302">
        <ele>481</ele>
        <time>2023-10-03T08:01:40Z</time>
      </trkpt>
      <trkpt lat="46.65996" lon="5.60307">
        <ele>481</ele>
        <time>2023-10-03T08:01:43Z</time>
      </trkpt>
      <trkpt lat="46.65997" lon="5.60312">
        <ele>481</ele>
        <time>2023-10-03T08:01:47Z</time>
      </trkpt>
      <trkpt lat="46.65998" lon="5.60316">
        <ele>482</ele>
        <time>2023-10-03T08:01:50Z</time>
      </trkpt>
      <trkpt lat="46.66001" lon="5.60319">
        <ele>482</ele>
        <time>2023-10-03T08:01:53Z</time>
      </trkpt>
      <trkpt lat="46.66003" lon="5.60323">
        <ele>482</ele>
        <time>2023-10-03T08:01:56Z</time>
      </trkpt>
      <trkpt lat="46.66005" lon="5.60327">
        <ele>482</ele>
        <time>2023-10-03T08:02:00Z</time>
      </trkpt>
      <trkpt lat="46.66007" lon="5.60331">
        <ele>482</ele>
        <time>2023-10-03T08:02:03Z</time>
      </trkpt>
      <trkpt lat="46.66009" lon="5.60335">
        <ele>482</ele>
        <time>2023-10-03T08:02:06Z</time>
      </trkpt>
      <trkpt lat="46.6601" lon="5.60339">
        <ele>482</ele>
        <time>2023-10-03T08:02:09Z</time>
      </trkpt>
      <trkpt lat="46.66012" lon="5.60344">
        <ele>482</ele>
        <time>2023-10-03T08:02:12Z</time>
      </trkpt>
      <trkpt lat="46.66014" lon="5.60348">
        <ele>481</ele>
        <time>2023-10-03T08:02:16Z</time>
      </trkpt>
      <trkpt lat="46.66015" lon="5.60352">
        <ele>481</ele>
        <time>2023-10-03T08:02:19Z</time>
      </trkpt>
      <trkpt lat="46.66017" lon="5.60357">
        <ele>481</ele>
        <time>2023-10-03T08:02:23Z</time>
      </trkpt>
      <trkpt lat="46.66018" lon="5.6036">
        <ele>481</ele>
        <time>2023-10-03T08:02:26Z</time>
      </trkpt>
      <trkpt lat="46.6602" lon="5.60365">
        <ele>481</ele>
        <time>2023-10-03T08:02:29Z</time>
      </trkpt>
      <trkpt lat="46.66021" lon="5.60369">
        <ele>480</ele>
        <time>2023-10-03T08:02:31Z</time>
      </trkpt>
      <trkpt lat="46.66023" lon="5.60372">
        <ele>480</ele>
        <time>2023-10-03T08:02:33Z</time>
      </trkpt>
      <trkpt lat="46.66026" lon="5.60374">
        <ele>480</ele>
        <time>2023-10-03T08:02:36Z</time>
      </trkpt>
      <trkpt lat="46.66028" lon="5.60377">
        <ele>480</ele>
        <time>2023-10-03T08:02:39Z</time>
      </trkpt>
      <trkpt lat="46.6603" lon="5.6038">
        <ele>480</ele>
        <time>2023-10-03T08:02:42Z</time>
      </trkpt>
      <trkpt lat="46.66033" lon="5.60384">
        <ele>480</ele>
        <time>2023-10-03T08:02:45Z</time>
      </trkpt>
      <trkpt lat="46.66034" lon="5.60387">
        <ele>480</ele>
        <time>2023-10-03T08:02:47Z</time>
      </trkpt>
      <trkpt lat="46.66037" lon="5.6039">
        <ele>480</ele>
        <time>2023-10-03T08:02:50Z</time>
      </trkpt>
      <trkpt lat="46.66039" lon="5.60392">
        <ele>480</ele>
        <time>2023-10-03T08:02:53Z</time>
      </trkpt>
      <trkpt lat="46.66042" lon="5.60395">
        <ele>480</ele>
        <time>2023-10-03T08:02:57Z</time>
      </trkpt>
      <trkpt lat="46.66044" lon="5.60398">
        <ele>481</ele>
        <time>2023-10-03T08:03:00Z</time>
      </trkpt>
      <trkpt lat="46.66046" lon="5.60401">
        <ele>481</ele>
        <time>2023-10-03T08:03:03Z</time>
      </trkpt>
      <trkpt lat="46.66048" lon="5.60404">
        <ele>481</ele>
        <time>2023-10-03T08:03:05Z</time>
      </trkpt>
      <trkpt lat="46.66051" lon="5.60406">
        <ele>482</ele>
        <time>2023-10-03T08:03:09Z</time>
      </trkpt>
      <trkpt lat="46.66053" lon="5.60408">
        <ele>482</ele>
        <time>2023-10-03T08:03:12Z</time>
      </trkpt>
      <trkpt lat="46.66056" lon="5.6041">
        <ele>483</ele>
        <time>2023-10-03T08:03:15Z</time>
      </trkpt>
      <trkpt lat="46.66059" lon="5.60411">
        <ele>483</ele>
        <time>2023-10-03T08:03:18Z</time>
      </trkpt>
      <trkpt lat="46.66062" lon="5.60412">
        <ele>484</ele>
        <time>2023-10-03T08:03:20Z</time>
      </trkpt>
      <trkpt lat="46.66065" lon="5.60414">
        <ele>484</ele>
        <time>2023-10-03T08:03:23Z</time>
      </trkpt>
      <trkpt lat="46.66068" lon="5.60413">
        <ele>485</ele>
        <time>2023-10-03T08:03:28Z</time>
      </trkpt>
      <trkpt lat="46.66071" lon="5.60413">
        <ele>486</ele>
        <time>2023-10-03T08:03:32Z</time>
      </trkpt>
      <trkpt lat="46.66074" lon="5.60412">
        <ele>487</ele>
        <time>2023-10-03T08:03:37Z</time>
      </trkpt>
      <trkpt lat="46.66075" lon="5.60412">
        <ele>487</ele>
        <time>2023-10-03T08:03:38Z</time>
      </trkpt>
      <trkpt lat="46.66078" lon="5.60413">
        <ele>487</ele>
        <time>2023-10-03T08:03:42Z</time>
      </trkpt>
      <trkpt lat="46.66081" lon="5.60415">
        <ele>488</ele>
        <time>2023-10-03T08:03:44Z</time>
      </trkpt>
      <trkpt lat="46.66083" lon="5.60419">
        <ele>488</ele>
        <time>2023-10-03T08:03:47Z</time>
      </trkpt>
      <trkpt lat="46.66085" lon="5.60422">
        <ele>488</ele>
        <time>2023-10-03T08:03:50Z</time>
      </trkpt>
      <trkpt lat="46.66088" lon="5.60424">
        <ele>488</ele>
        <time>2023-10-03T08:03:54Z</time>
      </trkpt>
      <trkpt lat="46.66091" lon="5.60424">
        <ele>488</ele>
        <time>2023-10-03T08:03:57Z</time>
      </trkpt>
      <trkpt lat="46.66095" lon="5.60425">
        <ele>489</ele>
        <time>2023-10-03T08:03:59Z</time>
      </trkpt>
      <trkpt lat="46.66098" lon="5.60427">
        <ele>489</ele>
        <time>2023-10-03T08:04:01Z</time>
      </trkpt>
      <trkpt lat="46.661" lon="5.60431">
        <ele>489</ele>
        <time>2023-10-03T08:04:03Z</time>
      </trkpt>
      <trkpt lat="46.66102" lon="5.60434">
        <ele>489</ele>
        <time>2023-10-03T08:04:05Z</time>
      </trkpt>
      <trkpt lat="46.66104" lon="5.60437">
        <ele>489</ele>
        <time>2023-10-03T08:04:08Z</time>
      </trkpt>
      <trkpt lat="46.66107" lon="5.60439">
        <ele>489</ele>
        <time>2023-10-03T08:04:12Z</time>
      </trkpt>
      <trkpt lat="46.66109" lon="5.60442">
        <ele>489</ele>
        <time>2023-10-03T08:04:16Z</time>
      </trkpt>
      <trkpt lat="46.66111" lon="5.60445">
        <ele>489</ele>
        <time>2023-10-03T08:04:18Z</time>
      </trkpt>
      <trkpt lat="46.66113" lon="5.60449">
        <ele>489</ele>
        <time>2023-10-03T08:04:21Z</time>
      </trkpt>
      <trkpt lat="46.66115" lon="5.60453">
        <ele>489</ele>
        <time>2023-10-03T08:04:25Z</time>
      </trkpt>
      <trkpt lat="46.66117" lon="5.60455">
        <ele>488</ele>
        <time>2023-10-03T08:04:28Z</time>
      </trkpt>
      <trkpt lat="46.66119" lon="5.60457">
        <ele>487</ele>
        <time>2023-10-03T08:04:31Z</time>
      </trkpt>
      <trkpt lat="46.66122" lon="5.60459">
        <ele>486</ele>
        <time>2023-10-03T08:04:36Z</time>
      </trkpt>
      <trkpt lat="46.66125" lon="5.60461">
        <ele>486</ele>
        <time>2023-10-03T08:04:39Z</time>
      </trkpt>
      <trkpt lat="46.66128" lon="5.60462">
        <ele>486</ele>
        <time>2023-10-03T08:04:43Z</time>
      </trkpt>
      <trkpt lat="46.66131" lon="5.60464">
        <ele>486</ele>
        <time>2023-10-03T08:04:46Z</time>
      </trkpt>
      <trkpt lat="46.66133" lon="5.60467">
        <ele>486</ele>
        <time>2023-10-03T08:04:48Z</time>
      </trkpt>
      <trkpt lat="46.66134" lon="5.60471">
        <ele>486</ele>
        <time>2023-10-03T08:04:50Z</time>
      </trkpt>
      <trkpt lat="46.66136" lon="5.60475">
        <ele>486</ele>
        <time>2023-10-03T08:04:53Z</time>
      </trkpt>
      <trkpt lat="46.66138" lon="5.60478">
        <ele>486</ele>
        <time>2023-10-03T08:04:57Z</time>
      </trkpt>
      <trkpt lat="46.6614" lon="5.6048">
        <ele>486</ele>
        <time>2023-10-03T08:05:00Z</time>
      </trkpt>
      <trkpt lat="46.66143" lon="5.60482">
        <ele>486</ele>
        <time>2023-10-03T08:05:02Z</time>
      </trkpt>
      <trkpt lat="46.66145" lon="5.60484">
        <ele>486</ele>
        <time>2023-10-03T08:05:04Z</time>
      </trkpt>
      <trkpt lat="46.66148" lon="5.60486">
        <ele>486</ele>
        <time>2023-10-03T08:05:07Z</time>
      </trkpt>
      <trkpt lat="46.66151" lon="5.60488">
        <ele>486</ele>
        <time>2023-10-03T08:05:11Z</time>
      </trkpt>
      <trkpt lat="46.66153" lon="5.6049">
        <ele>486</ele>
        <time>2023-10-03T08:05:14Z</time>
      </trkpt>
      <trkpt lat="46.66156" lon="5.60492">
        <ele>486</ele>
        <time>2023-10-03T08:05:17Z</time>
      </trkpt>
      <trkpt lat="46.66159" lon="5.60495">
        <ele>486</ele>
        <time>2023-10-03T08:05:20Z</time>
      </trkpt>
      <trkpt lat="46.66161" lon="5.60498">
        <ele>486</ele>
        <time>2023-10-03T08:05:24Z</time>
      </trkpt>
      <trkpt lat="46.66163" lon="5.605">
        <ele>486</ele>
        <time>2023-10-03T08:05:27Z</time>
      </trkpt>
      <trkpt lat="46.66166" lon="5.60504">
        <ele>486</ele>
        <time>2023-10-03T08:05:30Z</time>
      </trkpt>
      <trkpt lat="46.66169" lon="5.60507">
        <ele>486</ele>
        <time>2023-10-03T08:05:34Z</time>
      </trkpt>
      <trkpt lat="46.6617" lon="5.6051">
        <ele>486</ele>
        <time>2023-10-03T08:05:37Z</time>
      </trkpt>
      <trkpt lat="46.66173" lon="5.60513">
        <ele>486</ele>
        <time>2023-10-03T08:05:40Z</time>
      </trkpt>
      <trkpt lat="46.66175" lon="5.60516">
        <ele>486</ele>
        <time>2023-10-03T08:05:44Z</time>
      </trkpt>
      <trkpt lat="46.66177" lon="5.60515">
        <ele>486</ele>
        <time>2023-10-03T08:05:50Z</time>
      </trkpt>
      <trkpt lat="46.6618" lon="5.60514">
        <ele>486</ele>
        <time>2023-10-03T08:05:54Z</time>
      </trkpt>
      <trkpt lat="46.66183" lon="5.60514">
        <ele>486</ele>
        <time>2023-10-03T08:05:56Z</time>
      </trkpt>
      <trkpt lat="46.66186" lon="5.60515">
        <ele>485</ele>
        <time>2023-10-03T08:06:01Z</time>
      </trkpt>
      <trkpt lat="46.66188" lon="5.60518">
        <ele>485</ele>
        <time>2023-10-03T08:06:04Z</time>
      </trkpt>
      <trkpt lat="46.66191" lon="5.60521">
        <ele>485</ele>
        <time>2023-10-03T08:06:11Z</time>
      </trkpt>
      <trkpt lat="46.66194" lon="5.60523">
        <ele>486</ele>
        <time>2023-10-03T08:06:16Z</time>
      </trkpt>
      <trkpt lat="46.66195" lon="5.60527">
        <ele>487</ele>
        <time>2023-10-03T08:06:20Z</time>
      </trkpt>
      <trkpt lat="46.66196" lon="5.60531">
        <ele>486</ele>
        <time>2023-10-03T08:06:23Z</time>
      </trkpt>
      <trkpt lat="46.66198" lon="5.60535">
        <ele>486</ele>
        <time>2023-10-03T08:06:26Z</time>
      </trkpt>
      <trkpt lat="46.662" lon="5.60539">
        <ele>486</ele>
        <time>2023-10-03T08:06:29Z</time>
      </trkpt>
      <trkpt lat="46.66202" lon="5.60541">
        <ele>486</ele>
        <time>2023-10-03T08:06:32Z</time>
      </trkpt>
      <trkpt lat="46.66205" lon="5.60542">
        <ele>486</ele>
        <time>2023-10-03T08:06:37Z</time>
      </trkpt>
      <trkpt lat="46.66208" lon="5.60541">
        <ele>487</ele>
        <time>2023-10-03T08:06:41Z</time>
      </trkpt>
      <trkpt lat="46.6621" lon="5.60539">
        <ele>488</ele>
        <time>2023-10-03T08:06:45Z</time>
      </trkpt>
      <trkpt lat="46.66212" lon="5.60536">
        <ele>489</ele>
        <time>2023-10-03T08:06:50Z</time>
      </trkpt>
      <trkpt lat="46.66212" lon="5.60534">
        <ele>490</ele>
        <time>2023-10-03T08:06:56Z</time>
      </trkpt>
      <trkpt lat="46.66212" lon="5.6053">
        <ele>490</ele>
        <time>2023-10-03T08:07:05Z</time>
      </trkpt>
      <trkpt lat="46.66214" lon="5.60527">
        <ele>490</ele>
        <time>2023-10-03T08:07:07Z</time>
      </trkpt>
      <trkpt lat="46.66216" lon="5.60524">
        <ele>491</ele>
        <time>2023-10-03T08:07:13Z</time>
      </trkpt>
      <trkpt lat="46.66218" lon="5.60521">
        <ele>493</ele>
        <time>2023-10-03T08:07:17Z</time>
      </trkpt>
      <trkpt lat="46.66221" lon="5.6052">
        <ele>493</ele>
        <time>2023-10-03T08:07:21Z</time>
      </trkpt>
      <trkpt lat="46.66223" lon="5.60519">
        <ele>494</ele>
        <time>2023-10-03T08:07:25Z</time>
      </trkpt>
      <trkpt lat="46.66226" lon="5.60521">
        <ele>495</ele>
        <time>2023-10-03T08:07:29Z</time>
      </trkpt>
      <trkpt lat="46.66228" lon="5.60523">
        <ele>495</ele>
        <time>2023-10-03T08:07:33Z</time>
      </trkpt>
      <trkpt lat="46.66231" lon="5.60526">
        <ele>495</ele>
        <time>2023-10-03T08:07:36Z</time>
      </trkpt>
      <trkpt lat="46.66234" lon="5.60528">
        <ele>495</ele>
        <time>2023-10-03T08:07:40Z</time>
      </trkpt>
      <trkpt lat="46.66237" lon="5.6053">
        <ele>495</ele>
        <time>2023-10-03T08:07:45Z</time>
      </trkpt>
      <trkpt lat="46.66239" lon="5.60532">
        <ele>495</ele>
        <time>2023-10-03T08:07:49Z</time>
      </trkpt>
      <trkpt lat="46.66242" lon="5.60533">
        <ele>495</ele>
        <time>2023-10-03T08:07:53Z</time>
      </trkpt>
      <trkpt lat="46.66244" lon="5.60536">
        <ele>495</ele>
        <time>2023-10-03T08:07:57Z</time>
      </trkpt>
      <trkpt lat="46.66246" lon="5.60539">
        <ele>495</ele>
        <time>2023-10-03T08:08:00Z</time>
      </trkpt>
      <trkpt lat="46.66248" lon="5.60542">
        <ele>495</ele>
        <time>2023-10-03T08:08:09Z</time>
      </trkpt>
      <trkpt lat="46.66251" lon="5.60545">
        <ele>494</ele>
        <time>2023-10-03T08:08:11Z</time>
      </trkpt>
      <trkpt lat="46.66253" lon="5.60549">
        <ele>494</ele>
        <time>2023-10-03T08:08:13Z</time>
      </trkpt>
      <trkpt lat="46.66256" lon="5.60552">
        <ele>494</ele>
        <time>2023-10-03T08:08:16Z</time>
      </trkpt>
      <trkpt lat="46.66259" lon="5.60554">
        <ele>494</ele>
        <time>2023-10-03T08:08:18Z</time>
      </trkpt>
      <trkpt lat="46.66262" lon="5.60555">
        <ele>494</ele>
        <time>2023-10-03T08:08:21Z</time>
      </trkpt>
      <trkpt lat="46.66266" lon="5.60557">
        <ele>494</ele>
        <time>2023-10-03T08:08:24Z</time>
      </trkpt>
      <trkpt lat="46.66268" lon="5.6056">
        <ele>493</ele>
        <time>2023-10-03T08:08:27Z</time>
      </trkpt>
      <trkpt lat="46.66271" lon="5.60562">
        <ele>493</ele>
        <time>2023-10-03T08:08:30Z</time>
      </trkpt>
      <trkpt lat="46.66274" lon="5.60562">
        <ele>493</ele>
        <time>2023-10-03T08:08:33Z</time>
      </trkpt>
      <trkpt lat="46.66277" lon="5.60563">
        <ele>493</ele>
        <time>2023-10-03T08:08:37Z</time>
      </trkpt>
      <trkpt lat="46.6628" lon="5.60564">
        <ele>493</ele>
        <time>2023-10-03T08:08:41Z</time>
      </trkpt>
      <trkpt lat="46.66283" lon="5.60564">
        <ele>493</ele>
        <time>2023-10-03T08:08:47Z</time>
      </trkpt>
      <trkpt lat="46.66287" lon="5.60565">
        <ele>493</ele>
        <time>2023-10-03T08:08:50Z</time>
      </trkpt>
      <trkpt lat="46.6629" lon="5.60566">
        <ele>494</ele>
        <time>2023-10-03T08:08:53Z</time>
      </trkpt>
      <trkpt lat="46.66293" lon="5.60569">
        <ele>494</ele>
        <time>2023-10-03T08:08:56Z</time>
      </trkpt>
      <trkpt lat="46.66296" lon="5.60572">
        <ele>494</ele>
        <time>2023-10-03T08:08:59Z</time>
      </trkpt>
      <trkpt lat="46.66299" lon="5.60573">
        <ele>494</ele>
        <time>2023-10-03T08:09:03Z</time>
      </trkpt>
      <trkpt lat="46.66302" lon="5.60574">
        <ele>494</ele>
        <time>2023-10-03T08:09:07Z</time>
      </trkpt>
      <trkpt lat="46.66305" lon="5.60576">
        <ele>494</ele>
        <time>2023-10-03T08:09:11Z</time>
      </trkpt>
      <trkpt lat="46.66307" lon="5.60579">
        <ele>494</ele>
        <time>2023-10-03T08:09:15Z</time>
      </trkpt>
      <trkpt lat="46.6631" lon="5.60581">
        <ele>493</ele>
        <time>2023-10-03T08:09:19Z</time>
      </trkpt>
      <trkpt lat="46.66313" lon="5.60583">
        <ele>493</ele>
        <time>2023-10-03T08:09:23Z</time>
      </trkpt>
      <trkpt lat="46.66316" lon="5.60583">
        <ele>493</ele>
        <time>2023-10-03T08:09:27Z</time>
      </trkpt>
      <trkpt lat="46.66319" lon="5.60586">
        <ele>493</ele>
        <time>2023-10-03T08:09:31Z</time>
      </trkpt>
      <trkpt lat="46.66321" lon="5.60589">
        <ele>493</ele>
        <time>2023-10-03T08:09:34Z</time>
      </trkpt>
      <trkpt lat="46.66324" lon="5.60592">
        <ele>493</ele>
        <time>2023-10-03T08:09:38Z</time>
      </trkpt>
      <trkpt lat="46.66327" lon="5.60595">
        <ele>493</ele>
        <time>2023-10-03T08:09:42Z</time>
      </trkpt>
      <trkpt lat="46.6633" lon="5.60597">
        <ele>493</ele>
        <time>2023-10-03T08:09:45Z</time>
      </trkpt>
      <trkpt lat="46.66332" lon="5.60599">
        <ele>493</ele>
        <time>2023-10-03T08:09:48Z</time>
      </trkpt>
      <trkpt lat="46.66335" lon="5.60599">
        <ele>494</ele>
        <time>2023-10-03T08:09:53Z</time>
      </trkpt>
      <trkpt lat="46.66338" lon="5.606">
        <ele>494</ele>
        <time>2023-10-03T08:09:56Z</time>
      </trkpt>
      <trkpt lat="46.6634" lon="5.60603">
        <ele>494</ele>
        <time>2023-10-03T08:10:00Z</time>
      </trkpt>
      <trkpt lat="46.66343" lon="5.60605">
        <ele>494</ele>
        <time>2023-10-03T08:10:02Z</time>
      </trkpt>
      <trkpt lat="46.66346" lon="5.60607">
        <ele>494</ele>
        <time>2023-10-03T08:10:05Z</time>
      </trkpt>
      <trkpt lat="46.66349" lon="5.60609">
        <ele>494</ele>
        <time>2023-10-03T08:10:08Z</time>
      </trkpt>
      <trkpt lat="46.66351" lon="5.60608">
        <ele>495</ele>
        <time>2023-10-03T08:10:14Z</time>
      </trkpt>
      <trkpt lat="46.66351" lon="5.6061">
        <ele>495</ele>
        <time>2023-10-03T08:10:25Z</time>
      </trkpt>
      <trkpt lat="46.66352" lon="5.60613">
        <ele>494</ele>
        <time>2023-10-03T08:10:29Z</time>
      </trkpt>
      <trkpt lat="46.66354" lon="5.60616">
        <ele>494</ele>
        <time>2023-10-03T08:10:32Z</time>
      </trkpt>
      <trkpt lat="46.66357" lon="5.60618">
        <ele>494</ele>
        <time>2023-10-03T08:10:35Z</time>
      </trkpt>
      <trkpt lat="46.6636" lon="5.60619">
        <ele>494</ele>
        <time>2023-10-03T08:10:38Z</time>
      </trkpt>
      <trkpt lat="46.66362" lon="5.6062">
        <ele>494</ele>
        <time>2023-10-03T08:10:41Z</time>
      </trkpt>
      <trkpt lat="46.66365" lon="5.60623">
        <ele>494</ele>
        <time>2023-10-03T08:10:44Z</time>
      </trkpt>
      <trkpt lat="46.66368" lon="5.60625">
        <ele>494</ele>
        <time>2023-10-03T08:10:46Z</time>
      </trkpt>
      <trkpt lat="46.66371" lon="5.60627">
        <ele>495</ele>
        <time>2023-10-03T08:10:49Z</time>
      </trkpt>
      <trkpt lat="46.66374" lon="5.6063">
        <ele>494</ele>
        <time>2023-10-03T08:10:53Z</time>
      </trkpt>
      <trkpt lat="46.66376" lon="5.60633">
        <ele>494</ele>
        <time>2023-10-03T08:10:58Z</time>
      </trkpt>
      <trkpt lat="46.66379" lon="5.60637">
        <ele>494</ele>
        <time>2023-10-03T08:11:01Z</time>
      </trkpt>
      <trkpt lat="46.66381" lon="5.60641">
        <ele>494</ele>
        <time>2023-10-03T08:11:03Z</time>
      </trkpt>
      <trkpt lat="46.66383" lon="5.60644">
        <ele>494</ele>
        <time>2023-10-03T08:11:06Z</time>
      </trkpt>
      <trkpt lat="46.66384" lon="5.60648">
        <ele>494</ele>
        <time>2023-10-03T08:11:12Z</time>
      </trkpt>
      <trkpt lat="46.66386" lon="5.60652">
        <ele>494</ele>
        <time>2023-10-03T08:11:16Z</time>
      </trkpt>
      <trkpt lat="46.66389" lon="5.60655">
        <ele>494</ele>
        <time>2023-10-03T08:11:21Z</time>
      </trkpt>
      <trkpt lat="46.66392" lon="5.60658">
        <ele>494</ele>
        <time>2023-10-03T08:11:24Z</time>
      </trkpt>
      <trkpt lat="46.66394" lon="5.60662">
        <ele>494</ele>
        <time>2023-10-03T08:11:27Z</time>
      </trkpt>
      <trkpt lat="46.66396" lon="5.60662">
        <ele>494</ele>
        <time>2023-10-03T08:11:29Z</time>
      </trkpt>
      <trkpt lat="46.66399" lon="5.60662">
        <ele>494</ele>
        <time>2023-10-03T08:11:33Z</time>
      </trkpt>
      <trkpt lat="46.664" lon="5.60665">
        <ele>494</ele>
        <time>2023-10-03T08:11:37Z</time>
      </trkpt>
      <trkpt lat="46.664" lon="5.60669">
        <ele>494</ele>
        <time>2023-10-03T08:11:39Z</time>
      </trkpt>
      <trkpt lat="46.66402" lon="5.60672">
        <ele>493</ele>
        <time>2023-10-03T08:11:45Z</time>
      </trkpt>
      <trkpt lat="46.66402" lon="5.60675">
        <ele>493</ele>
        <time>2023-10-03T08:11:51Z</time>
      </trkpt>
      <trkpt lat="46.66403" lon="5.60679">
        <ele>494</ele>
        <time>2023-10-03T08:11:54Z</time>
      </trkpt>
      <trkpt lat="46.66404" lon="5.60683">
        <ele>494</ele>
        <time>2023-10-03T08:11:56Z</time>
      </trkpt>
      <trkpt lat="46.66406" lon="5.60686">
        <ele>493</ele>
        <time>2023-10-03T08:11:58Z</time>
      </trkpt>
      <trkpt lat="46.66408" lon="5.60689">
        <ele>493</ele>
        <time>2023-10-03T08:12:01Z</time>
      </trkpt>
      <trkpt lat="46.66411" lon="5.60692">
        <ele>493</ele>
        <time>2023-10-03T08:12:06Z</time>
      </trkpt>
      <trkpt lat="46.66413" lon="5.60695">
        <ele>493</ele>
        <time>2023-10-03T08:12:09Z</time>
      </trkpt>
      <trkpt lat="46.66415" lon="5.60698">
        <ele>494</ele>
        <time>2023-10-03T08:12:13Z</time>
      </trkpt>
      <trkpt lat="46.66417" lon="5.60702">
        <ele>494</ele>
        <time>2023-10-03T08:12:16Z</time>
      </trkpt>
      <trkpt lat="46.66418" lon="5.60707">
        <ele>494</ele>
        <time>2023-10-03T08:12:18Z</time>
      </trkpt>
      <trkpt lat="46.66419" lon="5.60712">
        <ele>494</ele>
        <time>2023-10-03T08:12:22Z</time>
      </trkpt>
      <trkpt lat="46.66418" lon="5.60716">
        <ele>494</ele>
        <time>2023-10-03T08:12:26Z</time>
      </trkpt>
      <trkpt lat="46.66418" lon="5.6072">
        <ele>493</ele>
        <time>2023-10-03T08:12:33Z</time>
      </trkpt>
      <trkpt lat="46.66419" lon="5.60725">
        <ele>492</ele>
        <time>2023-10-03T08:12:38Z</time>
      </trkpt>
      <trkpt lat="46.66419" lon="5.60729">
        <ele>493</ele>
        <time>2023-10-03T08:12:41Z</time>
      </trkpt>
      <trkpt lat="46.6642" lon="5.60733">
        <ele>493</ele>
        <time>2023-10-03T08:12:46Z</time>
      </trkpt>
      <trkpt lat="46.66422" lon="5.60737">
        <ele>493</ele>
        <time>2023-10-03T08:12:50Z</time>
      </trkpt>
      <trkpt lat="46.66424" lon="5.6074">
        <ele>493</ele>
        <time>2023-10-03T08:12:54Z</time>
      </trkpt>
      <trkpt lat="46.66426" lon="5.60743">
        <ele>494</ele>
        <time>2023-10-03T08:12:58Z</time>
      </trkpt>
      <trkpt lat="46.66426" lon="5.60746">
        <ele>494</ele>
        <time>2023-10-03T08:13:01Z</time>
      </trkpt>
      <trkpt lat="46.66425" lon="5.6075">
        <ele>494</ele>
        <time>2023-10-03T08:13:03Z</time>
      </trkpt>
      <trkpt lat="46.66426" lon="5.60753">
        <ele>493</ele>
        <time>2023-10-03T08:13:17Z</time>
      </trkpt>
      <trkpt lat="46.66427" lon="5.60757">
        <ele>493</ele>
        <time>2023-10-03T08:13:20Z</time>
      </trkpt>
      <trkpt lat="46.66427" lon="5.60762">
        <ele>492</ele>
        <time>2023-10-03T08:13:26Z</time>
      </trkpt>
      <trkpt lat="46.66427" lon="5.60767">
        <ele>491</ele>
        <time>2023-10-03T08:13:30Z</time>
      </trkpt>
      <trkpt lat="46.66427" lon="5.60771">
        <ele>491</ele>
        <time>2023-10-03T08:13:33Z</time>
      </trkpt>
      <trkpt lat="46.66428" lon="5.60776">
        <ele>490</ele>
        <time>2023-10-03T08:13:36Z</time>
      </trkpt>
      <trkpt lat="46.66429" lon="5.6078">
        <ele>490</ele>
        <time>2023-10-03T08:13:39Z</time>
      </trkpt>
      <trkpt lat="46.66429" lon="5.60784">
        <ele>490</ele>
        <time>2023-10-03T08:13:42Z</time>
      </trkpt>
      <trkpt lat="46.66427" lon="5.6079">
        <ele>490</ele>
        <time>2023-10-03T08:13:47Z</time>
      </trkpt>
      <trkpt lat="46.66426" lon="5.60794">
        <ele>490</ele>
        <time>2023-10-03T08:13:51Z</time>
      </trkpt>
      <trkpt lat="46.66425" lon="5.60799">
        <ele>489</ele>
        <time>2023-10-03T08:13:54Z</time>
      </trkpt>
      <trkpt lat="46.66425" lon="5.60803">
        <ele>489</ele>
        <time>2023-10-03T08:13:58Z</time>
      </trkpt>
      <trkpt lat="46.66426" lon="5.60808">
        <ele>489</ele>
        <time>2023-10-03T08:14:01Z</time>
      </trkpt>
      <trkpt lat="46.66427" lon="5.60812">
        <ele>489</ele>
        <time>2023-10-03T08:14:04Z</time>
      </trkpt>
      <trkpt lat="46.6643" lon="5.60814">
        <ele>490</ele>
        <time>2023-10-03T08:14:08Z</time>
      </trkpt>
      <trkpt lat="46.66432" lon="5.60816">
        <ele>490</ele>
        <time>2023-10-03T08:14:11Z</time>
      </trkpt>
      <trkpt lat="46.66435" lon="5.60818">
        <ele>491</ele>
        <time>2023-10-03T08:14:15Z</time>
      </trkpt>
      <trkpt lat="46.66437" lon="5.60822">
        <ele>491</ele>
        <time>2023-10-03T08:14:18Z</time>
      </trkpt>
      <trkpt lat="46.6644" lon="5.60825">
        <ele>492</ele>
        <time>2023-10-03T08:14:21Z</time>
      </trkpt>
      <trkpt lat="46.66442" lon="5.60829">
        <ele>491</ele>
        <time>2023-10-03T08:14:24Z</time>
      </trkpt>
      <trkpt lat="46.66443" lon="5.60832">
        <ele>491</ele>
        <time>2023-10-03T08:14:30Z</time>
      </trkpt>
      <trkpt lat="46.66446" lon="5.60835">
        <ele>491</ele>
        <time>2023-10-03T08:14:35Z</time>
      </trkpt>
      <trkpt lat="46.66447" lon="5.60839">
        <ele>491</ele>
        <time>2023-10-03T08:14:38Z</time>
      </trkpt>
      <trkpt lat="46.66449" lon="5.60844">
        <ele>491</ele>
        <time>2023-10-03T08:14:41Z</time>
      </trkpt>
      <trkpt lat="46.66451" lon="5.60848">
        <ele>491</ele>
        <time>2023-10-03T08:14:44Z</time>
      </trkpt>
      <trkpt lat="46.66453" lon="5.60854">
        <ele>491</ele>
        <time>2023-10-03T08:14:47Z</time>
      </trkpt>
      <trkpt lat="46.66454" lon="5.60858">
        <ele>491</ele>
        <time>2023-10-03T08:14:49Z</time>
      </trkpt>
      <trkpt lat="46.66454" lon="5.60863">
        <ele>490</ele>
        <time>2023-10-03T08:14:52Z</time>
      </trkpt>
      <trkpt lat="46.66455" lon="5.60867">
        <ele>490</ele>
        <time>2023-10-03T08:14:54Z</time>
      </trkpt>
      <trkpt lat="46.66455" lon="5.60871">
        <ele>490</ele>
        <time>2023-10-03T08:14:57Z</time>
      </trkpt>
      <trkpt lat="46.66455" lon="5.60876">
        <ele>490</ele>
        <time>2023-10-03T08:15:00Z</time>
      </trkpt>
      <trkpt lat="46.66455" lon="5.60881">
        <ele>489</ele>
        <time>2023-10-03T08:15:04Z</time>
      </trkpt>
      <trkpt lat="46.66456" lon="5.60885">
        <ele>489</ele>
        <time>2023-10-03T08:15:09Z</time>
      </trkpt>
      <trkpt lat="46.66458" lon="5.60888">
        <ele>490</ele>
        <time>2023-10-03T08:15:14Z</time>
      </trkpt>
      <trkpt lat="46.6646" lon="5.6089">
        <ele>490</ele>
        <time>2023-10-03T08:15:17Z</time>
      </trkpt>
      <trkpt lat="46.66463" lon="5.60893">
        <ele>491</ele>
        <time>2023-10-03T08:15:21Z</time>
      </trkpt>
      <trkpt lat="46.66465" lon="5.60895">
        <ele>491</ele>
        <time>2023-10-03T08:15:26Z</time>
      </trkpt>
      <trkpt lat="46.66466" lon="5.60898">
        <ele>491</ele>
        <time>2023-10-03T08:15:29Z</time>
      </trkpt>
      <trkpt lat="46.66468" lon="5.60902">
        <ele>491</ele>
        <time>2023-10-03T08:15:34Z</time>
      </trkpt>
      <trkpt lat="46.6647" lon="5.60904">
        <ele>491</ele>
        <time>2023-10-03T08:15:36Z</time>
      </trkpt>
      <trkpt lat="46.66473" lon="5.60904">
        <ele>491</ele>
        <time>2023-10-03T08:15:38Z</time>
      </trkpt>
      <trkpt lat="46.66474" lon="5.60907">
        <ele>491</ele>
        <time>2023-10-03T08:15:42Z</time>
      </trkpt>
      <trkpt lat="46.66474" lon="5.60911">
        <ele>490</ele>
        <time>2023-10-03T08:15:46Z</time>
      </trkpt>
      <trkpt lat="46.66473" lon="5.60915">
        <ele>490</ele>
        <time>2023-10-03T08:15:51Z</time>
      </trkpt>
      <trkpt lat="46.66475" lon="5.60918">
        <ele>489</ele>
        <time>2023-10-03T08:15:55Z</time>
      </trkpt>
      <trkpt lat="46.66477" lon="5.6092">
        <ele>489</ele>
        <time>2023-10-03T08:15:58Z</time>
      </trkpt>
      <trkpt lat="46.66478" lon="5.60924">
        <ele>489</ele>
        <time>2023-10-03T08:16:02Z</time>
      </trkpt>
      <trkpt lat="46.66478" lon="5.60929">
        <ele>489</ele>
        <time>2023-10-03T08:16:05Z</time>
      </trkpt>
      <trkpt lat="46.66478" lon="5.60933">
        <ele>488</ele>
        <time>2023-10-03T08:16:08Z</time>
      </trkpt>
      <trkpt lat="46.66479" lon="5.60937">
        <ele>488</ele>
        <time>2023-10-03T08:16:11Z</time>
      </trkpt>
      <trkpt lat="46.6648" lon="5.60941">
        <ele>488</ele>
        <time>2023-10-03T08:16:15Z</time>
      </trkpt>
      <trkpt lat="46.66481" lon="5.60945">
        <ele>489</ele>
        <time>2023-10-03T08:16:21Z</time>
      </trkpt>
      <trkpt lat="46.66481" lon="5.60949">
        <ele>490</ele>
        <time>2023-10-03T08:16:30Z</time>
      </trkpt>
      <trkpt lat="46.66481" lon="5.60953">
        <ele>490</ele>
        <time>2023-10-03T08:16:34Z</time>
      </trkpt>
      <trkpt lat="46.66483" lon="5.60957">
        <ele>490</ele>
        <time>2023-10-03T08:16:37Z</time>
      </trkpt>
      <trkpt lat="46.66484" lon="5.60961">
        <ele>489</ele>
        <time>2023-10-03T08:16:40Z</time>
      </trkpt>
      <trkpt lat="46.66486" lon="5.60966">
        <ele>488</ele>
        <time>2023-10-03T08:16:44Z</time>
      </trkpt>
      <trkpt lat="46.66487" lon="5.6097">
        <ele>488</ele>
        <time>2023-10-03T08:16:47Z</time>
      </trkpt>
      <trkpt lat="46.66489" lon="5.60974">
        <ele>488</ele>
        <time>2023-10-03T08:16:50Z</time>
      </trkpt>
      <trkpt lat="46.66491" lon="5.60978">
        <ele>488</ele>
        <time>2023-10-03T08:16:53Z</time>
      </trkpt>
      <trkpt lat="46.66493" lon="5.60982">
        <ele>488</ele>
        <time>2023-10-03T08:16:56Z</time>
      </trkpt>
      <trkpt lat="46.66494" lon="5.60986">
        <ele>488</ele>
        <time>2023-10-03T08:16:59Z</time>
      </trkpt>
      <trkpt lat="46.66495" lon="5.6099">
        <ele>489</ele>
        <time>2023-10-03T08:17:02Z</time>
      </trkpt>
      <trkpt lat="46.66495" lon="5.60994">
        <ele>489</ele>
        <time>2023-10-03T08:17:04Z</time>
      </trkpt>
      <trkpt lat="46.66494" lon="5.60999">
        <ele>489</ele>
        <time>2023-10-03T08:17:07Z</time>
      </trkpt>
      <trkpt lat="46.66493" lon="5.61004">
        <ele>488</ele>
        <time>2023-10-03T08:17:10Z</time>
      </trkpt>
      <trkpt lat="46.66491" lon="5.61007">
        <ele>487</ele>
        <time>2023-10-03T08:17:16Z</time>
      </trkpt>
      <trkpt lat="46.66489" lon="5.6101">
        <ele>487</ele>
        <time>2023-10-03T08:17:30Z</time>
      </trkpt>
      <trkpt lat="46.66489" lon="5.61015">
        <ele>486</ele>
        <time>2023-10-03T08:17:34Z</time>
      </trkpt>
      <trkpt lat="46.66491" lon="5.61018">
        <ele>486</ele>
        <time>2023-10-03T08:17:37Z</time>
      </trkpt>
      <trkpt lat="46.66493" lon="5.61021">
        <ele>486</ele>
        <time>2023-10-03T08:17:41Z</time>
      </trkpt>
      <trkpt lat="46.66495" lon="5.61025">
        <ele>486</ele>
        <time>2023-10-03T08:17:49Z</time>
      </trkpt>
      <trkpt lat="46.66495" lon="5.6103">
        <ele>487</ele>
        <time>2023-10-03T08:17:53Z</time>
      </trkpt>
      <trkpt lat="46.66496" lon="5.61034">
        <ele>487</ele>
        <time>2023-10-03T08:17:58Z</time>
      </trkpt>
      <trkpt lat="46.66498" lon="5.61038">
        <ele>488</ele>
        <time>2023-10-03T08:18:02Z</time>
      </trkpt>
      <trkpt lat="46.66499" lon="5.61042">
        <ele>488</ele>
        <time>2023-10-03T08:18:05Z</time>
      </trkpt>
      <trkpt lat="46.66501" lon="5.61045">
        <ele>489</ele>
        <time>2023-10-03T08:18:08Z</time>
      </trkpt>
      <trkpt lat="46.66504" lon="5.61048">
        <ele>489</ele>
        <time>2023-10-03T08:18:12Z</time>
      </trkpt>
      <trkpt lat="46.66506" lon="5.61052">
        <ele>490</ele>
        <time>2023-10-03T08:18:16Z</time>
      </trkpt>
      <trkpt lat="46.66509" lon="5.61054">
        <ele>491</ele>
        <time>2023-10-03T08:18:21Z</time>
      </trkpt>
      <trkpt lat="46.66511" lon="5.61058">
        <ele>491</ele>
        <time>2023-10-03T08:18:25Z</time>
      </trkpt>
      <trkpt lat="46.66513" lon="5.61061">
        <ele>492</ele>
        <time>2023-10-03T08:18:28Z</time>
      </trkpt>
      <trkpt lat="46.66516" lon="5.61062">
        <ele>492</ele>
        <time>2023-10-03T08:18:32Z</time>
      </trkpt>
      <trkpt lat="46.66518" lon="5.61063">
        <ele>493</ele>
        <time>2023-10-03T08:18:39Z</time>
      </trkpt>
      <trkpt lat="46.66521" lon="5.61062">
        <ele>493</ele>
        <time>2023-10-03T08:18:43Z</time>
      </trkpt>
      <trkpt lat="46.66524" lon="5.61061">
        <ele>495</ele>
        <time>2023-10-03T08:18:49Z</time>
      </trkpt>
      <trkpt lat="46.66527" lon="5.61059">
        <ele>496</ele>
        <time>2023-10-03T08:18:55Z</time>
      </trkpt>
      <trkpt lat="46.6653" lon="5.61058">
        <ele>497</ele>
        <time>2023-10-03T08:18:59Z</time>
      </trkpt>
      <trkpt lat="46.66532" lon="5.6106">
        <ele>499</ele>
        <time>2023-10-03T08:19:09Z</time>
      </trkpt>
      <trkpt lat="46.66534" lon="5.61062">
        <ele>500</ele>
        <time>2023-10-03T08:19:12Z</time>
      </trkpt>
      <trkpt lat="46.66536" lon="5.61065">
        <ele>501</ele>
        <time>2023-10-03T08:19:15Z</time>
      </trkpt>
      <trkpt lat="46.66539" lon="5.61068">
        <ele>501</ele>
        <time>2023-10-03T08:19:17Z</time>
      </trkpt>
      <trkpt lat="46.66542" lon="5.61071">
        <ele>502</ele>
        <time>2023-10-03T08:19:22Z</time>
      </trkpt>
      <trkpt lat="46.66542" lon="5.61074">
        <ele>504</ele>
        <time>2023-10-03T08:19:38Z</time>
      </trkpt>
      <trkpt lat="46.66541" lon="5.61077">
        <ele>504</ele>
        <time>2023-10-03T08:19:43Z</time>
      </trkpt>
      <trkpt lat="46.66539" lon="5.6108">
        <ele>505</ele>
        <time>2023-10-03T08:19:48Z</time>
      </trkpt>
      <trkpt lat="46.66536" lon="5.61083">
        <ele>505</ele>
        <time>2023-10-03T08:19:52Z</time>
      </trkpt>
      <trkpt lat="46.66534" lon="5.61087">
        <ele>504</ele>
        <time>2023-10-03T08:19:56Z</time>
      </trkpt>
      <trkpt lat="46.66532" lon="5.61091">
        <ele>505</ele>
        <time>2023-10-03T08:20:00Z</time>
      </trkpt>
      <trkpt lat="46.66532" lon="5.61095">
        <ele>506</ele>
        <time>2023-10-03T08:20:08Z</time>
      </trkpt>
      <trkpt lat="46.66533" lon="5.61099">
        <ele>508</ele>
        <time>2023-10-03T08:20:19Z</time>
      </trkpt>
      <trkpt lat="46.66534" lon="5.61103">
        <ele>509</ele>
        <time>2023-10-03T08:20:23Z</time>
      </trkpt>
      <trkpt lat="46.66534" lon="5.61107">
        <ele>510</ele>
        <time>2023-10-03T08:20:28Z</time>
      </trkpt>
      <trkpt lat="46.66532" lon="5.61109">
        <ele>510</ele>
        <time>2023-10-03T08:20:34Z</time>
      </trkpt>
      <trkpt lat="46.66531" lon="5.61108">
        <ele>510</ele>
        <time>2023-10-03T08:20:44Z</time>
      </trkpt>
      <trkpt lat="46.66529" lon="5.61103">
        <ele>510</ele>
        <time>2023-10-03T08:20:53Z</time>
      </trkpt>
      <trkpt lat="46.66528" lon="5.61099">
        <ele>510</ele>
        <time>2023-10-03T08:20:58Z</time>
      </trkpt>
      <trkpt lat="46.66527" lon="5.611">
        <ele>510</ele>
        <time>2023-10-03T08:21:03Z</time>
      </trkpt>
      <trkpt lat="46.66527" lon="5.61103">
        <ele>509</ele>
        <time>2023-10-03T08:21:07Z</time>
      </trkpt>
      <trkpt lat="46.66526" lon="5.61107">
        <ele>510</ele>
        <time>2023-10-03T08:21:34Z</time>
      </trkpt>
      <trkpt lat="46.66525" lon="5.61111">
        <ele>510</ele>
        <time>2023-10-03T08:22:07Z</time>
      </trkpt>
      <trkpt lat="46.66525" lon="5.61115">
        <ele>510</ele>
        <time>2023-10-03T08:22:11Z</time>
      </trkpt>
      <trkpt lat="46.66524" lon="5.6112">
        <ele>509</ele>
        <time>2023-10-03T08:22:16Z</time>
      </trkpt>
      <trkpt lat="46.66523" lon="5.61124">
        <ele>509</ele>
        <time>2023-10-03T08:22:20Z</time>
      </trkpt>
      <trkpt lat="46.6652" lon="5.61128">
        <ele>509</ele>
        <time>2023-10-03T08:22:22Z</time>
      </trkpt>
      <trkpt lat="46.66518" lon="5.61132">
        <ele>509</ele>
        <time>2023-10-03T08:22:24Z</time>
      </trkpt>
      <trkpt lat="46.66515" lon="5.61136">
        <ele>509</ele>
        <time>2023-10-03T08:22:26Z</time>
      </trkpt>
      <trkpt lat="46.66514" lon="5.61141">
        <ele>509</ele>
        <time>2023-10-03T08:22:28Z</time>
      </trkpt>
      <trkpt lat="46.66513" lon="5.61145">
        <ele>510</ele>
        <time>2023-10-03T08:22:31Z</time>
      </trkpt>
      <trkpt lat="46.66512" lon="5.6115">
        <ele>511</ele>
        <time>2023-10-03T08:22:36Z</time>
      </trkpt>
      <trkpt lat="46.66511" lon="5.61154">
        <ele>512</ele>
        <time>2023-10-03T08:22:39Z</time>
      </trkpt>
      <trkpt lat="46.6651" lon="5.61158">
        <ele>512</ele>
        <time>2023-10-03T08:22:41Z</time>
      </trkpt>
      <trkpt lat="46.66508" lon="5.61162">
        <ele>513</ele>
        <time>2023-10-03T08:22:44Z</time>
      </trkpt>
      <trkpt lat="46.66507" lon="5.61166">
        <ele>513</ele>
        <time>2023-10-03T08:22:51Z</time>
      </trkpt>
      <trkpt lat="46.66506" lon="5.6117">
        <ele>513</ele>
        <time>2023-10-03T08:22:56Z</time>
      </trkpt>
      <trkpt lat="46.66505" lon="5.61175">
        <ele>513</ele>
        <time>2023-10-03T08:23:01Z</time>
      </trkpt>
      <trkpt lat="46.66504" lon="5.61179">
        <ele>514</ele>
        <time>2023-10-03T08:23:05Z</time>
      </trkpt>
      <trkpt lat="46.66502" lon="5.61183">
        <ele>515</ele>
        <time>2023-10-03T08:23:08Z</time>
      </trkpt>
      <trkpt lat="46.665" lon="5.61186">
        <ele>515</ele>
        <time>2023-10-03T08:23:11Z</time>
      </trkpt>
      <trkpt lat="46.66497" lon="5.6119">
        <ele>516</ele>
        <time>2023-10-03T08:23:14Z</time>
      </trkpt>
      <trkpt lat="46.66494" lon="5.61191">
        <ele>516</ele>
        <time>2023-10-03T08:23:16Z</time>
      </trkpt>
      <trkpt lat="46.66492" lon="5.61194">
        <ele>516</ele>
        <time>2023-10-03T08:23:18Z</time>
      </trkpt>
      <trkpt lat="46.66489" lon="5.61196">
        <ele>516</ele>
        <time>2023-10-03T08:23:22Z</time>
      </trkpt>
      <trkpt lat="46.66488" lon="5.612">
        <ele>516</ele>
        <time>2023-10-03T08:23:27Z</time>
      </trkpt>
      <trkpt lat="46.66488" lon="5.61204">
        <ele>515</ele>
        <time>2023-10-03T08:23:31Z</time>
      </trkpt>
      <trkpt lat="46.66489" lon="5.61208">
        <ele>515</ele>
        <time>2023-10-03T08:23:36Z</time>
      </trkpt>
      <trkpt lat="46.66491" lon="5.61212">
        <ele>514</ele>
        <time>2023-10-03T08:23:40Z</time>
      </trkpt>
      <trkpt lat="46.66492" lon="5.61216">
        <ele>513</ele>
        <time>2023-10-03T08:23:45Z</time>
      </trkpt>
      <trkpt lat="46.66492" lon="5.6122">
        <ele>512</ele>
        <time>2023-10-03T08:23:50Z</time>
      </trkpt>
      <trkpt lat="46.66491" lon="5.61224">
        <ele>511</ele>
        <time>2023-10-03T08:23:56Z</time>
      </trkpt>
      <trkpt lat="46.6649" lon="5.61228">
        <ele>511</ele>
        <time>2023-10-03T08:24:00Z</time>
      </trkpt>
      <trkpt lat="46.66488" lon="5.61232">
        <ele>510</ele>
        <time>2023-10-03T08:24:04Z</time>
      </trkpt>
      <trkpt lat="46.66488" lon="5.61231">
        <ele>509</ele>
        <time>2023-10-03T08:24:13Z</time>
      </trkpt>
      <trkpt lat="46.66488" lon="5.61228">
        <ele>509</ele>
        <time>2023-10-03T08:24:29Z</time>
      </trkpt>
      <trkpt lat="46.66486" lon="5.61224">
        <ele>508</ele>
        <time>2023-10-03T08:24:33Z</time>
      </trkpt>
      <trkpt lat="46.66485" lon="5.6122">
        <ele>505</ele>
        <time>2023-10-03T08:24:48Z</time>
      </trkpt>
      <trkpt lat="46.66483" lon="5.61218">
        <ele>504</ele>
        <time>2023-10-03T08:24:55Z</time>
      </trkpt>
      <trkpt lat="46.6648" lon="5.61216">
        <ele>504</ele>
        <time>2023-10-03T08:24:59Z</time>
      </trkpt>
      <trkpt lat="46.66478" lon="5.61213">
        <ele>503</ele>
        <time>2023-10-03T08:25:01Z</time>
      </trkpt>
      <trkpt lat="46.66477" lon="5.61209">
        <ele>503</ele>
        <time>2023-10-03T08:25:03Z</time>
      </trkpt>
      <trkpt lat="46.66478" lon="5.61205">
        <ele>502</ele>
        <time>2023-10-03T08:25:06Z</time>
      </trkpt>
      <trkpt lat="46.66476" lon="5.61203">
        <ele>500</ele>
        <time>2023-10-03T08:25:17Z</time>
      </trkpt>
      <trkpt lat="46.66476" lon="5.61205">
        <ele>499</ele>
        <time>2023-10-03T08:25:25Z</time>
      </trkpt>
      <trkpt lat="46.66477" lon="5.61207">
        <ele>500</ele>
        <time>2023-10-03T08:25:33Z</time>
      </trkpt>
      <trkpt lat="46.66476" lon="5.61207">
        <ele>499</ele>
        <time>2023-10-03T08:25:47Z</time>
      </trkpt>
      <trkpt lat="46.66474" lon="5.61206">
        <ele>500</ele>
        <time>2023-10-03T08:25:58Z</time>
      </trkpt>
      <trkpt lat="46.66473" lon="5.61208">
        <ele>499</ele>
        <time>2023-10-03T08:26:07Z</time>
      </trkpt>
      <trkpt lat="46.66473" lon="5.61212">
        <ele>499</ele>
        <time>2023-10-03T08:26:13Z</time>
      </trkpt>
      <trkpt lat="46.66475" lon="5.61214">
        <ele>499</ele>
        <time>2023-10-03T08:26:20Z</time>
      </trkpt>
      <trkpt lat="46.66477" lon="5.61214">
        <ele>499</ele>
        <time>2023-10-03T08:26:29Z</time>
      </trkpt>
      <trkpt lat="46.66477" lon="5.61217">
        <ele>499</ele>
        <time>2023-10-03T08:26:42Z</time>
      </trkpt>
      <trkpt lat="46.66475" lon="5.6122">
        <ele>498</ele>
        <time>2023-10-03T08:26:44Z</time>
      </trkpt>
      <trkpt lat="46.66472" lon="5.61221">
        <ele>498</ele>
        <time>2023-10-03T08:26:45Z</time>
      </trkpt>
      <trkpt lat="46.66469" lon="5.61223">
        <ele>498</ele>
        <time>2023-10-03T08:26:46Z</time>
      </trkpt>
      <trkpt lat="46.66467" lon="5.61225">
        <ele>498</ele>
        <time>2023-10-03T08:26:48Z</time>
      </trkpt>
      <trkpt lat="46.66468" lon="5.61226">
        <ele>498</ele>
        <time>2023-10-03T08:26:51Z</time>
      </trkpt>
      <trkpt lat="46.6647" lon="5.61227">
        <ele>498</ele>
        <time>2023-10-03T08:26:52Z</time>
      </trkpt>
      <trkpt lat="46.66473" lon="5.61228">
        <ele>498</ele>
        <time>2023-10-03T08:26:53Z</time>
      </trkpt>
      <trkpt lat="46.66476" lon="5.61229">
        <ele>498</ele>
        <time>2023-10-03T08:26:54Z</time>
      </trkpt>
      <trkpt lat="46.6648" lon="5.61228">
        <ele>498</ele>
        <time>2023-10-03T08:27:23Z</time>
      </trkpt>
      <trkpt lat="46.66479" lon="5.61227">
        <ele>498</ele>
        <time>2023-10-03T08:27:27Z</time>
      </trkpt>
      <trkpt lat="46.66476" lon="5.61228">
        <ele>498</ele>
        <time>2023-10-03T08:27:29Z</time>
      </trkpt>
      <trkpt lat="46.66474" lon="5.61227">
        <ele>498</ele>
        <time>2023-10-03T08:27:41Z</time>
      </trkpt>
      <trkpt lat="46.66472" lon="5.61224">
        <ele>498</ele>
        <time>2023-10-03T08:27:46Z</time>
      </trkpt>
      <trkpt lat="46.66472" lon="5.61225">
        <ele>498</ele>
        <time>2023-10-03T08:27:56Z</time>
      </trkpt>
      <trkpt lat="46.66471" lon="5.61228">
        <ele>498</ele>
        <time>2023-10-03T08:28:00Z</time>
      </trkpt>
      <trkpt lat="46.66469" lon="5.6123">
        <ele>498</ele>
        <time>2023-10-03T08:28:04Z</time>
      </trkpt>
      <trkpt lat="46.66467" lon="5.61233">
        <ele>498</ele>
        <time>2023-10-03T08:28:07Z</time>
      </trkpt>
      <trkpt lat="46.66464" lon="5.61235">
        <ele>498</ele>
        <time>2023-10-03T08:28:13Z</time>
      </trkpt>
      <trkpt lat="46.66461" lon="5.61237">
        <ele>499</ele>
        <time>2023-10-03T08:28:20Z</time>
      </trkpt>
      <trkpt lat="46.66459" lon="5.6124">
        <ele>499</ele>
        <time>2023-10-03T08:28:24Z</time>
      </trkpt>
      <trkpt lat="46.66458" lon="5.61244">
        <ele>499</ele>
        <time>2023-10-03T08:28:28Z</time>
      </trkpt>
      <trkpt lat="46.66456" lon="5.61248">
        <ele>500</ele>
        <time>2023-10-03T08:28:31Z</time>
      </trkpt>
      <trkpt lat="46.66455" lon="5.61253">
        <ele>500</ele>
        <time>2023-10-03T08:28:34Z</time>
      </trkpt>
      <trkpt lat="46.66453" lon="5.61256">
        <ele>500</ele>
        <time>2023-10-03T08:28:37Z</time>
      </trkpt>
      <trkpt lat="46.6645" lon="5.6126">
        <ele>500</ele>
        <time>2023-10-03T08:28:40Z</time>
      </trkpt>
      <trkpt lat="46.66449" lon="5.61263">
        <ele>500</ele>
        <time>2023-10-03T08:28:42Z</time>
      </trkpt>
      <trkpt lat="46.66447" lon="5.61266">
        <ele>500</ele>
        <time>2023-10-03T08:28:44Z</time>
      </trkpt>
      <trkpt lat="46.66446" lon="5.6127">
        <ele>501</ele>
        <time>2023-10-03T08:28:46Z</time>
      </trkpt>
      <trkpt lat="46.66444" lon="5.61273">
        <ele>501</ele>
        <time>2023-10-03T08:28:48Z</time>
      </trkpt>
      <trkpt lat="46.66442" lon="5.61277">
        <ele>501</ele>
        <time>2023-10-03T08:28:52Z</time>
      </trkpt>
      <trkpt lat="46.66441" lon="5.61281">
        <ele>501</ele>
        <time>2023-10-03T08:28:57Z</time>
      </trkpt>
      <trkpt lat="46.6644" lon="5.61284">
        <ele>500</ele>
        <time>2023-10-03T08:29:02Z</time>
      </trkpt>
      <trkpt lat="46.66437" lon="5.61287">
        <ele>499</ele>
        <time>2023-10-03T08:29:06Z</time>
      </trkpt>
      <trkpt lat="46.66435" lon="5.61289">
        <ele>499</ele>
        <time>2023-10-03T08:29:13Z</time>
      </trkpt>
      <trkpt lat="46.66433" lon="5.61292">
        <ele>500</ele>
        <time>2023-10-03T08:29:16Z</time>
      </trkpt>
      <trkpt lat="46.66432" lon="5.61295">
        <ele>499</ele>
        <time>2023-10-03T08:29:22Z</time>
      </trkpt>
      <trkpt lat="46.6643" lon="5.61298">
        <ele>499</ele>
        <time>2023-10-03T08:29:28Z</time>
      </trkpt>
      <trkpt lat="46.66427" lon="5.613">
        <ele>499</ele>
        <time>2023-10-03T08:29:31Z</time>
      </trkpt>
      <trkpt lat="46.66425" lon="5.61302">
        <ele>499</ele>
        <time>2023-10-03T08:29:32Z</time>
      </trkpt>
      <trkpt lat="46.66422" lon="5.61304">
        <ele>498</ele>
        <time>2023-10-03T08:29:34Z</time>
      </trkpt>
      <trkpt lat="46.66419" lon="5.61306">
        <ele>497</ele>
        <time>2023-10-03T08:29:37Z</time>
      </trkpt>
      <trkpt lat="46.66418" lon="5.6131">
        <ele>497</ele>
        <time>2023-10-03T08:29:40Z</time>
      </trkpt>
      <trkpt lat="46.66416" lon="5.61313">
        <ele>497</ele>
        <time>2023-10-03T08:29:42Z</time>
      </trkpt>
      <trkpt lat="46.66413" lon="5.61316">
        <ele>496</ele>
        <time>2023-10-03T08:29:44Z</time>
      </trkpt>
      <trkpt lat="46.6641" lon="5.61318">
        <ele>496</ele>
        <time>2023-10-03T08:29:46Z</time>
      </trkpt>
      <trkpt lat="46.66408" lon="5.6132">
        <ele>496</ele>
        <time>2023-10-03T08:29:48Z</time>
      </trkpt>
      <trkpt lat="46.66409" lon="5.61317">
        <ele>496</ele>
        <time>2023-10-03T08:29:53Z</time>
      </trkpt>
      <trkpt lat="46.66409" lon="5.61314">
        <ele>496</ele>
        <time>2023-10-03T08:29:59Z</time>
      </trkpt>
      <trkpt lat="46.66408" lon="5.61314">
        <ele>496</ele>
        <time>2023-10-03T08:30:03Z</time>
      </trkpt>
      <trkpt lat="46.66406" lon="5.61313">
        <ele>495</ele>
        <time>2023-10-03T08:30:05Z</time>
      </trkpt>
      <trkpt lat="46.66403" lon="5.6131">
        <ele>495</ele>
        <time>2023-10-03T08:30:07Z</time>
      </trkpt>
      <trkpt lat="46.66401" lon="5.61308">
        <ele>495</ele>
        <time>2023-10-03T08:30:10Z</time>
      </trkpt>
      <trkpt lat="46.66398" lon="5.61307">
        <ele>494</ele>
        <time>2023-10-03T08:30:15Z</time>
      </trkpt>
      <trkpt lat="46.66395" lon="5.6131">
        <ele>494</ele>
        <time>2023-10-03T08:30:18Z</time>
      </trkpt>
      <trkpt lat="46.66393" lon="5.61314">
        <ele>494</ele>
        <time>2023-10-03T08:30:20Z</time>
      </trkpt>
      <trkpt lat="46.66391" lon="5.61316">
        <ele>493</ele>
        <time>2023-10-03T08:30:22Z</time>
      </trkpt>
      <trkpt lat="46.66388" lon="5.61318">
        <ele>493</ele>
        <time>2023-10-03T08:30:25Z</time>
      </trkpt>
      <trkpt lat="46.66385" lon="5.6132">
        <ele>492</ele>
        <time>2023-10-03T08:30:29Z</time>
      </trkpt>
      <trkpt lat="46.66382" lon="5.61321">
        <ele>492</ele>
        <time>2023-10-03T08:30:32Z</time>
      </trkpt>
      <trkpt lat="46.66379" lon="5.61323">
        <ele>492</ele>
        <time>2023-10-03T08:30:34Z</time>
      </trkpt>
      <trkpt lat="46.66377" lon="5.61325">
        <ele>492</ele>
        <time>2023-10-03T08:30:36Z</time>
      </trkpt>
      <trkpt lat="46.66375" lon="5.61328">
        <ele>492</ele>
        <time>2023-10-03T08:30:38Z</time>
      </trkpt>
      <trkpt lat="46.66373" lon="5.61332">
        <ele>493</ele>
        <time>2023-10-03T08:30:42Z</time>
      </trkpt>
      <trkpt lat="46.66371" lon="5.61336">
        <ele>494</ele>
        <time>2023-10-03T08:30:47Z</time>
      </trkpt>
      <trkpt lat="46.66369" lon="5.61339">
        <ele>493</ele>
        <time>2023-10-03T08:30:52Z</time>
      </trkpt>
      <trkpt lat="46.66366" lon="5.61342">
        <ele>493</ele>
        <time>2023-10-03T08:30:55Z</time>
      </trkpt>
      <trkpt lat="46.66364" lon="5.61345">
        <ele>493</ele>
        <time>2023-10-03T08:30:58Z</time>
      </trkpt>
      <trkpt lat="46.66362" lon="5.61348">
        <ele>494</ele>
        <time>2023-10-03T08:31:02Z</time>
      </trkpt>
      <trkpt lat="46.66359" lon="5.6135">
        <ele>494</ele>
        <time>2023-10-03T08:31:05Z</time>
      </trkpt>
      <trkpt lat="46.66356" lon="5.61351">
        <ele>496</ele>
        <time>2023-10-03T08:31:12Z</time>
      </trkpt>
      <trkpt lat="46.66354" lon="5.61354">
        <ele>496</ele>
        <time>2023-10-03T08:31:17Z</time>
      </trkpt>
      <trkpt lat="46.66352" lon="5.61358">
        <ele>497</ele>
        <time>2023-10-03T08:31:21Z</time>
      </trkpt>
      <trkpt lat="46.6635" lon="5.6136">
        <ele>497</ele>
        <time>2023-10-03T08:31:24Z</time>
      </trkpt>
      <trkpt lat="46.66347" lon="5.61363">
        <ele>498</ele>
        <time>2023-10-03T08:31:29Z</time>
      </trkpt>
      <trkpt lat="46.66344" lon="5.61364">
        <ele>498</ele>
        <time>2023-10-03T08:31:34Z</time>
      </trkpt>
      <trkpt lat="46.66341" lon="5.61363">
        <ele>498</ele>
        <time>2023-10-03T08:31:36Z</time>
      </trkpt>
      <trkpt lat="46.66338" lon="5.6136">
        <ele>498</ele>
        <time>2023-10-03T08:31:37Z</time>
      </trkpt>
      <trkpt lat="46.66335" lon="5.61359">
        <ele>498</ele>
        <time>2023-10-03T08:31:40Z</time>
      </trkpt>
      <trkpt lat="46.66333" lon="5.61358">
        <ele>497</ele>
        <time>2023-10-03T08:31:44Z</time>
      </trkpt>
      <trkpt lat="46.6633" lon="5.61359">
        <ele>497</ele>
        <time>2023-10-03T08:31:49Z</time>
      </trkpt>
      <trkpt lat="46.66328" lon="5.61362">
        <ele>497</ele>
        <time>2023-10-03T08:31:53Z</time>
      </trkpt>
      <trkpt lat="46.66325" lon="5.61364">
        <ele>497</ele>
        <time>2023-10-03T08:31:56Z</time>
      </trkpt>
      <trkpt lat="46.66322" lon="5.61366">
        <ele>498</ele>
        <time>2023-10-03T08:32:00Z</time>
      </trkpt>
      <trkpt lat="46.66319" lon="5.61366">
        <ele>499</ele>
        <time>2023-10-03T08:32:04Z</time>
      </trkpt>
      <trkpt lat="46.66316" lon="5.61366">
        <ele>499</ele>
        <time>2023-10-03T08:32:09Z</time>
      </trkpt>
      <trkpt lat="46.66313" lon="5.61365">
        <ele>498</ele>
        <time>2023-10-03T08:32:14Z</time>
      </trkpt>
      <trkpt lat="46.6631" lon="5.61365">
        <ele>498</ele>
        <time>2023-10-03T08:32:20Z</time>
      </trkpt>
      <trkpt lat="46.66308" lon="5.61364">
        <ele>498</ele>
        <time>2023-10-03T08:32:23Z</time>
      </trkpt>
      <trkpt lat="46.66305" lon="5.61366">
        <ele>498</ele>
        <time>2023-10-03T08:32:26Z</time>
      </trkpt>
      <trkpt lat="46.66302" lon="5.61367">
        <ele>498</ele>
        <time>2023-10-03T08:32:29Z</time>
      </trkpt>
      <trkpt lat="46.66299" lon="5.61368">
        <ele>498</ele>
        <time>2023-10-03T08:32:33Z</time>
      </trkpt>
      <trkpt lat="46.66295" lon="5.61369">
        <ele>499</ele>
        <time>2023-10-03T08:32:36Z</time>
      </trkpt>
      <trkpt lat="46.66292" lon="5.6137">
        <ele>499</ele>
        <time>2023-10-03T08:32:39Z</time>
      </trkpt>
      <trkpt lat="46.6629" lon="5.61371">
        <ele>499</ele>
        <time>2023-10-03T08:32:42Z</time>
      </trkpt>
      <trkpt lat="46.66287" lon="5.61372">
        <ele>499</ele>
        <time>2023-10-03T08:32:45Z</time>
      </trkpt>
      <trkpt lat="46.66284" lon="5.61373">
        <ele>499</ele>
        <time>2023-10-03T08:32:50Z</time>
      </trkpt>
      <trkpt lat="46.66282" lon="5.6137">
        <ele>498</ele>
        <time>2023-10-03T08:32:55Z</time>
      </trkpt>
      <trkpt lat="46.6628" lon="5.61367">
        <ele>498</ele>
        <time>2023-10-03T08:32:58Z</time>
      </trkpt>
      <trkpt lat="46.66278" lon="5.61364">
        <ele>497</ele>
        <time>2023-10-03T08:33:02Z</time>
      </trkpt>
      <trkpt lat="46.66275" lon="5.61364">
        <ele>497</ele>
        <time>2023-10-03T08:33:05Z</time>
      </trkpt>
      <trkpt lat="46.66271" lon="5.61363">
        <ele>497</ele>
        <time>2023-10-03T08:33:08Z</time>
      </trkpt>
      <trkpt lat="46.66268" lon="5.61363">
        <ele>497</ele>
        <time>2023-10-03T08:33:13Z</time>
      </trkpt>
      <trkpt lat="46.66266" lon="5.61361">
        <ele>496</ele>
        <time>2023-10-03T08:33:16Z</time>
      </trkpt>
      <trkpt lat="46.66263" lon="5.61358">
        <ele>496</ele>
        <time>2023-10-03T08:33:19Z</time>
      </trkpt>
      <trkpt lat="46.6626" lon="5.61355">
        <ele>495</ele>
        <time>2023-10-03T08:33:22Z</time>
      </trkpt>
      <trkpt lat="46.66258" lon="5.61353">
        <ele>495</ele>
        <time>2023-10-03T08:33:25Z</time>
      </trkpt>
      <trkpt lat="46.66255" lon="5.61351">
        <ele>494</ele>
        <time>2023-10-03T08:33:28Z</time>
      </trkpt>
      <trkpt lat="46.66252" lon="5.61351">
        <ele>493</ele>
        <time>2023-10-03T08:33:37Z</time>
      </trkpt>
      <trkpt lat="46.66249" lon="5.61349">
        <ele>492</ele>
        <time>2023-10-03T08:33:40Z</time>
      </trkpt>
      <trkpt lat="46.66246" lon="5.61347">
        <ele>492</ele>
        <time>2023-10-03T08:33:44Z</time>
      </trkpt>
      <trkpt lat="46.66243" lon="5.61346">
        <ele>492</ele>
        <time>2023-10-03T08:33:48Z</time>
      </trkpt>
      <trkpt lat="46.6624" lon="5.61345">
        <ele>492</ele>
        <time>2023-10-03T08:33:52Z</time>
      </trkpt>
      <trkpt lat="46.66238" lon="5.61342">
        <ele>491</ele>
        <time>2023-10-03T08:33:55Z</time>
      </trkpt>
      <trkpt lat="46.66236" lon="5.61338">
        <ele>491</ele>
        <time>2023-10-03T08:33:58Z</time>
      </trkpt>
      <trkpt lat="46.66234" lon="5.61335">
        <ele>490</ele>
        <time>2023-10-03T08:34:02Z</time>
      </trkpt>
      <trkpt lat="46.66231" lon="5.61333">
        <ele>489</ele>
        <time>2023-10-03T08:34:06Z</time>
      </trkpt>
      <trkpt lat="46.6623" lon="5.61336">
        <ele>489</ele>
        <time>2023-10-03T08:34:15Z</time>
      </trkpt>
      <trkpt lat="46.66231" lon="5.61339">
        <ele>489</ele>
        <time>2023-10-03T08:34:19Z</time>
      </trkpt>
      <trkpt lat="46.66231" lon="5.61337">
        <ele>488</ele>
        <time>2023-10-03T08:34:23Z</time>
      </trkpt>
      <trkpt lat="46.66229" lon="5.61334">
        <ele>488</ele>
        <time>2023-10-03T08:34:26Z</time>
      </trkpt>
      <trkpt lat="46.66228" lon="5.61331">
        <ele>488</ele>
        <time>2023-10-03T08:34:36Z</time>
      </trkpt>
      <trkpt lat="46.66225" lon="5.61329">
        <ele>487</ele>
        <time>2023-10-03T08:34:47Z</time>
      </trkpt>
      <trkpt lat="46.66223" lon="5.61331">
        <ele>487</ele>
        <time>2023-10-03T08:34:50Z</time>
      </trkpt>
      <trkpt lat="46.66222" lon="5.61334">
        <ele>487</ele>
        <time>2023-10-03T08:34:58Z</time>
      </trkpt>
      <trkpt lat="46.66221" lon="5.61338">
        <ele>487</ele>
        <time>2023-10-03T08:35:02Z</time>
      </trkpt>
      <trkpt lat="46.66223" lon="5.61341">
        <ele>487</ele>
        <time>2023-10-03T08:35:06Z</time>
      </trkpt>
      <trkpt lat="46.66222" lon="5.6134">
        <ele>487</ele>
        <time>2023-10-03T08:35:16Z</time>
      </trkpt>
      <trkpt lat="46.66221" lon="5.61338">
        <ele>487</ele>
        <time>2023-10-03T08:35:20Z</time>
      </trkpt>
      <trkpt lat="46.66221" lon="5.61335">
        <ele>487</ele>
        <time>2023-10-03T08:35:32Z</time>
      </trkpt>
      <trkpt lat="46.66222" lon="5.61337">
        <ele>487</ele>
        <time>2023-10-03T08:35:55Z</time>
      </trkpt>
      <trkpt lat="46.66221" lon="5.61338">
        <ele>485</ele>
        <time>2023-10-03T08:36:10Z</time>
      </trkpt>
      <trkpt lat="46.66219" lon="5.6134">
        <ele>485</ele>
        <time>2023-10-03T08:36:16Z</time>
      </trkpt>
      <trkpt lat="46.66216" lon="5.61341">
        <ele>485</ele>
        <time>2023-10-03T08:36:28Z</time>
      </trkpt>
      <trkpt lat="46.66213" lon="5.6134">
        <ele>484</ele>
        <time>2023-10-03T08:36:31Z</time>
      </trkpt>
      <trkpt lat="46.6621" lon="5.61341">
        <ele>484</ele>
        <time>2023-10-03T08:36:35Z</time>
      </trkpt>
      <trkpt lat="46.66207" lon="5.61341">
        <ele>484</ele>
        <time>2023-10-03T08:36:39Z</time>
      </trkpt>
      <trkpt lat="46.66205" lon="5.61339">
        <ele>484</ele>
        <time>2023-10-03T08:36:43Z</time>
      </trkpt>
      <trkpt lat="46.66202" lon="5.61336">
        <ele>484</ele>
        <time>2023-10-03T08:36:47Z</time>
      </trkpt>
      <trkpt lat="46.66199" lon="5.61335">
        <ele>483</ele>
        <time>2023-10-03T08:36:50Z</time>
      </trkpt>
      <trkpt lat="46.66195" lon="5.61333">
        <ele>484</ele>
        <time>2023-10-03T08:36:54Z</time>
      </trkpt>
      <trkpt lat="46.66192" lon="5.61332">
        <ele>484</ele>
        <time>2023-10-03T08:36:58Z</time>
      </trkpt>
      <trkpt lat="46.66189" lon="5.6133">
        <ele>485</ele>
        <time>2023-10-03T08:37:05Z</time>
      </trkpt>
      <trkpt lat="46.66186" lon="5.6133">
        <ele>485</ele>
        <time>2023-10-03T08:37:09Z</time>
      </trkpt>
      <trkpt lat="46.66182" lon="5.61329">
        <ele>485</ele>
        <time>2023-10-03T08:37:13Z</time>
      </trkpt>
      <trkpt lat="46.66179" lon="5.61328">
        <ele>485</ele>
        <time>2023-10-03T08:37:15Z</time>
      </trkpt>
      <trkpt lat="46.66176" lon="5.61327">
        <ele>485</ele>
        <time>2023-10-03T08:37:17Z</time>
      </trkpt>
      <trkpt lat="46.66173" lon="5.61327">
        <ele>485</ele>
        <time>2023-10-03T08:37:20Z</time>
      </trkpt>
      <trkpt lat="46.6617" lon="5.61326">
        <ele>485</ele>
        <time>2023-10-03T08:37:24Z</time>
      </trkpt>
      <trkpt lat="46.66167" lon="5.61327">
        <ele>486</ele>
        <time>2023-10-03T08:37:28Z</time>
      </trkpt>
      <trkpt lat="46.66164" lon="5.61328">
        <ele>485</ele>
        <time>2023-10-03T08:37:33Z</time>
      </trkpt>
      <trkpt lat="46.66161" lon="5.61331">
        <ele>485</ele>
        <time>2023-10-03T08:37:37Z</time>
      </trkpt>
      <trkpt lat="46.66159" lon="5.61332">
        <ele>484</ele>
        <time>2023-10-03T08:37:42Z</time>
      </trkpt>
      <trkpt lat="46.66155" lon="5.61331">
        <ele>485</ele>
        <time>2023-10-03T08:37:46Z</time>
      </trkpt>
      <trkpt lat="46.66152" lon="5.61329">
        <ele>485</ele>
        <time>2023-10-03T08:37:48Z</time>
      </trkpt>
      <trkpt lat="46.66149" lon="5.61328">
        <ele>485</ele>
        <time>2023-10-03T08:37:51Z</time>
      </trkpt>
      <trkpt lat="46.66146" lon="5.61328">
        <ele>485</ele>
        <time>2023-10-03T08:37:53Z</time>
      </trkpt>
      <trkpt lat="46.66142" lon="5.61329">
        <ele>485</ele>
        <time>2023-10-03T08:37:55Z</time>
      </trkpt>
      <trkpt lat="46.66139" lon="5.61329">
        <ele>486</ele>
        <time>2023-10-03T08:38:00Z</time>
      </trkpt>
      <trkpt lat="46.66138" lon="5.61331">
        <ele>487</ele>
        <time>2023-10-03T08:38:04Z</time>
      </trkpt>
      <trkpt lat="46.66137" lon="5.61334">
        <ele>488</ele>
        <time>2023-10-03T08:38:13Z</time>
      </trkpt>
      <trkpt lat="46.66135" lon="5.61332">
        <ele>488</ele>
        <time>2023-10-03T08:38:20Z</time>
      </trkpt>
      <trkpt lat="46.66133" lon="5.6133">
        <ele>488</ele>
        <time>2023-10-03T08:38:22Z</time>
      </trkpt>
      <trkpt lat="46.66131" lon="5.61327">
        <ele>487</ele>
        <time>2023-10-03T08:38:25Z</time>
      </trkpt>
      <trkpt lat="46.66129" lon="5.61323">
        <ele>487</ele>
        <time>2023-10-03T08:38:30Z</time>
      </trkpt>
      <trkpt lat="46.66127" lon="5.61319">
        <ele>487</ele>
        <time>2023-10-03T08:38:33Z</time>
      </trkpt>
      <trkpt lat="46.66125" lon="5.61315">
        <ele>487</ele>
        <time>2023-10-03T08:38:36Z</time>
      </trkpt>
      <trkpt lat="46.66122" lon="5.61312">
        <ele>487</ele>
        <time>2023-10-03T08:38:39Z</time>
      </trkpt>
      <trkpt lat="46.66121" lon="5.61308">
        <ele>488</ele>
        <time>2023-10-03T08:38:45Z</time>
      </trkpt>
      <trkpt lat="46.66118" lon="5.61306">
        <ele>489</ele>
        <time>2023-10-03T08:38:48Z</time>
      </trkpt>
      <trkpt lat="46.66116" lon="5.61304">
        <ele>490</ele>
        <time>2023-10-03T08:38:54Z</time>
      </trkpt>
      <trkpt lat="46.66116" lon="5.61306">
        <ele>490</ele>
        <time>2023-10-03T08:39:41Z</time>
      </trkpt>
      <trkpt lat="46.66116" lon="5.61304">
        <ele>491</ele>
        <time>2023-10-03T08:40:13Z</time>
      </trkpt>
      <trkpt lat="46.66116" lon="5.613">
        <ele>491</ele>
        <time>2023-10-03T08:40:16Z</time>
      </trkpt>
      <trkpt lat="46.66117" lon="5.61295">
        <ele>491</ele>
        <time>2023-10-03T08:40:19Z</time>
      </trkpt>
      <trkpt lat="46.66118" lon="5.61291">
        <ele>491</ele>
        <time>2023-10-03T08:40:22Z</time>
      </trkpt>
      <trkpt lat="46.66119" lon="5.61286">
        <ele>490</ele>
        <time>2023-10-03T08:40:25Z</time>
      </trkpt>
      <trkpt lat="46.66122" lon="5.61282">
        <ele>490</ele>
        <time>2023-10-03T08:40:29Z</time>
      </trkpt>
      <trkpt lat="46.66123" lon="5.61278">
        <ele>490</ele>
        <time>2023-10-03T08:40:33Z</time>
      </trkpt>
      <trkpt lat="46.66124" lon="5.61274">
        <ele>489</ele>
        <time>2023-10-03T08:40:37Z</time>
      </trkpt>
      <trkpt lat="46.66126" lon="5.61271">
        <ele>489</ele>
        <time>2023-10-03T08:40:40Z</time>
      </trkpt>
      <trkpt lat="46.66126" lon="5.61266">
        <ele>488</ele>
        <time>2023-10-03T08:40:44Z</time>
      </trkpt>
      <trkpt lat="46.66128" lon="5.61263">
        <ele>487</ele>
        <time>2023-10-03T08:40:50Z</time>
      </trkpt>
      <trkpt lat="46.66129" lon="5.61259">
        <ele>486</ele>
        <time>2023-10-03T08:40:54Z</time>
      </trkpt>
      <trkpt lat="46.6613" lon="5.61254">
        <ele>486</ele>
        <time>2023-10-03T08:40:58Z</time>
      </trkpt>
      <trkpt lat="46.66129" lon="5.6125">
        <ele>485</ele>
        <time>2023-10-03T08:41:01Z</time>
      </trkpt>
      <trkpt lat="46.66127" lon="5.61245">
        <ele>485</ele>
        <time>2023-10-03T08:41:04Z</time>
      </trkpt>
      <trkpt lat="46.66125" lon="5.61242">
        <ele>485</ele>
        <time>2023-10-03T08:41:08Z</time>
      </trkpt>
      <trkpt lat="46.66122" lon="5.61239">
        <ele>485</ele>
        <time>2023-10-03T08:41:12Z</time>
      </trkpt>
      <trkpt lat="46.66119" lon="5.61238">
        <ele>485</ele>
        <time>2023-10-03T08:41:16Z</time>
      </trkpt>
      <trkpt lat="46.66117" lon="5.61236">
        <ele>486</ele>
        <time>2023-10-03T08:41:20Z</time>
      </trkpt>
      <trkpt lat="46.66114" lon="5.61234">
        <ele>486</ele>
        <time>2023-10-03T08:41:23Z</time>
      </trkpt>
      <trkpt lat="46.66111" lon="5.61232">
        <ele>486</ele>
        <time>2023-10-03T08:41:27Z</time>
      </trkpt>
      <trkpt lat="46.66109" lon="5.61229">
        <ele>486</ele>
        <time>2023-10-03T08:41:30Z</time>
      </trkpt>
      <trkpt lat="46.66106" lon="5.61227">
        <ele>488</ele>
        <time>2023-10-03T08:41:36Z</time>
      </trkpt>
      <trkpt lat="46.66103" lon="5.61227">
        <ele>488</ele>
        <time>2023-10-03T08:41:40Z</time>
      </trkpt>
      <trkpt lat="46.661" lon="5.61228">
        <ele>489</ele>
        <time>2023-10-03T08:41:44Z</time>
      </trkpt>
      <trkpt lat="46.66097" lon="5.61229">
        <ele>490</ele>
        <time>2023-10-03T08:41:50Z</time>
      </trkpt>
      <trkpt lat="46.66094" lon="5.6123">
        <ele>490</ele>
        <time>2023-10-03T08:41:55Z</time>
      </trkpt>
      <trkpt lat="46.66091" lon="5.61233">
        <ele>492</ele>
        <time>2023-10-03T08:42:06Z</time>
      </trkpt>
      <trkpt lat="46.66088" lon="5.61234">
        <ele>492</ele>
        <time>2023-10-03T08:42:12Z</time>
      </trkpt>
      <trkpt lat="46.66085" lon="5.61234">
        <ele>493</ele>
        <time>2023-10-03T08:42:17Z</time>
      </trkpt>
      <trkpt lat="46.66082" lon="5.61235">
        <ele>493</ele>
        <time>2023-10-03T08:42:21Z</time>
      </trkpt>
      <trkpt lat="46.66079" lon="5.61235">
        <ele>494</ele>
        <time>2023-10-03T08:42:26Z</time>
      </trkpt>
      <trkpt lat="46.66076" lon="5.61235">
        <ele>494</ele>
        <time>2023-10-03T08:42:31Z</time>
      </trkpt>
      <trkpt lat="46.66073" lon="5.61235">
        <ele>494</ele>
        <time>2023-10-03T08:42:36Z</time>
      </trkpt>
      <trkpt lat="46.6607" lon="5.61235">
        <ele>494</ele>
        <time>2023-10-03T08:42:42Z</time>
      </trkpt>
      <trkpt lat="46.66069" lon="5.61235">
        <ele>493</ele>
        <time>2023-10-03T08:42:43Z</time>
      </trkpt>
      <trkpt lat="46.66067" lon="5.61233">
        <ele>493</ele>
        <time>2023-10-03T08:42:49Z</time>
      </trkpt>
      <trkpt lat="46.66064" lon="5.61233">
        <ele>493</ele>
        <time>2023-10-03T08:42:54Z</time>
      </trkpt>
      <trkpt lat="46.66061" lon="5.61231">
        <ele>492</ele>
        <time>2023-10-03T08:43:01Z</time>
      </trkpt>
      <trkpt lat="46.66059" lon="5.61228">
        <ele>492</ele>
        <time>2023-10-03T08:43:05Z</time>
      </trkpt>
      <trkpt lat="46.66057" lon="5.61225">
        <ele>492</ele>
        <time>2023-10-03T08:43:08Z</time>
      </trkpt>
      <trkpt lat="46.66054" lon="5.61223">
        <ele>492</ele>
        <time>2023-10-03T08:43:12Z</time>
      </trkpt>
      <trkpt lat="46.66051" lon="5.6122">
        <ele>491</ele>
        <time>2023-10-03T08:43:17Z</time>
      </trkpt>
      <trkpt lat="46.66049" lon="5.61218">
        <ele>491</ele>
        <time>2023-10-03T08:43:21Z</time>
      </trkpt>
      <trkpt lat="46.66046" lon="5.61217">
        <ele>491</ele>
        <time>2023-10-03T08:43:25Z</time>
      </trkpt>
      <trkpt lat="46.66043" lon="5.61215">
        <ele>491</ele>
        <time>2023-10-03T08:43:30Z</time>
      </trkpt>
      <trkpt lat="46.6604" lon="5.61213">
        <ele>490</ele>
        <time>2023-10-03T08:43:33Z</time>
      </trkpt>
      <trkpt lat="46.66038" lon="5.61211">
        <ele>490</ele>
        <time>2023-10-03T08:43:36Z</time>
      </trkpt>
      <trkpt lat="46.66035" lon="5.6121">
        <ele>490</ele>
        <time>2023-10-03T08:43:39Z</time>
      </trkpt>
      <trkpt lat="46.66032" lon="5.61209">
        <ele>490</ele>
        <time>2023-10-03T08:43:43Z</time>
      </trkpt>
      <trkpt lat="46.66029" lon="5.61207">
        <ele>490</ele>
        <time>2023-10-03T08:43:47Z</time>
      </trkpt>
      <trkpt lat="46.66027" lon="5.61204">
        <ele>490</ele>
        <time>2023-10-03T08:43:50Z</time>
      </trkpt>
      <trkpt lat="46.66024" lon="5.61202">
        <ele>490</ele>
        <time>2023-10-03T08:43:54Z</time>
      </trkpt>
      <trkpt lat="46.66021" lon="5.61202">
        <ele>489</ele>
        <time>2023-10-03T08:43:58Z</time>
      </trkpt>
      <trkpt lat="46.66018" lon="5.612">
        <ele>489</ele>
        <time>2023-10-03T08:44:00Z</time>
      </trkpt>
      <trkpt lat="46.66016" lon="5.612">
        <ele>489</ele>
        <time>2023-10-03T08:44:01Z</time>
      </trkpt>
      <trkpt lat="46.66014" lon="5.61201">
        <ele>489</ele>
        <time>2023-10-03T08:44:05Z</time>
      </trkpt>
      <trkpt lat="46.66011" lon="5.61202">
        <ele>489</ele>
        <time>2023-10-03T08:44:08Z</time>
      </trkpt>
      <trkpt lat="46.6601" lon="5.61202">
        <ele>489</ele>
        <time>2023-10-03T08:44:09Z</time>
      </trkpt>
      <trkpt lat="46.66007" lon="5.61203">
        <ele>489</ele>
        <time>2023-10-03T08:44:12Z</time>
      </trkpt>
      <trkpt lat="46.66004" lon="5.61203">
        <ele>490</ele>
        <time>2023-10-03T08:44:15Z</time>
      </trkpt>
      <trkpt lat="46.66002" lon="5.61204">
        <ele>490</ele>
        <time>2023-10-03T08:44:17Z</time>
      </trkpt>
      <trkpt lat="46.65999" lon="5.61206">
        <ele>490</ele>
        <time>2023-10-03T08:44:20Z</time>
      </trkpt>
      <trkpt lat="46.65997" lon="5.61208">
        <ele>491</ele>
        <time>2023-10-03T08:44:25Z</time>
      </trkpt>
      <trkpt lat="46.65994" lon="5.61209">
        <ele>491</ele>
        <time>2023-10-03T08:44:29Z</time>
      </trkpt>
      <trkpt lat="46.65992" lon="5.6121">
        <ele>492</ele>
        <time>2023-10-03T08:44:31Z</time>
      </trkpt>
      <trkpt lat="46.65989" lon="5.6121">
        <ele>492</ele>
        <time>2023-10-03T08:44:34Z</time>
      </trkpt>
      <trkpt lat="46.65985" lon="5.61208">
        <ele>492</ele>
        <time>2023-10-03T08:44:37Z</time>
      </trkpt>
      <trkpt lat="46.65982" lon="5.61207">
        <ele>493</ele>
        <time>2023-10-03T08:44:40Z</time>
      </trkpt>
      <trkpt lat="46.65979" lon="5.61207">
        <ele>493</ele>
        <time>2023-10-03T08:44:44Z</time>
      </trkpt>
      <trkpt lat="46.65977" lon="5.61206">
        <ele>492</ele>
        <time>2023-10-03T08:44:48Z</time>
      </trkpt>
      <trkpt lat="46.65974" lon="5.61205">
        <ele>491</ele>
        <time>2023-10-03T08:45:00Z</time>
      </trkpt>
      <trkpt lat="46.65971" lon="5.61204">
        <ele>490</ele>
        <time>2023-10-03T08:45:05Z</time>
      </trkpt>
      <trkpt lat="46.65968" lon="5.61202">
        <ele>490</ele>
        <time>2023-10-03T08:45:08Z</time>
      </trkpt>
      <trkpt lat="46.65965" lon="5.612">
        <ele>489</ele>
        <time>2023-10-03T08:45:10Z</time>
      </trkpt>
      <trkpt lat="46.65963" lon="5.61197">
        <ele>489</ele>
        <time>2023-10-03T08:45:13Z</time>
      </trkpt>
      <trkpt lat="46.6596" lon="5.61196">
        <ele>490</ele>
        <time>2023-10-03T08:45:17Z</time>
      </trkpt>
      <trkpt lat="46.65957" lon="5.61197">
        <ele>490</ele>
        <time>2023-10-03T08:45:20Z</time>
      </trkpt>
      <trkpt lat="46.65954" lon="5.61196">
        <ele>490</ele>
        <time>2023-10-03T08:45:23Z</time>
      </trkpt>
      <trkpt lat="46.65951" lon="5.61195">
        <ele>490</ele>
        <time>2023-10-03T08:45:27Z</time>
      </trkpt>
      <trkpt lat="46.65948" lon="5.61193">
        <ele>489</ele>
        <time>2023-10-03T08:45:30Z</time>
      </trkpt>
      <trkpt lat="46.65946" lon="5.61191">
        <ele>489</ele>
        <time>2023-10-03T08:45:32Z</time>
      </trkpt>
      <trkpt lat="46.65943" lon="5.61192">
        <ele>490</ele>
        <time>2023-10-03T08:45:40Z</time>
      </trkpt>
      <trkpt lat="46.6594" lon="5.61193">
        <ele>491</ele>
        <time>2023-10-03T08:45:43Z</time>
      </trkpt>
      <trkpt lat="46.65936" lon="5.61194">
        <ele>491</ele>
        <time>2023-10-03T08:45:46Z</time>
      </trkpt>
      <trkpt lat="46.65933" lon="5.61194">
        <ele>492</ele>
        <time>2023-10-03T08:45:49Z</time>
      </trkpt>
      <trkpt lat="46.6593" lon="5.61196">
        <ele>492</ele>
        <time>2023-10-03T08:45:52Z</time>
      </trkpt>
      <trkpt lat="46.65927" lon="5.61197">
        <ele>493</ele>
        <time>2023-10-03T08:45:56Z</time>
      </trkpt>
      <trkpt lat="46.65924" lon="5.61199">
        <ele>493</ele>
        <time>2023-10-03T08:45:59Z</time>
      </trkpt>
      <trkpt lat="46.65922" lon="5.61203">
        <ele>494</ele>
        <time>2023-10-03T08:46:02Z</time>
      </trkpt>
      <trkpt lat="46.6592" lon="5.61206">
        <ele>494</ele>
        <time>2023-10-03T08:46:05Z</time>
      </trkpt>
      <trkpt lat="46.65918" lon="5.61206">
        <ele>495</ele>
        <time>2023-10-03T08:46:10Z</time>
      </trkpt>
      <trkpt lat="46.65915" lon="5.61207">
        <ele>496</ele>
        <time>2023-10-03T08:46:14Z</time>
      </trkpt>
      <trkpt lat="46.65912" lon="5.61206">
        <ele>496</ele>
        <time>2023-10-03T08:46:19Z</time>
      </trkpt>
      <trkpt lat="46.65908" lon="5.61206">
        <ele>497</ele>
        <time>2023-10-03T08:46:25Z</time>
      </trkpt>
      <trkpt lat="46.65905" lon="5.61205">
        <ele>497</ele>
        <time>2023-10-03T08:46:28Z</time>
      </trkpt>
      <trkpt lat="46.65902" lon="5.61204">
        <ele>497</ele>
        <time>2023-10-03T08:46:33Z</time>
      </trkpt>
      <trkpt lat="46.65899" lon="5.61202">
        <ele>497</ele>
        <time>2023-10-03T08:46:37Z</time>
      </trkpt>
      <trkpt lat="46.65896" lon="5.61199">
        <ele>497</ele>
        <time>2023-10-03T08:46:39Z</time>
      </trkpt>
      <trkpt lat="46.65893" lon="5.61197">
        <ele>497</ele>
        <time>2023-10-03T08:46:41Z</time>
      </trkpt>
      <trkpt lat="46.65891" lon="5.61197">
        <ele>497</ele>
        <time>2023-10-03T08:46:44Z</time>
      </trkpt>
      <trkpt lat="46.65888" lon="5.61197">
        <ele>496</ele>
        <time>2023-10-03T08:46:48Z</time>
      </trkpt>
      <trkpt lat="46.65884" lon="5.61197">
        <ele>496</ele>
        <time>2023-10-03T08:46:54Z</time>
      </trkpt>
      <trkpt lat="46.65881" lon="5.61196">
        <ele>496</ele>
        <time>2023-10-03T08:46:57Z</time>
      </trkpt>
      <trkpt lat="46.65878" lon="5.61197">
        <ele>495</ele>
        <time>2023-10-03T08:47:01Z</time>
      </trkpt>
      <trkpt lat="46.65875" lon="5.61197">
        <ele>495</ele>
        <time>2023-10-03T08:47:05Z</time>
      </trkpt>
      <trkpt lat="46.65872" lon="5.61196">
        <ele>495</ele>
        <time>2023-10-03T08:47:07Z</time>
      </trkpt>
      <trkpt lat="46.65869" lon="5.61196">
        <ele>495</ele>
        <time>2023-10-03T08:47:10Z</time>
      </trkpt>
      <trkpt lat="46.65866" lon="5.61195">
        <ele>495</ele>
        <time>2023-10-03T08:47:14Z</time>
      </trkpt>
      <trkpt lat="46.65863" lon="5.61194">
        <ele>495</ele>
        <time>2023-10-03T08:47:17Z</time>
      </trkpt>
      <trkpt lat="46.65861" lon="5.61193">
        <ele>495</ele>
        <time>2023-10-03T08:47:18Z</time>
      </trkpt>
      <trkpt lat="46.65858" lon="5.61193">
        <ele>494</ele>
        <time>2023-10-03T08:47:23Z</time>
      </trkpt>
      <trkpt lat="46.65855" lon="5.61193">
        <ele>494</ele>
        <time>2023-10-03T08:47:27Z</time>
      </trkpt>
      <trkpt lat="46.65853" lon="5.61191">
        <ele>493</ele>
        <time>2023-10-03T08:47:30Z</time>
      </trkpt>
      <trkpt lat="46.6585" lon="5.61188">
        <ele>493</ele>
        <time>2023-10-03T08:47:32Z</time>
      </trkpt>
      <trkpt lat="46.65847" lon="5.61188">
        <ele>493</ele>
        <time>2023-10-03T08:47:35Z</time>
      </trkpt>
      <trkpt lat="46.65844" lon="5.61189">
        <ele>493</ele>
        <time>2023-10-03T08:47:38Z</time>
      </trkpt>
      <trkpt lat="46.65841" lon="5.61188">
        <ele>493</ele>
        <time>2023-10-03T08:47:41Z</time>
      </trkpt>
      <trkpt lat="46.65837" lon="5.61188">
        <ele>493</ele>
        <time>2023-10-03T08:47:44Z</time>
      </trkpt>
      <trkpt lat="46.65834" lon="5.61189">
        <ele>493</ele>
        <time>2023-10-03T08:47:47Z</time>
      </trkpt>
      <trkpt lat="46.65831" lon="5.6119">
        <ele>493</ele>
        <time>2023-10-03T08:47:51Z</time>
      </trkpt>
      <trkpt lat="46.65828" lon="5.6119">
        <ele>493</ele>
        <time>2023-10-03T08:47:56Z</time>
      </trkpt>
      <trkpt lat="46.65825" lon="5.61189">
        <ele>493</ele>
        <time>2023-10-03T08:47:59Z</time>
      </trkpt>
      <trkpt lat="46.65822" lon="5.61189">
        <ele>493</ele>
        <time>2023-10-03T08:48:03Z</time>
      </trkpt>
      <trkpt lat="46.65819" lon="5.61188">
        <ele>492</ele>
        <time>2023-10-03T08:48:07Z</time>
      </trkpt>
      <trkpt lat="46.65816" lon="5.61188">
        <ele>492</ele>
        <time>2023-10-03T08:48:11Z</time>
      </trkpt>
      <trkpt lat="46.65812" lon="5.61188">
        <ele>493</ele>
        <time>2023-10-03T08:48:14Z</time>
      </trkpt>
      <trkpt lat="46.65809" lon="5.61187">
        <ele>493</ele>
        <time>2023-10-03T08:48:16Z</time>
      </trkpt>
      <trkpt lat="46.65806" lon="5.61187">
        <ele>493</ele>
        <time>2023-10-03T08:48:19Z</time>
      </trkpt>
      <trkpt lat="46.65803" lon="5.61185">
        <ele>493</ele>
        <time>2023-10-03T08:48:21Z</time>
      </trkpt>
      <trkpt lat="46.65801" lon="5.61183">
        <ele>494</ele>
        <time>2023-10-03T08:48:23Z</time>
      </trkpt>
      <trkpt lat="46.65798" lon="5.6118">
        <ele>494</ele>
        <time>2023-10-03T08:48:25Z</time>
      </trkpt>
      <trkpt lat="46.65796" lon="5.61177">
        <ele>494</ele>
        <time>2023-10-03T08:48:27Z</time>
      </trkpt>
      <trkpt lat="46.65792" lon="5.61177">
        <ele>494</ele>
        <time>2023-10-03T08:48:30Z</time>
      </trkpt>
      <trkpt lat="46.65789" lon="5.61177">
        <ele>494</ele>
        <time>2023-10-03T08:48:33Z</time>
      </trkpt>
      <trkpt lat="46.65786" lon="5.61177">
        <ele>494</ele>
        <time>2023-10-03T08:48:37Z</time>
      </trkpt>
      <trkpt lat="46.65783" lon="5.61179">
        <ele>494</ele>
        <time>2023-10-03T08:48:41Z</time>
      </trkpt>
      <trkpt lat="46.6578" lon="5.61181">
        <ele>494</ele>
        <time>2023-10-03T08:48:44Z</time>
      </trkpt>
      <trkpt lat="46.65778" lon="5.61185">
        <ele>495</ele>
        <time>2023-10-03T08:48:49Z</time>
      </trkpt>
      <trkpt lat="46.65776" lon="5.61188">
        <ele>496</ele>
        <time>2023-10-03T08:48:53Z</time>
      </trkpt>
      <trkpt lat="46.65773" lon="5.61191">
        <ele>497</ele>
        <time>2023-10-03T08:48:56Z</time>
      </trkpt>
      <trkpt lat="46.65771" lon="5.61194">
        <ele>497</ele>
        <time>2023-10-03T08:49:00Z</time>
      </trkpt>
      <trkpt lat="46.65769" lon="5.61198">
        <ele>499</ele>
        <time>2023-10-03T08:49:05Z</time>
      </trkpt>
      <trkpt lat="46.65767" lon="5.61202">
        <ele>500</ele>
        <time>2023-10-03T08:49:11Z</time>
      </trkpt>
      <trkpt lat="46.65765" lon="5.61205">
        <ele>501</ele>
        <time>2023-10-03T08:49:17Z</time>
      </trkpt>
      <trkpt lat="46.65763" lon="5.61208">
        <ele>502</ele>
        <time>2023-10-03T08:49:20Z</time>
      </trkpt>
      <trkpt lat="46.6576" lon="5.61211">
        <ele>503</ele>
        <time>2023-10-03T08:49:24Z</time>
      </trkpt>
      <trkpt lat="46.65758" lon="5.61213">
        <ele>503</ele>
        <time>2023-10-03T08:49:27Z</time>
      </trkpt>
      <trkpt lat="46.65755" lon="5.61216">
        <ele>503</ele>
        <time>2023-10-03T08:49:33Z</time>
      </trkpt>
      <trkpt lat="46.65752" lon="5.61218">
        <ele>503</ele>
        <time>2023-10-03T08:49:37Z</time>
      </trkpt>
      <trkpt lat="46.65749" lon="5.61219">
        <ele>503</ele>
        <time>2023-10-03T08:49:40Z</time>
      </trkpt>
      <trkpt lat="46.65746" lon="5.6122">
        <ele>503</ele>
        <time>2023-10-03T08:49:44Z</time>
      </trkpt>
      <trkpt lat="46.65745" lon="5.61221">
        <ele>504</ele>
        <time>2023-10-03T08:49:47Z</time>
      </trkpt>
      <trkpt lat="46.65743" lon="5.61222">
        <ele>504</ele>
        <time>2023-10-03T08:50:05Z</time>
      </trkpt>
      <trkpt lat="46.6574" lon="5.61221">
        <ele>504</ele>
        <time>2023-10-03T08:50:15Z</time>
      </trkpt>
      <trkpt lat="46.65737" lon="5.61219">
        <ele>504</ele>
        <time>2023-10-03T08:50:20Z</time>
      </trkpt>
      <trkpt lat="46.65735" lon="5.61217">
        <ele>504</ele>
        <time>2023-10-03T08:50:26Z</time>
      </trkpt>
      <trkpt lat="46.65735" lon="5.61214">
        <ele>504</ele>
        <time>2023-10-03T08:50:47Z</time>
      </trkpt>
      <trkpt lat="46.65736" lon="5.61215">
        <ele>504</ele>
        <time>2023-10-03T08:51:00Z</time>
      </trkpt>
      <trkpt lat="46.65735" lon="5.61216">
        <ele>504</ele>
        <time>2023-10-03T08:51:07Z</time>
      </trkpt>
      <trkpt lat="46.65733" lon="5.61214">
        <ele>504</ele>
        <time>2023-10-03T08:51:19Z</time>
      </trkpt>
      <trkpt lat="46.65732" lon="5.61211">
        <ele>502</ele>
        <time>2023-10-03T08:51:37Z</time>
      </trkpt>
      <trkpt lat="46.65732" lon="5.61209">
        <ele>502</ele>
        <time>2023-10-03T08:51:40Z</time>
      </trkpt>
      <trkpt lat="46.6573" lon="5.61204">
        <ele>502</ele>
        <time>2023-10-03T08:51:48Z</time>
      </trkpt>
      <trkpt lat="46.65731" lon="5.61204">
        <ele>502</ele>
        <time>2023-10-03T08:53:21Z</time>
      </trkpt>
      <trkpt lat="46.65731" lon="5.61207">
        <ele>503</ele>
        <time>2023-10-03T08:53:25Z</time>
      </trkpt>
      <trkpt lat="46.65731" lon="5.61211">
        <ele>504</ele>
        <time>2023-10-03T08:53:30Z</time>
      </trkpt>
      <trkpt lat="46.6573" lon="5.61214">
        <ele>504</ele>
        <time>2023-10-03T08:53:37Z</time>
      </trkpt>
      <trkpt lat="46.65731" lon="5.61216">
        <ele>504</ele>
        <time>2023-10-03T08:54:00Z</time>
      </trkpt>
      <trkpt lat="46.65733" lon="5.61218">
        <ele>504</ele>
        <time>2023-10-03T08:54:05Z</time>
      </trkpt>
      <trkpt lat="46.65732" lon="5.6122">
        <ele>504</ele>
        <time>2023-10-03T08:54:16Z</time>
      </trkpt>
      <trkpt lat="46.65733" lon="5.61222">
        <ele>504</ele>
        <time>2023-10-03T08:54:26Z</time>
      </trkpt>
      <trkpt lat="46.65731" lon="5.61222">
        <ele>504</ele>
        <time>2023-10-03T08:55:55Z</time>
      </trkpt>
      <trkpt lat="46.65728" lon="5.61222">
        <ele>504</ele>
        <time>2023-10-03T08:55:57Z</time>
      </trkpt>
      <trkpt lat="46.65725" lon="5.61223">
        <ele>504</ele>
        <time>2023-10-03T08:56:00Z</time>
      </trkpt>
      <trkpt lat="46.65722" lon="5.61224">
        <ele>504</ele>
        <time>2023-10-03T08:56:03Z</time>
      </trkpt>
      <trkpt lat="46.65719" lon="5.61225">
        <ele>504</ele>
        <time>2023-10-03T08:56:07Z</time>
      </trkpt>
      <trkpt lat="46.65715" lon="5.61227">
        <ele>504</ele>
        <time>2023-10-03T08:56:11Z</time>
      </trkpt>
      <trkpt lat="46.65712" lon="5.61229">
        <ele>504</ele>
        <time>2023-10-03T08:56:14Z</time>
      </trkpt>
      <trkpt lat="46.65709" lon="5.61232">
        <ele>504</ele>
        <time>2023-10-03T08:56:17Z</time>
      </trkpt>
      <trkpt lat="46.65707" lon="5.61235">
        <ele>505</ele>
        <time>2023-10-03T08:56:20Z</time>
      </trkpt>
      <trkpt lat="46.65704" lon="5.61237">
        <ele>505</ele>
        <time>2023-10-03T08:56:24Z</time>
      </trkpt>
      <trkpt lat="46.65701" lon="5.61237">
        <ele>505</ele>
        <time>2023-10-03T08:56:27Z</time>
      </trkpt>
      <trkpt lat="46.65697" lon="5.61238">
        <ele>505</ele>
        <time>2023-10-03T08:56:30Z</time>
      </trkpt>
      <trkpt lat="46.65694" lon="5.61239">
        <ele>505</ele>
        <time>2023-10-03T08:56:34Z</time>
      </trkpt>
      <trkpt lat="46.65691" lon="5.61241">
        <ele>506</ele>
        <time>2023-10-03T08:56:37Z</time>
      </trkpt>
      <trkpt lat="46.65688" lon="5.61242">
        <ele>506</ele>
        <time>2023-10-03T08:56:39Z</time>
      </trkpt>
      <trkpt lat="46.65686" lon="5.61245">
        <ele>505</ele>
        <time>2023-10-03T08:56:42Z</time>
      </trkpt>
      <trkpt lat="46.65684" lon="5.61248">
        <ele>506</ele>
        <time>2023-10-03T08:56:46Z</time>
      </trkpt>
      <trkpt lat="46.65683" lon="5.61252">
        <ele>507</ele>
        <time>2023-10-03T08:56:53Z</time>
      </trkpt>
      <trkpt lat="46.65681" lon="5.61255">
        <ele>507</ele>
        <time>2023-10-03T08:56:56Z</time>
      </trkpt>
      <trkpt lat="46.6568" lon="5.61258">
        <ele>507</ele>
        <time>2023-10-03T08:56:59Z</time>
      </trkpt>
      <trkpt lat="46.65678" lon="5.61262">
        <ele>507</ele>
        <time>2023-10-03T08:57:03Z</time>
      </trkpt>
      <trkpt lat="46.65677" lon="5.61266">
        <ele>508</ele>
        <time>2023-10-03T08:57:07Z</time>
      </trkpt>
      <trkpt lat="46.65676" lon="5.6127">
        <ele>508</ele>
        <time>2023-10-03T08:57:10Z</time>
      </trkpt>
      <trkpt lat="46.65675" lon="5.61274">
        <ele>509</ele>
        <time>2023-10-03T08:57:13Z</time>
      </trkpt>
      <trkpt lat="46.65673" lon="5.61277">
        <ele>509</ele>
        <time>2023-10-03T08:57:16Z</time>
      </trkpt>
      <trkpt lat="46.65671" lon="5.6128">
        <ele>509</ele>
        <time>2023-10-03T08:57:19Z</time>
      </trkpt>
      <trkpt lat="46.65668" lon="5.61282">
        <ele>508</ele>
        <time>2023-10-03T08:57:21Z</time>
      </trkpt>
      <trkpt lat="46.65665" lon="5.61284">
        <ele>508</ele>
        <time>2023-10-03T08:57:24Z</time>
      </trkpt>
      <trkpt lat="46.65661" lon="5.61284">
        <ele>507</ele>
        <time>2023-10-03T08:57:27Z</time>
      </trkpt>
      <trkpt lat="46.65659" lon="5.61285">
        <ele>507</ele>
        <time>2023-10-03T08:57:29Z</time>
      </trkpt>
      <trkpt lat="46.65656" lon="5.61285">
        <ele>507</ele>
        <time>2023-10-03T08:57:32Z</time>
      </trkpt>
      <trkpt lat="46.65652" lon="5.61286">
        <ele>507</ele>
        <time>2023-10-03T08:57:35Z</time>
      </trkpt>
      <trkpt lat="46.6565" lon="5.61289">
        <ele>507</ele>
        <time>2023-10-03T08:57:39Z</time>
      </trkpt>
      <trkpt lat="46.65648" lon="5.61292">
        <ele>506</ele>
        <time>2023-10-03T08:57:42Z</time>
      </trkpt>
      <trkpt lat="46.65645" lon="5.61295">
        <ele>506</ele>
        <time>2023-10-03T08:57:45Z</time>
      </trkpt>
      <trkpt lat="46.65643" lon="5.61298">
        <ele>506</ele>
        <time>2023-10-03T08:57:48Z</time>
      </trkpt>
      <trkpt lat="46.6564" lon="5.613">
        <ele>506</ele>
        <time>2023-10-03T08:57:51Z</time>
      </trkpt>
      <trkpt lat="46.65638" lon="5.61303">
        <ele>506</ele>
        <time>2023-10-03T08:57:54Z</time>
      </trkpt>
      <trkpt lat="46.65637" lon="5.61307">
        <ele>505</ele>
        <time>2023-10-03T08:57:57Z</time>
      </trkpt>
      <trkpt lat="46.65636" lon="5.61311">
        <ele>505</ele>
        <time>2023-10-03T08:58:02Z</time>
      </trkpt>
      <trkpt lat="46.65636" lon="5.61315">
        <ele>505</ele>
        <time>2023-10-03T08:58:06Z</time>
      </trkpt>
      <trkpt lat="46.65635" lon="5.61319">
        <ele>506</ele>
        <time>2023-10-03T08:58:09Z</time>
      </trkpt>
      <trkpt lat="46.65636" lon="5.61324">
        <ele>506</ele>
        <time>2023-10-03T08:58:12Z</time>
      </trkpt>
      <trkpt lat="46.65635" lon="5.61329">
        <ele>507</ele>
        <time>2023-10-03T08:58:16Z</time>
      </trkpt>
      <trkpt lat="46.65634" lon="5.61333">
        <ele>507</ele>
        <time>2023-10-03T08:58:21Z</time>
      </trkpt>
      <trkpt lat="46.65631" lon="5.61337">
        <ele>508</ele>
        <time>2023-10-03T08:58:23Z</time>
      </trkpt>
      <trkpt lat="46.65629" lon="5.61339">
        <ele>508</ele>
        <time>2023-10-03T08:58:25Z</time>
      </trkpt>
      <trkpt lat="46.65626" lon="5.61341">
        <ele>509</ele>
        <time>2023-10-03T08:58:36Z</time>
      </trkpt>
      <trkpt lat="46.65624" lon="5.61345">
        <ele>509</ele>
        <time>2023-10-03T08:58:40Z</time>
      </trkpt>
      <trkpt lat="46.65622" lon="5.61349">
        <ele>509</ele>
        <time>2023-10-03T08:58:43Z</time>
      </trkpt>
      <trkpt lat="46.65619" lon="5.61352">
        <ele>508</ele>
        <time>2023-10-03T08:58:46Z</time>
      </trkpt>
      <trkpt lat="46.65617" lon="5.61355">
        <ele>508</ele>
        <time>2023-10-03T08:58:49Z</time>
      </trkpt>
      <trkpt lat="46.65616" lon="5.61359">
        <ele>508</ele>
        <time>2023-10-03T08:58:52Z</time>
      </trkpt>
      <trkpt lat="46.65618" lon="5.61363">
        <ele>508</ele>
        <time>2023-10-03T08:58:55Z</time>
      </trkpt>
      <trkpt lat="46.6562" lon="5.61366">
        <ele>508</ele>
        <time>2023-10-03T08:58:58Z</time>
      </trkpt>
      <trkpt lat="46.65622" lon="5.61368">
        <ele>508</ele>
        <time>2023-10-03T08:59:01Z</time>
      </trkpt>
      <trkpt lat="46.65624" lon="5.61372">
        <ele>509</ele>
        <time>2023-10-03T08:59:04Z</time>
      </trkpt>
      <trkpt lat="46.65626" lon="5.61375">
        <ele>509</ele>
        <time>2023-10-03T08:59:09Z</time>
      </trkpt>
      <trkpt lat="46.65628" lon="5.61378">
        <ele>510</ele>
        <time>2023-10-03T08:59:21Z</time>
      </trkpt>
      <trkpt lat="46.65627" lon="5.61381">
        <ele>510</ele>
        <time>2023-10-03T08:59:35Z</time>
      </trkpt>
      <trkpt lat="46.65629" lon="5.61387">
        <ele>510</ele>
        <time>2023-10-03T09:00:06Z</time>
      </trkpt>
      <trkpt lat="46.6563" lon="5.61391">
        <ele>511</ele>
        <time>2023-10-03T09:00:12Z</time>
      </trkpt>
      <trkpt lat="46.65629" lon="5.61395">
        <ele>510</ele>
        <time>2023-10-03T09:00:15Z</time>
      </trkpt>
      <trkpt lat="46.65628" lon="5.61399">
        <ele>510</ele>
        <time>2023-10-03T09:00:18Z</time>
      </trkpt>
      <trkpt lat="46.65627" lon="5.61402">
        <ele>510</ele>
        <time>2023-10-03T09:00:21Z</time>
      </trkpt>
      <trkpt lat="46.65624" lon="5.61406">
        <ele>510</ele>
        <time>2023-10-03T09:00:24Z</time>
      </trkpt>
      <trkpt lat="46.65622" lon="5.6141">
        <ele>510</ele>
        <time>2023-10-03T09:00:27Z</time>
      </trkpt>
      <trkpt lat="46.6562" lon="5.61414">
        <ele>510</ele>
        <time>2023-10-03T09:00:30Z</time>
      </trkpt>
      <trkpt lat="46.65619" lon="5.61418">
        <ele>509</ele>
        <time>2023-10-03T09:00:35Z</time>
      </trkpt>
      <trkpt lat="46.65617" lon="5.61422">
        <ele>509</ele>
        <time>2023-10-03T09:00:38Z</time>
      </trkpt>
      <trkpt lat="46.65614" lon="5.61426">
        <ele>508</ele>
        <time>2023-10-03T09:00:41Z</time>
      </trkpt>
      <trkpt lat="46.65613" lon="5.6143">
        <ele>508</ele>
        <time>2023-10-03T09:00:44Z</time>
      </trkpt>
      <trkpt lat="46.65611" lon="5.61433">
        <ele>508</ele>
        <time>2023-10-03T09:00:47Z</time>
      </trkpt>
      <trkpt lat="46.65609" lon="5.61437">
        <ele>508</ele>
        <time>2023-10-03T09:00:50Z</time>
      </trkpt>
      <trkpt lat="46.65608" lon="5.61441">
        <ele>507</ele>
        <time>2023-10-03T09:00:54Z</time>
      </trkpt>
      <trkpt lat="46.65609" lon="5.61445">
        <ele>507</ele>
        <time>2023-10-03T09:00:59Z</time>
      </trkpt>
      <trkpt lat="46.65609" lon="5.61449">
        <ele>507</ele>
        <time>2023-10-03T09:01:02Z</time>
      </trkpt>
      <trkpt lat="46.65608" lon="5.61453">
        <ele>506</ele>
        <time>2023-10-03T09:01:05Z</time>
      </trkpt>
      <trkpt lat="46.65608" lon="5.61457">
        <ele>505</ele>
        <time>2023-10-03T09:01:08Z</time>
      </trkpt>
      <trkpt lat="46.65608" lon="5.61461">
        <ele>505</ele>
        <time>2023-10-03T09:01:11Z</time>
      </trkpt>
      <trkpt lat="46.65609" lon="5.61465">
        <ele>504</ele>
        <time>2023-10-03T09:01:15Z</time>
      </trkpt>
      <trkpt lat="46.65609" lon="5.61469">
        <ele>503</ele>
        <time>2023-10-03T09:01:20Z</time>
      </trkpt>
      <trkpt lat="46.65608" lon="5.61474">
        <ele>503</ele>
        <time>2023-10-03T09:01:25Z</time>
      </trkpt>
      <trkpt lat="46.65607" lon="5.61478">
        <ele>502</ele>
        <time>2023-10-03T09:01:29Z</time>
      </trkpt>
      <trkpt lat="46.65605" lon="5.61482">
        <ele>501</ele>
        <time>2023-10-03T09:01:33Z</time>
      </trkpt>
      <trkpt lat="46.65604" lon="5.61486">
        <ele>500</ele>
        <time>2023-10-03T09:01:36Z</time>
      </trkpt>
      <trkpt lat="46.65604" lon="5.6149">
        <ele>500</ele>
        <time>2023-10-03T09:01:38Z</time>
      </trkpt>
      <trkpt lat="46.65603" lon="5.61494">
        <ele>499</ele>
        <time>2023-10-03T09:01:43Z</time>
      </trkpt>
      <trkpt lat="46.65603" lon="5.61498">
        <ele>496</ele>
        <time>2023-10-03T09:01:56Z</time>
      </trkpt>
      <trkpt lat="46.656" lon="5.615">
        <ele>495</ele>
        <time>2023-10-03T09:02:03Z</time>
      </trkpt>
      <trkpt lat="46.65598" lon="5.61501">
        <ele>493</ele>
        <time>2023-10-03T09:02:08Z</time>
      </trkpt>
      <trkpt lat="46.65595" lon="5.61503">
        <ele>492</ele>
        <time>2023-10-03T09:02:12Z</time>
      </trkpt>
      <trkpt lat="46.65594" lon="5.61506">
        <ele>492</ele>
        <time>2023-10-03T09:02:17Z</time>
      </trkpt>
      <trkpt lat="46.65596" lon="5.61506">
        <ele>492</ele>
        <time>2023-10-03T09:02:25Z</time>
      </trkpt>
      <trkpt lat="46.65598" lon="5.61509">
        <ele>492</ele>
        <time>2023-10-03T09:02:31Z</time>
      </trkpt>
      <trkpt lat="46.65599" lon="5.61511">
        <ele>492</ele>
        <time>2023-10-03T09:02:35Z</time>
      </trkpt>
      <trkpt lat="46.65601" lon="5.6151">
        <ele>492</ele>
        <time>2023-10-03T09:02:42Z</time>
      </trkpt>
      <trkpt lat="46.65603" lon="5.61508">
        <ele>492</ele>
        <time>2023-10-03T09:02:46Z</time>
      </trkpt>
      <trkpt lat="46.65605" lon="5.6151">
        <ele>492</ele>
        <time>2023-10-03T09:03:17Z</time>
      </trkpt>
      <trkpt lat="46.65603" lon="5.61512">
        <ele>492</ele>
        <time>2023-10-03T09:03:45Z</time>
      </trkpt>
      <trkpt lat="46.65599" lon="5.61515">
        <ele>492</ele>
        <time>2023-10-03T09:03:47Z</time>
      </trkpt>
      <trkpt lat="46.65596" lon="5.61518">
        <ele>493</ele>
        <time>2023-10-03T09:03:48Z</time>
      </trkpt>
      <trkpt lat="46.65592" lon="5.6152">
        <ele>493</ele>
        <time>2023-10-03T09:03:49Z</time>
      </trkpt>
      <trkpt lat="46.65589" lon="5.61521">
        <ele>493</ele>
        <time>2023-10-03T09:03:50Z</time>
      </trkpt>
      <trkpt lat="46.65585" lon="5.61521">
        <ele>493</ele>
        <time>2023-10-03T09:03:52Z</time>
      </trkpt>
      <trkpt lat="46.65582" lon="5.61522">
        <ele>493</ele>
        <time>2023-10-03T09:03:54Z</time>
      </trkpt>
      <trkpt lat="46.65581" lon="5.61525">
        <ele>493</ele>
        <time>2023-10-03T09:03:57Z</time>
      </trkpt>
      <trkpt lat="46.65579" lon="5.61528">
        <ele>493</ele>
        <time>2023-10-03T09:04:01Z</time>
      </trkpt>
      <trkpt lat="46.65579" lon="5.61532">
        <ele>493</ele>
        <time>2023-10-03T09:04:05Z</time>
      </trkpt>
      <trkpt lat="46.65579" lon="5.61536">
        <ele>495</ele>
        <time>2023-10-03T09:04:12Z</time>
      </trkpt>
      <trkpt lat="46.65578" lon="5.61541">
        <ele>495</ele>
        <time>2023-10-03T09:04:17Z</time>
      </trkpt>
      <trkpt lat="46.65576" lon="5.61544">
        <ele>496</ele>
        <time>2023-10-03T09:04:21Z</time>
      </trkpt>
      <trkpt lat="46.65574" lon="5.61546">
        <ele>497</ele>
        <time>2023-10-03T09:04:27Z</time>
      </trkpt>
      <trkpt lat="46.6557" lon="5.61548">
        <ele>498</ele>
        <time>2023-10-03T09:04:30Z</time>
      </trkpt>
      <trkpt lat="46.65567" lon="5.61551">
        <ele>498</ele>
        <time>2023-10-03T09:04:33Z</time>
      </trkpt>
      <trkpt lat="46.65565" lon="5.61553">
        <ele>499</ele>
        <time>2023-10-03T09:04:37Z</time>
      </trkpt>
      <trkpt lat="46.65562" lon="5.61555">
        <ele>499</ele>
        <time>2023-10-03T09:04:42Z</time>
      </trkpt>
      <trkpt lat="46.65559" lon="5.61557">
        <ele>500</ele>
        <time>2023-10-03T09:04:48Z</time>
      </trkpt>
      <trkpt lat="46.65556" lon="5.61559">
        <ele>501</ele>
        <time>2023-10-03T09:04:53Z</time>
      </trkpt>
      <trkpt lat="46.65553" lon="5.6156">
        <ele>501</ele>
        <time>2023-10-03T09:04:57Z</time>
      </trkpt>
      <trkpt lat="46.65551" lon="5.61562">
        <ele>502</ele>
        <time>2023-10-03T09:05:02Z</time>
      </trkpt>
      <trkpt lat="46.65549" lon="5.61564">
        <ele>503</ele>
        <time>2023-10-03T09:05:07Z</time>
      </trkpt>
      <trkpt lat="46.65546" lon="5.61566">
        <ele>503</ele>
        <time>2023-10-03T09:05:14Z</time>
      </trkpt>
      <trkpt lat="46.65543" lon="5.61567">
        <ele>504</ele>
        <time>2023-10-03T09:05:22Z</time>
      </trkpt>
      <trkpt lat="46.6554" lon="5.61568">
        <ele>504</ele>
        <time>2023-10-03T09:05:27Z</time>
      </trkpt>
      <trkpt lat="46.65537" lon="5.61567">
        <ele>504</ele>
        <time>2023-10-03T09:05:32Z</time>
      </trkpt>
      <trkpt lat="46.65536" lon="5.61566">
        <ele>504</ele>
        <time>2023-10-03T09:05:33Z</time>
      </trkpt>
      <trkpt lat="46.65534" lon="5.61565">
        <ele>504</ele>
        <time>2023-10-03T09:05:57Z</time>
      </trkpt>
      <trkpt lat="46.65533" lon="5.61568">
        <ele>504</ele>
        <time>2023-10-03T09:06:29Z</time>
      </trkpt>
      <trkpt lat="46.65533" lon="5.61567">
        <ele>504</ele>
        <time>2023-10-03T09:06:50Z</time>
      </trkpt>
      <trkpt lat="46.65533" lon="5.61563">
        <ele>504</ele>
        <time>2023-10-03T09:07:05Z</time>
      </trkpt>
      <trkpt lat="46.65532" lon="5.61559">
        <ele>504</ele>
        <time>2023-10-03T09:07:24Z</time>
      </trkpt>
      <trkpt lat="46.65532" lon="5.6156">
        <ele>504</ele>
        <time>2023-10-03T09:07:38Z</time>
      </trkpt>
      <trkpt lat="46.6553" lon="5.61561">
        <ele>504</ele>
        <time>2023-10-03T09:07:41Z</time>
      </trkpt>
      <trkpt lat="46.65528" lon="5.61559">
        <ele>504</ele>
        <time>2023-10-03T09:07:45Z</time>
      </trkpt>
      <trkpt lat="46.65525" lon="5.61558">
        <ele>504</ele>
        <time>2023-10-03T09:07:49Z</time>
      </trkpt>
      <trkpt lat="46.65523" lon="5.61555">
        <ele>504</ele>
        <time>2023-10-03T09:07:52Z</time>
      </trkpt>
      <trkpt lat="46.6552" lon="5.61553">
        <ele>504</ele>
        <time>2023-10-03T09:07:56Z</time>
      </trkpt>
      <trkpt lat="46.65517" lon="5.6155">
        <ele>504</ele>
        <time>2023-10-03T09:07:59Z</time>
      </trkpt>
      <trkpt lat="46.65515" lon="5.61548">
        <ele>504</ele>
        <time>2023-10-03T09:08:02Z</time>
      </trkpt>
      <trkpt lat="46.65512" lon="5.61545">
        <ele>505</ele>
        <time>2023-10-03T09:08:05Z</time>
      </trkpt>
      <trkpt lat="46.65509" lon="5.61542">
        <ele>505</ele>
        <time>2023-10-03T09:08:08Z</time>
      </trkpt>
      <trkpt lat="46.65506" lon="5.61539">
        <ele>505</ele>
        <time>2023-10-03T09:08:11Z</time>
      </trkpt>
      <trkpt lat="46.65503" lon="5.61536">
        <ele>505</ele>
        <time>2023-10-03T09:08:15Z</time>
      </trkpt>
      <trkpt lat="46.65501" lon="5.61533">
        <ele>505</ele>
        <time>2023-10-03T09:08:19Z</time>
      </trkpt>
      <trkpt lat="46.65498" lon="5.6153">
        <ele>505</ele>
        <time>2023-10-03T09:08:22Z</time>
      </trkpt>
      <trkpt lat="46.65496" lon="5.61528">
        <ele>505</ele>
        <time>2023-10-03T09:08:25Z</time>
      </trkpt>
      <trkpt lat="46.65493" lon="5.61525">
        <ele>505</ele>
        <time>2023-10-03T09:08:29Z</time>
      </trkpt>
      <trkpt lat="46.65491" lon="5.61522">
        <ele>505</ele>
        <time>2023-10-03T09:08:33Z</time>
      </trkpt>
      <trkpt lat="46.65489" lon="5.61519">
        <ele>505</ele>
        <time>2023-10-03T09:08:36Z</time>
      </trkpt>
      <trkpt lat="46.65486" lon="5.61516">
        <ele>505</ele>
        <time>2023-10-03T09:08:40Z</time>
      </trkpt>
      <trkpt lat="46.65484" lon="5.61514">
        <ele>505</ele>
        <time>2023-10-03T09:08:43Z</time>
      </trkpt>
      <trkpt lat="46.65481" lon="5.61512">
        <ele>505</ele>
        <time>2023-10-03T09:08:47Z</time>
      </trkpt>
      <trkpt lat="46.65477" lon="5.61511">
        <ele>505</ele>
        <time>2023-10-03T09:08:50Z</time>
      </trkpt>
      <trkpt lat="46.65473" lon="5.61511">
        <ele>505</ele>
        <time>2023-10-03T09:08:53Z</time>
      </trkpt>
      <trkpt lat="46.6547" lon="5.61508">
        <ele>505</ele>
        <time>2023-10-03T09:08:56Z</time>
      </trkpt>
      <trkpt lat="46.65467" lon="5.61505">
        <ele>505</ele>
        <time>2023-10-03T09:09:00Z</time>
      </trkpt>
      <trkpt lat="46.65465" lon="5.61503">
        <ele>505</ele>
        <time>2023-10-03T09:09:02Z</time>
      </trkpt>
      <trkpt lat="46.65462" lon="5.615">
        <ele>505</ele>
        <time>2023-10-03T09:09:05Z</time>
      </trkpt>
      <trkpt lat="46.65459" lon="5.61498">
        <ele>505</ele>
        <time>2023-10-03T09:09:08Z</time>
      </trkpt>
      <trkpt lat="46.65456" lon="5.61496">
        <ele>505</ele>
        <time>2023-10-03T09:09:10Z</time>
      </trkpt>
      <trkpt lat="46.65454" lon="5.61495">
        <ele>505</ele>
        <time>2023-10-03T09:09:13Z</time>
      </trkpt>
      <trkpt lat="46.65451" lon="5.61493">
        <ele>506</ele>
        <time>2023-10-03T09:09:17Z</time>
      </trkpt>
      <trkpt lat="46.6545" lon="5.61489">
        <ele>506</ele>
        <time>2023-10-03T09:09:20Z</time>
      </trkpt>
      <trkpt lat="46.6545" lon="5.61485">
        <ele>506</ele>
        <time>2023-10-03T09:09:24Z</time>
      </trkpt>
      <trkpt lat="46.65452" lon="5.61483">
        <ele>507</ele>
        <time>2023-10-03T09:09:30Z</time>
      </trkpt>
      <trkpt lat="46.65454" lon="5.6148">
        <ele>507</ele>
        <time>2023-10-03T09:09:34Z</time>
      </trkpt>
      <trkpt lat="46.65456" lon="5.61477">
        <ele>507</ele>
        <time>2023-10-03T09:09:37Z</time>
      </trkpt>
      <trkpt lat="46.65459" lon="5.61475">
        <ele>507</ele>
        <time>2023-10-03T09:09:41Z</time>
      </trkpt>
      <trkpt lat="46.65461" lon="5.61472">
        <ele>507</ele>
        <time>2023-10-03T09:09:45Z</time>
      </trkpt>
      <trkpt lat="46.65464" lon="5.6147">
        <ele>507</ele>
        <time>2023-10-03T09:09:51Z</time>
      </trkpt>
      <trkpt lat="46.65466" lon="5.61467">
        <ele>506</ele>
        <time>2023-10-03T09:09:56Z</time>
      </trkpt>
      <trkpt lat="46.65467" lon="5.61463">
        <ele>506</ele>
        <time>2023-10-03T09:10:04Z</time>
      </trkpt>
      <trkpt lat="46.65465" lon="5.61462">
        <ele>505</ele>
        <time>2023-10-03T09:10:32Z</time>
      </trkpt>
      <trkpt lat="46.65466" lon="5.61462">
        <ele>505</ele>
        <time>2023-10-03T09:12:08Z</time>
      </trkpt>
      <trkpt lat="46.65465" lon="5.61463">
        <ele>506</ele>
        <time>2023-10-03T09:12:12Z</time>
      </trkpt>
      <trkpt lat="46.65466" lon="5.61462">
        <ele>507</ele>
        <time>2023-10-03T09:12:41Z</time>
      </trkpt>
      <trkpt lat="46.65468" lon="5.61464">
        <ele>506</ele>
        <time>2023-10-03T09:13:00Z</time>
      </trkpt>
      <trkpt lat="46.65466" lon="5.61466">
        <ele>506</ele>
        <time>2023-10-03T09:13:16Z</time>
      </trkpt>
      <trkpt lat="46.65464" lon="5.61468">
        <ele>507</ele>
        <time>2023-10-03T09:13:21Z</time>
      </trkpt>
      <trkpt lat="46.65461" lon="5.6147">
        <ele>507</ele>
        <time>2023-10-03T09:13:25Z</time>
      </trkpt>
      <trkpt lat="46.6546" lon="5.61473">
        <ele>507</ele>
        <time>2023-10-03T09:13:28Z</time>
      </trkpt>
      <trkpt lat="46.65458" lon="5.61477">
        <ele>507</ele>
        <time>2023-10-03T09:13:31Z</time>
      </trkpt>
      <trkpt lat="46.65456" lon="5.6148">
        <ele>507</ele>
        <time>2023-10-03T09:13:35Z</time>
      </trkpt>
      <trkpt lat="46.65454" lon="5.61483">
        <ele>507</ele>
        <time>2023-10-03T09:13:38Z</time>
      </trkpt>
      <trkpt lat="46.65452" lon="5.61487">
        <ele>506</ele>
        <time>2023-10-03T09:13:43Z</time>
      </trkpt>
      <trkpt lat="46.65451" lon="5.61491">
        <ele>506</ele>
        <time>2023-10-03T09:13:46Z</time>
      </trkpt>
      <trkpt lat="46.65452" lon="5.61495">
        <ele>506</ele>
        <time>2023-10-03T09:13:49Z</time>
      </trkpt>
      <trkpt lat="46.65454" lon="5.61498">
        <ele>506</ele>
        <time>2023-10-03T09:13:52Z</time>
      </trkpt>
      <trkpt lat="46.65457" lon="5.61499">
        <ele>506</ele>
        <time>2023-10-03T09:13:55Z</time>
      </trkpt>
      <trkpt lat="46.6546" lon="5.61499">
        <ele>505</ele>
        <time>2023-10-03T09:13:58Z</time>
      </trkpt>
      <trkpt lat="46.65463" lon="5.615">
        <ele>505</ele>
        <time>2023-10-03T09:14:01Z</time>
      </trkpt>
      <trkpt lat="46.65467" lon="5.615">
        <ele>505</ele>
        <time>2023-10-03T09:14:04Z</time>
      </trkpt>
      <trkpt lat="46.6547" lon="5.61502">
        <ele>505</ele>
        <time>2023-10-03T09:14:07Z</time>
      </trkpt>
      <trkpt lat="46.65474" lon="5.61503">
        <ele>505</ele>
        <time>2023-10-03T09:14:10Z</time>
      </trkpt>
      <trkpt lat="46.65477" lon="5.61506">
        <ele>505</ele>
        <time>2023-10-03T09:14:13Z</time>
      </trkpt>
      <trkpt lat="46.6548" lon="5.61508">
        <ele>505</ele>
        <time>2023-10-03T09:14:16Z</time>
      </trkpt>
      <trkpt lat="46.65483" lon="5.61512">
        <ele>505</ele>
        <time>2023-10-03T09:14:19Z</time>
      </trkpt>
      <trkpt lat="46.65485" lon="5.61516">
        <ele>505</ele>
        <time>2023-10-03T09:14:22Z</time>
      </trkpt>
      <trkpt lat="46.65488" lon="5.6152">
        <ele>505</ele>
        <time>2023-10-03T09:14:25Z</time>
      </trkpt>
      <trkpt lat="46.6549" lon="5.61524">
        <ele>505</ele>
        <time>2023-10-03T09:14:28Z</time>
      </trkpt>
      <trkpt lat="46.65493" lon="5.61528">
        <ele>505</ele>
        <time>2023-10-03T09:14:31Z</time>
      </trkpt>
      <trkpt lat="46.65495" lon="5.61531">
        <ele>504</ele>
        <time>2023-10-03T09:14:33Z</time>
      </trkpt>
      <trkpt lat="46.65498" lon="5.61534">
        <ele>504</ele>
        <time>2023-10-03T09:14:36Z</time>
      </trkpt>
      <trkpt lat="46.65501" lon="5.61537">
        <ele>504</ele>
        <time>2023-10-03T09:14:39Z</time>
      </trkpt>
      <trkpt lat="46.65504" lon="5.6154">
        <ele>504</ele>
        <time>2023-10-03T09:14:41Z</time>
      </trkpt>
      <trkpt lat="46.65507" lon="5.61543">
        <ele>504</ele>
        <time>2023-10-03T09:14:44Z</time>
      </trkpt>
      <trkpt lat="46.6551" lon="5.61545">
        <ele>504</ele>
        <time>2023-10-03T09:14:47Z</time>
      </trkpt>
      <trkpt lat="46.65514" lon="5.61548">
        <ele>504</ele>
        <time>2023-10-03T09:14:50Z</time>
      </trkpt>
      <trkpt lat="46.65516" lon="5.61552">
        <ele>504</ele>
        <time>2023-10-03T09:14:53Z</time>
      </trkpt>
      <trkpt lat="46.65518" lon="5.61555">
        <ele>504</ele>
        <time>2023-10-03T09:14:55Z</time>
      </trkpt>
      <trkpt lat="46.65521" lon="5.61559">
        <ele>504</ele>
        <time>2023-10-03T09:14:58Z</time>
      </trkpt>
      <trkpt lat="46.65524" lon="5.61562">
        <ele>504</ele>
        <time>2023-10-03T09:15:01Z</time>
      </trkpt>
      <trkpt lat="46.65526" lon="5.61565">
        <ele>504</ele>
        <time>2023-10-03T09:15:04Z</time>
      </trkpt>
      <trkpt lat="46.65529" lon="5.61568">
        <ele>504</ele>
        <time>2023-10-03T09:15:07Z</time>
      </trkpt>
      <trkpt lat="46.65531" lon="5.61571">
        <ele>503</ele>
        <time>2023-10-03T09:15:10Z</time>
      </trkpt>
      <trkpt lat="46.65533" lon="5.61573">
        <ele>503</ele>
        <time>2023-10-03T09:15:13Z</time>
      </trkpt>
      <trkpt lat="46.65536" lon="5.61574">
        <ele>503</ele>
        <time>2023-10-03T09:15:16Z</time>
      </trkpt>
      <trkpt lat="46.65539" lon="5.61572">
        <ele>503</ele>
        <time>2023-10-03T09:15:18Z</time>
      </trkpt>
      <trkpt lat="46.65542" lon="5.61571">
        <ele>502</ele>
        <time>2023-10-03T09:15:20Z</time>
      </trkpt>
      <trkpt lat="46.65545" lon="5.6157">
        <ele>502</ele>
        <time>2023-10-03T09:15:23Z</time>
      </trkpt>
      <trkpt lat="46.65548" lon="5.61568">
        <ele>502</ele>
        <time>2023-10-03T09:15:26Z</time>
      </trkpt>
      <trkpt lat="46.6555" lon="5.61566">
        <ele>501</ele>
        <time>2023-10-03T09:15:29Z</time>
      </trkpt>
      <trkpt lat="46.65553" lon="5.61564">
        <ele>501</ele>
        <time>2023-10-03T09:15:32Z</time>
      </trkpt>
      <trkpt lat="46.65556" lon="5.61562">
        <ele>500</ele>
        <time>2023-10-03T09:15:34Z</time>
      </trkpt>
      <trkpt lat="46.65559" lon="5.61561">
        <ele>500</ele>
        <time>2023-10-03T09:15:37Z</time>
      </trkpt>
      <trkpt lat="46.65562" lon="5.6156">
        <ele>499</ele>
        <time>2023-10-03T09:15:41Z</time>
      </trkpt>
      <trkpt lat="46.65565" lon="5.61559">
        <ele>499</ele>
        <time>2023-10-03T09:15:44Z</time>
      </trkpt>
      <trkpt lat="46.65569" lon="5.61557">
        <ele>498</ele>
        <time>2023-10-03T09:15:47Z</time>
      </trkpt>
      <trkpt lat="46.65572" lon="5.61556">
        <ele>498</ele>
        <time>2023-10-03T09:15:49Z</time>
      </trkpt>
      <trkpt lat="46.65575" lon="5.61554">
        <ele>496</ele>
        <time>2023-10-03T09:15:54Z</time>
      </trkpt>
      <trkpt lat="46.65578" lon="5.61552">
        <ele>496</ele>
        <time>2023-10-03T09:15:59Z</time>
      </trkpt>
      <trkpt lat="46.65581" lon="5.61549">
        <ele>495</ele>
        <time>2023-10-03T09:16:02Z</time>
      </trkpt>
      <trkpt lat="46.65584" lon="5.61546">
        <ele>495</ele>
        <time>2023-10-03T09:16:04Z</time>
      </trkpt>
      <trkpt lat="46.65587" lon="5.61543">
        <ele>494</ele>
        <time>2023-10-03T09:16:06Z</time>
      </trkpt>
      <trkpt lat="46.65589" lon="5.61541">
        <ele>494</ele>
        <time>2023-10-03T09:16:09Z</time>
      </trkpt>
      <trkpt lat="46.65592" lon="5.61538">
        <ele>494</ele>
        <time>2023-10-03T09:16:12Z</time>
      </trkpt>
      <trkpt lat="46.65596" lon="5.61535">
        <ele>493</ele>
        <time>2023-10-03T09:16:14Z</time>
      </trkpt>
      <trkpt lat="46.656" lon="5.61533">
        <ele>493</ele>
        <time>2023-10-03T09:16:16Z</time>
      </trkpt>
      <trkpt lat="46.65602" lon="5.61531">
        <ele>492</ele>
        <time>2023-10-03T09:16:19Z</time>
      </trkpt>
      <trkpt lat="46.65603" lon="5.61527">
        <ele>492</ele>
        <time>2023-10-03T09:16:23Z</time>
      </trkpt>
      <trkpt lat="46.65603" lon="5.61525">
        <ele>492</ele>
        <time>2023-10-03T09:16:24Z</time>
      </trkpt>
      <trkpt lat="46.65602" lon="5.61521">
        <ele>492</ele>
        <time>2023-10-03T09:16:27Z</time>
      </trkpt>
      <trkpt lat="46.65602" lon="5.61517">
        <ele>491</ele>
        <time>2023-10-03T09:16:30Z</time>
      </trkpt>
      <trkpt lat="46.65603" lon="5.61513">
        <ele>491</ele>
        <time>2023-10-03T09:16:34Z</time>
      </trkpt>
      <trkpt lat="46.65603" lon="5.61509">
        <ele>491</ele>
        <time>2023-10-03T09:16:38Z</time>
      </trkpt>
      <trkpt lat="46.65603" lon="5.61505">
        <ele>490</ele>
        <time>2023-10-03T09:16:42Z</time>
      </trkpt>
      <trkpt lat="46.65602" lon="5.615">
        <ele>490</ele>
        <time>2023-10-03T09:16:45Z</time>
      </trkpt>
      <trkpt lat="46.65602" lon="5.61496">
        <ele>490</ele>
        <time>2023-10-03T09:16:48Z</time>
      </trkpt>
      <trkpt lat="46.656" lon="5.61492">
        <ele>489</ele>
        <time>2023-10-03T09:16:54Z</time>
      </trkpt>
      <trkpt lat="46.65599" lon="5.61488">
        <ele>489</ele>
        <time>2023-10-03T09:16:58Z</time>
      </trkpt>
      <trkpt lat="46.65597" lon="5.61485">
        <ele>488</ele>
        <time>2023-10-03T09:17:02Z</time>
      </trkpt>
      <trkpt lat="46.65595" lon="5.61482">
        <ele>488</ele>
        <time>2023-10-03T09:17:06Z</time>
      </trkpt>
      <trkpt lat="46.65593" lon="5.61478">
        <ele>487</ele>
        <time>2023-10-03T09:17:09Z</time>
      </trkpt>
      <trkpt lat="46.65591" lon="5.61474">
        <ele>486</ele>
        <time>2023-10-03T09:17:13Z</time>
      </trkpt>
      <trkpt lat="46.6559" lon="5.61469">
        <ele>485</ele>
        <time>2023-10-03T09:17:18Z</time>
      </trkpt>
      <trkpt lat="46.65588" lon="5.61466">
        <ele>485</ele>
        <time>2023-10-03T09:17:21Z</time>
      </trkpt>
      <trkpt lat="46.65585" lon="5.61464">
        <ele>485</ele>
        <time>2023-10-03T09:17:24Z</time>
      </trkpt>
      <trkpt lat="46.65582" lon="5.61465">
        <ele>484</ele>
        <time>2023-10-03T09:17:26Z</time>
      </trkpt>
      <trkpt lat="46.65579" lon="5.61466">
        <ele>484</ele>
        <time>2023-10-03T09:17:28Z</time>
      </trkpt>
      <trkpt lat="46.65577" lon="5.61469">
        <ele>484</ele>
        <time>2023-10-03T09:17:31Z</time>
      </trkpt>
      <trkpt lat="46.65574" lon="5.61471">
        <ele>483</ele>
        <time>2023-10-03T09:17:34Z</time>
      </trkpt>
      <trkpt lat="46.65574" lon="5.61474">
        <ele>482</ele>
        <time>2023-10-03T09:17:39Z</time>
      </trkpt>
      <trkpt lat="46.65575" lon="5.61477">
        <ele>482</ele>
        <time>2023-10-03T09:17:44Z</time>
      </trkpt>
      <trkpt lat="46.65574" lon="5.61479">
        <ele>479</ele>
        <time>2023-10-03T09:17:56Z</time>
      </trkpt>
      <trkpt lat="46.65572" lon="5.6148">
        <ele>478</ele>
        <time>2023-10-03T09:18:03Z</time>
      </trkpt>
      <trkpt lat="46.65568" lon="5.6148">
        <ele>477</ele>
        <time>2023-10-03T09:18:06Z</time>
      </trkpt>
      <trkpt lat="46.65565" lon="5.61479">
        <ele>477</ele>
        <time>2023-10-03T09:18:08Z</time>
      </trkpt>
      <trkpt lat="46.65562" lon="5.61478">
        <ele>477</ele>
        <time>2023-10-03T09:18:11Z</time>
      </trkpt>
      <trkpt lat="46.65559" lon="5.61476">
        <ele>476</ele>
        <time>2023-10-03T09:18:14Z</time>
      </trkpt>
      <trkpt lat="46.65556" lon="5.61474">
        <ele>475</ele>
        <time>2023-10-03T09:18:19Z</time>
      </trkpt>
      <trkpt lat="46.65553" lon="5.61472">
        <ele>475</ele>
        <time>2023-10-03T09:18:22Z</time>
      </trkpt>
      <trkpt lat="46.6555" lon="5.61471">
        <ele>474</ele>
        <time>2023-10-03T09:18:25Z</time>
      </trkpt>
      <trkpt lat="46.65548" lon="5.61471">
        <ele>474</ele>
        <time>2023-10-03T09:18:29Z</time>
      </trkpt>
      <trkpt lat="46.65545" lon="5.61469">
        <ele>473</ele>
        <time>2023-10-03T09:18:33Z</time>
      </trkpt>
      <trkpt lat="46.65542" lon="5.61467">
        <ele>473</ele>
        <time>2023-10-03T09:18:36Z</time>
      </trkpt>
      <trkpt lat="46.65539" lon="5.61465">
        <ele>472</ele>
        <time>2023-10-03T09:18:39Z</time>
      </trkpt>
      <trkpt lat="46.65536" lon="5.61464">
        <ele>472</ele>
        <time>2023-10-03T09:18:42Z</time>
      </trkpt>
      <trkpt lat="46.65533" lon="5.61462">
        <ele>472</ele>
        <time>2023-10-03T09:18:48Z</time>
      </trkpt>
      <trkpt lat="46.65532" lon="5.61459">
        <ele>471</ele>
        <time>2023-10-03T09:18:54Z</time>
      </trkpt>
      <trkpt lat="46.6553" lon="5.61455">
        <ele>470</ele>
        <time>2023-10-03T09:18:58Z</time>
      </trkpt>
      <trkpt lat="46.65527" lon="5.61453">
        <ele>469</ele>
        <time>2023-10-03T09:19:01Z</time>
      </trkpt>
      <trkpt lat="46.65525" lon="5.61451">
        <ele>469</ele>
        <time>2023-10-03T09:19:06Z</time>
      </trkpt>
      <trkpt lat="46.65522" lon="5.61448">
        <ele>468</ele>
        <time>2023-10-03T09:19:09Z</time>
      </trkpt>
      <trkpt lat="46.65519" lon="5.61445">
        <ele>468</ele>
        <time>2023-10-03T09:19:12Z</time>
      </trkpt>
      <trkpt lat="46.65517" lon="5.61443">
        <ele>467</ele>
        <time>2023-10-03T09:19:16Z</time>
      </trkpt>
      <trkpt lat="46.65514" lon="5.6144">
        <ele>467</ele>
        <time>2023-10-03T09:19:19Z</time>
      </trkpt>
      <trkpt lat="46.65511" lon="5.6144">
        <ele>466</ele>
        <time>2023-10-03T09:19:26Z</time>
      </trkpt>
      <trkpt lat="46.65509" lon="5.61438">
        <ele>465</ele>
        <time>2023-10-03T09:19:33Z</time>
      </trkpt>
      <trkpt lat="46.65507" lon="5.61435">
        <ele>464</ele>
        <time>2023-10-03T09:19:36Z</time>
      </trkpt>
      <trkpt lat="46.65505" lon="5.61431">
        <ele>463</ele>
        <time>2023-10-03T09:19:41Z</time>
      </trkpt>
      <trkpt lat="46.65504" lon="5.61427">
        <ele>462</ele>
        <time>2023-10-03T09:19:46Z</time>
      </trkpt>
      <trkpt lat="46.65502" lon="5.61424">
        <ele>461</ele>
        <time>2023-10-03T09:19:56Z</time>
      </trkpt>
      <trkpt lat="46.655" lon="5.61421">
        <ele>461</ele>
        <time>2023-10-03T09:20:02Z</time>
      </trkpt>
      <trkpt lat="46.65498" lon="5.61417">
        <ele>460</ele>
        <time>2023-10-03T09:20:09Z</time>
      </trkpt>
      <trkpt lat="46.65496" lon="5.61414">
        <ele>459</ele>
        <time>2023-10-03T09:20:14Z</time>
      </trkpt>
      <trkpt lat="46.65495" lon="5.6141">
        <ele>458</ele>
        <time>2023-10-03T09:20:18Z</time>
      </trkpt>
      <trkpt lat="46.65494" lon="5.61405">
        <ele>457</ele>
        <time>2023-10-03T09:20:22Z</time>
      </trkpt>
      <trkpt lat="46.65493" lon="5.61401">
        <ele>457</ele>
        <time>2023-10-03T09:20:26Z</time>
      </trkpt>
      <trkpt lat="46.65492" lon="5.61397">
        <ele>456</ele>
        <time>2023-10-03T09:20:30Z</time>
      </trkpt>
      <trkpt lat="46.65491" lon="5.61392">
        <ele>455</ele>
        <time>2023-10-03T09:20:33Z</time>
      </trkpt>
      <trkpt lat="46.6549" lon="5.61388">
        <ele>455</ele>
        <time>2023-10-03T09:20:36Z</time>
      </trkpt>
      <trkpt lat="46.65488" lon="5.61383">
        <ele>454</ele>
        <time>2023-10-03T09:20:40Z</time>
      </trkpt>
      <trkpt lat="46.65487" lon="5.61379">
        <ele>452</ele>
        <time>2023-10-03T09:20:48Z</time>
      </trkpt>
      <trkpt lat="46.65485" lon="5.61376">
        <ele>451</ele>
        <time>2023-10-03T09:20:52Z</time>
      </trkpt>
      <trkpt lat="46.65483" lon="5.61372">
        <ele>451</ele>
        <time>2023-10-03T09:20:57Z</time>
      </trkpt>
      <trkpt lat="46.65481" lon="5.61369">
        <ele>450</ele>
        <time>2023-10-03T09:21:01Z</time>
      </trkpt>
      <trkpt lat="46.6548" lon="5.61366">
        <ele>450</ele>
        <time>2023-10-03T09:21:05Z</time>
      </trkpt>
      <trkpt lat="46.65479" lon="5.61361">
        <ele>449</ele>
        <time>2023-10-03T09:21:09Z</time>
      </trkpt>
      <trkpt lat="46.65478" lon="5.61357">
        <ele>448</ele>
        <time>2023-10-03T09:21:13Z</time>
      </trkpt>
      <trkpt lat="46.65476" lon="5.61353">
        <ele>448</ele>
        <time>2023-10-03T09:21:17Z</time>
      </trkpt>
      <trkpt lat="46.65475" lon="5.61349">
        <ele>447</ele>
        <time>2023-10-03T09:21:21Z</time>
      </trkpt>
      <trkpt lat="46.65474" lon="5.61344">
        <ele>447</ele>
        <time>2023-10-03T09:21:25Z</time>
      </trkpt>
      <trkpt lat="46.65473" lon="5.6134">
        <ele>446</ele>
        <time>2023-10-03T09:21:28Z</time>
      </trkpt>
      <trkpt lat="46.65472" lon="5.61335">
        <ele>446</ele>
        <time>2023-10-03T09:21:30Z</time>
      </trkpt>
      <trkpt lat="46.65472" lon="5.6133">
        <ele>446</ele>
        <time>2023-10-03T09:21:32Z</time>
      </trkpt>
      <trkpt lat="46.65472" lon="5.61326">
        <ele>445</ele>
        <time>2023-10-03T09:21:36Z</time>
      </trkpt>
      <trkpt lat="46.65471" lon="5.61322">
        <ele>444</ele>
        <time>2023-10-03T09:21:40Z</time>
      </trkpt>
      <trkpt lat="46.65471" lon="5.61318">
        <ele>444</ele>
        <time>2023-10-03T09:21:45Z</time>
      </trkpt>
      <trkpt lat="46.6547" lon="5.61313">
        <ele>443</ele>
        <time>2023-10-03T09:21:49Z</time>
      </trkpt>
      <trkpt lat="46.65469" lon="5.61309">
        <ele>442</ele>
        <time>2023-10-03T09:21:54Z</time>
      </trkpt>
      <trkpt lat="46.65468" lon="5.61312">
        <ele>441</ele>
        <time>2023-10-03T09:22:04Z</time>
      </trkpt>
      <trkpt lat="46.65471" lon="5.61314">
        <ele>440</ele>
        <time>2023-10-03T09:22:17Z</time>
      </trkpt>
      <trkpt lat="46.65473" lon="5.61316">
        <ele>440</ele>
        <time>2023-10-03T09:22:20Z</time>
      </trkpt>
      <trkpt lat="46.65476" lon="5.61319">
        <ele>439</ele>
        <time>2023-10-03T09:22:23Z</time>
      </trkpt>
      <trkpt lat="46.65478" lon="5.61321">
        <ele>438</ele>
        <time>2023-10-03T09:22:26Z</time>
      </trkpt>
      <trkpt lat="46.65481" lon="5.61323">
        <ele>438</ele>
        <time>2023-10-03T09:22:29Z</time>
      </trkpt>
      <trkpt lat="46.65483" lon="5.61326">
        <ele>438</ele>
        <time>2023-10-03T09:22:31Z</time>
      </trkpt>
      <trkpt lat="46.65486" lon="5.61328">
        <ele>437</ele>
        <time>2023-10-03T09:22:35Z</time>
      </trkpt>
      <trkpt lat="46.65487" lon="5.61331">
        <ele>436</ele>
        <time>2023-10-03T09:22:40Z</time>
      </trkpt>
      <trkpt lat="46.65488" lon="5.61335">
        <ele>435</ele>
        <time>2023-10-03T09:22:44Z</time>
      </trkpt>
      <trkpt lat="46.6549" lon="5.61339">
        <ele>435</ele>
        <time>2023-10-03T09:22:49Z</time>
      </trkpt>
      <trkpt lat="46.65492" lon="5.61341">
        <ele>434</ele>
        <time>2023-10-03T09:22:54Z</time>
      </trkpt>
      <trkpt lat="46.65495" lon="5.61342">
        <ele>434</ele>
        <time>2023-10-03T09:22:56Z</time>
      </trkpt>
      <trkpt lat="46.65498" lon="5.61343">
        <ele>433</ele>
        <time>2023-10-03T09:23:01Z</time>
      </trkpt>
      <trkpt lat="46.65502" lon="5.61342">
        <ele>431</ele>
        <time>2023-10-03T09:23:13Z</time>
      </trkpt>
      <trkpt lat="46.65505" lon="5.61342">
        <ele>431</ele>
        <time>2023-10-03T09:23:15Z</time>
      </trkpt>
      <trkpt lat="46.65507" lon="5.61339">
        <ele>429</ele>
        <time>2023-10-03T09:23:32Z</time>
      </trkpt>
      <trkpt lat="46.65507" lon="5.61335">
        <ele>428</ele>
        <time>2023-10-03T09:23:36Z</time>
      </trkpt>
      <trkpt lat="46.65506" lon="5.61331">
        <ele>428</ele>
        <time>2023-10-03T09:23:40Z</time>
      </trkpt>
      <trkpt lat="46.65504" lon="5.6133">
        <ele>427</ele>
        <time>2023-10-03T09:23:45Z</time>
      </trkpt>
      <trkpt lat="46.65501" lon="5.6133">
        <ele>426</ele>
        <time>2023-10-03T09:23:50Z</time>
      </trkpt>
      <trkpt lat="46.65498" lon="5.61331">
        <ele>426</ele>
        <time>2023-10-03T09:23:55Z</time>
      </trkpt>
      <trkpt lat="46.65496" lon="5.61329">
        <ele>425</ele>
        <time>2023-10-03T09:23:58Z</time>
      </trkpt>
      <trkpt lat="46.65494" lon="5.61325">
        <ele>425</ele>
        <time>2023-10-03T09:24:01Z</time>
      </trkpt>
      <trkpt lat="46.65493" lon="5.61321">
        <ele>425</ele>
        <time>2023-10-03T09:24:04Z</time>
      </trkpt>
      <trkpt lat="46.65494" lon="5.61316">
        <ele>424</ele>
        <time>2023-10-03T09:24:07Z</time>
      </trkpt>
      <trkpt lat="46.65496" lon="5.61313">
        <ele>424</ele>
        <time>2023-10-03T09:24:13Z</time>
      </trkpt>
      <trkpt lat="46.65499" lon="5.61313">
        <ele>424</ele>
        <time>2023-10-03T09:24:15Z</time>
      </trkpt>
      <trkpt lat="46.65501" lon="5.61315">
        <ele>424</ele>
        <time>2023-10-03T09:24:18Z</time>
      </trkpt>
      <trkpt lat="46.65503" lon="5.61318">
        <ele>424</ele>
        <time>2023-10-03T09:24:22Z</time>
      </trkpt>
      <trkpt lat="46.65505" lon="5.6132">
        <ele>424</ele>
        <time>2023-10-03T09:24:29Z</time>
      </trkpt>
      <trkpt lat="46.65508" lon="5.61322">
        <ele>423</ele>
        <time>2023-10-03T09:24:37Z</time>
      </trkpt>
      <trkpt lat="46.6551" lon="5.61321">
        <ele>423</ele>
        <time>2023-10-03T09:24:47Z</time>
      </trkpt>
      <trkpt lat="46.65512" lon="5.61319">
        <ele>423</ele>
        <time>2023-10-03T09:24:53Z</time>
      </trkpt>
      <trkpt lat="46.65513" lon="5.61315">
        <ele>423</ele>
        <time>2023-10-03T09:24:55Z</time>
      </trkpt>
      <trkpt lat="46.65514" lon="5.61311">
        <ele>423</ele>
        <time>2023-10-03T09:24:58Z</time>
      </trkpt>
      <trkpt lat="46.65514" lon="5.61308">
        <ele>423</ele>
        <time>2023-10-03T09:25:09Z</time>
      </trkpt>
      <trkpt lat="46.65513" lon="5.6131">
        <ele>423</ele>
        <time>2023-10-03T09:25:17Z</time>
      </trkpt>
      <trkpt lat="46.65512" lon="5.61313">
        <ele>423</ele>
        <time>2023-10-03T09:25:19Z</time>
      </trkpt>
      <trkpt lat="46.65513" lon="5.61312">
        <ele>423</ele>
        <time>2023-10-03T09:25:22Z</time>
      </trkpt>
      <trkpt lat="46.65514" lon="5.61309">
        <ele>423</ele>
        <time>2023-10-03T09:25:26Z</time>
      </trkpt>
      <trkpt lat="46.65514" lon="5.61306">
        <ele>423</ele>
        <time>2023-10-03T09:25:36Z</time>
      </trkpt>
      <trkpt lat="46.65513" lon="5.61302">
        <ele>423</ele>
        <time>2023-10-03T09:25:40Z</time>
      </trkpt>
      <trkpt lat="46.65512" lon="5.61298">
        <ele>423</ele>
        <time>2023-10-03T09:25:43Z</time>
      </trkpt>
      <trkpt lat="46.6551" lon="5.61295">
        <ele>423</ele>
        <time>2023-10-03T09:25:47Z</time>
      </trkpt>
      <trkpt lat="46.65509" lon="5.61293">
        <ele>423</ele>
        <time>2023-10-03T09:25:48Z</time>
      </trkpt>
      <trkpt lat="46.65507" lon="5.6129">
        <ele>423</ele>
        <time>2023-10-03T09:25:50Z</time>
      </trkpt>
      <trkpt lat="46.65506" lon="5.61287">
        <ele>423</ele>
        <time>2023-10-03T09:25:53Z</time>
      </trkpt>
      <trkpt lat="46.65503" lon="5.61283">
        <ele>423</ele>
        <time>2023-10-03T09:25:56Z</time>
      </trkpt>
      <trkpt lat="46.65501" lon="5.61279">
        <ele>424</ele>
        <time>2023-10-03T09:25:59Z</time>
      </trkpt>
      <trkpt lat="46.65498" lon="5.61276">
        <ele>424</ele>
        <time>2023-10-03T09:26:02Z</time>
      </trkpt>
      <trkpt lat="46.65496" lon="5.61272">
        <ele>424</ele>
        <time>2023-10-03T09:26:05Z</time>
      </trkpt>
      <trkpt lat="46.65494" lon="5.61269">
        <ele>424</ele>
        <time>2023-10-03T09:26:08Z</time>
      </trkpt>
      <trkpt lat="46.65492" lon="5.61266">
        <ele>424</ele>
        <time>2023-10-03T09:26:11Z</time>
      </trkpt>
      <trkpt lat="46.65489" lon="5.61263">
        <ele>424</ele>
        <time>2023-10-03T09:26:15Z</time>
      </trkpt>
      <trkpt lat="46.65487" lon="5.61262">
        <ele>424</ele>
        <time>2023-10-03T09:26:21Z</time>
      </trkpt>
      <trkpt lat="46.65484" lon="5.6126">
        <ele>424</ele>
        <time>2023-10-03T09:26:25Z</time>
      </trkpt>
      <trkpt lat="46.65481" lon="5.61257">
        <ele>424</ele>
        <time>2023-10-03T09:26:28Z</time>
      </trkpt>
      <trkpt lat="46.65478" lon="5.61255">
        <ele>424</ele>
        <time>2023-10-03T09:26:34Z</time>
      </trkpt>
      <trkpt lat="46.65477" lon="5.61251">
        <ele>424</ele>
        <time>2023-10-03T09:26:45Z</time>
      </trkpt>
      <trkpt lat="46.65478" lon="5.61251">
        <ele>424</ele>
        <time>2023-10-03T09:27:12Z</time>
      </trkpt>
      <trkpt lat="46.65479" lon="5.61252">
        <ele>424</ele>
        <time>2023-10-03T09:27:13Z</time>
      </trkpt>
      <trkpt lat="46.65477" lon="5.61251">
        <ele>424</ele>
        <time>2023-10-03T09:27:25Z</time>
      </trkpt>
      <trkpt lat="46.65475" lon="5.61249">
        <ele>424</ele>
        <time>2023-10-03T09:27:30Z</time>
      </trkpt>
      <trkpt lat="46.65473" lon="5.61247">
        <ele>424</ele>
        <time>2023-10-03T09:28:17Z</time>
      </trkpt>
      <trkpt lat="46.65471" lon="5.61245">
        <ele>424</ele>
        <time>2023-10-03T09:28:22Z</time>
      </trkpt>
      <trkpt lat="46.6547" lon="5.61241">
        <ele>424</ele>
        <time>2023-10-03T09:28:24Z</time>
      </trkpt>
      <trkpt lat="46.6547" lon="5.61236">
        <ele>424</ele>
        <time>2023-10-03T09:28:26Z</time>
      </trkpt>
      <trkpt lat="46.65468" lon="5.61233">
        <ele>425</ele>
        <time>2023-10-03T09:28:29Z</time>
      </trkpt>
      <trkpt lat="46.65466" lon="5.6123">
        <ele>425</ele>
        <time>2023-10-03T09:28:32Z</time>
      </trkpt>
      <trkpt lat="46.65465" lon="5.61227">
        <ele>425</ele>
        <time>2023-10-03T09:28:34Z</time>
      </trkpt>
      <trkpt lat="46.65463" lon="5.61224">
        <ele>425</ele>
        <time>2023-10-03T09:28:37Z</time>
      </trkpt>
      <trkpt lat="46.65461" lon="5.61221">
        <ele>425</ele>
        <time>2023-10-03T09:28:40Z</time>
      </trkpt>
      <trkpt lat="46.65459" lon="5.61218">
        <ele>425</ele>
        <time>2023-10-03T09:28:43Z</time>
      </trkpt>
      <trkpt lat="46.65458" lon="5.61214">
        <ele>425</ele>
        <time>2023-10-03T09:28:46Z</time>
      </trkpt>
      <trkpt lat="46.65456" lon="5.6121">
        <ele>425</ele>
        <time>2023-10-03T09:28:48Z</time>
      </trkpt>
      <trkpt lat="46.65455" lon="5.61206">
        <ele>425</ele>
        <time>2023-10-03T09:28:51Z</time>
      </trkpt>
      <trkpt lat="46.65453" lon="5.61202">
        <ele>425</ele>
        <time>2023-10-03T09:28:55Z</time>
      </trkpt>
      <trkpt lat="46.65451" lon="5.61199">
        <ele>425</ele>
        <time>2023-10-03T09:28:58Z</time>
      </trkpt>
      <trkpt lat="46.65449" lon="5.61195">
        <ele>425</ele>
        <time>2023-10-03T09:29:01Z</time>
      </trkpt>
      <trkpt lat="46.65448" lon="5.61192">
        <ele>425</ele>
        <time>2023-10-03T09:29:04Z</time>
      </trkpt>
      <trkpt lat="46.65446" lon="5.61188">
        <ele>425</ele>
        <time>2023-10-03T09:29:07Z</time>
      </trkpt>
      <trkpt lat="46.65444" lon="5.61185">
        <ele>425</ele>
        <time>2023-10-03T09:29:10Z</time>
      </trkpt>
      <trkpt lat="46.65443" lon="5.61181">
        <ele>425</ele>
        <time>2023-10-03T09:29:13Z</time>
      </trkpt>
      <trkpt lat="46.65441" lon="5.61177">
        <ele>425</ele>
        <time>2023-10-03T09:29:16Z</time>
      </trkpt>
      <trkpt lat="46.6544" lon="5.61173">
        <ele>425</ele>
        <time>2023-10-03T09:29:19Z</time>
      </trkpt>
      <trkpt lat="46.65439" lon="5.61169">
        <ele>425</ele>
        <time>2023-10-03T09:29:22Z</time>
      </trkpt>
      <trkpt lat="46.65437" lon="5.61165">
        <ele>426</ele>
        <time>2023-10-03T09:29:25Z</time>
      </trkpt>
      <trkpt lat="46.65436" lon="5.6116">
        <ele>426</ele>
        <time>2023-10-03T09:29:29Z</time>
      </trkpt>
      <trkpt lat="46.65435" lon="5.61155">
        <ele>426</ele>
        <time>2023-10-03T09:29:32Z</time>
      </trkpt>
      <trkpt lat="46.65434" lon="5.61151">
        <ele>426</ele>
        <time>2023-10-03T09:29:34Z</time>
      </trkpt>
      <trkpt lat="46.65433" lon="5.61146">
        <ele>426</ele>
        <time>2023-10-03T09:29:37Z</time>
      </trkpt>
      <trkpt lat="46.65432" lon="5.61142">
        <ele>426</ele>
        <time>2023-10-03T09:29:40Z</time>
      </trkpt>
      <trkpt lat="46.6543" lon="5.61139">
        <ele>426</ele>
        <time>2023-10-03T09:29:43Z</time>
      </trkpt>
      <trkpt lat="46.65428" lon="5.61135">
        <ele>426</ele>
        <time>2023-10-03T09:29:47Z</time>
      </trkpt>
      <trkpt lat="46.65427" lon="5.61131">
        <ele>426</ele>
        <time>2023-10-03T09:29:50Z</time>
      </trkpt>
      <trkpt lat="46.65426" lon="5.61127">
        <ele>427</ele>
        <time>2023-10-03T09:29:53Z</time>
      </trkpt>
      <trkpt lat="46.65424" lon="5.61122">
        <ele>427</ele>
        <time>2023-10-03T09:29:56Z</time>
      </trkpt>
      <trkpt lat="46.65423" lon="5.61117">
        <ele>427</ele>
        <time>2023-10-03T09:29:59Z</time>
      </trkpt>
      <trkpt lat="46.65422" lon="5.61112">
        <ele>427</ele>
        <time>2023-10-03T09:30:02Z</time>
      </trkpt>
      <trkpt lat="46.65422" lon="5.61107">
        <ele>427</ele>
        <time>2023-10-03T09:30:05Z</time>
      </trkpt>
      <trkpt lat="46.65421" lon="5.61102">
        <ele>427</ele>
        <time>2023-10-03T09:30:08Z</time>
      </trkpt>
      <trkpt lat="46.65421" lon="5.61098">
        <ele>427</ele>
        <time>2023-10-03T09:30:11Z</time>
      </trkpt>
      <trkpt lat="46.6542" lon="5.61094">
        <ele>427</ele>
        <time>2023-10-03T09:30:13Z</time>
      </trkpt>
      <trkpt lat="46.65419" lon="5.6109">
        <ele>427</ele>
        <time>2023-10-03T09:30:16Z</time>
      </trkpt>
      <trkpt lat="46.65417" lon="5.61085">
        <ele>427</ele>
        <time>2023-10-03T09:30:19Z</time>
      </trkpt>
      <trkpt lat="46.65416" lon="5.6108">
        <ele>427</ele>
        <time>2023-10-03T09:30:22Z</time>
      </trkpt>
      <trkpt lat="46.65415" lon="5.61076">
        <ele>428</ele>
        <time>2023-10-03T09:30:25Z</time>
      </trkpt>
      <trkpt lat="46.65414" lon="5.61072">
        <ele>428</ele>
        <time>2023-10-03T09:30:28Z</time>
      </trkpt>
      <trkpt lat="46.65413" lon="5.61068">
        <ele>428</ele>
        <time>2023-10-03T09:30:31Z</time>
      </trkpt>
      <trkpt lat="46.65412" lon="5.61064">
        <ele>428</ele>
        <time>2023-10-03T09:30:34Z</time>
      </trkpt>
      <trkpt lat="46.65411" lon="5.61059">
        <ele>428</ele>
        <time>2023-10-03T09:30:37Z</time>
      </trkpt>
      <trkpt lat="46.6541" lon="5.61055">
        <ele>428</ele>
        <time>2023-10-03T09:30:40Z</time>
      </trkpt>
      <trkpt lat="46.65409" lon="5.6105">
        <ele>428</ele>
        <time>2023-10-03T09:30:43Z</time>
      </trkpt>
      <trkpt lat="46.65408" lon="5.61046">
        <ele>428</ele>
        <time>2023-10-03T09:30:46Z</time>
      </trkpt>
      <trkpt lat="46.65408" lon="5.61041">
        <ele>429</ele>
        <time>2023-10-03T09:30:49Z</time>
      </trkpt>
      <trkpt lat="46.65407" lon="5.61036">
        <ele>429</ele>
        <time>2023-10-03T09:30:52Z</time>
      </trkpt>
      <trkpt lat="46.65406" lon="5.61033">
        <ele>429</ele>
        <time>2023-10-03T09:30:55Z</time>
      </trkpt>
      <trkpt lat="46.65404" lon="5.61029">
        <ele>429</ele>
        <time>2023-10-03T09:30:58Z</time>
      </trkpt>
      <trkpt lat="46.65403" lon="5.61024">
        <ele>429</ele>
        <time>2023-10-03T09:31:01Z</time>
      </trkpt>
      <trkpt lat="46.65402" lon="5.61019">
        <ele>429</ele>
        <time>2023-10-03T09:31:04Z</time>
      </trkpt>
      <trkpt lat="46.65401" lon="5.61015">
        <ele>429</ele>
        <time>2023-10-03T09:31:07Z</time>
      </trkpt>
      <trkpt lat="46.654" lon="5.6101">
        <ele>429</ele>
        <time>2023-10-03T09:31:10Z</time>
      </trkpt>
      <trkpt lat="46.65399" lon="5.61006">
        <ele>429</ele>
        <time>2023-10-03T09:31:14Z</time>
      </trkpt>
      <trkpt lat="46.65399" lon="5.61001">
        <ele>429</ele>
        <time>2023-10-03T09:31:16Z</time>
      </trkpt>
      <trkpt lat="46.65398" lon="5.60997">
        <ele>429</ele>
        <time>2023-10-03T09:31:18Z</time>
      </trkpt>
      <trkpt lat="46.65398" lon="5.60991">
        <ele>430</ele>
        <time>2023-10-03T09:31:21Z</time>
      </trkpt>
      <trkpt lat="46.65397" lon="5.60986">
        <ele>430</ele>
        <time>2023-10-03T09:31:24Z</time>
      </trkpt>
      <trkpt lat="46.65395" lon="5.60982">
        <ele>430</ele>
        <time>2023-10-03T09:31:27Z</time>
      </trkpt>
      <trkpt lat="46.65394" lon="5.60977">
        <ele>430</ele>
        <time>2023-10-03T09:31:30Z</time>
      </trkpt>
      <trkpt lat="46.65393" lon="5.60973">
        <ele>430</ele>
        <time>2023-10-03T09:31:33Z</time>
      </trkpt>
      <trkpt lat="46.65392" lon="5.60968">
        <ele>430</ele>
        <time>2023-10-03T09:31:36Z</time>
      </trkpt>
      <trkpt lat="46.6539" lon="5.60963">
        <ele>430</ele>
        <time>2023-10-03T09:31:39Z</time>
      </trkpt>
      <trkpt lat="46.65389" lon="5.60958">
        <ele>430</ele>
        <time>2023-10-03T09:31:42Z</time>
      </trkpt>
      <trkpt lat="46.65388" lon="5.60954">
        <ele>430</ele>
        <time>2023-10-03T09:31:45Z</time>
      </trkpt>
      <trkpt lat="46.65387" lon="5.60949">
        <ele>430</ele>
        <time>2023-10-03T09:31:48Z</time>
      </trkpt>
      <trkpt lat="46.65386" lon="5.60944">
        <ele>430</ele>
        <time>2023-10-03T09:31:51Z</time>
      </trkpt>
      <trkpt lat="46.65384" lon="5.6094">
        <ele>430</ele>
        <time>2023-10-03T09:31:54Z</time>
      </trkpt>
      <trkpt lat="46.65383" lon="5.60935">
        <ele>431</ele>
        <time>2023-10-03T09:31:57Z</time>
      </trkpt>
      <trkpt lat="46.65382" lon="5.60931">
        <ele>431</ele>
        <time>2023-10-03T09:32:00Z</time>
      </trkpt>
      <trkpt lat="46.6538" lon="5.60927">
        <ele>431</ele>
        <time>2023-10-03T09:32:03Z</time>
      </trkpt>
      <trkpt lat="46.65379" lon="5.60923">
        <ele>431</ele>
        <time>2023-10-03T09:32:06Z</time>
      </trkpt>
      <trkpt lat="46.65377" lon="5.6092">
        <ele>431</ele>
        <time>2023-10-03T09:32:09Z</time>
      </trkpt>
      <trkpt lat="46.65375" lon="5.60916">
        <ele>431</ele>
        <time>2023-10-03T09:32:12Z</time>
      </trkpt>
      <trkpt lat="46.65374" lon="5.60912">
        <ele>431</ele>
        <time>2023-10-03T09:32:15Z</time>
      </trkpt>
      <trkpt lat="46.65373" lon="5.60908">
        <ele>431</ele>
        <time>2023-10-03T09:32:18Z</time>
      </trkpt>
      <trkpt lat="46.65372" lon="5.60903">
        <ele>431</ele>
        <time>2023-10-03T09:32:21Z</time>
      </trkpt>
      <trkpt lat="46.65371" lon="5.60898">
        <ele>432</ele>
        <time>2023-10-03T09:32:23Z</time>
      </trkpt>
      <trkpt lat="46.6537" lon="5.60894">
        <ele>432</ele>
        <time>2023-10-03T09:32:25Z</time>
      </trkpt>
      <trkpt lat="46.65369" lon="5.6089">
        <ele>432</ele>
        <time>2023-10-03T09:32:27Z</time>
      </trkpt>
      <trkpt lat="46.65368" lon="5.60885">
        <ele>432</ele>
        <time>2023-10-03T09:32:30Z</time>
      </trkpt>
      <trkpt lat="46.65367" lon="5.60881">
        <ele>432</ele>
        <time>2023-10-03T09:32:33Z</time>
      </trkpt>
      <trkpt lat="46.65366" lon="5.60877">
        <ele>432</ele>
        <time>2023-10-03T09:32:36Z</time>
      </trkpt>
      <trkpt lat="46.65364" lon="5.60873">
        <ele>432</ele>
        <time>2023-10-03T09:32:39Z</time>
      </trkpt>
      <trkpt lat="46.65362" lon="5.60869">
        <ele>432</ele>
        <time>2023-10-03T09:32:42Z</time>
      </trkpt>
      <trkpt lat="46.65361" lon="5.60866">
        <ele>432</ele>
        <time>2023-10-03T09:32:45Z</time>
      </trkpt>
      <trkpt lat="46.65359" lon="5.60862">
        <ele>432</ele>
        <time>2023-10-03T09:32:48Z</time>
      </trkpt>
      <trkpt lat="46.65358" lon="5.60857">
        <ele>433</ele>
        <time>2023-10-03T09:32:51Z</time>
      </trkpt>
      <trkpt lat="46.65357" lon="5.60852">
        <ele>433</ele>
        <time>2023-10-03T09:32:54Z</time>
      </trkpt>
      <trkpt lat="46.65357" lon="5.60847">
        <ele>433</ele>
        <time>2023-10-03T09:32:57Z</time>
      </trkpt>
      <trkpt lat="46.65355" lon="5.60842">
        <ele>433</ele>
        <time>2023-10-03T09:33:00Z</time>
      </trkpt>
      <trkpt lat="46.65353" lon="5.60838">
        <ele>433</ele>
        <time>2023-10-03T09:33:03Z</time>
      </trkpt>
      <trkpt lat="46.65351" lon="5.60834">
        <ele>433</ele>
        <time>2023-10-03T09:33:07Z</time>
      </trkpt>
      <trkpt lat="46.65349" lon="5.6083">
        <ele>433</ele>
        <time>2023-10-03T09:33:10Z</time>
      </trkpt>
      <trkpt lat="46.65347" lon="5.60827">
        <ele>433</ele>
        <time>2023-10-03T09:33:13Z</time>
      </trkpt>
      <trkpt lat="46.65344" lon="5.60824">
        <ele>433</ele>
        <time>2023-10-03T09:33:16Z</time>
      </trkpt>
      <trkpt lat="46.65342" lon="5.6082">
        <ele>433</ele>
        <time>2023-10-03T09:33:19Z</time>
      </trkpt>
      <trkpt lat="46.6534" lon="5.60817">
        <ele>433</ele>
        <time>2023-10-03T09:33:20Z</time>
      </trkpt>
      <trkpt lat="46.65339" lon="5.60814">
        <ele>433</ele>
        <time>2023-10-03T09:33:22Z</time>
      </trkpt>
      <trkpt lat="46.65337" lon="5.6081">
        <ele>433</ele>
        <time>2023-10-03T09:33:25Z</time>
      </trkpt>
      <trkpt lat="46.65336" lon="5.60806">
        <ele>433</ele>
        <time>2023-10-03T09:33:28Z</time>
      </trkpt>
      <trkpt lat="46.65335" lon="5.60801">
        <ele>433</ele>
        <time>2023-10-03T09:33:31Z</time>
      </trkpt>
      <trkpt lat="46.65334" lon="5.60797">
        <ele>433</ele>
        <time>2023-10-03T09:33:34Z</time>
      </trkpt>
      <trkpt lat="46.65333" lon="5.60793">
        <ele>433</ele>
        <time>2023-10-03T09:33:37Z</time>
      </trkpt>
      <trkpt lat="46.65332" lon="5.60788">
        <ele>433</ele>
        <time>2023-10-03T09:33:40Z</time>
      </trkpt>
      <trkpt lat="46.6533" lon="5.60785">
        <ele>433</ele>
        <time>2023-10-03T09:33:43Z</time>
      </trkpt>
      <trkpt lat="46.65328" lon="5.60781">
        <ele>433</ele>
        <time>2023-10-03T09:33:47Z</time>
      </trkpt>
      <trkpt lat="46.65326" lon="5.60777">
        <ele>433</ele>
        <time>2023-10-03T09:33:50Z</time>
      </trkpt>
      <trkpt lat="46.65324" lon="5.60772">
        <ele>433</ele>
        <time>2023-10-03T09:33:53Z</time>
      </trkpt>
      <trkpt lat="46.65323" lon="5.60768">
        <ele>434</ele>
        <time>2023-10-03T09:33:57Z</time>
      </trkpt>
      <trkpt lat="46.65321" lon="5.60764">
        <ele>434</ele>
        <time>2023-10-03T09:34:00Z</time>
      </trkpt>
      <trkpt lat="46.6532" lon="5.60759">
        <ele>434</ele>
        <time>2023-10-03T09:34:04Z</time>
      </trkpt>
      <trkpt lat="46.65321" lon="5.60757">
        <ele>435</ele>
        <time>2023-10-03T09:34:21Z</time>
      </trkpt>
      <trkpt lat="46.6532" lon="5.60757">
        <ele>435</ele>
        <time>2023-10-03T09:34:32Z</time>
      </trkpt>
      <trkpt lat="46.65319" lon="5.60756">
        <ele>435</ele>
        <time>2023-10-03T09:35:19Z</time>
      </trkpt>
      <trkpt lat="46.65316" lon="5.60754">
        <ele>435</ele>
        <time>2023-10-03T09:35:24Z</time>
      </trkpt>
      <trkpt lat="46.65314" lon="5.60752">
        <ele>434</ele>
        <time>2023-10-03T09:35:29Z</time>
      </trkpt>
      <trkpt lat="46.65179" lon="5.60689">
        <ele>440</ele>
        <time>2023-10-03T09:38:59Z</time>
      </trkpt>
      <trkpt lat="46.65127" lon="5.60661">
        <ele>440</ele>
        <time>2023-10-03T09:39:00Z</time>
      </trkpt>
      <trkpt lat="46.65106" lon="5.60648">
        <ele>440</ele>
        <time>2023-10-03T09:39:03Z</time>
      </trkpt>
      <trkpt lat="46.65095" lon="5.60641">
        <ele>440</ele>
        <time>2023-10-03T09:39:05Z</time>
      </trkpt>
      <trkpt lat="46.65089" lon="5.60638">
        <ele>440</ele>
        <time>2023-10-03T09:39:07Z</time>
      </trkpt>
      <trkpt lat="46.65085" lon="5.60636">
        <ele>440</ele>
        <time>2023-10-03T09:39:11Z</time>
      </trkpt>
      <trkpt lat="46.65082" lon="5.60633">
        <ele>440</ele>
        <time>2023-10-03T09:39:14Z</time>
      </trkpt>
      <trkpt lat="46.65079" lon="5.60634">
        <ele>440</ele>
        <time>2023-10-03T09:39:15Z</time>
      </trkpt>
      <trkpt lat="46.65078" lon="5.60633">
        <ele>440</ele>
        <time>2023-10-03T09:39:17Z</time>
      </trkpt>
      <trkpt lat="46.65079" lon="5.60629">
        <ele>440</ele>
        <time>2023-10-03T09:39:19Z</time>
      </trkpt>
      <trkpt lat="46.6508" lon="5.60625">
        <ele>440</ele>
        <time>2023-10-03T09:39:21Z</time>
      </trkpt>
      <trkpt lat="46.65079" lon="5.60622">
        <ele>440</ele>
        <time>2023-10-03T09:39:23Z</time>
      </trkpt>
      <trkpt lat="46.65076" lon="5.6062">
        <ele>440</ele>
        <time>2023-10-03T09:39:26Z</time>
      </trkpt>
      <trkpt lat="46.65074" lon="5.60619">
        <ele>440</ele>
        <time>2023-10-03T09:39:28Z</time>
      </trkpt>
      <trkpt lat="46.6507" lon="5.60618">
        <ele>440</ele>
        <time>2023-10-03T09:39:31Z</time>
      </trkpt>
      <trkpt lat="46.65067" lon="5.60617">
        <ele>440</ele>
        <time>2023-10-03T09:39:33Z</time>
      </trkpt>
      <trkpt lat="46.65064" lon="5.60617">
        <ele>440</ele>
        <time>2023-10-03T09:39:35Z</time>
      </trkpt>
      <trkpt lat="46.65061" lon="5.60618">
        <ele>440</ele>
        <time>2023-10-03T09:39:37Z</time>
      </trkpt>
      <trkpt lat="46.65058" lon="5.60618">
        <ele>440</ele>
        <time>2023-10-03T09:39:39Z</time>
      </trkpt>
      <trkpt lat="46.65055" lon="5.60619">
        <ele>440</ele>
        <time>2023-10-03T09:39:41Z</time>
      </trkpt>
      <trkpt lat="46.65052" lon="5.6062">
        <ele>440</ele>
        <time>2023-10-03T09:39:44Z</time>
      </trkpt>
      <trkpt lat="46.65049" lon="5.60621">
        <ele>440</ele>
        <time>2023-10-03T09:39:47Z</time>
      </trkpt>
      <trkpt lat="46.65045" lon="5.60623">
        <ele>440</ele>
        <time>2023-10-03T09:39:50Z</time>
      </trkpt>
      <trkpt lat="46.65042" lon="5.60624">
        <ele>441</ele>
        <time>2023-10-03T09:39:53Z</time>
      </trkpt>
      <trkpt lat="46.65039" lon="5.60625">
        <ele>441</ele>
        <time>2023-10-03T09:39:56Z</time>
      </trkpt>
      <trkpt lat="46.65035" lon="5.60626">
        <ele>441</ele>
        <time>2023-10-03T09:39:59Z</time>
      </trkpt>
      <trkpt lat="46.65032" lon="5.60629">
        <ele>441</ele>
        <time>2023-10-03T09:40:02Z</time>
      </trkpt>
      <trkpt lat="46.6503" lon="5.60632">
        <ele>441</ele>
        <time>2023-10-03T09:40:05Z</time>
      </trkpt>
      <trkpt lat="46.65027" lon="5.60635">
        <ele>442</ele>
        <time>2023-10-03T09:40:08Z</time>
      </trkpt>
      <trkpt lat="46.65024" lon="5.60637">
        <ele>442</ele>
        <time>2023-10-03T09:40:11Z</time>
      </trkpt>
      <trkpt lat="46.65021" lon="5.60639">
        <ele>441</ele>
        <time>2023-10-03T09:40:14Z</time>
      </trkpt>
      <trkpt lat="46.65018" lon="5.60642">
        <ele>441</ele>
        <time>2023-10-03T09:40:17Z</time>
      </trkpt>
      <trkpt lat="46.65015" lon="5.60644">
        <ele>441</ele>
        <time>2023-10-03T09:40:20Z</time>
      </trkpt>
      <trkpt lat="46.65012" lon="5.60646">
        <ele>441</ele>
        <time>2023-10-03T09:40:23Z</time>
      </trkpt>
      <trkpt lat="46.65009" lon="5.60647">
        <ele>442</ele>
        <time>2023-10-03T09:40:26Z</time>
      </trkpt>
      <trkpt lat="46.65005" lon="5.60649">
        <ele>442</ele>
        <time>2023-10-03T09:40:30Z</time>
      </trkpt>
      <trkpt lat="46.65002" lon="5.60651">
        <ele>441</ele>
        <time>2023-10-03T09:40:33Z</time>
      </trkpt>
      <trkpt lat="46.64999" lon="5.60651">
        <ele>441</ele>
        <time>2023-10-03T09:40:37Z</time>
      </trkpt>
      <trkpt lat="46.64996" lon="5.60653">
        <ele>441</ele>
        <time>2023-10-03T09:40:40Z</time>
      </trkpt>
      <trkpt lat="46.64993" lon="5.60655">
        <ele>442</ele>
        <time>2023-10-03T09:40:42Z</time>
      </trkpt>
      <trkpt lat="46.6499" lon="5.60656">
        <ele>442</ele>
        <time>2023-10-03T09:40:45Z</time>
      </trkpt>
      <trkpt lat="46.64987" lon="5.60659">
        <ele>442</ele>
        <time>2023-10-03T09:40:48Z</time>
      </trkpt>
      <trkpt lat="46.64984" lon="5.60661">
        <ele>442</ele>
        <time>2023-10-03T09:40:53Z</time>
      </trkpt>
      <trkpt lat="46.64982" lon="5.60663">
        <ele>443</ele>
        <time>2023-10-03T09:40:57Z</time>
      </trkpt>
      <trkpt lat="46.64979" lon="5.60665">
        <ele>443</ele>
        <time>2023-10-03T09:41:00Z</time>
      </trkpt>
      <trkpt lat="46.64975" lon="5.60666">
        <ele>443</ele>
        <time>2023-10-03T09:41:03Z</time>
      </trkpt>
      <trkpt lat="46.64972" lon="5.60667">
        <ele>443</ele>
        <time>2023-10-03T09:41:05Z</time>
      </trkpt>
      <trkpt lat="46.64969" lon="5.60668">
        <ele>443</ele>
        <time>2023-10-03T09:41:08Z</time>
      </trkpt>
      <trkpt lat="46.64966" lon="5.60669">
        <ele>443</ele>
        <time>2023-10-03T09:41:11Z</time>
      </trkpt>
      <trkpt lat="46.64962" lon="5.6067">
        <ele>443</ele>
        <time>2023-10-03T09:41:14Z</time>
      </trkpt>
      <trkpt lat="46.64959" lon="5.60671">
        <ele>443</ele>
        <time>2023-10-03T09:41:17Z</time>
      </trkpt>
      <trkpt lat="46.64956" lon="5.60672">
        <ele>443</ele>
        <time>2023-10-03T09:41:20Z</time>
      </trkpt>
      <trkpt lat="46.64952" lon="5.60674">
        <ele>443</ele>
        <time>2023-10-03T09:41:24Z</time>
      </trkpt>
      <trkpt lat="46.64949" lon="5.60675">
        <ele>443</ele>
        <time>2023-10-03T09:41:28Z</time>
      </trkpt>
      <trkpt lat="46.64946" lon="5.60675">
        <ele>444</ele>
        <time>2023-10-03T09:41:30Z</time>
      </trkpt>
      <trkpt lat="46.64942" lon="5.60676">
        <ele>444</ele>
        <time>2023-10-03T09:41:33Z</time>
      </trkpt>
      <trkpt lat="46.64939" lon="5.60677">
        <ele>444</ele>
        <time>2023-10-03T09:41:35Z</time>
      </trkpt>
      <trkpt lat="46.64936" lon="5.60678">
        <ele>444</ele>
        <time>2023-10-03T09:41:38Z</time>
      </trkpt>
      <trkpt lat="46.64933" lon="5.60679">
        <ele>444</ele>
        <time>2023-10-03T09:41:41Z</time>
      </trkpt>
      <trkpt lat="46.64929" lon="5.60679">
        <ele>444</ele>
        <time>2023-10-03T09:41:44Z</time>
      </trkpt>
      <trkpt lat="46.64926" lon="5.6068">
        <ele>444</ele>
        <time>2023-10-03T09:41:47Z</time>
      </trkpt>
      <trkpt lat="46.64922" lon="5.60681">
        <ele>444</ele>
        <time>2023-10-03T09:41:50Z</time>
      </trkpt>
      <trkpt lat="46.64919" lon="5.60682">
        <ele>444</ele>
        <time>2023-10-03T09:41:53Z</time>
      </trkpt>
      <trkpt lat="46.64915" lon="5.60683">
        <ele>444</ele>
        <time>2023-10-03T09:41:57Z</time>
      </trkpt>
      <trkpt lat="46.64912" lon="5.60684">
        <ele>445</ele>
        <time>2023-10-03T09:42:01Z</time>
      </trkpt>
      <trkpt lat="46.64909" lon="5.60685">
        <ele>445</ele>
        <time>2023-10-03T09:42:04Z</time>
      </trkpt>
      <trkpt lat="46.64906" lon="5.60686">
        <ele>445</ele>
        <time>2023-10-03T09:42:07Z</time>
      </trkpt>
      <trkpt lat="46.64903" lon="5.60688">
        <ele>445</ele>
        <time>2023-10-03T09:42:09Z</time>
      </trkpt>
      <trkpt lat="46.649" lon="5.60689">
        <ele>445</ele>
        <time>2023-10-03T09:42:12Z</time>
      </trkpt>
      <trkpt lat="46.64897" lon="5.6069">
        <ele>445</ele>
        <time>2023-10-03T09:42:14Z</time>
      </trkpt>
      <trkpt lat="46.64894" lon="5.60692">
        <ele>445</ele>
        <time>2023-10-03T09:42:17Z</time>
      </trkpt>
      <trkpt lat="46.64891" lon="5.60694">
        <ele>445</ele>
        <time>2023-10-03T09:42:19Z</time>
      </trkpt>
      <trkpt lat="46.64888" lon="5.60696">
        <ele>445</ele>
        <time>2023-10-03T09:42:22Z</time>
      </trkpt>
      <trkpt lat="46.64885" lon="5.60697">
        <ele>445</ele>
        <time>2023-10-03T09:42:24Z</time>
      </trkpt>
      <trkpt lat="46.64882" lon="5.60699">
        <ele>446</ele>
        <time>2023-10-03T09:42:26Z</time>
      </trkpt>
      <trkpt lat="46.64879" lon="5.60699">
        <ele>446</ele>
        <time>2023-10-03T09:42:29Z</time>
      </trkpt>
      <trkpt lat="46.64876" lon="5.607">
        <ele>446</ele>
        <time>2023-10-03T09:42:32Z</time>
      </trkpt>
      <trkpt lat="46.64872" lon="5.60701">
        <ele>446</ele>
        <time>2023-10-03T09:42:34Z</time>
      </trkpt>
      <trkpt lat="46.64869" lon="5.60703">
        <ele>446</ele>
        <time>2023-10-03T09:42:36Z</time>
      </trkpt>
      <trkpt lat="46.64866" lon="5.60706">
        <ele>446</ele>
        <time>2023-10-03T09:42:39Z</time>
      </trkpt>
      <trkpt lat="46.64864" lon="5.60709">
        <ele>446</ele>
        <time>2023-10-03T09:42:41Z</time>
      </trkpt>
      <trkpt lat="46.64861" lon="5.60712">
        <ele>446</ele>
        <time>2023-10-03T09:42:43Z</time>
      </trkpt>
      <trkpt lat="46.64858" lon="5.60713">
        <ele>446</ele>
        <time>2023-10-03T09:42:47Z</time>
      </trkpt>
      <trkpt lat="46.64855" lon="5.60715">
        <ele>446</ele>
        <time>2023-10-03T09:42:50Z</time>
      </trkpt>
      <trkpt lat="46.64852" lon="5.60716">
        <ele>446</ele>
        <time>2023-10-03T09:42:53Z</time>
      </trkpt>
      <trkpt lat="46.64849" lon="5.60718">
        <ele>446</ele>
        <time>2023-10-03T09:42:56Z</time>
      </trkpt>
      <trkpt lat="46.64846" lon="5.60718">
        <ele>447</ele>
        <time>2023-10-03T09:43:00Z</time>
      </trkpt>
      <trkpt lat="46.64843" lon="5.60719">
        <ele>447</ele>
        <time>2023-10-03T09:43:05Z</time>
      </trkpt>
      <trkpt lat="46.64841" lon="5.60722">
        <ele>447</ele>
        <time>2023-10-03T09:43:08Z</time>
      </trkpt>
      <trkpt lat="46.64839" lon="5.60724">
        <ele>447</ele>
        <time>2023-10-03T09:43:11Z</time>
      </trkpt>
      <trkpt lat="46.64757" lon="5.60767">
        <ele>449</ele>
        <time>2023-10-03T09:44:20Z</time>
      </trkpt>
      <trkpt lat="46.64738" lon="5.6077">
        <ele>449</ele>
        <time>2023-10-03T09:44:21Z</time>
      </trkpt>
      <trkpt lat="46.64734" lon="5.60771">
        <ele>449</ele>
        <time>2023-10-03T09:44:22Z</time>
      </trkpt>
      <trkpt lat="46.64737" lon="5.60768">
        <ele>449</ele>
        <time>2023-10-03T09:44:23Z</time>
      </trkpt>
      <trkpt lat="46.64741" lon="5.60764">
        <ele>449</ele>
        <time>2023-10-03T09:44:24Z</time>
      </trkpt>
      <trkpt lat="46.64745" lon="5.60761">
        <ele>449</ele>
        <time>2023-10-03T09:44:25Z</time>
      </trkpt>
      <trkpt lat="46.64745" lon="5.60758">
        <ele>449</ele>
        <time>2023-10-03T09:44:29Z</time>
      </trkpt>
      <trkpt lat="46.64743" lon="5.60755">
        <ele>449</ele>
        <time>2023-10-03T09:44:31Z</time>
      </trkpt>
      <trkpt lat="46.6474" lon="5.60754">
        <ele>449</ele>
        <time>2023-10-03T09:44:34Z</time>
      </trkpt>
      <trkpt lat="46.64738" lon="5.60755">
        <ele>449</ele>
        <time>2023-10-03T09:44:40Z</time>
      </trkpt>
      <trkpt lat="46.64735" lon="5.60755">
        <ele>449</ele>
        <time>2023-10-03T09:44:43Z</time>
      </trkpt>
      <trkpt lat="46.64733" lon="5.60756">
        <ele>449</ele>
        <time>2023-10-03T09:44:44Z</time>
      </trkpt>
      <trkpt lat="46.64731" lon="5.60757">
        <ele>449</ele>
        <time>2023-10-03T09:44:46Z</time>
      </trkpt>
      <trkpt lat="46.64728" lon="5.60758">
        <ele>449</ele>
        <time>2023-10-03T09:44:49Z</time>
      </trkpt>
      <trkpt lat="46.64725" lon="5.6076">
        <ele>449</ele>
        <time>2023-10-03T09:44:51Z</time>
      </trkpt>
      <trkpt lat="46.64722" lon="5.60761">
        <ele>449</ele>
        <time>2023-10-03T09:44:53Z</time>
      </trkpt>
      <trkpt lat="46.64719" lon="5.60763">
        <ele>449</ele>
        <time>2023-10-03T09:44:56Z</time>
      </trkpt>
      <trkpt lat="46.64716" lon="5.60764">
        <ele>450</ele>
        <time>2023-10-03T09:44:58Z</time>
      </trkpt>
      <trkpt lat="46.64713" lon="5.60765">
        <ele>450</ele>
        <time>2023-10-03T09:45:01Z</time>
      </trkpt>
      <trkpt lat="46.6471" lon="5.60767">
        <ele>450</ele>
        <time>2023-10-03T09:45:06Z</time>
      </trkpt>
      <trkpt lat="46.64707" lon="5.60767">
        <ele>450</ele>
        <time>2023-10-03T09:45:11Z</time>
      </trkpt>
      <trkpt lat="46.64703" lon="5.60767">
        <ele>450</ele>
        <time>2023-10-03T09:45:14Z</time>
      </trkpt>
      <trkpt lat="46.647" lon="5.60769">
        <ele>450</ele>
        <time>2023-10-03T09:45:18Z</time>
      </trkpt>
      <trkpt lat="46.64697" lon="5.6077">
        <ele>450</ele>
        <time>2023-10-03T09:45:21Z</time>
      </trkpt>
      <trkpt lat="46.64694" lon="5.60772">
        <ele>451</ele>
        <time>2023-10-03T09:45:23Z</time>
      </trkpt>
      <trkpt lat="46.6469" lon="5.60773">
        <ele>451</ele>
        <time>2023-10-03T09:45:25Z</time>
      </trkpt>
      <trkpt lat="46.64687" lon="5.60773">
        <ele>451</ele>
        <time>2023-10-03T09:45:27Z</time>
      </trkpt>
      <trkpt lat="46.64683" lon="5.60774">
        <ele>451</ele>
        <time>2023-10-03T09:45:30Z</time>
      </trkpt>
      <trkpt lat="46.6468" lon="5.60775">
        <ele>451</ele>
        <time>2023-10-03T09:45:33Z</time>
      </trkpt>
      <trkpt lat="46.64677" lon="5.60774">
        <ele>451</ele>
        <time>2023-10-03T09:45:36Z</time>
      </trkpt>
      <trkpt lat="46.64674" lon="5.60773">
        <ele>451</ele>
        <time>2023-10-03T09:45:39Z</time>
      </trkpt>
      <trkpt lat="46.64672" lon="5.60773">
        <ele>451</ele>
        <time>2023-10-03T09:45:41Z</time>
      </trkpt>
      <trkpt lat="46.64668" lon="5.60773">
        <ele>451</ele>
        <time>2023-10-03T09:45:44Z</time>
      </trkpt>
      <trkpt lat="46.64665" lon="5.60774">
        <ele>451</ele>
        <time>2023-10-03T09:45:46Z</time>
      </trkpt>
      <trkpt lat="46.64662" lon="5.60774">
        <ele>451</ele>
        <time>2023-10-03T09:45:48Z</time>
      </trkpt>
      <trkpt lat="46.64659" lon="5.60775">
        <ele>451</ele>
        <time>2023-10-03T09:45:51Z</time>
      </trkpt>
      <trkpt lat="46.64656" lon="5.60776">
        <ele>451</ele>
        <time>2023-10-03T09:45:54Z</time>
      </trkpt>
      <trkpt lat="46.64653" lon="5.60777">
        <ele>451</ele>
        <time>2023-10-03T09:45:57Z</time>
      </trkpt>
      <trkpt lat="46.6465" lon="5.60777">
        <ele>451</ele>
        <time>2023-10-03T09:46:00Z</time>
      </trkpt>
      <trkpt lat="46.64646" lon="5.60777">
        <ele>451</ele>
        <time>2023-10-03T09:46:03Z</time>
      </trkpt>
      <trkpt lat="46.64642" lon="5.60776">
        <ele>451</ele>
        <time>2023-10-03T09:46:05Z</time>
      </trkpt>
      <trkpt lat="46.64638" lon="5.60776">
        <ele>452</ele>
        <time>2023-10-03T09:46:09Z</time>
      </trkpt>
      <trkpt lat="46.64635" lon="5.60775">
        <ele>452</ele>
        <time>2023-10-03T09:46:12Z</time>
      </trkpt>
      <trkpt lat="46.64631" lon="5.60775">
        <ele>452</ele>
        <time>2023-10-03T09:46:15Z</time>
      </trkpt>
      <trkpt lat="46.64628" lon="5.60774">
        <ele>452</ele>
        <time>2023-10-03T09:46:18Z</time>
      </trkpt>
      <trkpt lat="46.64625" lon="5.60772">
        <ele>452</ele>
        <time>2023-10-03T09:46:21Z</time>
      </trkpt>
      <trkpt lat="46.64621" lon="5.60771">
        <ele>452</ele>
        <time>2023-10-03T09:46:24Z</time>
      </trkpt>
      <trkpt lat="46.64618" lon="5.60771">
        <ele>452</ele>
        <time>2023-10-03T09:46:27Z</time>
      </trkpt>
      <trkpt lat="46.64615" lon="5.60773">
        <ele>452</ele>
        <time>2023-10-03T09:46:30Z</time>
      </trkpt>
      <trkpt lat="46.64611" lon="5.60772">
        <ele>453</ele>
        <time>2023-10-03T09:46:35Z</time>
      </trkpt>
      <trkpt lat="46.64608" lon="5.60773">
        <ele>453</ele>
        <time>2023-10-03T09:46:38Z</time>
      </trkpt>
      <trkpt lat="46.64604" lon="5.60774">
        <ele>453</ele>
        <time>2023-10-03T09:46:41Z</time>
      </trkpt>
      <trkpt lat="46.64601" lon="5.60774">
        <ele>453</ele>
        <time>2023-10-03T09:46:44Z</time>
      </trkpt>
      <trkpt lat="46.64597" lon="5.60773">
        <ele>453</ele>
        <time>2023-10-03T09:46:47Z</time>
      </trkpt>
      <trkpt lat="46.64594" lon="5.60772">
        <ele>453</ele>
        <time>2023-10-03T09:46:49Z</time>
      </trkpt>
      <trkpt lat="46.64591" lon="5.60772">
        <ele>453</ele>
        <time>2023-10-03T09:46:51Z</time>
      </trkpt>
      <trkpt lat="46.64588" lon="5.60771">
        <ele>453</ele>
        <time>2023-10-03T09:46:54Z</time>
      </trkpt>
      <trkpt lat="46.64585" lon="5.60769">
        <ele>453</ele>
        <time>2023-10-03T09:46:56Z</time>
      </trkpt>
      <trkpt lat="46.64582" lon="5.60769">
        <ele>454</ele>
        <time>2023-10-03T09:46:59Z</time>
      </trkpt>
      <trkpt lat="46.64578" lon="5.6077">
        <ele>454</ele>
        <time>2023-10-03T09:47:01Z</time>
      </trkpt>
      <trkpt lat="46.64575" lon="5.60768">
        <ele>454</ele>
        <time>2023-10-03T09:47:06Z</time>
      </trkpt>
      <trkpt lat="46.64572" lon="5.60767">
        <ele>454</ele>
        <time>2023-10-03T09:47:08Z</time>
      </trkpt>
      <trkpt lat="46.64571" lon="5.60764">
        <ele>454</ele>
        <time>2023-10-03T09:47:12Z</time>
      </trkpt>
      <trkpt lat="46.64568" lon="5.60763">
        <ele>454</ele>
        <time>2023-10-03T09:47:14Z</time>
      </trkpt>
      <trkpt lat="46.64565" lon="5.60764">
        <ele>454</ele>
        <time>2023-10-03T09:47:16Z</time>
      </trkpt>
      <trkpt lat="46.64561" lon="5.60767">
        <ele>454</ele>
        <time>2023-10-03T09:47:20Z</time>
      </trkpt>
      <trkpt lat="46.64558" lon="5.60768">
        <ele>454</ele>
        <time>2023-10-03T09:47:21Z</time>
      </trkpt>
      <trkpt lat="46.64554" lon="5.60768">
        <ele>454</ele>
        <time>2023-10-03T09:47:22Z</time>
      </trkpt>
      <trkpt lat="46.64549" lon="5.60767">
        <ele>454</ele>
        <time>2023-10-03T09:47:23Z</time>
      </trkpt>
      <trkpt lat="46.64545" lon="5.60765">
        <ele>454</ele>
        <time>2023-10-03T09:47:24Z</time>
      </trkpt>
      <trkpt lat="46.64541" lon="5.60763">
        <ele>454</ele>
        <time>2023-10-03T09:47:25Z</time>
      </trkpt>
      <trkpt lat="46.64537" lon="5.60762">
        <ele>454</ele>
        <time>2023-10-03T09:47:26Z</time>
      </trkpt>
      <trkpt lat="46.64533" lon="5.60761">
        <ele>454</ele>
        <time>2023-10-03T09:47:28Z</time>
      </trkpt>
      <trkpt lat="46.64532" lon="5.60757">
        <ele>454</ele>
        <time>2023-10-03T09:47:38Z</time>
      </trkpt>
      <trkpt lat="46.6453" lon="5.60755">
        <ele>454</ele>
        <time>2023-10-03T09:47:45Z</time>
      </trkpt>
      <trkpt lat="46.64527" lon="5.60753">
        <ele>454</ele>
        <time>2023-10-03T09:47:48Z</time>
      </trkpt>
      <trkpt lat="46.64524" lon="5.60752">
        <ele>455</ele>
        <time>2023-10-03T09:47:51Z</time>
      </trkpt>
      <trkpt lat="46.64521" lon="5.6075">
        <ele>455</ele>
        <time>2023-10-03T09:47:53Z</time>
      </trkpt>
      <trkpt lat="46.64517" lon="5.60748">
        <ele>455</ele>
        <time>2023-10-03T09:47:55Z</time>
      </trkpt>
      <trkpt lat="46.64515" lon="5.60746">
        <ele>455</ele>
        <time>2023-10-03T09:47:56Z</time>
      </trkpt>
      <trkpt lat="46.64511" lon="5.60744">
        <ele>455</ele>
        <time>2023-10-03T09:47:58Z</time>
      </trkpt>
      <trkpt lat="46.64508" lon="5.60742">
        <ele>455</ele>
        <time>2023-10-03T09:48:05Z</time>
      </trkpt>
      <trkpt lat="46.64505" lon="5.60742">
        <ele>455</ele>
        <time>2023-10-03T09:48:08Z</time>
      </trkpt>
      <trkpt lat="46.64502" lon="5.60742">
        <ele>455</ele>
        <time>2023-10-03T09:48:11Z</time>
      </trkpt>
      <trkpt lat="46.64498" lon="5.60741">
        <ele>455</ele>
        <time>2023-10-03T09:48:15Z</time>
      </trkpt>
      <trkpt lat="46.64495" lon="5.6074">
        <ele>456</ele>
        <time>2023-10-03T09:48:19Z</time>
      </trkpt>
      <trkpt lat="46.64491" lon="5.60739">
        <ele>456</ele>
        <time>2023-10-03T09:48:22Z</time>
      </trkpt>
      <trkpt lat="46.64488" lon="5.60739">
        <ele>456</ele>
        <time>2023-10-03T09:48:25Z</time>
      </trkpt>
      <trkpt lat="46.64485" lon="5.60738">
        <ele>456</ele>
        <time>2023-10-03T09:48:28Z</time>
      </trkpt>
      <trkpt lat="46.64482" lon="5.60737">
        <ele>456</ele>
        <time>2023-10-03T09:48:31Z</time>
      </trkpt>
      <trkpt lat="46.64478" lon="5.60737">
        <ele>456</ele>
        <time>2023-10-03T09:48:33Z</time>
      </trkpt>
      <trkpt lat="46.64476" lon="5.60736">
        <ele>456</ele>
        <time>2023-10-03T09:48:35Z</time>
      </trkpt>
      <trkpt lat="46.64472" lon="5.60736">
        <ele>456</ele>
        <time>2023-10-03T09:48:38Z</time>
      </trkpt>
      <trkpt lat="46.64469" lon="5.60736">
        <ele>456</ele>
        <time>2023-10-03T09:48:41Z</time>
      </trkpt>
      <trkpt lat="46.64466" lon="5.60735">
        <ele>456</ele>
        <time>2023-10-03T09:48:44Z</time>
      </trkpt>
      <trkpt lat="46.64463" lon="5.60735">
        <ele>456</ele>
        <time>2023-10-03T09:48:47Z</time>
      </trkpt>
      <trkpt lat="46.64459" lon="5.60735">
        <ele>456</ele>
        <time>2023-10-03T09:48:49Z</time>
      </trkpt>
      <trkpt lat="46.64456" lon="5.60736">
        <ele>456</ele>
        <time>2023-10-03T09:48:51Z</time>
      </trkpt>
      <trkpt lat="46.64452" lon="5.60736">
        <ele>457</ele>
        <time>2023-10-03T09:48:55Z</time>
      </trkpt>
      <trkpt lat="46.64449" lon="5.60736">
        <ele>457</ele>
        <time>2023-10-03T09:48:58Z</time>
      </trkpt>
      <trkpt lat="46.64445" lon="5.60736">
        <ele>457</ele>
        <time>2023-10-03T09:49:01Z</time>
      </trkpt>
      <trkpt lat="46.64442" lon="5.60736">
        <ele>457</ele>
        <time>2023-10-03T09:49:04Z</time>
      </trkpt>
      <trkpt lat="46.64439" lon="5.60735">
        <ele>457</ele>
        <time>2023-10-03T09:49:07Z</time>
      </trkpt>
      <trkpt lat="46.64435" lon="5.60735">
        <ele>458</ele>
        <time>2023-10-03T09:49:11Z</time>
      </trkpt>
      <trkpt lat="46.64432" lon="5.60735">
        <ele>458</ele>
        <time>2023-10-03T09:49:14Z</time>
      </trkpt>
      <trkpt lat="46.64429" lon="5.60735">
        <ele>458</ele>
        <time>2023-10-03T09:49:16Z</time>
      </trkpt>
      <trkpt lat="46.64426" lon="5.60734">
        <ele>458</ele>
        <time>2023-10-03T09:49:19Z</time>
      </trkpt>
      <trkpt lat="46.64423" lon="5.60734">
        <ele>458</ele>
        <time>2023-10-03T09:49:21Z</time>
      </trkpt>
      <trkpt lat="46.6442" lon="5.60733">
        <ele>458</ele>
        <time>2023-10-03T09:49:23Z</time>
      </trkpt>
      <trkpt lat="46.64416" lon="5.60733">
        <ele>458</ele>
        <time>2023-10-03T09:49:25Z</time>
      </trkpt>
      <trkpt lat="46.64413" lon="5.60732">
        <ele>458</ele>
        <time>2023-10-03T09:49:27Z</time>
      </trkpt>
      <trkpt lat="46.6441" lon="5.60732">
        <ele>458</ele>
        <time>2023-10-03T09:49:30Z</time>
      </trkpt>
      <trkpt lat="46.64406" lon="5.60731">
        <ele>458</ele>
        <time>2023-10-03T09:49:34Z</time>
      </trkpt>
      <trkpt lat="46.64403" lon="5.60731">
        <ele>458</ele>
        <time>2023-10-03T09:49:37Z</time>
      </trkpt>
      <trkpt lat="46.644" lon="5.60731">
        <ele>458</ele>
        <time>2023-10-03T09:49:41Z</time>
      </trkpt>
      <trkpt lat="46.64397" lon="5.60731">
        <ele>458</ele>
        <time>2023-10-03T09:49:44Z</time>
      </trkpt>
      <trkpt lat="46.64393" lon="5.60731">
        <ele>458</ele>
        <time>2023-10-03T09:49:48Z</time>
      </trkpt>
      <trkpt lat="46.6439" lon="5.60731">
        <ele>459</ele>
        <time>2023-10-03T09:49:51Z</time>
      </trkpt>
      <trkpt lat="46.64387" lon="5.60731">
        <ele>459</ele>
        <time>2023-10-03T09:49:54Z</time>
      </trkpt>
      <trkpt lat="46.64385" lon="5.60732">
        <ele>459</ele>
        <time>2023-10-03T09:49:57Z</time>
      </trkpt>
      <trkpt lat="46.64381" lon="5.60732">
        <ele>459</ele>
        <time>2023-10-03T09:49:59Z</time>
      </trkpt>
      <trkpt lat="46.64378" lon="5.60732">
        <ele>459</ele>
        <time>2023-10-03T09:50:01Z</time>
      </trkpt>
      <trkpt lat="46.64375" lon="5.60732">
        <ele>459</ele>
        <time>2023-10-03T09:50:04Z</time>
      </trkpt>
      <trkpt lat="46.64372" lon="5.60732">
        <ele>459</ele>
        <time>2023-10-03T09:50:07Z</time>
      </trkpt>
      <trkpt lat="46.64368" lon="5.60732">
        <ele>459</ele>
        <time>2023-10-03T09:50:10Z</time>
      </trkpt>
      <trkpt lat="46.64365" lon="5.60733">
        <ele>459</ele>
        <time>2023-10-03T09:50:13Z</time>
      </trkpt>
      <trkpt lat="46.64361" lon="5.60733">
        <ele>459</ele>
        <time>2023-10-03T09:50:15Z</time>
      </trkpt>
      <trkpt lat="46.64358" lon="5.60734">
        <ele>459</ele>
        <time>2023-10-03T09:50:17Z</time>
      </trkpt>
      <trkpt lat="46.64355" lon="5.60733">
        <ele>459</ele>
        <time>2023-10-03T09:50:20Z</time>
      </trkpt>
      <trkpt lat="46.64353" lon="5.60732">
        <ele>459</ele>
        <time>2023-10-03T09:50:23Z</time>
      </trkpt>
      <trkpt lat="46.64349" lon="5.6073">
        <ele>459</ele>
        <time>2023-10-03T09:50:26Z</time>
      </trkpt>
      <trkpt lat="46.64346" lon="5.60729">
        <ele>460</ele>
        <time>2023-10-03T09:50:28Z</time>
      </trkpt>
      <trkpt lat="46.64343" lon="5.60728">
        <ele>460</ele>
        <time>2023-10-03T09:50:31Z</time>
      </trkpt>
      <trkpt lat="46.6434" lon="5.60727">
        <ele>460</ele>
        <time>2023-10-03T09:50:34Z</time>
      </trkpt>
      <trkpt lat="46.64337" lon="5.60727">
        <ele>460</ele>
        <time>2023-10-03T09:50:36Z</time>
      </trkpt>
      <trkpt lat="46.64334" lon="5.60726">
        <ele>460</ele>
        <time>2023-10-03T09:50:40Z</time>
      </trkpt>
      <trkpt lat="46.6433" lon="5.60726">
        <ele>460</ele>
        <time>2023-10-03T09:50:43Z</time>
      </trkpt>
      <trkpt lat="46.64327" lon="5.60727">
        <ele>460</ele>
        <time>2023-10-03T09:50:46Z</time>
      </trkpt>
      <trkpt lat="46.64324" lon="5.60727">
        <ele>460</ele>
        <time>2023-10-03T09:50:49Z</time>
      </trkpt>
      <trkpt lat="46.6432" lon="5.60727">
        <ele>460</ele>
        <time>2023-10-03T09:50:52Z</time>
      </trkpt>
      <trkpt lat="46.64317" lon="5.60727">
        <ele>460</ele>
        <time>2023-10-03T09:50:55Z</time>
      </trkpt>
      <trkpt lat="46.64314" lon="5.60727">
        <ele>460</ele>
        <time>2023-10-03T09:50:58Z</time>
      </trkpt>
      <trkpt lat="46.64311" lon="5.60727">
        <ele>460</ele>
        <time>2023-10-03T09:51:00Z</time>
      </trkpt>
      <trkpt lat="46.64307" lon="5.60727">
        <ele>460</ele>
        <time>2023-10-03T09:51:02Z</time>
      </trkpt>
      <trkpt lat="46.64304" lon="5.60727">
        <ele>460</ele>
        <time>2023-10-03T09:51:04Z</time>
      </trkpt>
      <trkpt lat="46.64301" lon="5.60727">
        <ele>460</ele>
        <time>2023-10-03T09:51:06Z</time>
      </trkpt>
      <trkpt lat="46.64299" lon="5.60729">
        <ele>460</ele>
        <time>2023-10-03T09:51:08Z</time>
      </trkpt>
      <trkpt lat="46.64296" lon="5.60731">
        <ele>460</ele>
        <time>2023-10-03T09:51:11Z</time>
      </trkpt>
      <trkpt lat="46.64292" lon="5.60731">
        <ele>460</ele>
        <time>2023-10-03T09:51:14Z</time>
      </trkpt>
      <trkpt lat="46.64289" lon="5.60731">
        <ele>460</ele>
        <time>2023-10-03T09:51:17Z</time>
      </trkpt>
      <trkpt lat="46.64285" lon="5.60731">
        <ele>461</ele>
        <time>2023-10-03T09:51:20Z</time>
      </trkpt>
      <trkpt lat="46.64282" lon="5.6073">
        <ele>461</ele>
        <time>2023-10-03T09:51:22Z</time>
      </trkpt>
      <trkpt lat="46.6428" lon="5.60729">
        <ele>461</ele>
        <time>2023-10-03T09:51:25Z</time>
      </trkpt>
      <trkpt lat="46.64277" lon="5.60729">
        <ele>461</ele>
        <time>2023-10-03T09:51:27Z</time>
      </trkpt>
      <trkpt lat="46.64274" lon="5.60729">
        <ele>461</ele>
        <time>2023-10-03T09:51:30Z</time>
      </trkpt>
      <trkpt lat="46.64271" lon="5.60727">
        <ele>461</ele>
        <time>2023-10-03T09:51:36Z</time>
      </trkpt>
      <trkpt lat="46.64268" lon="5.60727">
        <ele>461</ele>
        <time>2023-10-03T09:51:38Z</time>
      </trkpt>
      <trkpt lat="46.64264" lon="5.60726">
        <ele>461</ele>
        <time>2023-10-03T09:51:41Z</time>
      </trkpt>
      <trkpt lat="46.64261" lon="5.60727">
        <ele>461</ele>
        <time>2023-10-03T09:51:43Z</time>
      </trkpt>
      <trkpt lat="46.64258" lon="5.60727">
        <ele>462</ele>
        <time>2023-10-03T09:51:46Z</time>
      </trkpt>
      <trkpt lat="46.64254" lon="5.60728">
        <ele>462</ele>
        <time>2023-10-03T09:51:50Z</time>
      </trkpt>
      <trkpt lat="46.64251" lon="5.60727">
        <ele>462</ele>
        <time>2023-10-03T09:51:53Z</time>
      </trkpt>
      <trkpt lat="46.64248" lon="5.60727">
        <ele>462</ele>
        <time>2023-10-03T09:51:56Z</time>
      </trkpt>
      <trkpt lat="46.64244" lon="5.60727">
        <ele>462</ele>
        <time>2023-10-03T09:51:58Z</time>
      </trkpt>
      <trkpt lat="46.64241" lon="5.60726">
        <ele>462</ele>
        <time>2023-10-03T09:52:02Z</time>
      </trkpt>
      <trkpt lat="46.64238" lon="5.60727">
        <ele>462</ele>
        <time>2023-10-03T09:52:06Z</time>
      </trkpt>
      <trkpt lat="46.64234" lon="5.60727">
        <ele>462</ele>
        <time>2023-10-03T09:52:10Z</time>
      </trkpt>
      <trkpt lat="46.64231" lon="5.60728">
        <ele>463</ele>
        <time>2023-10-03T09:52:13Z</time>
      </trkpt>
      <trkpt lat="46.64227" lon="5.60727">
        <ele>463</ele>
        <time>2023-10-03T09:52:15Z</time>
      </trkpt>
      <trkpt lat="46.64223" lon="5.60726">
        <ele>463</ele>
        <time>2023-10-03T09:52:17Z</time>
      </trkpt>
      <trkpt lat="46.6422" lon="5.60724">
        <ele>463</ele>
        <time>2023-10-03T09:52:20Z</time>
      </trkpt>
      <trkpt lat="46.64217" lon="5.60723">
        <ele>463</ele>
        <time>2023-10-03T09:52:23Z</time>
      </trkpt>
      <trkpt lat="46.64213" lon="5.60723">
        <ele>463</ele>
        <time>2023-10-03T09:52:25Z</time>
      </trkpt>
      <trkpt lat="46.6421" lon="5.60723">
        <ele>463</ele>
        <time>2023-10-03T09:52:27Z</time>
      </trkpt>
      <trkpt lat="46.64207" lon="5.60723">
        <ele>463</ele>
        <time>2023-10-03T09:52:30Z</time>
      </trkpt>
      <trkpt lat="46.64203" lon="5.60723">
        <ele>463</ele>
        <time>2023-10-03T09:52:33Z</time>
      </trkpt>
      <trkpt lat="46.642" lon="5.60723">
        <ele>463</ele>
        <time>2023-10-03T09:52:36Z</time>
      </trkpt>
      <trkpt lat="46.64196" lon="5.60723">
        <ele>464</ele>
        <time>2023-10-03T09:52:38Z</time>
      </trkpt>
      <trkpt lat="46.64193" lon="5.60723">
        <ele>464</ele>
        <time>2023-10-03T09:52:40Z</time>
      </trkpt>
      <trkpt lat="46.6419" lon="5.60722">
        <ele>464</ele>
        <time>2023-10-03T09:52:43Z</time>
      </trkpt>
      <trkpt lat="46.64187" lon="5.60722">
        <ele>464</ele>
        <time>2023-10-03T09:52:47Z</time>
      </trkpt>
      <trkpt lat="46.64184" lon="5.60723">
        <ele>464</ele>
        <time>2023-10-03T09:52:50Z</time>
      </trkpt>
      <trkpt lat="46.64181" lon="5.60722">
        <ele>464</ele>
        <time>2023-10-03T09:52:54Z</time>
      </trkpt>
      <trkpt lat="46.64178" lon="5.60722">
        <ele>464</ele>
        <time>2023-10-03T09:52:57Z</time>
      </trkpt>
      <trkpt lat="46.64175" lon="5.60722">
        <ele>464</ele>
        <time>2023-10-03T09:53:00Z</time>
      </trkpt>
      <trkpt lat="46.64172" lon="5.60722">
        <ele>464</ele>
        <time>2023-10-03T09:53:03Z</time>
      </trkpt>
      <trkpt lat="46.64169" lon="5.60723">
        <ele>464</ele>
        <time>2023-10-03T09:53:07Z</time>
      </trkpt>
      <trkpt lat="46.64166" lon="5.60724">
        <ele>464</ele>
        <time>2023-10-03T09:53:09Z</time>
      </trkpt>
      <trkpt lat="46.64162" lon="5.60725">
        <ele>464</ele>
        <time>2023-10-03T09:53:12Z</time>
      </trkpt>
      <trkpt lat="46.64159" lon="5.60727">
        <ele>464</ele>
        <time>2023-10-03T09:53:14Z</time>
      </trkpt>
      <trkpt lat="46.64155" lon="5.60727">
        <ele>465</ele>
        <time>2023-10-03T09:53:17Z</time>
      </trkpt>
      <trkpt lat="46.64152" lon="5.60727">
        <ele>465</ele>
        <time>2023-10-03T09:53:20Z</time>
      </trkpt>
      <trkpt lat="46.64149" lon="5.60727">
        <ele>465</ele>
        <time>2023-10-03T09:53:23Z</time>
      </trkpt>
      <trkpt lat="46.64145" lon="5.60726">
        <ele>465</ele>
        <time>2023-10-03T09:53:26Z</time>
      </trkpt>
      <trkpt lat="46.64142" lon="5.60726">
        <ele>465</ele>
        <time>2023-10-03T09:53:29Z</time>
      </trkpt>
      <trkpt lat="46.64139" lon="5.60725">
        <ele>465</ele>
        <time>2023-10-03T09:53:32Z</time>
      </trkpt>
      <trkpt lat="46.64136" lon="5.60724">
        <ele>465</ele>
        <time>2023-10-03T09:53:35Z</time>
      </trkpt>
      <trkpt lat="46.64133" lon="5.60725">
        <ele>465</ele>
        <time>2023-10-03T09:53:38Z</time>
      </trkpt>
      <trkpt lat="46.6413" lon="5.60725">
        <ele>465</ele>
        <time>2023-10-03T09:53:41Z</time>
      </trkpt>
      <trkpt lat="46.64126" lon="5.60725">
        <ele>465</ele>
        <time>2023-10-03T09:53:44Z</time>
      </trkpt>
      <trkpt lat="46.64123" lon="5.60725">
        <ele>465</ele>
        <time>2023-10-03T09:53:48Z</time>
      </trkpt>
      <trkpt lat="46.64119" lon="5.60725">
        <ele>465</ele>
        <time>2023-10-03T09:53:50Z</time>
      </trkpt>
      <trkpt lat="46.64116" lon="5.60725">
        <ele>465</ele>
        <time>2023-10-03T09:53:53Z</time>
      </trkpt>
      <trkpt lat="46.64113" lon="5.60724">
        <ele>465</ele>
        <time>2023-10-03T09:53:56Z</time>
      </trkpt>
      <trkpt lat="46.64109" lon="5.60722">
        <ele>465</ele>
        <time>2023-10-03T09:53:59Z</time>
      </trkpt>
      <trkpt lat="46.64105" lon="5.60722">
        <ele>465</ele>
        <time>2023-10-03T09:54:02Z</time>
      </trkpt>
      <trkpt lat="46.64102" lon="5.60723">
        <ele>466</ele>
        <time>2023-10-03T09:54:05Z</time>
      </trkpt>
      <trkpt lat="46.64098" lon="5.60724">
        <ele>466</ele>
        <time>2023-10-03T09:54:08Z</time>
      </trkpt>
      <trkpt lat="46.64095" lon="5.60722">
        <ele>466</ele>
        <time>2023-10-03T09:54:11Z</time>
      </trkpt>
      <trkpt lat="46.64092" lon="5.60721">
        <ele>466</ele>
        <time>2023-10-03T09:54:14Z</time>
      </trkpt>
      <trkpt lat="46.64089" lon="5.60721">
        <ele>466</ele>
        <time>2023-10-03T09:54:17Z</time>
      </trkpt>
      <trkpt lat="46.64085" lon="5.60722">
        <ele>466</ele>
        <time>2023-10-03T09:54:20Z</time>
      </trkpt>
      <trkpt lat="46.64082" lon="5.60723">
        <ele>466</ele>
        <time>2023-10-03T09:54:23Z</time>
      </trkpt>
      <trkpt lat="46.64079" lon="5.60723">
        <ele>466</ele>
        <time>2023-10-03T09:54:26Z</time>
      </trkpt>
      <trkpt lat="46.64075" lon="5.60722">
        <ele>466</ele>
        <time>2023-10-03T09:54:29Z</time>
      </trkpt>
      <trkpt lat="46.64071" lon="5.60722">
        <ele>466</ele>
        <time>2023-10-03T09:54:32Z</time>
      </trkpt>
      <trkpt lat="46.64068" lon="5.60723">
        <ele>466</ele>
        <time>2023-10-03T09:54:35Z</time>
      </trkpt>
      <trkpt lat="46.64065" lon="5.60724">
        <ele>466</ele>
        <time>2023-10-03T09:54:38Z</time>
      </trkpt>
      <trkpt lat="46.64062" lon="5.60724">
        <ele>466</ele>
        <time>2023-10-03T09:54:41Z</time>
      </trkpt>
      <trkpt lat="46.64059" lon="5.60723">
        <ele>466</ele>
        <time>2023-10-03T09:54:44Z</time>
      </trkpt>
      <trkpt lat="46.64055" lon="5.60723">
        <ele>467</ele>
        <time>2023-10-03T09:54:47Z</time>
      </trkpt>
      <trkpt lat="46.64052" lon="5.60722">
        <ele>467</ele>
        <time>2023-10-03T09:54:50Z</time>
      </trkpt>
      <trkpt lat="46.64048" lon="5.60721">
        <ele>467</ele>
        <time>2023-10-03T09:54:53Z</time>
      </trkpt>
      <trkpt lat="46.64045" lon="5.6072">
        <ele>467</ele>
        <time>2023-10-03T09:54:56Z</time>
      </trkpt>
      <trkpt lat="46.64042" lon="5.6072">
        <ele>467</ele>
        <time>2023-10-03T09:55:00Z</time>
      </trkpt>
      <trkpt lat="46.64038" lon="5.60721">
        <ele>467</ele>
        <time>2023-10-03T09:55:03Z</time>
      </trkpt>
      <trkpt lat="46.64035" lon="5.60722">
        <ele>467</ele>
        <time>2023-10-03T09:55:06Z</time>
      </trkpt>
      <trkpt lat="46.64031" lon="5.60723">
        <ele>467</ele>
        <time>2023-10-03T09:55:09Z</time>
      </trkpt>
      <trkpt lat="46.64028" lon="5.60724">
        <ele>467</ele>
        <time>2023-10-03T09:55:12Z</time>
      </trkpt>
      <trkpt lat="46.64024" lon="5.60724">
        <ele>467</ele>
        <time>2023-10-03T09:55:15Z</time>
      </trkpt>
      <trkpt lat="46.64021" lon="5.60724">
        <ele>467</ele>
        <time>2023-10-03T09:55:17Z</time>
      </trkpt>
      <trkpt lat="46.64017" lon="5.60724">
        <ele>467</ele>
        <time>2023-10-03T09:55:20Z</time>
      </trkpt>
      <trkpt lat="46.64014" lon="5.60723">
        <ele>467</ele>
        <time>2023-10-03T09:55:22Z</time>
      </trkpt>
      <trkpt lat="46.64011" lon="5.60722">
        <ele>467</ele>
        <time>2023-10-03T09:55:24Z</time>
      </trkpt>
      <trkpt lat="46.64008" lon="5.60722">
        <ele>467</ele>
        <time>2023-10-03T09:55:26Z</time>
      </trkpt>
      <trkpt lat="46.64005" lon="5.60721">
        <ele>467</ele>
        <time>2023-10-03T09:55:29Z</time>
      </trkpt>
      <trkpt lat="46.64001" lon="5.60721">
        <ele>468</ele>
        <time>2023-10-03T09:55:32Z</time>
      </trkpt>
      <trkpt lat="46.63998" lon="5.6072">
        <ele>468</ele>
        <time>2023-10-03T09:55:35Z</time>
      </trkpt>
      <trkpt lat="46.63995" lon="5.60718">
        <ele>468</ele>
        <time>2023-10-03T09:55:38Z</time>
      </trkpt>
      <trkpt lat="46.63992" lon="5.60718">
        <ele>468</ele>
        <time>2023-10-03T09:55:41Z</time>
      </trkpt>
      <trkpt lat="46.63988" lon="5.60718">
        <ele>468</ele>
        <time>2023-10-03T09:55:44Z</time>
      </trkpt>
      <trkpt lat="46.63985" lon="5.60719">
        <ele>468</ele>
        <time>2023-10-03T09:55:47Z</time>
      </trkpt>
      <trkpt lat="46.63982" lon="5.60719">
        <ele>469</ele>
        <time>2023-10-03T09:55:49Z</time>
      </trkpt>
      <trkpt lat="46.63978" lon="5.60719">
        <ele>469</ele>
        <time>2023-10-03T09:55:52Z</time>
      </trkpt>
      <trkpt lat="46.63975" lon="5.6072">
        <ele>469</ele>
        <time>2023-10-03T09:55:54Z</time>
      </trkpt>
      <trkpt lat="46.63972" lon="5.60721">
        <ele>469</ele>
        <time>2023-10-03T09:55:57Z</time>
      </trkpt>
      <trkpt lat="46.63969" lon="5.60721">
        <ele>469</ele>
        <time>2023-10-03T09:56:00Z</time>
      </trkpt>
      <trkpt lat="46.63966" lon="5.60722">
        <ele>469</ele>
        <time>2023-10-03T09:56:03Z</time>
      </trkpt>
      <trkpt lat="46.63962" lon="5.60723">
        <ele>469</ele>
        <time>2023-10-03T09:56:06Z</time>
      </trkpt>
      <trkpt lat="46.63959" lon="5.60725">
        <ele>469</ele>
        <time>2023-10-03T09:56:09Z</time>
      </trkpt>
      <trkpt lat="46.63956" lon="5.60726">
        <ele>469</ele>
        <time>2023-10-03T09:56:12Z</time>
      </trkpt>
      <trkpt lat="46.63952" lon="5.60726">
        <ele>469</ele>
        <time>2023-10-03T09:56:15Z</time>
      </trkpt>
      <trkpt lat="46.63949" lon="5.60725">
        <ele>469</ele>
        <time>2023-10-03T09:56:20Z</time>
      </trkpt>
      <trkpt lat="46.63946" lon="5.60726">
        <ele>469</ele>
        <time>2023-10-03T09:56:24Z</time>
      </trkpt>
      <trkpt lat="46.63944" lon="5.60727">
        <ele>469</ele>
        <time>2023-10-03T09:56:27Z</time>
      </trkpt>
      <trkpt lat="46.63941" lon="5.60728">
        <ele>469</ele>
        <time>2023-10-03T09:56:30Z</time>
      </trkpt>
      <trkpt lat="46.63938" lon="5.6073">
        <ele>469</ele>
        <time>2023-10-03T09:56:33Z</time>
      </trkpt>
      <trkpt lat="46.63936" lon="5.60731">
        <ele>469</ele>
        <time>2023-10-03T09:56:35Z</time>
      </trkpt>
      <trkpt lat="46.63933" lon="5.60732">
        <ele>470</ele>
        <time>2023-10-03T09:56:38Z</time>
      </trkpt>
      <trkpt lat="46.63931" lon="5.60732">
        <ele>470</ele>
        <time>2023-10-03T09:56:39Z</time>
      </trkpt>
      <trkpt lat="46.63928" lon="5.60732">
        <ele>470</ele>
        <time>2023-10-03T09:56:42Z</time>
      </trkpt>
      <trkpt lat="46.63926" lon="5.60734">
        <ele>470</ele>
        <time>2023-10-03T09:56:46Z</time>
      </trkpt>
      <trkpt lat="46.63923" lon="5.60737">
        <ele>470</ele>
        <time>2023-10-03T09:56:49Z</time>
      </trkpt>
      <trkpt lat="46.6392" lon="5.6074">
        <ele>470</ele>
        <time>2023-10-03T09:56:52Z</time>
      </trkpt>
      <trkpt lat="46.63918" lon="5.60739">
        <ele>470</ele>
        <time>2023-10-03T09:57:03Z</time>
      </trkpt>
      <trkpt lat="46.63917" lon="5.60736">
        <ele>470</ele>
        <time>2023-10-03T09:57:13Z</time>
      </trkpt>
      <trkpt lat="46.63917" lon="5.60733">
        <ele>471</ele>
        <time>2023-10-03T09:57:43Z</time>
      </trkpt>
      <trkpt lat="46.63919" lon="5.60731">
        <ele>471</ele>
        <time>2023-10-03T09:57:53Z</time>
      </trkpt>
      <trkpt lat="46.63919" lon="5.60733">
        <ele>471</ele>
        <time>2023-10-03T09:57:56Z</time>
      </trkpt>
      <trkpt lat="46.63917" lon="5.60735">
        <ele>471</ele>
        <time>2023-10-03T09:57:59Z</time>
      </trkpt>
      <trkpt lat="46.63915" lon="5.60734">
        <ele>471</ele>
        <time>2023-10-03T09:58:10Z</time>
      </trkpt>
      <trkpt lat="46.63912" lon="5.60734">
        <ele>471</ele>
        <time>2023-10-03T09:58:16Z</time>
      </trkpt>
      <trkpt lat="46.6391" lon="5.60735">
        <ele>472</ele>
        <time>2023-10-03T09:58:19Z</time>
      </trkpt>
      <trkpt lat="46.63906" lon="5.60737">
        <ele>472</ele>
        <time>2023-10-03T09:58:22Z</time>
      </trkpt>
      <trkpt lat="46.63903" lon="5.60738">
        <ele>472</ele>
        <time>2023-10-03T09:58:25Z</time>
      </trkpt>
      <trkpt lat="46.639" lon="5.6074">
        <ele>472</ele>
        <time>2023-10-03T09:58:28Z</time>
      </trkpt>
      <trkpt lat="46.63896" lon="5.60741">
        <ele>472</ele>
        <time>2023-10-03T09:58:31Z</time>
      </trkpt>
      <trkpt lat="46.63893" lon="5.60742">
        <ele>472</ele>
        <time>2023-10-03T09:58:34Z</time>
      </trkpt>
      <trkpt lat="46.63889" lon="5.60744">
        <ele>472</ele>
        <time>2023-10-03T09:58:37Z</time>
      </trkpt>
      <trkpt lat="46.63886" lon="5.60746">
        <ele>472</ele>
        <time>2023-10-03T09:58:40Z</time>
      </trkpt>
      <trkpt lat="46.63884" lon="5.60749">
        <ele>472</ele>
        <time>2023-10-03T09:58:45Z</time>
      </trkpt>
      <trkpt lat="46.63881" lon="5.6075">
        <ele>472</ele>
        <time>2023-10-03T09:58:48Z</time>
      </trkpt>
      <trkpt lat="46.63877" lon="5.60751">
        <ele>472</ele>
        <time>2023-10-03T09:58:50Z</time>
      </trkpt>
      <trkpt lat="46.63874" lon="5.60752">
        <ele>472</ele>
        <time>2023-10-03T09:58:53Z</time>
      </trkpt>
      <trkpt lat="46.63871" lon="5.60754">
        <ele>472</ele>
        <time>2023-10-03T09:58:56Z</time>
      </trkpt>
      <trkpt lat="46.63867" lon="5.60756">
        <ele>472</ele>
        <time>2023-10-03T09:58:59Z</time>
      </trkpt>
      <trkpt lat="46.63863" lon="5.60756">
        <ele>473</ele>
        <time>2023-10-03T09:59:01Z</time>
      </trkpt>
      <trkpt lat="46.6386" lon="5.60757">
        <ele>473</ele>
        <time>2023-10-03T09:59:04Z</time>
      </trkpt>
      <trkpt lat="46.63857" lon="5.60757">
        <ele>473</ele>
        <time>2023-10-03T09:59:07Z</time>
      </trkpt>
      <trkpt lat="46.63854" lon="5.60759">
        <ele>473</ele>
        <time>2023-10-03T09:59:09Z</time>
      </trkpt>
      <trkpt lat="46.63851" lon="5.60762">
        <ele>473</ele>
        <time>2023-10-03T09:59:11Z</time>
      </trkpt>
      <trkpt lat="46.63848" lon="5.60765">
        <ele>473</ele>
        <time>2023-10-03T09:59:13Z</time>
      </trkpt>
      <trkpt lat="46.63846" lon="5.60769">
        <ele>473</ele>
        <time>2023-10-03T09:59:15Z</time>
      </trkpt>
      <trkpt lat="46.63843" lon="5.60773">
        <ele>473</ele>
        <time>2023-10-03T09:59:17Z</time>
      </trkpt>
      <trkpt lat="46.63842" lon="5.60776">
        <ele>473</ele>
        <time>2023-10-03T09:59:20Z</time>
      </trkpt>
      <trkpt lat="46.6384" lon="5.6078">
        <ele>473</ele>
        <time>2023-10-03T09:59:23Z</time>
      </trkpt>
      <trkpt lat="46.63837" lon="5.60782">
        <ele>474</ele>
        <time>2023-10-03T09:59:26Z</time>
      </trkpt>
      <trkpt lat="46.63834" lon="5.60783">
        <ele>474</ele>
        <time>2023-10-03T09:59:29Z</time>
      </trkpt>
      <trkpt lat="46.63832" lon="5.60785">
        <ele>474</ele>
        <time>2023-10-03T09:59:31Z</time>
      </trkpt>
      <trkpt lat="46.63829" lon="5.60787">
        <ele>474</ele>
        <time>2023-10-03T09:59:34Z</time>
      </trkpt>
      <trkpt lat="46.63826" lon="5.60789">
        <ele>474</ele>
        <time>2023-10-03T09:59:38Z</time>
      </trkpt>
      <trkpt lat="46.63824" lon="5.60793">
        <ele>474</ele>
        <time>2023-10-03T09:59:42Z</time>
      </trkpt>
      <trkpt lat="46.63823" lon="5.60797">
        <ele>474</ele>
        <time>2023-10-03T09:59:45Z</time>
      </trkpt>
      <trkpt lat="46.63821" lon="5.60801">
        <ele>474</ele>
        <time>2023-10-03T09:59:48Z</time>
      </trkpt>
      <trkpt lat="46.63818" lon="5.60805">
        <ele>475</ele>
        <time>2023-10-03T09:59:50Z</time>
      </trkpt>
      <trkpt lat="46.63816" lon="5.60808">
        <ele>475</ele>
        <time>2023-10-03T09:59:53Z</time>
      </trkpt>
      <trkpt lat="46.63813" lon="5.6081">
        <ele>475</ele>
        <time>2023-10-03T09:59:56Z</time>
      </trkpt>
      <trkpt lat="46.6381" lon="5.60813">
        <ele>475</ele>
        <time>2023-10-03T09:59:59Z</time>
      </trkpt>
      <trkpt lat="46.63806" lon="5.60815">
        <ele>475</ele>
        <time>2023-10-03T10:00:02Z</time>
      </trkpt>
      <trkpt lat="46.63807" lon="5.60817">
        <ele>475</ele>
        <time>2023-10-03T10:00:09Z</time>
      </trkpt>
      <trkpt lat="46.63748" lon="5.60999">
        <ele>480</ele>
        <time>2023-10-03T10:03:55Z</time>
      </trkpt>
      <trkpt lat="46.63724" lon="5.6107">
        <ele>480</ele>
        <time>2023-10-03T10:03:56Z</time>
      </trkpt>
      <trkpt lat="46.63712" lon="5.61099">
        <ele>480</ele>
        <time>2023-10-03T10:03:58Z</time>
      </trkpt>
      <trkpt lat="46.63704" lon="5.61112">
        <ele>480</ele>
        <time>2023-10-03T10:04:00Z</time>
      </trkpt>
      <trkpt lat="46.63701" lon="5.6112">
        <ele>480</ele>
        <time>2023-10-03T10:04:03Z</time>
      </trkpt>
      <trkpt lat="46.637" lon="5.61125">
        <ele>480</ele>
        <time>2023-10-03T10:04:04Z</time>
      </trkpt>
      <trkpt lat="46.63701" lon="5.61129">
        <ele>480</ele>
        <time>2023-10-03T10:04:06Z</time>
      </trkpt>
      <trkpt lat="46.63702" lon="5.61133">
        <ele>480</ele>
        <time>2023-10-03T10:04:08Z</time>
      </trkpt>
      <trkpt lat="46.63703" lon="5.61138">
        <ele>480</ele>
        <time>2023-10-03T10:04:10Z</time>
      </trkpt>
      <trkpt lat="46.63704" lon="5.61142">
        <ele>480</ele>
        <time>2023-10-03T10:04:13Z</time>
      </trkpt>
      <trkpt lat="46.63706" lon="5.61146">
        <ele>480</ele>
        <time>2023-10-03T10:04:15Z</time>
      </trkpt>
      <trkpt lat="46.63706" lon="5.61151">
        <ele>480</ele>
        <time>2023-10-03T10:04:18Z</time>
      </trkpt>
      <trkpt lat="46.63705" lon="5.61154">
        <ele>481</ele>
        <time>2023-10-03T10:04:21Z</time>
      </trkpt>
      <trkpt lat="46.63707" lon="5.61156">
        <ele>481</ele>
        <time>2023-10-03T10:04:26Z</time>
      </trkpt>
      <trkpt lat="46.63709" lon="5.61156">
        <ele>481</ele>
        <time>2023-10-03T10:04:32Z</time>
      </trkpt>
      <trkpt lat="46.63712" lon="5.61157">
        <ele>481</ele>
        <time>2023-10-03T10:04:37Z</time>
      </trkpt>
      <trkpt lat="46.63731" lon="5.61317">
        <ele>484</ele>
        <time>2023-10-03T10:05:54Z</time>
      </trkpt>
      <trkpt lat="46.63735" lon="5.61362">
        <ele>484</ele>
        <time>2023-10-03T10:05:55Z</time>
      </trkpt>
      <trkpt lat="46.63738" lon="5.61375">
        <ele>484</ele>
        <time>2023-10-03T10:05:57Z</time>
      </trkpt>
      <trkpt lat="46.63741" lon="5.61378">
        <ele>484</ele>
        <time>2023-10-03T10:05:59Z</time>
      </trkpt>
      <trkpt lat="46.63744" lon="5.61377">
        <ele>484</ele>
        <time>2023-10-03T10:06:01Z</time>
      </trkpt>
      <trkpt lat="46.63748" lon="5.61375">
        <ele>484</ele>
        <time>2023-10-03T10:06:03Z</time>
      </trkpt>
      <trkpt lat="46.63751" lon="5.61373">
        <ele>484</ele>
        <time>2023-10-03T10:06:04Z</time>
      </trkpt>
      <trkpt lat="46.63754" lon="5.61371">
        <ele>484</ele>
        <time>2023-10-03T10:06:05Z</time>
      </trkpt>
      <trkpt lat="46.63757" lon="5.6137">
        <ele>484</ele>
        <time>2023-10-03T10:06:07Z</time>
      </trkpt>
      <trkpt lat="46.63761" lon="5.61369">
        <ele>484</ele>
        <time>2023-10-03T10:06:10Z</time>
      </trkpt>
      <trkpt lat="46.63762" lon="5.61365">
        <ele>484</ele>
        <time>2023-10-03T10:06:15Z</time>
      </trkpt>
      <trkpt lat="46.63762" lon="5.6136">
        <ele>484</ele>
        <time>2023-10-03T10:06:19Z</time>
      </trkpt>
      <trkpt lat="46.63761" lon="5.61361">
        <ele>484</ele>
        <time>2023-10-03T10:06:22Z</time>
      </trkpt>
      <trkpt lat="46.63761" lon="5.61361">
        <ele>484</ele>
        <time>2023-10-03T10:06:23Z</time>
      </trkpt>
      <trkpt lat="46.6376" lon="5.61358">
        <ele>484</ele>
        <time>2023-10-03T10:06:26Z</time>
      </trkpt>
      <trkpt lat="46.63759" lon="5.61354">
        <ele>484</ele>
        <time>2023-10-03T10:06:27Z</time>
      </trkpt>
      <trkpt lat="46.63759" lon="5.61348">
        <ele>484</ele>
        <time>2023-10-03T10:06:29Z</time>
      </trkpt>
      <trkpt lat="46.63758" lon="5.61344">
        <ele>484</ele>
        <time>2023-10-03T10:06:32Z</time>
      </trkpt>
      <trkpt lat="46.63756" lon="5.6134">
        <ele>484</ele>
        <time>2023-10-03T10:06:35Z</time>
      </trkpt>
      <trkpt lat="46.63754" lon="5.61337">
        <ele>484</ele>
        <time>2023-10-03T10:06:38Z</time>
      </trkpt>
      <trkpt lat="46.63755" lon="5.61334">
        <ele>484</ele>
        <time>2023-10-03T10:06:41Z</time>
      </trkpt>
      <trkpt lat="46.63757" lon="5.6133">
        <ele>484</ele>
        <time>2023-10-03T10:06:44Z</time>
      </trkpt>
      <trkpt lat="46.63759" lon="5.61328">
        <ele>484</ele>
        <time>2023-10-03T10:06:48Z</time>
      </trkpt>
      <trkpt lat="46.63763" lon="5.61325">
        <ele>484</ele>
        <time>2023-10-03T10:06:54Z</time>
      </trkpt>
      <trkpt lat="46.63767" lon="5.61325">
        <ele>484</ele>
        <time>2023-10-03T10:07:04Z</time>
      </trkpt>
      <trkpt lat="46.6377" lon="5.61322">
        <ele>485</ele>
        <time>2023-10-03T10:07:19Z</time>
      </trkpt>
      <trkpt lat="46.63771" lon="5.61321">
        <ele>484</ele>
        <time>2023-10-03T10:07:31Z</time>
      </trkpt>
      <trkpt lat="46.63771" lon="5.61324">
        <ele>484</ele>
        <time>2023-10-03T10:08:06Z</time>
      </trkpt>
      <trkpt lat="46.6377" lon="5.61323">
        <ele>484</ele>
        <time>2023-10-03T10:08:17Z</time>
      </trkpt>
      <trkpt lat="46.63769" lon="5.61322">
        <ele>484</ele>
        <time>2023-10-03T10:08:20Z</time>
      </trkpt>
      <trkpt lat="46.63769" lon="5.61325">
        <ele>485</ele>
        <time>2023-10-03T10:08:25Z</time>
      </trkpt>
      <trkpt lat="46.6377" lon="5.61329">
        <ele>485</ele>
        <time>2023-10-03T10:08:28Z</time>
      </trkpt>
      <trkpt lat="46.63773" lon="5.61329">
        <ele>485</ele>
        <time>2023-10-03T10:08:32Z</time>
      </trkpt>
      <trkpt lat="46.63775" lon="5.6133">
        <ele>485</ele>
        <time>2023-10-03T10:08:34Z</time>
      </trkpt>
      <trkpt lat="46.63778" lon="5.61331">
        <ele>485</ele>
        <time>2023-10-03T10:08:49Z</time>
      </trkpt>
      <trkpt lat="46.63781" lon="5.61332">
        <ele>485</ele>
        <time>2023-10-03T10:08:55Z</time>
      </trkpt>
      <trkpt lat="46.63782" lon="5.61335">
        <ele>485</ele>
        <time>2023-10-03T10:09:00Z</time>
      </trkpt>
      <trkpt lat="46.63783" lon="5.61338">
        <ele>485</ele>
        <time>2023-10-03T10:09:03Z</time>
      </trkpt>
      <trkpt lat="46.63784" lon="5.61342">
        <ele>485</ele>
        <time>2023-10-03T10:09:08Z</time>
      </trkpt>
      <trkpt lat="46.63785" lon="5.61346">
        <ele>485</ele>
        <time>2023-10-03T10:09:11Z</time>
      </trkpt>
      <trkpt lat="46.63788" lon="5.61349">
        <ele>485</ele>
        <time>2023-10-03T10:09:13Z</time>
      </trkpt>
      <trkpt lat="46.63789" lon="5.61354">
        <ele>485</ele>
        <time>2023-10-03T10:09:17Z</time>
      </trkpt>
      <trkpt lat="46.6379" lon="5.61358">
        <ele>485</ele>
        <time>2023-10-03T10:09:20Z</time>
      </trkpt>
      <trkpt lat="46.63792" lon="5.61361">
        <ele>485</ele>
        <time>2023-10-03T10:09:24Z</time>
      </trkpt>
      <trkpt lat="46.63793" lon="5.61365">
        <ele>485</ele>
        <time>2023-10-03T10:09:28Z</time>
      </trkpt>
      <trkpt lat="46.63795" lon="5.61368">
        <ele>485</ele>
        <time>2023-10-03T10:09:32Z</time>
      </trkpt>
      <trkpt lat="46.63797" lon="5.61372">
        <ele>485</ele>
        <time>2023-10-03T10:09:35Z</time>
      </trkpt>
      <trkpt lat="46.638" lon="5.61375">
        <ele>485</ele>
        <time>2023-10-03T10:09:38Z</time>
      </trkpt>
      <trkpt lat="46.63802" lon="5.61378">
        <ele>485</ele>
        <time>2023-10-03T10:09:41Z</time>
      </trkpt>
      <trkpt lat="46.63804" lon="5.61382">
        <ele>486</ele>
        <time>2023-10-03T10:09:45Z</time>
      </trkpt>
      <trkpt lat="46.63807" lon="5.61385">
        <ele>486</ele>
        <time>2023-10-03T10:09:49Z</time>
      </trkpt>
      <trkpt lat="46.63809" lon="5.61388">
        <ele>486</ele>
        <time>2023-10-03T10:09:52Z</time>
      </trkpt>
      <trkpt lat="46.63811" lon="5.61392">
        <ele>486</ele>
        <time>2023-10-03T10:09:55Z</time>
      </trkpt>
      <trkpt lat="46.63814" lon="5.61395">
        <ele>486</ele>
        <time>2023-10-03T10:09:58Z</time>
      </trkpt>
      <trkpt lat="46.63816" lon="5.61399">
        <ele>486</ele>
        <time>2023-10-03T10:10:02Z</time>
      </trkpt>
      <trkpt lat="46.63819" lon="5.61402">
        <ele>486</ele>
        <time>2023-10-03T10:10:05Z</time>
      </trkpt>
      <trkpt lat="46.63821" lon="5.61405">
        <ele>486</ele>
        <time>2023-10-03T10:10:08Z</time>
      </trkpt>
      <trkpt lat="46.63824" lon="5.61409">
        <ele>487</ele>
        <time>2023-10-03T10:10:11Z</time>
      </trkpt>
      <trkpt lat="46.63826" lon="5.61413">
        <ele>487</ele>
        <time>2023-10-03T10:10:14Z</time>
      </trkpt>
      <trkpt lat="46.63828" lon="5.61417">
        <ele>487</ele>
        <time>2023-10-03T10:10:18Z</time>
      </trkpt>
      <trkpt lat="46.6383" lon="5.61421">
        <ele>487</ele>
        <time>2023-10-03T10:10:21Z</time>
      </trkpt>
      <trkpt lat="46.63831" lon="5.61425">
        <ele>487</ele>
        <time>2023-10-03T10:10:24Z</time>
      </trkpt>
      <trkpt lat="46.63832" lon="5.61429">
        <ele>487</ele>
        <time>2023-10-03T10:10:27Z</time>
      </trkpt>
      <trkpt lat="46.63834" lon="5.61433">
        <ele>487</ele>
        <time>2023-10-03T10:10:30Z</time>
      </trkpt>
      <trkpt lat="46.63836" lon="5.61436">
        <ele>487</ele>
        <time>2023-10-03T10:10:33Z</time>
      </trkpt>
      <trkpt lat="46.63839" lon="5.61439">
        <ele>487</ele>
        <time>2023-10-03T10:10:37Z</time>
      </trkpt>
      <trkpt lat="46.63842" lon="5.61441">
        <ele>487</ele>
        <time>2023-10-03T10:10:40Z</time>
      </trkpt>
      <trkpt lat="46.63844" lon="5.61445">
        <ele>487</ele>
        <time>2023-10-03T10:10:43Z</time>
      </trkpt>
      <trkpt lat="46.63846" lon="5.61448">
        <ele>487</ele>
        <time>2023-10-03T10:10:47Z</time>
      </trkpt>
      <trkpt lat="46.63848" lon="5.61452">
        <ele>487</ele>
        <time>2023-10-03T10:10:50Z</time>
      </trkpt>
      <trkpt lat="46.63851" lon="5.61454">
        <ele>487</ele>
        <time>2023-10-03T10:10:52Z</time>
      </trkpt>
      <trkpt lat="46.63854" lon="5.61455">
        <ele>488</ele>
        <time>2023-10-03T10:10:55Z</time>
      </trkpt>
      <trkpt lat="46.63854" lon="5.61458">
        <ele>488</ele>
        <time>2023-10-03T10:10:59Z</time>
      </trkpt>
      <trkpt lat="46.63855" lon="5.61459">
        <ele>488</ele>
        <time>2023-10-03T10:11:02Z</time>
      </trkpt>
      <trkpt lat="46.63856" lon="5.61463">
        <ele>488</ele>
        <time>2023-10-03T10:11:05Z</time>
      </trkpt>
      <trkpt lat="46.63857" lon="5.61466">
        <ele>488</ele>
        <time>2023-10-03T10:11:06Z</time>
      </trkpt>
      <trkpt lat="46.6386" lon="5.61468">
        <ele>488</ele>
        <time>2023-10-03T10:11:08Z</time>
      </trkpt>
      <trkpt lat="46.63863" lon="5.61471">
        <ele>488</ele>
        <time>2023-10-03T10:11:10Z</time>
      </trkpt>
      <trkpt lat="46.63866" lon="5.61475">
        <ele>488</ele>
        <time>2023-10-03T10:11:12Z</time>
      </trkpt>
      <trkpt lat="46.63868" lon="5.61478">
        <ele>488</ele>
        <time>2023-10-03T10:11:14Z</time>
      </trkpt>
      <trkpt lat="46.6387" lon="5.61481">
        <ele>488</ele>
        <time>2023-10-03T10:11:16Z</time>
      </trkpt>
      <trkpt lat="46.63873" lon="5.61483">
        <ele>488</ele>
        <time>2023-10-03T10:11:19Z</time>
      </trkpt>
      <trkpt lat="46.63877" lon="5.61486">
        <ele>489</ele>
        <time>2023-10-03T10:11:22Z</time>
      </trkpt>
      <trkpt lat="46.6388" lon="5.61488">
        <ele>489</ele>
        <time>2023-10-03T10:11:25Z</time>
      </trkpt>
      <trkpt lat="46.63883" lon="5.6149">
        <ele>489</ele>
        <time>2023-10-03T10:11:28Z</time>
      </trkpt>
      <trkpt lat="46.63886" lon="5.61491">
        <ele>489</ele>
        <time>2023-10-03T10:11:31Z</time>
      </trkpt>
      <trkpt lat="46.6389" lon="5.61493">
        <ele>489</ele>
        <time>2023-10-03T10:11:34Z</time>
      </trkpt>
      <trkpt lat="46.63892" lon="5.61496">
        <ele>489</ele>
        <time>2023-10-03T10:11:37Z</time>
      </trkpt>
      <trkpt lat="46.63895" lon="5.61499">
        <ele>489</ele>
        <time>2023-10-03T10:11:40Z</time>
      </trkpt>
      <trkpt lat="46.63898" lon="5.61502">
        <ele>489</ele>
        <time>2023-10-03T10:11:43Z</time>
      </trkpt>
      <trkpt lat="46.639" lon="5.61505">
        <ele>489</ele>
        <time>2023-10-03T10:11:46Z</time>
      </trkpt>
      <trkpt lat="46.63903" lon="5.61508">
        <ele>489</ele>
        <time>2023-10-03T10:11:49Z</time>
      </trkpt>
      <trkpt lat="46.63906" lon="5.6151">
        <ele>489</ele>
        <time>2023-10-03T10:11:52Z</time>
      </trkpt>
      <trkpt lat="46.63909" lon="5.61512">
        <ele>489</ele>
        <time>2023-10-03T10:11:55Z</time>
      </trkpt>
      <trkpt lat="46.63912" lon="5.61514">
        <ele>489</ele>
        <time>2023-10-03T10:11:58Z</time>
      </trkpt>
      <trkpt lat="46.63915" lon="5.61516">
        <ele>489</ele>
        <time>2023-10-03T10:12:01Z</time>
      </trkpt>
      <trkpt lat="46.63918" lon="5.61518">
        <ele>489</ele>
        <time>2023-10-03T10:12:04Z</time>
      </trkpt>
      <trkpt lat="46.63921" lon="5.6152">
        <ele>490</ele>
        <time>2023-10-03T10:12:07Z</time>
      </trkpt>
      <trkpt lat="46.63924" lon="5.61522">
        <ele>490</ele>
        <time>2023-10-03T10:12:10Z</time>
      </trkpt>
      <trkpt lat="46.63927" lon="5.61524">
        <ele>490</ele>
        <time>2023-10-03T10:12:13Z</time>
      </trkpt>
      <trkpt lat="46.6393" lon="5.61525">
        <ele>490</ele>
        <time>2023-10-03T10:12:16Z</time>
      </trkpt>
      <trkpt lat="46.63933" lon="5.61527">
        <ele>490</ele>
        <time>2023-10-03T10:12:19Z</time>
      </trkpt>
      <trkpt lat="46.63936" lon="5.61529">
        <ele>490</ele>
        <time>2023-10-03T10:12:22Z</time>
      </trkpt>
      <trkpt lat="46.63939" lon="5.61531">
        <ele>490</ele>
        <time>2023-10-03T10:12:25Z</time>
      </trkpt>
      <trkpt lat="46.63942" lon="5.61534">
        <ele>490</ele>
        <time>2023-10-03T10:12:28Z</time>
      </trkpt>
      <trkpt lat="46.63944" lon="5.61537">
        <ele>490</ele>
        <time>2023-10-03T10:12:31Z</time>
      </trkpt>
      <trkpt lat="46.63947" lon="5.61539">
        <ele>490</ele>
        <time>2023-10-03T10:12:34Z</time>
      </trkpt>
      <trkpt lat="46.63949" lon="5.61542">
        <ele>490</ele>
        <time>2023-10-03T10:12:37Z</time>
      </trkpt>
      <trkpt lat="46.63952" lon="5.61545">
        <ele>490</ele>
        <time>2023-10-03T10:12:40Z</time>
      </trkpt>
      <trkpt lat="46.63955" lon="5.61548">
        <ele>491</ele>
        <time>2023-10-03T10:12:43Z</time>
      </trkpt>
      <trkpt lat="46.63958" lon="5.6155">
        <ele>491</ele>
        <time>2023-10-03T10:12:46Z</time>
      </trkpt>
      <trkpt lat="46.63962" lon="5.61552">
        <ele>491</ele>
        <time>2023-10-03T10:12:49Z</time>
      </trkpt>
      <trkpt lat="46.63965" lon="5.61553">
        <ele>491</ele>
        <time>2023-10-03T10:12:52Z</time>
      </trkpt>
      <trkpt lat="46.63968" lon="5.61555">
        <ele>491</ele>
        <time>2023-10-03T10:12:55Z</time>
      </trkpt>
      <trkpt lat="46.63971" lon="5.61557">
        <ele>491</ele>
        <time>2023-10-03T10:12:58Z</time>
      </trkpt>
      <trkpt lat="46.63974" lon="5.61559">
        <ele>491</ele>
        <time>2023-10-03T10:13:00Z</time>
      </trkpt>
      <trkpt lat="46.63977" lon="5.61561">
        <ele>491</ele>
        <time>2023-10-03T10:13:02Z</time>
      </trkpt>
      <trkpt lat="46.63979" lon="5.61564">
        <ele>491</ele>
        <time>2023-10-03T10:13:05Z</time>
      </trkpt>
      <trkpt lat="46.63982" lon="5.61566">
        <ele>491</ele>
        <time>2023-10-03T10:13:08Z</time>
      </trkpt>
      <trkpt lat="46.63986" lon="5.61569">
        <ele>491</ele>
        <time>2023-10-03T10:13:11Z</time>
      </trkpt>
      <trkpt lat="46.63989" lon="5.61572">
        <ele>491</ele>
        <time>2023-10-03T10:13:15Z</time>
      </trkpt>
      <trkpt lat="46.63992" lon="5.61574">
        <ele>491</ele>
        <time>2023-10-03T10:13:18Z</time>
      </trkpt>
      <trkpt lat="46.63995" lon="5.61576">
        <ele>491</ele>
        <time>2023-10-03T10:13:21Z</time>
      </trkpt>
      <trkpt lat="46.63999" lon="5.61578">
        <ele>491</ele>
        <time>2023-10-03T10:13:24Z</time>
      </trkpt>
      <trkpt lat="46.64002" lon="5.61581">
        <ele>492</ele>
        <time>2023-10-03T10:13:27Z</time>
      </trkpt>
      <trkpt lat="46.64005" lon="5.61584">
        <ele>492</ele>
        <time>2023-10-03T10:13:30Z</time>
      </trkpt>
      <trkpt lat="46.64008" lon="5.61587">
        <ele>492</ele>
        <time>2023-10-03T10:13:33Z</time>
      </trkpt>
      <trkpt lat="46.64011" lon="5.61591">
        <ele>492</ele>
        <time>2023-10-03T10:13:36Z</time>
      </trkpt>
      <trkpt lat="46.64014" lon="5.61594">
        <ele>492</ele>
        <time>2023-10-03T10:13:39Z</time>
      </trkpt>
      <trkpt lat="46.64018" lon="5.61596">
        <ele>492</ele>
        <time>2023-10-03T10:13:42Z</time>
      </trkpt>
      <trkpt lat="46.64021" lon="5.61598">
        <ele>492</ele>
        <time>2023-10-03T10:13:45Z</time>
      </trkpt>
      <trkpt lat="46.64024" lon="5.616">
        <ele>492</ele>
        <time>2023-10-03T10:13:48Z</time>
      </trkpt>
      <trkpt lat="46.64027" lon="5.61602">
        <ele>492</ele>
        <time>2023-10-03T10:13:51Z</time>
      </trkpt>
      <trkpt lat="46.6403" lon="5.61605">
        <ele>492</ele>
        <time>2023-10-03T10:13:54Z</time>
      </trkpt>
      <trkpt lat="46.64033" lon="5.61609">
        <ele>492</ele>
        <time>2023-10-03T10:13:57Z</time>
      </trkpt>
      <trkpt lat="46.64036" lon="5.61612">
        <ele>493</ele>
        <time>2023-10-03T10:14:00Z</time>
      </trkpt>
      <trkpt lat="46.64038" lon="5.61613">
        <ele>493</ele>
        <time>2023-10-03T10:14:02Z</time>
      </trkpt>
      <trkpt lat="46.64041" lon="5.61615">
        <ele>493</ele>
        <time>2023-10-03T10:14:05Z</time>
      </trkpt>
      <trkpt lat="46.64044" lon="5.61617">
        <ele>493</ele>
        <time>2023-10-03T10:14:08Z</time>
      </trkpt>
      <trkpt lat="46.64047" lon="5.6162">
        <ele>493</ele>
        <time>2023-10-03T10:14:11Z</time>
      </trkpt>
      <trkpt lat="46.64049" lon="5.61623">
        <ele>493</ele>
        <time>2023-10-03T10:14:14Z</time>
      </trkpt>
      <trkpt lat="46.64051" lon="5.61627">
        <ele>493</ele>
        <time>2023-10-03T10:14:17Z</time>
      </trkpt>
      <trkpt lat="46.64053" lon="5.6163">
        <ele>493</ele>
        <time>2023-10-03T10:14:20Z</time>
      </trkpt>
      <trkpt lat="46.64055" lon="5.61634">
        <ele>493</ele>
        <time>2023-10-03T10:14:22Z</time>
      </trkpt>
      <trkpt lat="46.64057" lon="5.61638">
        <ele>494</ele>
        <time>2023-10-03T10:14:26Z</time>
      </trkpt>
      <trkpt lat="46.64059" lon="5.61641">
        <ele>495</ele>
        <time>2023-10-03T10:14:32Z</time>
      </trkpt>
      <trkpt lat="46.64061" lon="5.61644">
        <ele>496</ele>
        <time>2023-10-03T10:14:37Z</time>
      </trkpt>
      <trkpt lat="46.64063" lon="5.61647">
        <ele>497</ele>
        <time>2023-10-03T10:14:41Z</time>
      </trkpt>
      <trkpt lat="46.64066" lon="5.61648">
        <ele>498</ele>
        <time>2023-10-03T10:14:46Z</time>
      </trkpt>
      <trkpt lat="46.64069" lon="5.61649">
        <ele>499</ele>
        <time>2023-10-03T10:14:51Z</time>
      </trkpt>
      <trkpt lat="46.64072" lon="5.61652">
        <ele>500</ele>
        <time>2023-10-03T10:14:55Z</time>
      </trkpt>
      <trkpt lat="46.64074" lon="5.61655">
        <ele>500</ele>
        <time>2023-10-03T10:14:58Z</time>
      </trkpt>
      <trkpt lat="46.64075" lon="5.61659">
        <ele>501</ele>
        <time>2023-10-03T10:15:01Z</time>
      </trkpt>
      <trkpt lat="46.64077" lon="5.61663">
        <ele>502</ele>
        <time>2023-10-03T10:15:05Z</time>
      </trkpt>
      <trkpt lat="46.64078" lon="5.61667">
        <ele>502</ele>
        <time>2023-10-03T10:15:08Z</time>
      </trkpt>
      <trkpt lat="46.6408" lon="5.6167">
        <ele>503</ele>
        <time>2023-10-03T10:15:12Z</time>
      </trkpt>
      <trkpt lat="46.64082" lon="5.61673">
        <ele>503</ele>
        <time>2023-10-03T10:15:21Z</time>
      </trkpt>
      <trkpt lat="46.64084" lon="5.61676">
        <ele>504</ele>
        <time>2023-10-03T10:15:24Z</time>
      </trkpt>
      <trkpt lat="46.64086" lon="5.6168">
        <ele>504</ele>
        <time>2023-10-03T10:15:27Z</time>
      </trkpt>
      <trkpt lat="46.64087" lon="5.61684">
        <ele>504</ele>
        <time>2023-10-03T10:15:31Z</time>
      </trkpt>
      <trkpt lat="46.64089" lon="5.61688">
        <ele>504</ele>
        <time>2023-10-03T10:15:34Z</time>
      </trkpt>
      <trkpt lat="46.64091" lon="5.61692">
        <ele>504</ele>
        <time>2023-10-03T10:15:37Z</time>
      </trkpt>
      <trkpt lat="46.64093" lon="5.61695">
        <ele>505</ele>
        <time>2023-10-03T10:15:43Z</time>
      </trkpt>
      <trkpt lat="46.64094" lon="5.61699">
        <ele>506</ele>
        <time>2023-10-03T10:15:46Z</time>
      </trkpt>
      <trkpt lat="46.64096" lon="5.61702">
        <ele>506</ele>
        <time>2023-10-03T10:15:49Z</time>
      </trkpt>
      <trkpt lat="46.64098" lon="5.61705">
        <ele>507</ele>
        <time>2023-10-03T10:15:53Z</time>
      </trkpt>
      <trkpt lat="46.641" lon="5.61708">
        <ele>508</ele>
        <time>2023-10-03T10:15:56Z</time>
      </trkpt>
      <trkpt lat="46.64101" lon="5.61713">
        <ele>508</ele>
        <time>2023-10-03T10:15:59Z</time>
      </trkpt>
      <trkpt lat="46.64103" lon="5.61717">
        <ele>508</ele>
        <time>2023-10-03T10:16:02Z</time>
      </trkpt>
      <trkpt lat="46.64104" lon="5.61721">
        <ele>508</ele>
        <time>2023-10-03T10:16:05Z</time>
      </trkpt>
      <trkpt lat="46.64106" lon="5.61725">
        <ele>508</ele>
        <time>2023-10-03T10:16:08Z</time>
      </trkpt>
      <trkpt lat="46.64107" lon="5.61729">
        <ele>509</ele>
        <time>2023-10-03T10:16:13Z</time>
      </trkpt>
      <trkpt lat="46.64108" lon="5.61733">
        <ele>509</ele>
        <time>2023-10-03T10:16:16Z</time>
      </trkpt>
      <trkpt lat="46.6411" lon="5.61737">
        <ele>509</ele>
        <time>2023-10-03T10:16:20Z</time>
      </trkpt>
      <trkpt lat="46.64113" lon="5.61742">
        <ele>509</ele>
        <time>2023-10-03T10:16:23Z</time>
      </trkpt>
      <trkpt lat="46.64114" lon="5.61746">
        <ele>509</ele>
        <time>2023-10-03T10:16:25Z</time>
      </trkpt>
      <trkpt lat="46.64116" lon="5.6175">
        <ele>509</ele>
        <time>2023-10-03T10:16:28Z</time>
      </trkpt>
      <trkpt lat="46.64117" lon="5.61753">
        <ele>509</ele>
        <time>2023-10-03T10:16:30Z</time>
      </trkpt>
      <trkpt lat="46.64119" lon="5.61757">
        <ele>509</ele>
        <time>2023-10-03T10:16:32Z</time>
      </trkpt>
      <trkpt lat="46.6412" lon="5.6176">
        <ele>509</ele>
        <time>2023-10-03T10:16:35Z</time>
      </trkpt>
      <trkpt lat="46.64122" lon="5.61764">
        <ele>509</ele>
        <time>2023-10-03T10:16:37Z</time>
      </trkpt>
      <trkpt lat="46.64124" lon="5.61766">
        <ele>509</ele>
        <time>2023-10-03T10:16:39Z</time>
      </trkpt>
      <trkpt lat="46.64127" lon="5.6177">
        <ele>508</ele>
        <time>2023-10-03T10:16:42Z</time>
      </trkpt>
      <trkpt lat="46.64129" lon="5.61772">
        <ele>508</ele>
        <time>2023-10-03T10:16:46Z</time>
      </trkpt>
      <trkpt lat="46.64131" lon="5.61775">
        <ele>508</ele>
        <time>2023-10-03T10:16:49Z</time>
      </trkpt>
      <trkpt lat="46.64133" lon="5.61778">
        <ele>508</ele>
        <time>2023-10-03T10:16:52Z</time>
      </trkpt>
      <trkpt lat="46.64134" lon="5.61782">
        <ele>508</ele>
        <time>2023-10-03T10:16:55Z</time>
      </trkpt>
      <trkpt lat="46.64136" lon="5.61787">
        <ele>508</ele>
        <time>2023-10-03T10:16:58Z</time>
      </trkpt>
      <trkpt lat="46.64137" lon="5.61791">
        <ele>508</ele>
        <time>2023-10-03T10:17:01Z</time>
      </trkpt>
      <trkpt lat="46.64137" lon="5.61795">
        <ele>508</ele>
        <time>2023-10-03T10:17:05Z</time>
      </trkpt>
      <trkpt lat="46.64139" lon="5.61799">
        <ele>508</ele>
        <time>2023-10-03T10:17:10Z</time>
      </trkpt>
      <trkpt lat="46.6414" lon="5.61803">
        <ele>508</ele>
        <time>2023-10-03T10:17:13Z</time>
      </trkpt>
      <trkpt lat="46.64141" lon="5.61807">
        <ele>509</ele>
        <time>2023-10-03T10:17:17Z</time>
      </trkpt>
      <trkpt lat="46.64143" lon="5.61811">
        <ele>509</ele>
        <time>2023-10-03T10:17:19Z</time>
      </trkpt>
      <trkpt lat="46.64146" lon="5.61815">
        <ele>509</ele>
        <time>2023-10-03T10:17:22Z</time>
      </trkpt>
      <trkpt lat="46.64148" lon="5.61818">
        <ele>509</ele>
        <time>2023-10-03T10:17:25Z</time>
      </trkpt>
      <trkpt lat="46.6415" lon="5.61822">
        <ele>509</ele>
        <time>2023-10-03T10:17:28Z</time>
      </trkpt>
      <trkpt lat="46.64152" lon="5.61825">
        <ele>509</ele>
        <time>2023-10-03T10:17:31Z</time>
      </trkpt>
      <trkpt lat="46.64154" lon="5.61828">
        <ele>509</ele>
        <time>2023-10-03T10:17:34Z</time>
      </trkpt>
      <trkpt lat="46.64156" lon="5.61832">
        <ele>509</ele>
        <time>2023-10-03T10:17:37Z</time>
      </trkpt>
      <trkpt lat="46.64158" lon="5.61835">
        <ele>509</ele>
        <time>2023-10-03T10:17:39Z</time>
      </trkpt>
      <trkpt lat="46.6416" lon="5.61839">
        <ele>509</ele>
        <time>2023-10-03T10:17:42Z</time>
      </trkpt>
      <trkpt lat="46.64162" lon="5.61842">
        <ele>509</ele>
        <time>2023-10-03T10:17:46Z</time>
      </trkpt>
      <trkpt lat="46.64164" lon="5.61845">
        <ele>509</ele>
        <time>2023-10-03T10:17:53Z</time>
      </trkpt>
      <trkpt lat="46.64166" lon="5.61843">
        <ele>509</ele>
        <time>2023-10-03T10:18:14Z</time>
      </trkpt>
      <trkpt lat="46.64169" lon="5.61841">
        <ele>509</ele>
        <time>2023-10-03T10:18:22Z</time>
      </trkpt>
      <trkpt lat="46.64172" lon="5.6184">
        <ele>509</ele>
        <time>2023-10-03T10:18:25Z</time>
      </trkpt>
      <trkpt lat="46.64175" lon="5.61837">
        <ele>509</ele>
        <time>2023-10-03T10:18:29Z</time>
      </trkpt>
      <trkpt lat="46.64177" lon="5.61833">
        <ele>509</ele>
        <time>2023-10-03T10:18:36Z</time>
      </trkpt>
      <trkpt lat="46.64179" lon="5.6183">
        <ele>509</ele>
        <time>2023-10-03T10:18:39Z</time>
      </trkpt>
      <trkpt lat="46.64182" lon="5.61827">
        <ele>509</ele>
        <time>2023-10-03T10:18:42Z</time>
      </trkpt>
      <trkpt lat="46.64184" lon="5.61823">
        <ele>509</ele>
        <time>2023-10-03T10:18:45Z</time>
      </trkpt>
      <trkpt lat="46.64187" lon="5.6182">
        <ele>509</ele>
        <time>2023-10-03T10:18:47Z</time>
      </trkpt>
      <trkpt lat="46.64189" lon="5.61816">
        <ele>509</ele>
        <time>2023-10-03T10:18:50Z</time>
      </trkpt>
      <trkpt lat="46.64192" lon="5.61812">
        <ele>509</ele>
        <time>2023-10-03T10:18:53Z</time>
      </trkpt>
      <trkpt lat="46.64194" lon="5.61808">
        <ele>509</ele>
        <time>2023-10-03T10:18:56Z</time>
      </trkpt>
      <trkpt lat="46.64196" lon="5.61804">
        <ele>509</ele>
        <time>2023-10-03T10:18:59Z</time>
      </trkpt>
      <trkpt lat="46.64198" lon="5.618">
        <ele>509</ele>
        <time>2023-10-03T10:19:02Z</time>
      </trkpt>
      <trkpt lat="46.642" lon="5.61796">
        <ele>508</ele>
        <time>2023-10-03T10:19:05Z</time>
      </trkpt>
      <trkpt lat="46.64202" lon="5.61791">
        <ele>508</ele>
        <time>2023-10-03T10:19:08Z</time>
      </trkpt>
      <trkpt lat="46.64204" lon="5.61787">
        <ele>508</ele>
        <time>2023-10-03T10:19:11Z</time>
      </trkpt>
      <trkpt lat="46.64206" lon="5.61782">
        <ele>508</ele>
        <time>2023-10-03T10:19:14Z</time>
      </trkpt>
      <trkpt lat="46.64207" lon="5.61778">
        <ele>508</ele>
        <time>2023-10-03T10:19:17Z</time>
      </trkpt>
      <trkpt lat="46.64208" lon="5.61773">
        <ele>508</ele>
        <time>2023-10-03T10:19:20Z</time>
      </trkpt>
      <trkpt lat="46.64209" lon="5.61769">
        <ele>508</ele>
        <time>2023-10-03T10:19:24Z</time>
      </trkpt>
      <trkpt lat="46.64211" lon="5.61764">
        <ele>508</ele>
        <time>2023-10-03T10:19:27Z</time>
      </trkpt>
      <trkpt lat="46.64213" lon="5.6176">
        <ele>508</ele>
        <time>2023-10-03T10:19:30Z</time>
      </trkpt>
      <trkpt lat="46.64215" lon="5.61756">
        <ele>508</ele>
        <time>2023-10-03T10:19:32Z</time>
      </trkpt>
      <trkpt lat="46.64216" lon="5.61754">
        <ele>508</ele>
        <time>2023-10-03T10:19:33Z</time>
      </trkpt>
      <trkpt lat="46.64217" lon="5.61751">
        <ele>508</ele>
        <time>2023-10-03T10:19:36Z</time>
      </trkpt>
      <trkpt lat="46.64219" lon="5.61747">
        <ele>508</ele>
        <time>2023-10-03T10:19:38Z</time>
      </trkpt>
      <trkpt lat="46.64221" lon="5.61743">
        <ele>507</ele>
        <time>2023-10-03T10:19:41Z</time>
      </trkpt>
      <trkpt lat="46.64223" lon="5.61739">
        <ele>507</ele>
        <time>2023-10-03T10:19:44Z</time>
      </trkpt>
      <trkpt lat="46.64225" lon="5.61735">
        <ele>507</ele>
        <time>2023-10-03T10:19:47Z</time>
      </trkpt>
      <trkpt lat="46.64226" lon="5.61731">
        <ele>507</ele>
        <time>2023-10-03T10:19:50Z</time>
      </trkpt>
      <trkpt lat="46.64228" lon="5.61726">
        <ele>507</ele>
        <time>2023-10-03T10:19:53Z</time>
      </trkpt>
      <trkpt lat="46.64229" lon="5.61722">
        <ele>507</ele>
        <time>2023-10-03T10:19:55Z</time>
      </trkpt>
      <trkpt lat="46.64231" lon="5.61718">
        <ele>507</ele>
        <time>2023-10-03T10:19:58Z</time>
      </trkpt>
      <trkpt lat="46.64232" lon="5.61713">
        <ele>507</ele>
        <time>2023-10-03T10:20:01Z</time>
      </trkpt>
      <trkpt lat="46.64234" lon="5.61709">
        <ele>507</ele>
        <time>2023-10-03T10:20:03Z</time>
      </trkpt>
      <trkpt lat="46.64236" lon="5.61704">
        <ele>507</ele>
        <time>2023-10-03T10:20:05Z</time>
      </trkpt>
      <trkpt lat="46.64237" lon="5.617">
        <ele>507</ele>
        <time>2023-10-03T10:20:07Z</time>
      </trkpt>
      <trkpt lat="46.64239" lon="5.61696">
        <ele>507</ele>
        <time>2023-10-03T10:20:10Z</time>
      </trkpt>
      <trkpt lat="46.64241" lon="5.61692">
        <ele>507</ele>
        <time>2023-10-03T10:20:14Z</time>
      </trkpt>
      <trkpt lat="46.64243" lon="5.61688">
        <ele>507</ele>
        <time>2023-10-03T10:20:17Z</time>
      </trkpt>
      <trkpt lat="46.64245" lon="5.61684">
        <ele>506</ele>
        <time>2023-10-03T10:20:20Z</time>
      </trkpt>
      <trkpt lat="46.64247" lon="5.61679">
        <ele>506</ele>
        <time>2023-10-03T10:20:23Z</time>
      </trkpt>
      <trkpt lat="46.64248" lon="5.61675">
        <ele>505</ele>
        <time>2023-10-03T10:20:26Z</time>
      </trkpt>
      <trkpt lat="46.6425" lon="5.6167">
        <ele>504</ele>
        <time>2023-10-03T10:20:29Z</time>
      </trkpt>
      <trkpt lat="46.64252" lon="5.61666">
        <ele>504</ele>
        <time>2023-10-03T10:20:31Z</time>
      </trkpt>
      <trkpt lat="46.64253" lon="5.61662">
        <ele>504</ele>
        <time>2023-10-03T10:20:34Z</time>
      </trkpt>
      <trkpt lat="46.64255" lon="5.61658">
        <ele>504</ele>
        <time>2023-10-03T10:20:37Z</time>
      </trkpt>
      <trkpt lat="46.64256" lon="5.61654">
        <ele>505</ele>
        <time>2023-10-03T10:20:40Z</time>
      </trkpt>
      <trkpt lat="46.64258" lon="5.61649">
        <ele>505</ele>
        <time>2023-10-03T10:20:43Z</time>
      </trkpt>
      <trkpt lat="46.64259" lon="5.61645">
        <ele>505</ele>
        <time>2023-10-03T10:20:46Z</time>
      </trkpt>
      <trkpt lat="46.64261" lon="5.61641">
        <ele>505</ele>
        <time>2023-10-03T10:20:49Z</time>
      </trkpt>
      <trkpt lat="46.64263" lon="5.61637">
        <ele>505</ele>
        <time>2023-10-03T10:20:51Z</time>
      </trkpt>
      <trkpt lat="46.64266" lon="5.61633">
        <ele>505</ele>
        <time>2023-10-03T10:20:54Z</time>
      </trkpt>
      <trkpt lat="46.64268" lon="5.61629">
        <ele>505</ele>
        <time>2023-10-03T10:20:57Z</time>
      </trkpt>
      <trkpt lat="46.6427" lon="5.61626">
        <ele>505</ele>
        <time>2023-10-03T10:20:59Z</time>
      </trkpt>
      <trkpt lat="46.64272" lon="5.61622">
        <ele>505</ele>
        <time>2023-10-03T10:21:02Z</time>
      </trkpt>
      <trkpt lat="46.64274" lon="5.61618">
        <ele>505</ele>
        <time>2023-10-03T10:21:04Z</time>
      </trkpt>
      <trkpt lat="46.64276" lon="5.61615">
        <ele>505</ele>
        <time>2023-10-03T10:21:07Z</time>
      </trkpt>
      <trkpt lat="46.64278" lon="5.6161">
        <ele>505</ele>
        <time>2023-10-03T10:21:10Z</time>
      </trkpt>
      <trkpt lat="46.64279" lon="5.61606">
        <ele>505</ele>
        <time>2023-10-03T10:21:13Z</time>
      </trkpt>
      <trkpt lat="46.64281" lon="5.616">
        <ele>505</ele>
        <time>2023-10-03T10:21:16Z</time>
      </trkpt>
      <trkpt lat="46.64282" lon="5.61596">
        <ele>505</ele>
        <time>2023-10-03T10:21:19Z</time>
      </trkpt>
      <trkpt lat="46.64284" lon="5.61592">
        <ele>505</ele>
        <time>2023-10-03T10:21:22Z</time>
      </trkpt>
      <trkpt lat="46.64285" lon="5.61587">
        <ele>505</ele>
        <time>2023-10-03T10:21:26Z</time>
      </trkpt>
      <trkpt lat="46.64287" lon="5.61583">
        <ele>505</ele>
        <time>2023-10-03T10:21:29Z</time>
      </trkpt>
      <trkpt lat="46.64289" lon="5.61578">
        <ele>505</ele>
        <time>2023-10-03T10:21:32Z</time>
      </trkpt>
      <trkpt lat="46.64291" lon="5.61574">
        <ele>505</ele>
        <time>2023-10-03T10:21:34Z</time>
      </trkpt>
      <trkpt lat="46.64293" lon="5.6157">
        <ele>505</ele>
        <time>2023-10-03T10:21:37Z</time>
      </trkpt>
      <trkpt lat="46.64295" lon="5.61565">
        <ele>505</ele>
        <time>2023-10-03T10:21:40Z</time>
      </trkpt>
      <trkpt lat="46.64296" lon="5.6156">
        <ele>505</ele>
        <time>2023-10-03T10:21:44Z</time>
      </trkpt>
      <trkpt lat="46.64298" lon="5.61556">
        <ele>505</ele>
        <time>2023-10-03T10:21:47Z</time>
      </trkpt>
      <trkpt lat="46.64299" lon="5.61552">
        <ele>505</ele>
        <time>2023-10-03T10:21:51Z</time>
      </trkpt>
      <trkpt lat="46.64301" lon="5.61548">
        <ele>505</ele>
        <time>2023-10-03T10:21:54Z</time>
      </trkpt>
      <trkpt lat="46.64302" lon="5.61544">
        <ele>505</ele>
        <time>2023-10-03T10:21:57Z</time>
      </trkpt>
      <trkpt lat="46.64303" lon="5.6154">
        <ele>505</ele>
        <time>2023-10-03T10:22:01Z</time>
      </trkpt>
      <trkpt lat="46.64303" lon="5.61536">
        <ele>505</ele>
        <time>2023-10-03T10:22:04Z</time>
      </trkpt>
      <trkpt lat="46.64303" lon="5.61531">
        <ele>505</ele>
        <time>2023-10-03T10:22:07Z</time>
      </trkpt>
      <trkpt lat="46.64303" lon="5.61526">
        <ele>505</ele>
        <time>2023-10-03T10:22:10Z</time>
      </trkpt>
      <trkpt lat="46.64302" lon="5.61524">
        <ele>505</ele>
        <time>2023-10-03T10:22:11Z</time>
      </trkpt>
      <trkpt lat="46.64301" lon="5.6152">
        <ele>505</ele>
        <time>2023-10-03T10:22:14Z</time>
      </trkpt>
      <trkpt lat="46.64299" lon="5.61516">
        <ele>505</ele>
        <time>2023-10-03T10:22:17Z</time>
      </trkpt>
      <trkpt lat="46.64297" lon="5.61512">
        <ele>505</ele>
        <time>2023-10-03T10:22:20Z</time>
      </trkpt>
      <trkpt lat="46.64295" lon="5.61508">
        <ele>505</ele>
        <time>2023-10-03T10:22:23Z</time>
      </trkpt>
      <trkpt lat="46.64293" lon="5.61504">
        <ele>505</ele>
        <time>2023-10-03T10:22:26Z</time>
      </trkpt>
      <trkpt lat="46.6429" lon="5.61501">
        <ele>506</ele>
        <time>2023-10-03T10:22:29Z</time>
      </trkpt>
      <trkpt lat="46.64287" lon="5.61498">
        <ele>506</ele>
        <time>2023-10-03T10:22:32Z</time>
      </trkpt>
      <trkpt lat="46.64284" lon="5.61496">
        <ele>506</ele>
        <time>2023-10-03T10:22:36Z</time>
      </trkpt>
      <trkpt lat="46.64282" lon="5.61494">
        <ele>506</ele>
        <time>2023-10-03T10:22:39Z</time>
      </trkpt>
      <trkpt lat="46.6428" lon="5.61491">
        <ele>506</ele>
        <time>2023-10-03T10:22:43Z</time>
      </trkpt>
      <trkpt lat="46.64279" lon="5.61487">
        <ele>506</ele>
        <time>2023-10-03T10:22:48Z</time>
      </trkpt>
      <trkpt lat="46.64281" lon="5.61485">
        <ele>505</ele>
        <time>2023-10-03T10:22:53Z</time>
      </trkpt>
      <trkpt lat="46.64281" lon="5.61481">
        <ele>505</ele>
        <time>2023-10-03T10:23:06Z</time>
      </trkpt>
      <trkpt lat="46.64282" lon="5.61477">
        <ele>506</ele>
        <time>2023-10-03T10:23:11Z</time>
      </trkpt>
      <trkpt lat="46.64283" lon="5.61479">
        <ele>506</ele>
        <time>2023-10-03T10:23:31Z</time>
      </trkpt>
      <trkpt lat="46.64283" lon="5.61477">
        <ele>505</ele>
        <time>2023-10-03T10:23:38Z</time>
      </trkpt>
      <trkpt lat="46.64283" lon="5.61474">
        <ele>505</ele>
        <time>2023-10-03T10:23:44Z</time>
      </trkpt>
      <trkpt lat="46.64281" lon="5.61472">
        <ele>506</ele>
        <time>2023-10-03T10:23:50Z</time>
      </trkpt>
      <trkpt lat="46.6428" lon="5.61473">
        <ele>506</ele>
        <time>2023-10-03T10:24:01Z</time>
      </trkpt>
      <trkpt lat="46.64281" lon="5.61476">
        <ele>505</ele>
        <time>2023-10-03T10:24:06Z</time>
      </trkpt>
      <trkpt lat="46.64281" lon="5.6148">
        <ele>505</ele>
        <time>2023-10-03T10:24:11Z</time>
      </trkpt>
      <trkpt lat="46.64283" lon="5.6148">
        <ele>506</ele>
        <time>2023-10-03T10:24:19Z</time>
      </trkpt>
      <trkpt lat="46.64285" lon="5.61478">
        <ele>506</ele>
        <time>2023-10-03T10:24:26Z</time>
      </trkpt>
      <trkpt lat="46.64283" lon="5.61477">
        <ele>505</ele>
        <time>2023-10-03T10:24:38Z</time>
      </trkpt>
      <trkpt lat="46.64281" lon="5.61476">
        <ele>505</ele>
        <time>2023-10-03T10:24:41Z</time>
      </trkpt>
      <trkpt lat="46.64281" lon="5.61478">
        <ele>505</ele>
        <time>2023-10-03T10:24:47Z</time>
      </trkpt>
      <trkpt lat="46.64282" lon="5.61483">
        <ele>506</ele>
        <time>2023-10-03T10:25:03Z</time>
      </trkpt>
      <trkpt lat="46.64282" lon="5.61487">
        <ele>506</ele>
        <time>2023-10-03T10:25:06Z</time>
      </trkpt>
      <trkpt lat="46.64282" lon="5.61485">
        <ele>505</ele>
        <time>2023-10-03T10:25:11Z</time>
      </trkpt>
      <trkpt lat="46.64283" lon="5.61487">
        <ele>505</ele>
        <time>2023-10-03T10:25:17Z</time>
      </trkpt>
      <trkpt lat="46.64284" lon="5.61484">
        <ele>505</ele>
        <time>2023-10-03T10:25:24Z</time>
      </trkpt>
      <trkpt lat="46.64285" lon="5.61481">
        <ele>505</ele>
        <time>2023-10-03T10:25:27Z</time>
      </trkpt>
      <trkpt lat="46.64284" lon="5.6148">
        <ele>505</ele>
        <time>2023-10-03T10:25:32Z</time>
      </trkpt>
      <trkpt lat="46.64282" lon="5.61481">
        <ele>505</ele>
        <time>2023-10-03T10:25:37Z</time>
      </trkpt>
      <trkpt lat="46.64281" lon="5.61483">
        <ele>505</ele>
        <time>2023-10-03T10:25:41Z</time>
      </trkpt>
      <trkpt lat="46.64283" lon="5.61484">
        <ele>505</ele>
        <time>2023-10-03T10:25:57Z</time>
      </trkpt>
      <trkpt lat="46.64286" lon="5.61484">
        <ele>505</ele>
        <time>2023-10-03T10:25:59Z</time>
      </trkpt>
      <trkpt lat="46.64288" lon="5.61486">
        <ele>505</ele>
        <time>2023-10-03T10:26:01Z</time>
      </trkpt>
      <trkpt lat="46.64292" lon="5.61488">
        <ele>505</ele>
        <time>2023-10-03T10:26:03Z</time>
      </trkpt>
      <trkpt lat="46.64296" lon="5.61489">
        <ele>505</ele>
        <time>2023-10-03T10:26:04Z</time>
      </trkpt>
      <trkpt lat="46.643" lon="5.6149">
        <ele>505</ele>
        <time>2023-10-03T10:26:06Z</time>
      </trkpt>
      <trkpt lat="46.64304" lon="5.61491">
        <ele>505</ele>
        <time>2023-10-03T10:26:08Z</time>
      </trkpt>
      <trkpt lat="46.64303" lon="5.61493">
        <ele>505</ele>
        <time>2023-10-03T10:26:10Z</time>
      </trkpt>
      <trkpt lat="46.643" lon="5.61493">
        <ele>505</ele>
        <time>2023-10-03T10:26:12Z</time>
      </trkpt>
      <trkpt lat="46.64271" lon="5.61468">
        <ele>505</ele>
        <time>2023-10-03T10:26:40Z</time>
      </trkpt>
      <trkpt lat="46.64261" lon="5.61461">
        <ele>505</ele>
        <time>2023-10-03T10:26:42Z</time>
      </trkpt>
      <trkpt lat="46.6426" lon="5.61461">
        <ele>505</ele>
        <time>2023-10-03T10:26:45Z</time>
      </trkpt>
      <trkpt lat="46.64261" lon="5.6146">
        <ele>505</ele>
        <time>2023-10-03T10:26:48Z</time>
      </trkpt>
      <trkpt lat="46.64264" lon="5.61459">
        <ele>505</ele>
        <time>2023-10-03T10:26:51Z</time>
      </trkpt>
      <trkpt lat="46.64267" lon="5.61458">
        <ele>505</ele>
        <time>2023-10-03T10:26:53Z</time>
      </trkpt>
      <trkpt lat="46.64273" lon="5.61459">
        <ele>505</ele>
        <time>2023-10-03T10:26:57Z</time>
      </trkpt>
      <trkpt lat="46.64273" lon="5.6146">
        <ele>505</ele>
        <time>2023-10-03T10:27:00Z</time>
      </trkpt>
      <trkpt lat="46.64276" lon="5.61462">
        <ele>505</ele>
        <time>2023-10-03T10:27:03Z</time>
      </trkpt>
      <trkpt lat="46.64279" lon="5.61466">
        <ele>505</ele>
        <time>2023-10-03T10:27:06Z</time>
      </trkpt>
      <trkpt lat="46.64283" lon="5.61469">
        <ele>505</ele>
        <time>2023-10-03T10:27:08Z</time>
      </trkpt>
      <trkpt lat="46.64285" lon="5.61473">
        <ele>505</ele>
        <time>2023-10-03T10:27:10Z</time>
      </trkpt>
      <trkpt lat="46.64295" lon="5.61488">
        <ele>505</ele>
        <time>2023-10-03T10:27:35Z</time>
      </trkpt>
      <trkpt lat="46.64299" lon="5.61492">
        <ele>505</ele>
        <time>2023-10-03T10:27:36Z</time>
      </trkpt>
      <trkpt lat="46.64301" lon="5.6149">
        <ele>505</ele>
        <time>2023-10-03T10:27:37Z</time>
      </trkpt>
      <trkpt lat="46.64287" lon="5.61491">
        <ele>505</ele>
        <time>2023-10-03T10:28:36Z</time>
      </trkpt>
      <trkpt lat="46.64284" lon="5.61495">
        <ele>505</ele>
        <time>2023-10-03T10:28:39Z</time>
      </trkpt>
      <trkpt lat="46.64281" lon="5.61494">
        <ele>505</ele>
        <time>2023-10-03T10:28:47Z</time>
      </trkpt>
      <trkpt lat="46.64278" lon="5.61495">
        <ele>505</ele>
        <time>2023-10-03T10:28:50Z</time>
      </trkpt>
      <trkpt lat="46.64276" lon="5.61497">
        <ele>505</ele>
        <time>2023-10-03T10:29:01Z</time>
      </trkpt>
      <trkpt lat="46.64278" lon="5.61496">
        <ele>505</ele>
        <time>2023-10-03T10:29:08Z</time>
      </trkpt>
      <trkpt lat="46.6428" lon="5.61492">
        <ele>506</ele>
        <time>2023-10-03T10:29:28Z</time>
      </trkpt>
      <trkpt lat="46.64282" lon="5.61487">
        <ele>505</ele>
        <time>2023-10-03T10:29:46Z</time>
      </trkpt>
      <trkpt lat="46.64284" lon="5.61487">
        <ele>506</ele>
        <time>2023-10-03T10:30:33Z</time>
      </trkpt>
      <trkpt lat="46.64284" lon="5.61484">
        <ele>505</ele>
        <time>2023-10-03T10:30:39Z</time>
      </trkpt>
      <trkpt lat="46.64283" lon="5.61483">
        <ele>505</ele>
        <time>2023-10-03T10:30:57Z</time>
      </trkpt>
      <trkpt lat="46.64284" lon="5.61481">
        <ele>505</ele>
        <time>2023-10-03T10:31:14Z</time>
      </trkpt>
      <trkpt lat="46.64282" lon="5.6148">
        <ele>505</ele>
        <time>2023-10-03T10:31:26Z</time>
      </trkpt>
      <trkpt lat="46.6428" lon="5.61482">
        <ele>505</ele>
        <time>2023-10-03T10:31:29Z</time>
      </trkpt>
      <trkpt lat="46.64281" lon="5.61482">
        <ele>505</ele>
        <time>2023-10-03T10:31:39Z</time>
      </trkpt>
      <trkpt lat="46.64282" lon="5.61479">
        <ele>505</ele>
        <time>2023-10-03T10:31:42Z</time>
      </trkpt>
      <trkpt lat="46.64284" lon="5.61479">
        <ele>505</ele>
        <time>2023-10-03T10:32:04Z</time>
      </trkpt>
      <trkpt lat="46.64286" lon="5.61482">
        <ele>505</ele>
        <time>2023-10-03T10:32:24Z</time>
      </trkpt>
      <trkpt lat="46.64286" lon="5.6148">
        <ele>505</ele>
        <time>2023-10-03T10:32:30Z</time>
      </trkpt>
      <trkpt lat="46.64285" lon="5.61477">
        <ele>505</ele>
        <time>2023-10-03T10:32:33Z</time>
      </trkpt>
      <trkpt lat="46.64284" lon="5.61471">
        <ele>505</ele>
        <time>2023-10-03T10:32:35Z</time>
      </trkpt>
      <trkpt lat="46.64285" lon="5.61467">
        <ele>505</ele>
        <time>2023-10-03T10:32:36Z</time>
      </trkpt>
      <trkpt lat="46.64288" lon="5.61465">
        <ele>505</ele>
        <time>2023-10-03T10:32:38Z</time>
      </trkpt>
      <trkpt lat="46.64291" lon="5.61463">
        <ele>505</ele>
        <time>2023-10-03T10:32:41Z</time>
      </trkpt>
      <trkpt lat="46.64293" lon="5.61461">
        <ele>505</ele>
        <time>2023-10-03T10:32:45Z</time>
      </trkpt>
      <trkpt lat="46.64295" lon="5.61457">
        <ele>505</ele>
        <time>2023-10-03T10:32:49Z</time>
      </trkpt>
      <trkpt lat="46.64294" lon="5.61459">
        <ele>505</ele>
        <time>2023-10-03T10:32:52Z</time>
      </trkpt>
      <trkpt lat="46.64292" lon="5.61464">
        <ele>505</ele>
        <time>2023-10-03T10:32:55Z</time>
      </trkpt>
      <trkpt lat="46.64289" lon="5.61468">
        <ele>505</ele>
        <time>2023-10-03T10:32:57Z</time>
      </trkpt>
      <trkpt lat="46.64288" lon="5.61474">
        <ele>504</ele>
        <time>2023-10-03T10:33:00Z</time>
      </trkpt>
      <trkpt lat="46.64286" lon="5.61478">
        <ele>504</ele>
        <time>2023-10-03T10:33:03Z</time>
      </trkpt>
      <trkpt lat="46.64287" lon="5.61479">
        <ele>504</ele>
        <time>2023-10-03T10:33:20Z</time>
      </trkpt>
      <trkpt lat="46.64289" lon="5.61482">
        <ele>505</ele>
        <time>2023-10-03T10:33:26Z</time>
      </trkpt>
      <trkpt lat="46.64291" lon="5.61484">
        <ele>505</ele>
        <time>2023-10-03T10:33:31Z</time>
      </trkpt>
      <trkpt lat="46.64293" lon="5.61485">
        <ele>504</ele>
        <time>2023-10-03T10:33:43Z</time>
      </trkpt>
      <trkpt lat="46.64292" lon="5.61485">
        <ele>505</ele>
        <time>2023-10-03T10:34:24Z</time>
      </trkpt>
      <trkpt lat="46.64289" lon="5.61485">
        <ele>504</ele>
        <time>2023-10-03T10:34:59Z</time>
      </trkpt>
      <trkpt lat="46.64284" lon="5.61482">
        <ele>535</ele>
        <time>2023-10-03T11:07:08Z</time>
      </trkpt>
      <trkpt lat="46.64261" lon="5.6145">
        <ele>517</ele>
        <time>2023-10-03T11:13:42Z</time>
      </trkpt>
      <trkpt lat="46.6426" lon="5.6145">
        <ele>525</ele>
        <time>2023-10-03T11:13:43Z</time>
      </trkpt>
      <trkpt lat="46.64259" lon="5.61452">
        <ele>517</ele>
        <time>2023-10-03T11:13:44Z</time>
      </trkpt>
      <trkpt lat="46.64256" lon="5.61454">
        <ele>517</ele>
        <time>2023-10-03T11:13:46Z</time>
      </trkpt>
      <trkpt lat="46.64253" lon="5.61455">
        <ele>517</ele>
        <time>2023-10-03T11:13:49Z</time>
      </trkpt>
      <trkpt lat="46.6425" lon="5.61455">
        <ele>518</ele>
        <time>2023-10-03T11:13:52Z</time>
      </trkpt>
      <trkpt lat="46.64247" lon="5.61456">
        <ele>518</ele>
        <time>2023-10-03T11:13:56Z</time>
      </trkpt>
      <trkpt lat="46.64244" lon="5.61456">
        <ele>518</ele>
        <time>2023-10-03T11:14:00Z</time>
      </trkpt>
      <trkpt lat="46.64241" lon="5.61455">
        <ele>518</ele>
        <time>2023-10-03T11:14:03Z</time>
      </trkpt>
      <trkpt lat="46.64238" lon="5.61453">
        <ele>518</ele>
        <time>2023-10-03T11:14:05Z</time>
      </trkpt>
      <trkpt lat="46.64236" lon="5.6145">
        <ele>518</ele>
        <time>2023-10-03T11:14:08Z</time>
      </trkpt>
      <trkpt lat="46.64234" lon="5.61448">
        <ele>518</ele>
        <time>2023-10-03T11:14:12Z</time>
      </trkpt>
      <trkpt lat="46.64231" lon="5.61445">
        <ele>518</ele>
        <time>2023-10-03T11:14:16Z</time>
      </trkpt>
      <trkpt lat="46.64229" lon="5.61443">
        <ele>518</ele>
        <time>2023-10-03T11:14:20Z</time>
      </trkpt>
      <trkpt lat="46.64226" lon="5.6144">
        <ele>518</ele>
        <time>2023-10-03T11:14:23Z</time>
      </trkpt>
      <trkpt lat="46.64223" lon="5.61438">
        <ele>518</ele>
        <time>2023-10-03T11:14:26Z</time>
      </trkpt>
      <trkpt lat="46.64219" lon="5.61435">
        <ele>518</ele>
        <time>2023-10-03T11:14:29Z</time>
      </trkpt>
      <trkpt lat="46.64216" lon="5.61433">
        <ele>518</ele>
        <time>2023-10-03T11:14:33Z</time>
      </trkpt>
      <trkpt lat="46.64213" lon="5.61432">
        <ele>518</ele>
        <time>2023-10-03T11:14:36Z</time>
      </trkpt>
      <trkpt lat="46.6421" lon="5.61431">
        <ele>518</ele>
        <time>2023-10-03T11:14:39Z</time>
      </trkpt>
      <trkpt lat="46.64207" lon="5.6143">
        <ele>518</ele>
        <time>2023-10-03T11:14:42Z</time>
      </trkpt>
      <trkpt lat="46.64204" lon="5.61427">
        <ele>518</ele>
        <time>2023-10-03T11:14:45Z</time>
      </trkpt>
      <trkpt lat="46.64201" lon="5.61424">
        <ele>518</ele>
        <time>2023-10-03T11:14:48Z</time>
      </trkpt>
      <trkpt lat="46.64198" lon="5.61422">
        <ele>518</ele>
        <time>2023-10-03T11:14:51Z</time>
      </trkpt>
      <trkpt lat="46.64194" lon="5.61421">
        <ele>518</ele>
        <time>2023-10-03T11:14:54Z</time>
      </trkpt>
      <trkpt lat="46.64191" lon="5.6142">
        <ele>518</ele>
        <time>2023-10-03T11:14:57Z</time>
      </trkpt>
      <trkpt lat="46.64188" lon="5.6142">
        <ele>518</ele>
        <time>2023-10-03T11:15:00Z</time>
      </trkpt>
      <trkpt lat="46.64185" lon="5.61422">
        <ele>518</ele>
        <time>2023-10-03T11:15:03Z</time>
      </trkpt>
      <trkpt lat="46.64183" lon="5.61423">
        <ele>518</ele>
        <time>2023-10-03T11:15:05Z</time>
      </trkpt>
      <trkpt lat="46.64179" lon="5.61424">
        <ele>519</ele>
        <time>2023-10-03T11:15:08Z</time>
      </trkpt>
      <trkpt lat="46.64176" lon="5.61425">
        <ele>519</ele>
        <time>2023-10-03T11:15:11Z</time>
      </trkpt>
      <trkpt lat="46.64172" lon="5.61424">
        <ele>518</ele>
        <time>2023-10-03T11:15:13Z</time>
      </trkpt>
      <trkpt lat="46.6417" lon="5.61424">
        <ele>518</ele>
        <time>2023-10-03T11:15:15Z</time>
      </trkpt>
      <trkpt lat="46.64166" lon="5.61425">
        <ele>518</ele>
        <time>2023-10-03T11:15:18Z</time>
      </trkpt>
      <trkpt lat="46.64162" lon="5.61424">
        <ele>518</ele>
        <time>2023-10-03T11:15:21Z</time>
      </trkpt>
      <trkpt lat="46.64159" lon="5.61423">
        <ele>518</ele>
        <time>2023-10-03T11:15:24Z</time>
      </trkpt>
      <trkpt lat="46.64155" lon="5.61423">
        <ele>518</ele>
        <time>2023-10-03T11:15:27Z</time>
      </trkpt>
      <trkpt lat="46.64152" lon="5.61424">
        <ele>519</ele>
        <time>2023-10-03T11:15:30Z</time>
      </trkpt>
      <trkpt lat="46.64149" lon="5.61425">
        <ele>519</ele>
        <time>2023-10-03T11:15:33Z</time>
      </trkpt>
      <trkpt lat="46.64146" lon="5.61425">
        <ele>519</ele>
        <time>2023-10-03T11:15:36Z</time>
      </trkpt>
      <trkpt lat="46.64143" lon="5.61425">
        <ele>519</ele>
        <time>2023-10-03T11:15:39Z</time>
      </trkpt>
      <trkpt lat="46.6414" lon="5.61424">
        <ele>519</ele>
        <time>2023-10-03T11:15:42Z</time>
      </trkpt>
      <trkpt lat="46.64136" lon="5.61423">
        <ele>519</ele>
        <time>2023-10-03T11:15:45Z</time>
      </trkpt>
      <trkpt lat="46.64134" lon="5.61421">
        <ele>519</ele>
        <time>2023-10-03T11:15:47Z</time>
      </trkpt>
      <trkpt lat="46.6413" lon="5.61418">
        <ele>519</ele>
        <time>2023-10-03T11:15:50Z</time>
      </trkpt>
      <trkpt lat="46.64128" lon="5.61416">
        <ele>519</ele>
        <time>2023-10-03T11:15:52Z</time>
      </trkpt>
      <trkpt lat="46.64124" lon="5.61414">
        <ele>519</ele>
        <time>2023-10-03T11:15:55Z</time>
      </trkpt>
      <trkpt lat="46.64121" lon="5.61414">
        <ele>519</ele>
        <time>2023-10-03T11:15:58Z</time>
      </trkpt>
      <trkpt lat="46.64118" lon="5.61413">
        <ele>519</ele>
        <time>2023-10-03T11:16:01Z</time>
      </trkpt>
      <trkpt lat="46.64114" lon="5.61412">
        <ele>520</ele>
        <time>2023-10-03T11:16:04Z</time>
      </trkpt>
      <trkpt lat="46.64111" lon="5.61411">
        <ele>520</ele>
        <time>2023-10-03T11:16:07Z</time>
      </trkpt>
      <trkpt lat="46.64108" lon="5.61409">
        <ele>520</ele>
        <time>2023-10-03T11:16:10Z</time>
      </trkpt>
      <trkpt lat="46.64104" lon="5.61408">
        <ele>520</ele>
        <time>2023-10-03T11:16:13Z</time>
      </trkpt>
      <trkpt lat="46.64101" lon="5.61406">
        <ele>520</ele>
        <time>2023-10-03T11:16:16Z</time>
      </trkpt>
      <trkpt lat="46.64099" lon="5.61403">
        <ele>520</ele>
        <time>2023-10-03T11:16:19Z</time>
      </trkpt>
      <trkpt lat="46.64096" lon="5.614">
        <ele>520</ele>
        <time>2023-10-03T11:16:22Z</time>
      </trkpt>
      <trkpt lat="46.64093" lon="5.61398">
        <ele>520</ele>
        <time>2023-10-03T11:16:25Z</time>
      </trkpt>
      <trkpt lat="46.6409" lon="5.61396">
        <ele>520</ele>
        <time>2023-10-03T11:16:28Z</time>
      </trkpt>
      <trkpt lat="46.64088" lon="5.61393">
        <ele>520</ele>
        <time>2023-10-03T11:16:30Z</time>
      </trkpt>
      <trkpt lat="46.64085" lon="5.6139">
        <ele>520</ele>
        <time>2023-10-03T11:16:33Z</time>
      </trkpt>
      <trkpt lat="46.64082" lon="5.61387">
        <ele>520</ele>
        <time>2023-10-03T11:16:36Z</time>
      </trkpt>
      <trkpt lat="46.64079" lon="5.61384">
        <ele>520</ele>
        <time>2023-10-03T11:16:39Z</time>
      </trkpt>
      <trkpt lat="46.64077" lon="5.61381">
        <ele>521</ele>
        <time>2023-10-03T11:16:42Z</time>
      </trkpt>
      <trkpt lat="46.64075" lon="5.61379">
        <ele>521</ele>
        <time>2023-10-03T11:16:45Z</time>
      </trkpt>
      <trkpt lat="46.64072" lon="5.61376">
        <ele>521</ele>
        <time>2023-10-03T11:16:47Z</time>
      </trkpt>
      <trkpt lat="46.6407" lon="5.61372">
        <ele>521</ele>
        <time>2023-10-03T11:16:50Z</time>
      </trkpt>
      <trkpt lat="46.64067" lon="5.61368">
        <ele>521</ele>
        <time>2023-10-03T11:16:52Z</time>
      </trkpt>
      <trkpt lat="46.64065" lon="5.61365">
        <ele>521</ele>
        <time>2023-10-03T11:16:55Z</time>
      </trkpt>
      <trkpt lat="46.64062" lon="5.61363">
        <ele>521</ele>
        <time>2023-10-03T11:16:57Z</time>
      </trkpt>
      <trkpt lat="46.64059" lon="5.61361">
        <ele>521</ele>
        <time>2023-10-03T11:16:59Z</time>
      </trkpt>
      <trkpt lat="46.64056" lon="5.61359">
        <ele>521</ele>
        <time>2023-10-03T11:17:02Z</time>
      </trkpt>
      <trkpt lat="46.64053" lon="5.61357">
        <ele>521</ele>
        <time>2023-10-03T11:17:05Z</time>
      </trkpt>
      <trkpt lat="46.6405" lon="5.61355">
        <ele>521</ele>
        <time>2023-10-03T11:17:07Z</time>
      </trkpt>
      <trkpt lat="46.64047" lon="5.61354">
        <ele>521</ele>
        <time>2023-10-03T11:17:09Z</time>
      </trkpt>
      <trkpt lat="46.64044" lon="5.61353">
        <ele>521</ele>
        <time>2023-10-03T11:17:12Z</time>
      </trkpt>
      <trkpt lat="46.64041" lon="5.61352">
        <ele>521</ele>
        <time>2023-10-03T11:17:15Z</time>
      </trkpt>
      <trkpt lat="46.64038" lon="5.61351">
        <ele>521</ele>
        <time>2023-10-03T11:17:20Z</time>
      </trkpt>
      <trkpt lat="46.64035" lon="5.61349">
        <ele>521</ele>
        <time>2023-10-03T11:17:24Z</time>
      </trkpt>
      <trkpt lat="46.64031" lon="5.61347">
        <ele>521</ele>
        <time>2023-10-03T11:17:27Z</time>
      </trkpt>
      <trkpt lat="46.64028" lon="5.61345">
        <ele>521</ele>
        <time>2023-10-03T11:17:30Z</time>
      </trkpt>
      <trkpt lat="46.64025" lon="5.61343">
        <ele>520</ele>
        <time>2023-10-03T11:17:33Z</time>
      </trkpt>
      <trkpt lat="46.64022" lon="5.61342">
        <ele>520</ele>
        <time>2023-10-03T11:17:36Z</time>
      </trkpt>
      <trkpt lat="46.64018" lon="5.61341">
        <ele>520</ele>
        <time>2023-10-03T11:17:39Z</time>
      </trkpt>
      <trkpt lat="46.64015" lon="5.6134">
        <ele>520</ele>
        <time>2023-10-03T11:17:41Z</time>
      </trkpt>
      <trkpt lat="46.64012" lon="5.61339">
        <ele>520</ele>
        <time>2023-10-03T11:17:43Z</time>
      </trkpt>
      <trkpt lat="46.64009" lon="5.61338">
        <ele>520</ele>
        <time>2023-10-03T11:17:45Z</time>
      </trkpt>
      <trkpt lat="46.64006" lon="5.61336">
        <ele>520</ele>
        <time>2023-10-03T11:17:47Z</time>
      </trkpt>
      <trkpt lat="46.64003" lon="5.61335">
        <ele>520</ele>
        <time>2023-10-03T11:17:49Z</time>
      </trkpt>
      <trkpt lat="46.64" lon="5.61333">
        <ele>520</ele>
        <time>2023-10-03T11:17:51Z</time>
      </trkpt>
      <trkpt lat="46.63997" lon="5.61332">
        <ele>520</ele>
        <time>2023-10-03T11:17:54Z</time>
      </trkpt>
      <trkpt lat="46.63994" lon="5.61331">
        <ele>520</ele>
        <time>2023-10-03T11:17:57Z</time>
      </trkpt>
      <trkpt lat="46.63991" lon="5.6133">
        <ele>520</ele>
        <time>2023-10-03T11:17:59Z</time>
      </trkpt>
      <trkpt lat="46.63988" lon="5.61329">
        <ele>520</ele>
        <time>2023-10-03T11:18:02Z</time>
      </trkpt>
      <trkpt lat="46.63985" lon="5.61329">
        <ele>521</ele>
        <time>2023-10-03T11:18:05Z</time>
      </trkpt>
      <trkpt lat="46.63982" lon="5.61328">
        <ele>520</ele>
        <time>2023-10-03T11:18:08Z</time>
      </trkpt>
      <trkpt lat="46.63979" lon="5.61326">
        <ele>520</ele>
        <time>2023-10-03T11:18:11Z</time>
      </trkpt>
      <trkpt lat="46.63975" lon="5.61326">
        <ele>521</ele>
        <time>2023-10-03T11:18:14Z</time>
      </trkpt>
      <trkpt lat="46.63972" lon="5.61326">
        <ele>521</ele>
        <time>2023-10-03T11:18:16Z</time>
      </trkpt>
      <trkpt lat="46.63969" lon="5.61327">
        <ele>521</ele>
        <time>2023-10-03T11:18:19Z</time>
      </trkpt>
      <trkpt lat="46.63968" lon="5.61326">
        <ele>521</ele>
        <time>2023-10-03T11:18:24Z</time>
      </trkpt>
      <trkpt lat="46.63965" lon="5.61326">
        <ele>521</ele>
        <time>2023-10-03T11:18:28Z</time>
      </trkpt>
      <trkpt lat="46.63961" lon="5.61325">
        <ele>521</ele>
        <time>2023-10-03T11:18:31Z</time>
      </trkpt>
      <trkpt lat="46.63958" lon="5.61325">
        <ele>521</ele>
        <time>2023-10-03T11:18:34Z</time>
      </trkpt>
      <trkpt lat="46.63955" lon="5.61325">
        <ele>521</ele>
        <time>2023-10-03T11:18:37Z</time>
      </trkpt>
      <trkpt lat="46.63952" lon="5.61324">
        <ele>521</ele>
        <time>2023-10-03T11:18:40Z</time>
      </trkpt>
      <trkpt lat="46.6395" lon="5.61324">
        <ele>521</ele>
        <time>2023-10-03T11:18:41Z</time>
      </trkpt>
      <trkpt lat="46.63947" lon="5.61324">
        <ele>521</ele>
        <time>2023-10-03T11:18:43Z</time>
      </trkpt>
      <trkpt lat="46.63944" lon="5.61323">
        <ele>521</ele>
        <time>2023-10-03T11:18:45Z</time>
      </trkpt>
      <trkpt lat="46.63941" lon="5.61321">
        <ele>521</ele>
        <time>2023-10-03T11:18:47Z</time>
      </trkpt>
      <trkpt lat="46.63938" lon="5.6132">
        <ele>521</ele>
        <time>2023-10-03T11:18:49Z</time>
      </trkpt>
      <trkpt lat="46.63936" lon="5.61318">
        <ele>521</ele>
        <time>2023-10-03T11:18:51Z</time>
      </trkpt>
      <trkpt lat="46.63932" lon="5.61315">
        <ele>521</ele>
        <time>2023-10-03T11:18:53Z</time>
      </trkpt>
      <trkpt lat="46.63929" lon="5.61313">
        <ele>522</ele>
        <time>2023-10-03T11:18:55Z</time>
      </trkpt>
      <trkpt lat="46.63925" lon="5.61311">
        <ele>522</ele>
        <time>2023-10-03T11:18:57Z</time>
      </trkpt>
      <trkpt lat="46.63922" lon="5.61309">
        <ele>522</ele>
        <time>2023-10-03T11:18:59Z</time>
      </trkpt>
      <trkpt lat="46.63919" lon="5.61308">
        <ele>522</ele>
        <time>2023-10-03T11:19:01Z</time>
      </trkpt>
      <trkpt lat="46.63916" lon="5.61308">
        <ele>521</ele>
        <time>2023-10-03T11:19:04Z</time>
      </trkpt>
      <trkpt lat="46.63913" lon="5.61309">
        <ele>521</ele>
        <time>2023-10-03T11:19:07Z</time>
      </trkpt>
      <trkpt lat="46.6391" lon="5.6131">
        <ele>521</ele>
        <time>2023-10-03T11:19:14Z</time>
      </trkpt>
      <trkpt lat="46.63906" lon="5.6131">
        <ele>521</ele>
        <time>2023-10-03T11:19:18Z</time>
      </trkpt>
      <trkpt lat="46.63903" lon="5.61311">
        <ele>521</ele>
        <time>2023-10-03T11:19:20Z</time>
      </trkpt>
      <trkpt lat="46.639" lon="5.6131">
        <ele>521</ele>
        <time>2023-10-03T11:19:22Z</time>
      </trkpt>
      <trkpt lat="46.63896" lon="5.6131">
        <ele>521</ele>
        <time>2023-10-03T11:19:24Z</time>
      </trkpt>
      <trkpt lat="46.63893" lon="5.6131">
        <ele>521</ele>
        <time>2023-10-03T11:19:26Z</time>
      </trkpt>
      <trkpt lat="46.63889" lon="5.61307">
        <ele>521</ele>
        <time>2023-10-03T11:19:28Z</time>
      </trkpt>
      <trkpt lat="46.63886" lon="5.61306">
        <ele>521</ele>
        <time>2023-10-03T11:19:31Z</time>
      </trkpt>
      <trkpt lat="46.63882" lon="5.61303">
        <ele>521</ele>
        <time>2023-10-03T11:19:34Z</time>
      </trkpt>
      <trkpt lat="46.6388" lon="5.61301">
        <ele>522</ele>
        <time>2023-10-03T11:19:37Z</time>
      </trkpt>
      <trkpt lat="46.63876" lon="5.613">
        <ele>522</ele>
        <time>2023-10-03T11:19:40Z</time>
      </trkpt>
      <trkpt lat="46.63873" lon="5.613">
        <ele>522</ele>
        <time>2023-10-03T11:19:43Z</time>
      </trkpt>
      <trkpt lat="46.63869" lon="5.61299">
        <ele>522</ele>
        <time>2023-10-03T11:19:46Z</time>
      </trkpt>
      <trkpt lat="46.63865" lon="5.61299">
        <ele>522</ele>
        <time>2023-10-03T11:19:49Z</time>
      </trkpt>
      <trkpt lat="46.63862" lon="5.613">
        <ele>522</ele>
        <time>2023-10-03T11:19:52Z</time>
      </trkpt>
      <trkpt lat="46.63858" lon="5.613">
        <ele>522</ele>
        <time>2023-10-03T11:19:55Z</time>
      </trkpt>
      <trkpt lat="46.63855" lon="5.613">
        <ele>522</ele>
        <time>2023-10-03T11:19:57Z</time>
      </trkpt>
      <trkpt lat="46.63851" lon="5.613">
        <ele>521</ele>
        <time>2023-10-03T11:19:59Z</time>
      </trkpt>
      <trkpt lat="46.63848" lon="5.61299">
        <ele>521</ele>
        <time>2023-10-03T11:20:01Z</time>
      </trkpt>
      <trkpt lat="46.63845" lon="5.613">
        <ele>522</ele>
        <time>2023-10-03T11:20:05Z</time>
      </trkpt>
      <trkpt lat="46.63842" lon="5.613">
        <ele>522</ele>
        <time>2023-10-03T11:20:08Z</time>
      </trkpt>
      <trkpt lat="46.63838" lon="5.613">
        <ele>522</ele>
        <time>2023-10-03T11:20:12Z</time>
      </trkpt>
      <trkpt lat="46.63835" lon="5.613">
        <ele>521</ele>
        <time>2023-10-03T11:20:15Z</time>
      </trkpt>
      <trkpt lat="46.63832" lon="5.61299">
        <ele>521</ele>
        <time>2023-10-03T11:20:18Z</time>
      </trkpt>
      <trkpt lat="46.63828" lon="5.613">
        <ele>521</ele>
        <time>2023-10-03T11:20:21Z</time>
      </trkpt>
      <trkpt lat="46.63825" lon="5.61301">
        <ele>521</ele>
        <time>2023-10-03T11:20:24Z</time>
      </trkpt>
      <trkpt lat="46.63822" lon="5.61303">
        <ele>521</ele>
        <time>2023-10-03T11:20:27Z</time>
      </trkpt>
      <trkpt lat="46.63818" lon="5.61303">
        <ele>521</ele>
        <time>2023-10-03T11:20:30Z</time>
      </trkpt>
      <trkpt lat="46.63814" lon="5.61303">
        <ele>521</ele>
        <time>2023-10-03T11:20:32Z</time>
      </trkpt>
      <trkpt lat="46.63811" lon="5.61301">
        <ele>521</ele>
        <time>2023-10-03T11:20:34Z</time>
      </trkpt>
      <trkpt lat="46.63808" lon="5.613">
        <ele>521</ele>
        <time>2023-10-03T11:20:37Z</time>
      </trkpt>
      <trkpt lat="46.63805" lon="5.61298">
        <ele>521</ele>
        <time>2023-10-03T11:20:40Z</time>
      </trkpt>
      <trkpt lat="46.63802" lon="5.61297">
        <ele>522</ele>
        <time>2023-10-03T11:20:43Z</time>
      </trkpt>
      <trkpt lat="46.638" lon="5.61294">
        <ele>522</ele>
        <time>2023-10-03T11:20:46Z</time>
      </trkpt>
      <trkpt lat="46.63797" lon="5.61292">
        <ele>522</ele>
        <time>2023-10-03T11:20:50Z</time>
      </trkpt>
      <trkpt lat="46.63793" lon="5.61291">
        <ele>522</ele>
        <time>2023-10-03T11:20:54Z</time>
      </trkpt>
      <trkpt lat="46.6379" lon="5.6129">
        <ele>521</ele>
        <time>2023-10-03T11:20:58Z</time>
      </trkpt>
      <trkpt lat="46.63787" lon="5.6129">
        <ele>521</ele>
        <time>2023-10-03T11:21:01Z</time>
      </trkpt>
      <trkpt lat="46.63783" lon="5.6129">
        <ele>521</ele>
        <time>2023-10-03T11:21:05Z</time>
      </trkpt>
      <trkpt lat="46.63781" lon="5.61288">
        <ele>522</ele>
        <time>2023-10-03T11:21:09Z</time>
      </trkpt>
      <trkpt lat="46.63778" lon="5.61286">
        <ele>522</ele>
        <time>2023-10-03T11:21:13Z</time>
      </trkpt>
      <trkpt lat="46.63774" lon="5.61287">
        <ele>522</ele>
        <time>2023-10-03T11:21:16Z</time>
      </trkpt>
      <trkpt lat="46.63771" lon="5.61287">
        <ele>522</ele>
        <time>2023-10-03T11:21:20Z</time>
      </trkpt>
      <trkpt lat="46.63768" lon="5.61288">
        <ele>522</ele>
        <time>2023-10-03T11:21:23Z</time>
      </trkpt>
      <trkpt lat="46.63765" lon="5.61287">
        <ele>522</ele>
        <time>2023-10-03T11:21:26Z</time>
      </trkpt>
      <trkpt lat="46.63762" lon="5.61285">
        <ele>522</ele>
        <time>2023-10-03T11:21:29Z</time>
      </trkpt>
      <trkpt lat="46.63759" lon="5.61283">
        <ele>522</ele>
        <time>2023-10-03T11:21:31Z</time>
      </trkpt>
      <trkpt lat="46.63757" lon="5.61281">
        <ele>522</ele>
        <time>2023-10-03T11:21:33Z</time>
      </trkpt>
      <trkpt lat="46.63755" lon="5.61278">
        <ele>522</ele>
        <time>2023-10-03T11:21:36Z</time>
      </trkpt>
      <trkpt lat="46.63753" lon="5.61275">
        <ele>522</ele>
        <time>2023-10-03T11:21:40Z</time>
      </trkpt>
      <trkpt lat="46.63751" lon="5.61272">
        <ele>522</ele>
        <time>2023-10-03T11:21:44Z</time>
      </trkpt>
      <trkpt lat="46.63749" lon="5.61268">
        <ele>522</ele>
        <time>2023-10-03T11:21:48Z</time>
      </trkpt>
      <trkpt lat="46.63747" lon="5.61265">
        <ele>522</ele>
        <time>2023-10-03T11:21:50Z</time>
      </trkpt>
      <trkpt lat="46.63743" lon="5.61264">
        <ele>521</ele>
        <time>2023-10-03T11:21:53Z</time>
      </trkpt>
      <trkpt lat="46.6374" lon="5.61263">
        <ele>521</ele>
        <time>2023-10-03T11:21:56Z</time>
      </trkpt>
      <trkpt lat="46.63737" lon="5.61263">
        <ele>521</ele>
        <time>2023-10-03T11:21:59Z</time>
      </trkpt>
      <trkpt lat="46.63734" lon="5.61263">
        <ele>521</ele>
        <time>2023-10-03T11:22:02Z</time>
      </trkpt>
      <trkpt lat="46.63732" lon="5.61264">
        <ele>520</ele>
        <time>2023-10-03T11:22:04Z</time>
      </trkpt>
      <trkpt lat="46.63731" lon="5.61267">
        <ele>520</ele>
        <time>2023-10-03T11:22:11Z</time>
      </trkpt>
      <trkpt lat="46.63729" lon="5.61268">
        <ele>520</ele>
        <time>2023-10-03T11:22:15Z</time>
      </trkpt>
      <trkpt lat="46.63726" lon="5.61267">
        <ele>519</ele>
        <time>2023-10-03T11:22:18Z</time>
      </trkpt>
      <trkpt lat="46.63723" lon="5.61267">
        <ele>519</ele>
        <time>2023-10-03T11:22:25Z</time>
      </trkpt>
      <trkpt lat="46.6372" lon="5.61268">
        <ele>520</ele>
        <time>2023-10-03T11:22:43Z</time>
      </trkpt>
      <trkpt lat="46.63721" lon="5.61268">
        <ele>520</ele>
        <time>2023-10-03T11:22:50Z</time>
      </trkpt>
      <trkpt lat="46.63723" lon="5.61269">
        <ele>520</ele>
        <time>2023-10-03T11:23:02Z</time>
      </trkpt>
      <trkpt lat="46.63722" lon="5.61269">
        <ele>520</ele>
        <time>2023-10-03T11:23:08Z</time>
      </trkpt>
      <trkpt lat="46.63724" lon="5.61269">
        <ele>519</ele>
        <time>2023-10-03T11:23:19Z</time>
      </trkpt>
      <trkpt lat="46.63726" lon="5.6127">
        <ele>520</ele>
        <time>2023-10-03T11:23:45Z</time>
      </trkpt>
      <trkpt lat="46.63728" lon="5.61268">
        <ele>520</ele>
        <time>2023-10-03T11:24:02Z</time>
      </trkpt>
      <trkpt lat="46.63731" lon="5.61268">
        <ele>520</ele>
        <time>2023-10-03T11:24:09Z</time>
      </trkpt>
      <trkpt lat="46.63733" lon="5.6127">
        <ele>521</ele>
        <time>2023-10-03T11:24:17Z</time>
      </trkpt>
      <trkpt lat="46.63735" lon="5.61268">
        <ele>521</ele>
        <time>2023-10-03T11:24:20Z</time>
      </trkpt>
      <trkpt lat="46.63737" lon="5.61265">
        <ele>521</ele>
        <time>2023-10-03T11:24:22Z</time>
      </trkpt>
      <trkpt lat="46.63738" lon="5.61261">
        <ele>521</ele>
        <time>2023-10-03T11:24:29Z</time>
      </trkpt>
      <trkpt lat="46.6374" lon="5.61257">
        <ele>522</ele>
        <time>2023-10-03T11:24:33Z</time>
      </trkpt>
      <trkpt lat="46.63741" lon="5.61253">
        <ele>522</ele>
        <time>2023-10-03T11:24:38Z</time>
      </trkpt>
      <trkpt lat="46.63743" lon="5.61249">
        <ele>522</ele>
        <time>2023-10-03T11:24:46Z</time>
      </trkpt>
      <trkpt lat="46.63744" lon="5.61244">
        <ele>521</ele>
        <time>2023-10-03T11:24:51Z</time>
      </trkpt>
      <trkpt lat="46.63744" lon="5.6124">
        <ele>522</ele>
        <time>2023-10-03T11:24:56Z</time>
      </trkpt>
      <trkpt lat="46.63744" lon="5.61235">
        <ele>522</ele>
        <time>2023-10-03T11:25:00Z</time>
      </trkpt>
      <trkpt lat="46.63743" lon="5.61231">
        <ele>522</ele>
        <time>2023-10-03T11:25:03Z</time>
      </trkpt>
      <trkpt lat="46.63742" lon="5.61227">
        <ele>523</ele>
        <time>2023-10-03T11:25:07Z</time>
      </trkpt>
      <trkpt lat="46.63742" lon="5.61223">
        <ele>523</ele>
        <time>2023-10-03T11:25:12Z</time>
      </trkpt>
      <trkpt lat="46.63742" lon="5.61218">
        <ele>524</ele>
        <time>2023-10-03T11:25:16Z</time>
      </trkpt>
      <trkpt lat="46.63742" lon="5.61214">
        <ele>524</ele>
        <time>2023-10-03T11:25:19Z</time>
      </trkpt>
      <trkpt lat="46.63742" lon="5.6121">
        <ele>524</ele>
        <time>2023-10-03T11:25:22Z</time>
      </trkpt>
      <trkpt lat="46.63743" lon="5.61205">
        <ele>524</ele>
        <time>2023-10-03T11:25:25Z</time>
      </trkpt>
      <trkpt lat="46.63743" lon="5.61201">
        <ele>524</ele>
        <time>2023-10-03T11:25:27Z</time>
      </trkpt>
      <trkpt lat="46.63744" lon="5.61196">
        <ele>525</ele>
        <time>2023-10-03T11:25:30Z</time>
      </trkpt>
      <trkpt lat="46.63744" lon="5.61192">
        <ele>525</ele>
        <time>2023-10-03T11:25:32Z</time>
      </trkpt>
      <trkpt lat="46.63745" lon="5.61188">
        <ele>525</ele>
        <time>2023-10-03T11:25:34Z</time>
      </trkpt>
      <trkpt lat="46.63744" lon="5.61183">
        <ele>525</ele>
        <time>2023-10-03T11:25:36Z</time>
      </trkpt>
      <trkpt lat="46.63744" lon="5.61179">
        <ele>525</ele>
        <time>2023-10-03T11:25:38Z</time>
      </trkpt>
      <trkpt lat="46.63744" lon="5.61174">
        <ele>524</ele>
        <time>2023-10-03T11:25:41Z</time>
      </trkpt>
      <trkpt lat="46.63744" lon="5.61169">
        <ele>524</ele>
        <time>2023-10-03T11:25:44Z</time>
      </trkpt>
      <trkpt lat="46.63744" lon="5.61165">
        <ele>524</ele>
        <time>2023-10-03T11:25:48Z</time>
      </trkpt>
      <trkpt lat="46.63745" lon="5.6116">
        <ele>524</ele>
        <time>2023-10-03T11:25:53Z</time>
      </trkpt>
      <trkpt lat="46.63745" lon="5.61155">
        <ele>524</ele>
        <time>2023-10-03T11:25:56Z</time>
      </trkpt>
      <trkpt lat="46.63745" lon="5.6115">
        <ele>524</ele>
        <time>2023-10-03T11:25:59Z</time>
      </trkpt>
      <trkpt lat="46.63746" lon="5.61145">
        <ele>524</ele>
        <time>2023-10-03T11:26:02Z</time>
      </trkpt>
      <trkpt lat="46.63746" lon="5.61141">
        <ele>523</ele>
        <time>2023-10-03T11:26:07Z</time>
      </trkpt>
      <trkpt lat="46.63746" lon="5.61136">
        <ele>523</ele>
        <time>2023-10-03T11:26:11Z</time>
      </trkpt>
      <trkpt lat="46.63746" lon="5.61131">
        <ele>524</ele>
        <time>2023-10-03T11:26:14Z</time>
      </trkpt>
      <trkpt lat="46.63747" lon="5.61127">
        <ele>524</ele>
        <time>2023-10-03T11:26:17Z</time>
      </trkpt>
      <trkpt lat="46.63747" lon="5.61122">
        <ele>524</ele>
        <time>2023-10-03T11:26:20Z</time>
      </trkpt>
      <trkpt lat="46.63746" lon="5.61117">
        <ele>523</ele>
        <time>2023-10-03T11:26:24Z</time>
      </trkpt>
      <trkpt lat="46.63746" lon="5.6111">
        <ele>523</ele>
        <time>2023-10-03T11:26:28Z</time>
      </trkpt>
      <trkpt lat="46.63745" lon="5.61106">
        <ele>522</ele>
        <time>2023-10-03T11:26:31Z</time>
      </trkpt>
      <trkpt lat="46.63745" lon="5.61101">
        <ele>521</ele>
        <time>2023-10-03T11:26:38Z</time>
      </trkpt>
      <trkpt lat="46.63744" lon="5.61096">
        <ele>521</ele>
        <time>2023-10-03T11:26:40Z</time>
      </trkpt>
      <trkpt lat="46.63742" lon="5.61092">
        <ele>521</ele>
        <time>2023-10-03T11:26:42Z</time>
      </trkpt>
      <trkpt lat="46.6374" lon="5.61088">
        <ele>521</ele>
        <time>2023-10-03T11:26:44Z</time>
      </trkpt>
      <trkpt lat="46.63738" lon="5.61084">
        <ele>521</ele>
        <time>2023-10-03T11:26:46Z</time>
      </trkpt>
      <trkpt lat="46.63736" lon="5.6108">
        <ele>520</ele>
        <time>2023-10-03T11:26:48Z</time>
      </trkpt>
      <trkpt lat="46.63734" lon="5.61076">
        <ele>520</ele>
        <time>2023-10-03T11:26:50Z</time>
      </trkpt>
      <trkpt lat="46.63733" lon="5.61071">
        <ele>520</ele>
        <time>2023-10-03T11:26:54Z</time>
      </trkpt>
      <trkpt lat="46.63731" lon="5.61066">
        <ele>521</ele>
        <time>2023-10-03T11:26:57Z</time>
      </trkpt>
      <trkpt lat="46.6373" lon="5.61061">
        <ele>521</ele>
        <time>2023-10-03T11:26:59Z</time>
      </trkpt>
      <trkpt lat="46.63729" lon="5.61056">
        <ele>521</ele>
        <time>2023-10-03T11:27:02Z</time>
      </trkpt>
      <trkpt lat="46.63727" lon="5.61052">
        <ele>521</ele>
        <time>2023-10-03T11:27:04Z</time>
      </trkpt>
      <trkpt lat="46.63726" lon="5.61048">
        <ele>521</ele>
        <time>2023-10-03T11:27:06Z</time>
      </trkpt>
      <trkpt lat="46.63724" lon="5.61044">
        <ele>521</ele>
        <time>2023-10-03T11:27:09Z</time>
      </trkpt>
      <trkpt lat="46.63722" lon="5.61041">
        <ele>521</ele>
        <time>2023-10-03T11:27:12Z</time>
      </trkpt>
      <trkpt lat="46.6372" lon="5.61037">
        <ele>521</ele>
        <time>2023-10-03T11:27:14Z</time>
      </trkpt>
      <trkpt lat="46.63718" lon="5.61033">
        <ele>521</ele>
        <time>2023-10-03T11:27:16Z</time>
      </trkpt>
      <trkpt lat="46.63717" lon="5.61029">
        <ele>521</ele>
        <time>2023-10-03T11:27:19Z</time>
      </trkpt>
      <trkpt lat="46.63716" lon="5.61024">
        <ele>521</ele>
        <time>2023-10-03T11:27:22Z</time>
      </trkpt>
      <trkpt lat="46.63714" lon="5.61019">
        <ele>521</ele>
        <time>2023-10-03T11:27:25Z</time>
      </trkpt>
      <trkpt lat="46.63713" lon="5.61014">
        <ele>521</ele>
        <time>2023-10-03T11:27:28Z</time>
      </trkpt>
      <trkpt lat="46.63713" lon="5.61009">
        <ele>521</ele>
        <time>2023-10-03T11:27:32Z</time>
      </trkpt>
      <trkpt lat="46.63711" lon="5.61004">
        <ele>521</ele>
        <time>2023-10-03T11:27:36Z</time>
      </trkpt>
      <trkpt lat="46.6371" lon="5.60999">
        <ele>521</ele>
        <time>2023-10-03T11:27:40Z</time>
      </trkpt>
      <trkpt lat="46.63709" lon="5.60994">
        <ele>521</ele>
        <time>2023-10-03T11:27:43Z</time>
      </trkpt>
      <trkpt lat="46.63709" lon="5.60988">
        <ele>521</ele>
        <time>2023-10-03T11:27:46Z</time>
      </trkpt>
      <trkpt lat="46.63708" lon="5.60983">
        <ele>521</ele>
        <time>2023-10-03T11:27:48Z</time>
      </trkpt>
      <trkpt lat="46.63707" lon="5.60978">
        <ele>521</ele>
        <time>2023-10-03T11:27:51Z</time>
      </trkpt>
      <trkpt lat="46.63707" lon="5.60973">
        <ele>521</ele>
        <time>2023-10-03T11:27:54Z</time>
      </trkpt>
      <trkpt lat="46.63707" lon="5.60968">
        <ele>521</ele>
        <time>2023-10-03T11:27:59Z</time>
      </trkpt>
      <trkpt lat="46.63708" lon="5.60963">
        <ele>521</ele>
        <time>2023-10-03T11:28:02Z</time>
      </trkpt>
      <trkpt lat="46.6371" lon="5.6096">
        <ele>521</ele>
        <time>2023-10-03T11:28:06Z</time>
      </trkpt>
      <trkpt lat="46.63713" lon="5.60957">
        <ele>521</ele>
        <time>2023-10-03T11:28:09Z</time>
      </trkpt>
      <trkpt lat="46.63715" lon="5.60954">
        <ele>521</ele>
        <time>2023-10-03T11:28:12Z</time>
      </trkpt>
      <trkpt lat="46.63717" lon="5.60951">
        <ele>521</ele>
        <time>2023-10-03T11:28:15Z</time>
      </trkpt>
      <trkpt lat="46.6372" lon="5.60948">
        <ele>521</ele>
        <time>2023-10-03T11:28:19Z</time>
      </trkpt>
      <trkpt lat="46.63722" lon="5.60945">
        <ele>521</ele>
        <time>2023-10-03T11:28:22Z</time>
      </trkpt>
      <trkpt lat="46.63725" lon="5.60942">
        <ele>521</ele>
        <time>2023-10-03T11:28:25Z</time>
      </trkpt>
      <trkpt lat="46.63728" lon="5.60939">
        <ele>521</ele>
        <time>2023-10-03T11:28:28Z</time>
      </trkpt>
      <trkpt lat="46.63731" lon="5.60938">
        <ele>521</ele>
        <time>2023-10-03T11:28:31Z</time>
      </trkpt>
      <trkpt lat="46.63734" lon="5.60935">
        <ele>521</ele>
        <time>2023-10-03T11:28:34Z</time>
      </trkpt>
      <trkpt lat="46.63737" lon="5.60933">
        <ele>521</ele>
        <time>2023-10-03T11:28:36Z</time>
      </trkpt>
      <trkpt lat="46.6374" lon="5.60933">
        <ele>521</ele>
        <time>2023-10-03T11:28:39Z</time>
      </trkpt>
      <trkpt lat="46.63743" lon="5.6093">
        <ele>522</ele>
        <time>2023-10-03T11:28:43Z</time>
      </trkpt>
      <trkpt lat="46.63746" lon="5.60928">
        <ele>522</ele>
        <time>2023-10-03T11:28:47Z</time>
      </trkpt>
      <trkpt lat="46.63748" lon="5.60926">
        <ele>522</ele>
        <time>2023-10-03T11:28:49Z</time>
      </trkpt>
      <trkpt lat="46.63751" lon="5.60922">
        <ele>523</ele>
        <time>2023-10-03T11:28:52Z</time>
      </trkpt>
      <trkpt lat="46.63753" lon="5.60918">
        <ele>523</ele>
        <time>2023-10-03T11:28:55Z</time>
      </trkpt>
      <trkpt lat="46.63756" lon="5.60915">
        <ele>523</ele>
        <time>2023-10-03T11:28:58Z</time>
      </trkpt>
      <trkpt lat="46.63759" lon="5.60912">
        <ele>523</ele>
        <time>2023-10-03T11:29:01Z</time>
      </trkpt>
      <trkpt lat="46.63762" lon="5.60908">
        <ele>523</ele>
        <time>2023-10-03T11:29:04Z</time>
      </trkpt>
      <trkpt lat="46.63765" lon="5.60906">
        <ele>523</ele>
        <time>2023-10-03T11:29:06Z</time>
      </trkpt>
      <trkpt lat="46.63768" lon="5.60904">
        <ele>523</ele>
        <time>2023-10-03T11:29:09Z</time>
      </trkpt>
      <trkpt lat="46.63771" lon="5.60902">
        <ele>523</ele>
        <time>2023-10-03T11:29:12Z</time>
      </trkpt>
      <trkpt lat="46.63773" lon="5.60901">
        <ele>524</ele>
        <time>2023-10-03T11:29:16Z</time>
      </trkpt>
      <trkpt lat="46.63776" lon="5.60899">
        <ele>524</ele>
        <time>2023-10-03T11:29:19Z</time>
      </trkpt>
      <trkpt lat="46.63779" lon="5.60897">
        <ele>524</ele>
        <time>2023-10-03T11:29:22Z</time>
      </trkpt>
      <trkpt lat="46.63782" lon="5.60896">
        <ele>524</ele>
        <time>2023-10-03T11:29:25Z</time>
      </trkpt>
      <trkpt lat="46.63785" lon="5.60894">
        <ele>525</ele>
        <time>2023-10-03T11:29:28Z</time>
      </trkpt>
      <trkpt lat="46.63788" lon="5.60893">
        <ele>525</ele>
        <time>2023-10-03T11:29:30Z</time>
      </trkpt>
      <trkpt lat="46.63791" lon="5.60891">
        <ele>525</ele>
        <time>2023-10-03T11:29:33Z</time>
      </trkpt>
      <trkpt lat="46.63794" lon="5.60889">
        <ele>525</ele>
        <time>2023-10-03T11:29:36Z</time>
      </trkpt>
      <trkpt lat="46.63797" lon="5.60887">
        <ele>526</ele>
        <time>2023-10-03T11:29:39Z</time>
      </trkpt>
      <trkpt lat="46.638" lon="5.60886">
        <ele>526</ele>
        <time>2023-10-03T11:29:42Z</time>
      </trkpt>
      <trkpt lat="46.63803" lon="5.60886">
        <ele>526</ele>
        <time>2023-10-03T11:29:45Z</time>
      </trkpt>
      <trkpt lat="46.63807" lon="5.60885">
        <ele>526</ele>
        <time>2023-10-03T11:29:48Z</time>
      </trkpt>
      <trkpt lat="46.63809" lon="5.60883">
        <ele>527</ele>
        <time>2023-10-03T11:29:51Z</time>
      </trkpt>
      <trkpt lat="46.63812" lon="5.6088">
        <ele>526</ele>
        <time>2023-10-03T11:29:53Z</time>
      </trkpt>
      <trkpt lat="46.63815" lon="5.60879">
        <ele>526</ele>
        <time>2023-10-03T11:29:55Z</time>
      </trkpt>
      <trkpt lat="46.63818" lon="5.60879">
        <ele>526</ele>
        <time>2023-10-03T11:29:58Z</time>
      </trkpt>
      <trkpt lat="46.63821" lon="5.60878">
        <ele>526</ele>
        <time>2023-10-03T11:30:02Z</time>
      </trkpt>
      <trkpt lat="46.63823" lon="5.60875">
        <ele>526</ele>
        <time>2023-10-03T11:30:06Z</time>
      </trkpt>
      <trkpt lat="46.63826" lon="5.60872">
        <ele>526</ele>
        <time>2023-10-03T11:30:09Z</time>
      </trkpt>
      <trkpt lat="46.63829" lon="5.60871">
        <ele>527</ele>
        <time>2023-10-03T11:30:12Z</time>
      </trkpt>
      <trkpt lat="46.63832" lon="5.6087">
        <ele>527</ele>
        <time>2023-10-03T11:30:15Z</time>
      </trkpt>
      <trkpt lat="46.63835" lon="5.60868">
        <ele>527</ele>
        <time>2023-10-03T11:30:18Z</time>
      </trkpt>
      <trkpt lat="46.63837" lon="5.60866">
        <ele>527</ele>
        <time>2023-10-03T11:30:22Z</time>
      </trkpt>
      <trkpt lat="46.6384" lon="5.60864">
        <ele>527</ele>
        <time>2023-10-03T11:30:25Z</time>
      </trkpt>
      <trkpt lat="46.63843" lon="5.60861">
        <ele>527</ele>
        <time>2023-10-03T11:30:27Z</time>
      </trkpt>
      <trkpt lat="46.63846" lon="5.6086">
        <ele>527</ele>
        <time>2023-10-03T11:30:29Z</time>
      </trkpt>
      <trkpt lat="46.63849" lon="5.6086">
        <ele>528</ele>
        <time>2023-10-03T11:30:32Z</time>
      </trkpt>
      <trkpt lat="46.63853" lon="5.6086">
        <ele>528</ele>
        <time>2023-10-03T11:30:34Z</time>
      </trkpt>
      <trkpt lat="46.63855" lon="5.60859">
        <ele>528</ele>
        <time>2023-10-03T11:30:36Z</time>
      </trkpt>
      <trkpt lat="46.63859" lon="5.60858">
        <ele>527</ele>
        <time>2023-10-03T11:30:39Z</time>
      </trkpt>
      <trkpt lat="46.63862" lon="5.60857">
        <ele>527</ele>
        <time>2023-10-03T11:30:43Z</time>
      </trkpt>
      <trkpt lat="46.63864" lon="5.60855">
        <ele>527</ele>
        <time>2023-10-03T11:30:48Z</time>
      </trkpt>
      <trkpt lat="46.63867" lon="5.60853">
        <ele>526</ele>
        <time>2023-10-03T11:30:51Z</time>
      </trkpt>
      <trkpt lat="46.63869" lon="5.60851">
        <ele>526</ele>
        <time>2023-10-03T11:30:56Z</time>
      </trkpt>
      <trkpt lat="46.63873" lon="5.60851">
        <ele>526</ele>
        <time>2023-10-03T11:31:00Z</time>
      </trkpt>
      <trkpt lat="46.63876" lon="5.6085">
        <ele>526</ele>
        <time>2023-10-03T11:31:02Z</time>
      </trkpt>
      <trkpt lat="46.63879" lon="5.60851">
        <ele>526</ele>
        <time>2023-10-03T11:31:05Z</time>
      </trkpt>
      <trkpt lat="46.63882" lon="5.60851">
        <ele>526</ele>
        <time>2023-10-03T11:31:09Z</time>
      </trkpt>
      <trkpt lat="46.63885" lon="5.60851">
        <ele>526</ele>
        <time>2023-10-03T11:31:11Z</time>
      </trkpt>
      <trkpt lat="46.63888" lon="5.6085">
        <ele>525</ele>
        <time>2023-10-03T11:31:13Z</time>
      </trkpt>
      <trkpt lat="46.63891" lon="5.6085">
        <ele>525</ele>
        <time>2023-10-03T11:31:15Z</time>
      </trkpt>
      <trkpt lat="46.63895" lon="5.6085">
        <ele>525</ele>
        <time>2023-10-03T11:31:17Z</time>
      </trkpt>
      <trkpt lat="46.63898" lon="5.60849">
        <ele>525</ele>
        <time>2023-10-03T11:31:19Z</time>
      </trkpt>
      <trkpt lat="46.63902" lon="5.6085">
        <ele>525</ele>
        <time>2023-10-03T11:31:23Z</time>
      </trkpt>
      <trkpt lat="46.63905" lon="5.60848">
        <ele>524</ele>
        <time>2023-10-03T11:31:26Z</time>
      </trkpt>
      <trkpt lat="46.63908" lon="5.60847">
        <ele>524</ele>
        <time>2023-10-03T11:31:29Z</time>
      </trkpt>
      <trkpt lat="46.63911" lon="5.60847">
        <ele>524</ele>
        <time>2023-10-03T11:31:32Z</time>
      </trkpt>
      <trkpt lat="46.63915" lon="5.60846">
        <ele>524</ele>
        <time>2023-10-03T11:31:34Z</time>
      </trkpt>
      <trkpt lat="46.63918" lon="5.60846">
        <ele>524</ele>
        <time>2023-10-03T11:31:36Z</time>
      </trkpt>
      <trkpt lat="46.63921" lon="5.60845">
        <ele>524</ele>
        <time>2023-10-03T11:31:38Z</time>
      </trkpt>
      <trkpt lat="46.63924" lon="5.60844">
        <ele>524</ele>
        <time>2023-10-03T11:31:40Z</time>
      </trkpt>
      <trkpt lat="46.63927" lon="5.60843">
        <ele>524</ele>
        <time>2023-10-03T11:31:43Z</time>
      </trkpt>
      <trkpt lat="46.6393" lon="5.60843">
        <ele>524</ele>
        <time>2023-10-03T11:31:45Z</time>
      </trkpt>
      <trkpt lat="46.63933" lon="5.60843">
        <ele>524</ele>
        <time>2023-10-03T11:31:49Z</time>
      </trkpt>
      <trkpt lat="46.63937" lon="5.60842">
        <ele>524</ele>
        <time>2023-10-03T11:31:52Z</time>
      </trkpt>
      <trkpt lat="46.6394" lon="5.60841">
        <ele>524</ele>
        <time>2023-10-03T11:31:54Z</time>
      </trkpt>
      <trkpt lat="46.63944" lon="5.60841">
        <ele>525</ele>
        <time>2023-10-03T11:31:58Z</time>
      </trkpt>
      <trkpt lat="46.63947" lon="5.60841">
        <ele>525</ele>
        <time>2023-10-03T11:32:03Z</time>
      </trkpt>
      <trkpt lat="46.6395" lon="5.60841">
        <ele>525</ele>
        <time>2023-10-03T11:32:08Z</time>
      </trkpt>
      <trkpt lat="46.63954" lon="5.60841">
        <ele>525</ele>
        <time>2023-10-03T11:32:11Z</time>
      </trkpt>
      <trkpt lat="46.63957" lon="5.6084">
        <ele>525</ele>
        <time>2023-10-03T11:32:13Z</time>
      </trkpt>
      <trkpt lat="46.6396" lon="5.60839">
        <ele>525</ele>
        <time>2023-10-03T11:32:16Z</time>
      </trkpt>
      <trkpt lat="46.63963" lon="5.6084">
        <ele>525</ele>
        <time>2023-10-03T11:32:19Z</time>
      </trkpt>
      <trkpt lat="46.63968" lon="5.6084">
        <ele>524</ele>
        <time>2023-10-03T11:32:22Z</time>
      </trkpt>
      <trkpt lat="46.63971" lon="5.6084">
        <ele>524</ele>
        <time>2023-10-03T11:32:24Z</time>
      </trkpt>
      <trkpt lat="46.63974" lon="5.60839">
        <ele>524</ele>
        <time>2023-10-03T11:32:26Z</time>
      </trkpt>
      <trkpt lat="46.63978" lon="5.60839">
        <ele>524</ele>
        <time>2023-10-03T11:32:29Z</time>
      </trkpt>
      <trkpt lat="46.63982" lon="5.60839">
        <ele>524</ele>
        <time>2023-10-03T11:32:32Z</time>
      </trkpt>
      <trkpt lat="46.63985" lon="5.60837">
        <ele>523</ele>
        <time>2023-10-03T11:32:36Z</time>
      </trkpt>
      <trkpt lat="46.63988" lon="5.60837">
        <ele>522</ele>
        <time>2023-10-03T11:32:41Z</time>
      </trkpt>
      <trkpt lat="46.63991" lon="5.60837">
        <ele>522</ele>
        <time>2023-10-03T11:32:44Z</time>
      </trkpt>
      <trkpt lat="46.63994" lon="5.60837">
        <ele>522</ele>
        <time>2023-10-03T11:32:48Z</time>
      </trkpt>
      <trkpt lat="46.63997" lon="5.60837">
        <ele>521</ele>
        <time>2023-10-03T11:32:51Z</time>
      </trkpt>
      <trkpt lat="46.64001" lon="5.60836">
        <ele>521</ele>
        <time>2023-10-03T11:32:53Z</time>
      </trkpt>
      <trkpt lat="46.64004" lon="5.60834">
        <ele>521</ele>
        <time>2023-10-03T11:32:55Z</time>
      </trkpt>
      <trkpt lat="46.64008" lon="5.60834">
        <ele>521</ele>
        <time>2023-10-03T11:32:58Z</time>
      </trkpt>
      <trkpt lat="46.64011" lon="5.60834">
        <ele>520</ele>
        <time>2023-10-03T11:33:00Z</time>
      </trkpt>
      <trkpt lat="46.64014" lon="5.60833">
        <ele>520</ele>
        <time>2023-10-03T11:33:02Z</time>
      </trkpt>
      <trkpt lat="46.64017" lon="5.60833">
        <ele>520</ele>
        <time>2023-10-03T11:33:05Z</time>
      </trkpt>
      <trkpt lat="46.6402" lon="5.60834">
        <ele>519</ele>
        <time>2023-10-03T11:33:09Z</time>
      </trkpt>
      <trkpt lat="46.64023" lon="5.60833">
        <ele>519</ele>
        <time>2023-10-03T11:33:11Z</time>
      </trkpt>
      <trkpt lat="46.64027" lon="5.60832">
        <ele>519</ele>
        <time>2023-10-03T11:33:13Z</time>
      </trkpt>
      <trkpt lat="46.6403" lon="5.6083">
        <ele>519</ele>
        <time>2023-10-03T11:33:15Z</time>
      </trkpt>
      <trkpt lat="46.64034" lon="5.60828">
        <ele>519</ele>
        <time>2023-10-03T11:33:17Z</time>
      </trkpt>
      <trkpt lat="46.64038" lon="5.60826">
        <ele>519</ele>
        <time>2023-10-03T11:33:19Z</time>
      </trkpt>
      <trkpt lat="46.64041" lon="5.60826">
        <ele>519</ele>
        <time>2023-10-03T11:33:23Z</time>
      </trkpt>
      <trkpt lat="46.64044" lon="5.60823">
        <ele>519</ele>
        <time>2023-10-03T11:33:28Z</time>
      </trkpt>
      <trkpt lat="46.64047" lon="5.60822">
        <ele>519</ele>
        <time>2023-10-03T11:33:30Z</time>
      </trkpt>
      <trkpt lat="46.64049" lon="5.60823">
        <ele>519</ele>
        <time>2023-10-03T11:33:33Z</time>
      </trkpt>
      <trkpt lat="46.64052" lon="5.60824">
        <ele>519</ele>
        <time>2023-10-03T11:33:36Z</time>
      </trkpt>
      <trkpt lat="46.64055" lon="5.60825">
        <ele>519</ele>
        <time>2023-10-03T11:33:38Z</time>
      </trkpt>
      <trkpt lat="46.64058" lon="5.60827">
        <ele>518</ele>
        <time>2023-10-03T11:33:41Z</time>
      </trkpt>
      <trkpt lat="46.64061" lon="5.60828">
        <ele>518</ele>
        <time>2023-10-03T11:33:44Z</time>
      </trkpt>
      <trkpt lat="46.64064" lon="5.60829">
        <ele>518</ele>
        <time>2023-10-03T11:33:47Z</time>
      </trkpt>
      <trkpt lat="46.64066" lon="5.6083">
        <ele>518</ele>
        <time>2023-10-03T11:33:52Z</time>
      </trkpt>
      <trkpt lat="46.6407" lon="5.6083">
        <ele>518</ele>
        <time>2023-10-03T11:33:56Z</time>
      </trkpt>
      <trkpt lat="46.64073" lon="5.6083">
        <ele>518</ele>
        <time>2023-10-03T11:34:01Z</time>
      </trkpt>
      <trkpt lat="46.64075" lon="5.60829">
        <ele>518</ele>
        <time>2023-10-03T11:34:05Z</time>
      </trkpt>
      <trkpt lat="46.64078" lon="5.60829">
        <ele>518</ele>
        <time>2023-10-03T11:34:12Z</time>
      </trkpt>
      <trkpt lat="46.64081" lon="5.60827">
        <ele>518</ele>
        <time>2023-10-03T11:34:15Z</time>
      </trkpt>
      <trkpt lat="46.64084" lon="5.60825">
        <ele>518</ele>
        <time>2023-10-03T11:34:18Z</time>
      </trkpt>
      <trkpt lat="46.64087" lon="5.60823">
        <ele>518</ele>
        <time>2023-10-03T11:34:21Z</time>
      </trkpt>
      <trkpt lat="46.64091" lon="5.60822">
        <ele>518</ele>
        <time>2023-10-03T11:34:25Z</time>
      </trkpt>
      <trkpt lat="46.64094" lon="5.60822">
        <ele>517</ele>
        <time>2023-10-03T11:34:27Z</time>
      </trkpt>
      <trkpt lat="46.64097" lon="5.60822">
        <ele>517</ele>
        <time>2023-10-03T11:34:29Z</time>
      </trkpt>
      <trkpt lat="46.64101" lon="5.60822">
        <ele>517</ele>
        <time>2023-10-03T11:34:32Z</time>
      </trkpt>
      <trkpt lat="46.64104" lon="5.60822">
        <ele>517</ele>
        <time>2023-10-03T11:34:34Z</time>
      </trkpt>
      <trkpt lat="46.64108" lon="5.60821">
        <ele>517</ele>
        <time>2023-10-03T11:34:36Z</time>
      </trkpt>
      <trkpt lat="46.64111" lon="5.60821">
        <ele>516</ele>
        <time>2023-10-03T11:34:39Z</time>
      </trkpt>
      <trkpt lat="46.64114" lon="5.60821">
        <ele>516</ele>
        <time>2023-10-03T11:34:42Z</time>
      </trkpt>
      <trkpt lat="46.64117" lon="5.6082">
        <ele>516</ele>
        <time>2023-10-03T11:34:45Z</time>
      </trkpt>
      <trkpt lat="46.64121" lon="5.6082">
        <ele>516</ele>
        <time>2023-10-03T11:34:49Z</time>
      </trkpt>
      <trkpt lat="46.64124" lon="5.6082">
        <ele>515</ele>
        <time>2023-10-03T11:34:54Z</time>
      </trkpt>
      <trkpt lat="46.64127" lon="5.6082">
        <ele>515</ele>
        <time>2023-10-03T11:34:57Z</time>
      </trkpt>
      <trkpt lat="46.64131" lon="5.6082">
        <ele>515</ele>
        <time>2023-10-03T11:35:01Z</time>
      </trkpt>
      <trkpt lat="46.64134" lon="5.6082">
        <ele>515</ele>
        <time>2023-10-03T11:35:04Z</time>
      </trkpt>
      <trkpt lat="46.64137" lon="5.6082">
        <ele>514</ele>
        <time>2023-10-03T11:35:07Z</time>
      </trkpt>
      <trkpt lat="46.64141" lon="5.6082">
        <ele>514</ele>
        <time>2023-10-03T11:35:10Z</time>
      </trkpt>
      <trkpt lat="46.64144" lon="5.6082">
        <ele>514</ele>
        <time>2023-10-03T11:35:12Z</time>
      </trkpt>
      <trkpt lat="46.64148" lon="5.60819">
        <ele>514</ele>
        <time>2023-10-03T11:35:14Z</time>
      </trkpt>
      <trkpt lat="46.64152" lon="5.60819">
        <ele>514</ele>
        <time>2023-10-03T11:35:16Z</time>
      </trkpt>
      <trkpt lat="46.64155" lon="5.60818">
        <ele>513</ele>
        <time>2023-10-03T11:35:18Z</time>
      </trkpt>
      <trkpt lat="46.64158" lon="5.60819">
        <ele>513</ele>
        <time>2023-10-03T11:35:20Z</time>
      </trkpt>
      <trkpt lat="46.64162" lon="5.60819">
        <ele>513</ele>
        <time>2023-10-03T11:35:23Z</time>
      </trkpt>
      <trkpt lat="46.64164" lon="5.60819">
        <ele>513</ele>
        <time>2023-10-03T11:35:26Z</time>
      </trkpt>
      <trkpt lat="46.64168" lon="5.60818">
        <ele>513</ele>
        <time>2023-10-03T11:35:29Z</time>
      </trkpt>
      <trkpt lat="46.64171" lon="5.60817">
        <ele>513</ele>
        <time>2023-10-03T11:35:31Z</time>
      </trkpt>
      <trkpt lat="46.64174" lon="5.60817">
        <ele>513</ele>
        <time>2023-10-03T11:35:33Z</time>
      </trkpt>
      <trkpt lat="46.64178" lon="5.60816">
        <ele>513</ele>
        <time>2023-10-03T11:35:36Z</time>
      </trkpt>
      <trkpt lat="46.64181" lon="5.60815">
        <ele>513</ele>
        <time>2023-10-03T11:35:39Z</time>
      </trkpt>
      <trkpt lat="46.64185" lon="5.60815">
        <ele>513</ele>
        <time>2023-10-03T11:35:41Z</time>
      </trkpt>
      <trkpt lat="46.64188" lon="5.60815">
        <ele>513</ele>
        <time>2023-10-03T11:35:43Z</time>
      </trkpt>
      <trkpt lat="46.64192" lon="5.60815">
        <ele>513</ele>
        <time>2023-10-03T11:35:46Z</time>
      </trkpt>
      <trkpt lat="46.64194" lon="5.60816">
        <ele>512</ele>
        <time>2023-10-03T11:35:48Z</time>
      </trkpt>
      <trkpt lat="46.64197" lon="5.60817">
        <ele>512</ele>
        <time>2023-10-03T11:35:50Z</time>
      </trkpt>
      <trkpt lat="46.64201" lon="5.60818">
        <ele>512</ele>
        <time>2023-10-03T11:35:53Z</time>
      </trkpt>
      <trkpt lat="46.64204" lon="5.60818">
        <ele>512</ele>
        <time>2023-10-03T11:35:55Z</time>
      </trkpt>
      <trkpt lat="46.64207" lon="5.60818">
        <ele>512</ele>
        <time>2023-10-03T11:35:57Z</time>
      </trkpt>
      <trkpt lat="46.6421" lon="5.60818">
        <ele>512</ele>
        <time>2023-10-03T11:36:00Z</time>
      </trkpt>
      <trkpt lat="46.64214" lon="5.60818">
        <ele>512</ele>
        <time>2023-10-03T11:36:04Z</time>
      </trkpt>
      <trkpt lat="46.64217" lon="5.60817">
        <ele>512</ele>
        <time>2023-10-03T11:36:07Z</time>
      </trkpt>
      <trkpt lat="46.64221" lon="5.60817">
        <ele>512</ele>
        <time>2023-10-03T11:36:10Z</time>
      </trkpt>
      <trkpt lat="46.64225" lon="5.60817">
        <ele>512</ele>
        <time>2023-10-03T11:36:12Z</time>
      </trkpt>
      <trkpt lat="46.64228" lon="5.60816">
        <ele>512</ele>
        <time>2023-10-03T11:36:15Z</time>
      </trkpt>
      <trkpt lat="46.64231" lon="5.60817">
        <ele>512</ele>
        <time>2023-10-03T11:36:18Z</time>
      </trkpt>
      <trkpt lat="46.64234" lon="5.60817">
        <ele>512</ele>
        <time>2023-10-03T11:36:21Z</time>
      </trkpt>
      <trkpt lat="46.64237" lon="5.60818">
        <ele>512</ele>
        <time>2023-10-03T11:36:23Z</time>
      </trkpt>
      <trkpt lat="46.64241" lon="5.60819">
        <ele>512</ele>
        <time>2023-10-03T11:36:25Z</time>
      </trkpt>
      <trkpt lat="46.64243" lon="5.60819">
        <ele>512</ele>
        <time>2023-10-03T11:36:28Z</time>
      </trkpt>
      <trkpt lat="46.64247" lon="5.60818">
        <ele>511</ele>
        <time>2023-10-03T11:36:31Z</time>
      </trkpt>
      <trkpt lat="46.6425" lon="5.60818">
        <ele>511</ele>
        <time>2023-10-03T11:36:34Z</time>
      </trkpt>
      <trkpt lat="46.64253" lon="5.60818">
        <ele>511</ele>
        <time>2023-10-03T11:36:39Z</time>
      </trkpt>
      <trkpt lat="46.64256" lon="5.60819">
        <ele>510</ele>
        <time>2023-10-03T11:36:43Z</time>
      </trkpt>
      <trkpt lat="46.64259" lon="5.60818">
        <ele>510</ele>
        <time>2023-10-03T11:36:49Z</time>
      </trkpt>
      <trkpt lat="46.64262" lon="5.60819">
        <ele>510</ele>
        <time>2023-10-03T11:36:53Z</time>
      </trkpt>
      <trkpt lat="46.64265" lon="5.60819">
        <ele>509</ele>
        <time>2023-10-03T11:36:56Z</time>
      </trkpt>
      <trkpt lat="46.64268" lon="5.6082">
        <ele>509</ele>
        <time>2023-10-03T11:36:59Z</time>
      </trkpt>
      <trkpt lat="46.64271" lon="5.6082">
        <ele>509</ele>
        <time>2023-10-03T11:37:02Z</time>
      </trkpt>
      <trkpt lat="46.64274" lon="5.60821">
        <ele>509</ele>
        <time>2023-10-03T11:37:06Z</time>
      </trkpt>
      <trkpt lat="46.64277" lon="5.60821">
        <ele>509</ele>
        <time>2023-10-03T11:37:09Z</time>
      </trkpt>
      <trkpt lat="46.64281" lon="5.60821">
        <ele>509</ele>
        <time>2023-10-03T11:37:12Z</time>
      </trkpt>
      <trkpt lat="46.64285" lon="5.60821">
        <ele>509</ele>
        <time>2023-10-03T11:37:15Z</time>
      </trkpt>
      <trkpt lat="46.64288" lon="5.60821">
        <ele>510</ele>
        <time>2023-10-03T11:37:17Z</time>
      </trkpt>
      <trkpt lat="46.64291" lon="5.60822">
        <ele>510</ele>
        <time>2023-10-03T11:37:19Z</time>
      </trkpt>
      <trkpt lat="46.64294" lon="5.60822">
        <ele>510</ele>
        <time>2023-10-03T11:37:21Z</time>
      </trkpt>
      <trkpt lat="46.64297" lon="5.60822">
        <ele>510</ele>
        <time>2023-10-03T11:37:23Z</time>
      </trkpt>
      <trkpt lat="46.64301" lon="5.60821">
        <ele>510</ele>
        <time>2023-10-03T11:37:26Z</time>
      </trkpt>
      <trkpt lat="46.64304" lon="5.6082">
        <ele>510</ele>
        <time>2023-10-03T11:37:29Z</time>
      </trkpt>
      <trkpt lat="46.64308" lon="5.60819">
        <ele>510</ele>
        <time>2023-10-03T11:37:32Z</time>
      </trkpt>
      <trkpt lat="46.64311" lon="5.60818">
        <ele>510</ele>
        <time>2023-10-03T11:37:36Z</time>
      </trkpt>
      <trkpt lat="46.64314" lon="5.60818">
        <ele>510</ele>
        <time>2023-10-03T11:37:40Z</time>
      </trkpt>
      <trkpt lat="46.64317" lon="5.60818">
        <ele>510</ele>
        <time>2023-10-03T11:37:43Z</time>
      </trkpt>
      <trkpt lat="46.6432" lon="5.60817">
        <ele>510</ele>
        <time>2023-10-03T11:37:46Z</time>
      </trkpt>
      <trkpt lat="46.64323" lon="5.60817">
        <ele>510</ele>
        <time>2023-10-03T11:37:50Z</time>
      </trkpt>
      <trkpt lat="46.64326" lon="5.60817">
        <ele>510</ele>
        <time>2023-10-03T11:37:53Z</time>
      </trkpt>
      <trkpt lat="46.64329" lon="5.60816">
        <ele>510</ele>
        <time>2023-10-03T11:37:55Z</time>
      </trkpt>
      <trkpt lat="46.64332" lon="5.60815">
        <ele>510</ele>
        <time>2023-10-03T11:37:57Z</time>
      </trkpt>
      <trkpt lat="46.64336" lon="5.60814">
        <ele>510</ele>
        <time>2023-10-03T11:38:00Z</time>
      </trkpt>
      <trkpt lat="46.64339" lon="5.60813">
        <ele>510</ele>
        <time>2023-10-03T11:38:03Z</time>
      </trkpt>
      <trkpt lat="46.64343" lon="5.60813">
        <ele>510</ele>
        <time>2023-10-03T11:38:06Z</time>
      </trkpt>
      <trkpt lat="46.64346" lon="5.60814">
        <ele>510</ele>
        <time>2023-10-03T11:38:09Z</time>
      </trkpt>
      <trkpt lat="46.64349" lon="5.60815">
        <ele>510</ele>
        <time>2023-10-03T11:38:12Z</time>
      </trkpt>
      <trkpt lat="46.64352" lon="5.60815">
        <ele>510</ele>
        <time>2023-10-03T11:38:15Z</time>
      </trkpt>
      <trkpt lat="46.64355" lon="5.60815">
        <ele>510</ele>
        <time>2023-10-03T11:38:19Z</time>
      </trkpt>
      <trkpt lat="46.64358" lon="5.60815">
        <ele>510</ele>
        <time>2023-10-03T11:38:34Z</time>
      </trkpt>
      <trkpt lat="46.64361" lon="5.60814">
        <ele>510</ele>
        <time>2023-10-03T11:38:36Z</time>
      </trkpt>
      <trkpt lat="46.64364" lon="5.60815">
        <ele>509</ele>
        <time>2023-10-03T11:38:41Z</time>
      </trkpt>
      <trkpt lat="46.64367" lon="5.60814">
        <ele>509</ele>
        <time>2023-10-03T11:38:45Z</time>
      </trkpt>
      <trkpt lat="46.6437" lon="5.60814">
        <ele>509</ele>
        <time>2023-10-03T11:38:48Z</time>
      </trkpt>
      <trkpt lat="46.64373" lon="5.60814">
        <ele>509</ele>
        <time>2023-10-03T11:38:50Z</time>
      </trkpt>
      <trkpt lat="46.64375" lon="5.60812">
        <ele>509</ele>
        <time>2023-10-03T11:38:56Z</time>
      </trkpt>
      <trkpt lat="46.64379" lon="5.60812">
        <ele>509</ele>
        <time>2023-10-03T11:38:59Z</time>
      </trkpt>
      <trkpt lat="46.64382" lon="5.60811">
        <ele>509</ele>
        <time>2023-10-03T11:39:01Z</time>
      </trkpt>
      <trkpt lat="46.64385" lon="5.60811">
        <ele>508</ele>
        <time>2023-10-03T11:39:03Z</time>
      </trkpt>
      <trkpt lat="46.64388" lon="5.60811">
        <ele>508</ele>
        <time>2023-10-03T11:39:05Z</time>
      </trkpt>
      <trkpt lat="46.64391" lon="5.6081">
        <ele>508</ele>
        <time>2023-10-03T11:39:08Z</time>
      </trkpt>
      <trkpt lat="46.64394" lon="5.6081">
        <ele>508</ele>
        <time>2023-10-03T11:39:10Z</time>
      </trkpt>
      <trkpt lat="46.64397" lon="5.60809">
        <ele>508</ele>
        <time>2023-10-03T11:39:15Z</time>
      </trkpt>
      <trkpt lat="46.644" lon="5.60808">
        <ele>508</ele>
        <time>2023-10-03T11:39:18Z</time>
      </trkpt>
      <trkpt lat="46.64403" lon="5.60809">
        <ele>508</ele>
        <time>2023-10-03T11:39:21Z</time>
      </trkpt>
      <trkpt lat="46.64406" lon="5.60809">
        <ele>508</ele>
        <time>2023-10-03T11:39:25Z</time>
      </trkpt>
      <trkpt lat="46.64409" lon="5.60809">
        <ele>508</ele>
        <time>2023-10-03T11:39:28Z</time>
      </trkpt>
      <trkpt lat="46.64412" lon="5.60809">
        <ele>507</ele>
        <time>2023-10-03T11:39:31Z</time>
      </trkpt>
      <trkpt lat="46.64416" lon="5.60809">
        <ele>507</ele>
        <time>2023-10-03T11:39:36Z</time>
      </trkpt>
      <trkpt lat="46.64419" lon="5.60807">
        <ele>507</ele>
        <time>2023-10-03T11:39:40Z</time>
      </trkpt>
      <trkpt lat="46.64422" lon="5.60805">
        <ele>507</ele>
        <time>2023-10-03T11:39:44Z</time>
      </trkpt>
      <trkpt lat="46.64425" lon="5.60803">
        <ele>506</ele>
        <time>2023-10-03T11:39:47Z</time>
      </trkpt>
      <trkpt lat="46.6443" lon="5.60803">
        <ele>506</ele>
        <time>2023-10-03T11:39:49Z</time>
      </trkpt>
      <trkpt lat="46.64434" lon="5.60803">
        <ele>506</ele>
        <time>2023-10-03T11:39:51Z</time>
      </trkpt>
      <trkpt lat="46.64438" lon="5.60803">
        <ele>506</ele>
        <time>2023-10-03T11:39:52Z</time>
      </trkpt>
      <trkpt lat="46.64442" lon="5.60803">
        <ele>506</ele>
        <time>2023-10-03T11:39:54Z</time>
      </trkpt>
      <trkpt lat="46.64445" lon="5.60803">
        <ele>506</ele>
        <time>2023-10-03T11:39:57Z</time>
      </trkpt>
      <trkpt lat="46.64449" lon="5.60804">
        <ele>506</ele>
        <time>2023-10-03T11:40:00Z</time>
      </trkpt>
      <trkpt lat="46.64452" lon="5.60804">
        <ele>506</ele>
        <time>2023-10-03T11:40:03Z</time>
      </trkpt>
      <trkpt lat="46.64456" lon="5.60803">
        <ele>506</ele>
        <time>2023-10-03T11:40:06Z</time>
      </trkpt>
      <trkpt lat="46.64459" lon="5.60803">
        <ele>506</ele>
        <time>2023-10-03T11:40:10Z</time>
      </trkpt>
      <trkpt lat="46.64462" lon="5.60803">
        <ele>506</ele>
        <time>2023-10-03T11:40:12Z</time>
      </trkpt>
      <trkpt lat="46.64465" lon="5.60804">
        <ele>506</ele>
        <time>2023-10-03T11:40:15Z</time>
      </trkpt>
      <trkpt lat="46.64468" lon="5.60806">
        <ele>506</ele>
        <time>2023-10-03T11:40:18Z</time>
      </trkpt>
      <trkpt lat="46.64471" lon="5.60808">
        <ele>506</ele>
        <time>2023-10-03T11:40:21Z</time>
      </trkpt>
      <trkpt lat="46.64475" lon="5.60809">
        <ele>506</ele>
        <time>2023-10-03T11:40:23Z</time>
      </trkpt>
      <trkpt lat="46.64478" lon="5.60811">
        <ele>506</ele>
        <time>2023-10-03T11:40:26Z</time>
      </trkpt>
      <trkpt lat="46.6448" lon="5.60815">
        <ele>506</ele>
        <time>2023-10-03T11:40:32Z</time>
      </trkpt>
      <trkpt lat="46.64483" lon="5.60817">
        <ele>506</ele>
        <time>2023-10-03T11:40:36Z</time>
      </trkpt>
      <trkpt lat="46.64486" lon="5.60819">
        <ele>506</ele>
        <time>2023-10-03T11:40:39Z</time>
      </trkpt>
      <trkpt lat="46.64489" lon="5.6082">
        <ele>506</ele>
        <time>2023-10-03T11:40:42Z</time>
      </trkpt>
      <trkpt lat="46.64492" lon="5.60822">
        <ele>506</ele>
        <time>2023-10-03T11:40:46Z</time>
      </trkpt>
      <trkpt lat="46.64495" lon="5.60824">
        <ele>506</ele>
        <time>2023-10-03T11:40:49Z</time>
      </trkpt>
      <trkpt lat="46.64498" lon="5.60826">
        <ele>506</ele>
        <time>2023-10-03T11:40:52Z</time>
      </trkpt>
      <trkpt lat="46.64501" lon="5.60828">
        <ele>506</ele>
        <time>2023-10-03T11:40:56Z</time>
      </trkpt>
      <trkpt lat="46.64504" lon="5.60831">
        <ele>506</ele>
        <time>2023-10-03T11:40:59Z</time>
      </trkpt>
      <trkpt lat="46.64507" lon="5.60834">
        <ele>506</ele>
        <time>2023-10-03T11:41:04Z</time>
      </trkpt>
      <trkpt lat="46.64509" lon="5.60836">
        <ele>506</ele>
        <time>2023-10-03T11:41:07Z</time>
      </trkpt>
      <trkpt lat="46.64512" lon="5.60837">
        <ele>506</ele>
        <time>2023-10-03T11:41:09Z</time>
      </trkpt>
      <trkpt lat="46.64515" lon="5.60838">
        <ele>506</ele>
        <time>2023-10-03T11:41:11Z</time>
      </trkpt>
      <trkpt lat="46.64518" lon="5.60839">
        <ele>506</ele>
        <time>2023-10-03T11:41:13Z</time>
      </trkpt>
      <trkpt lat="46.64521" lon="5.6084">
        <ele>506</ele>
        <time>2023-10-03T11:41:16Z</time>
      </trkpt>
      <trkpt lat="46.64524" lon="5.60841">
        <ele>506</ele>
        <time>2023-10-03T11:41:18Z</time>
      </trkpt>
      <trkpt lat="46.64527" lon="5.60842">
        <ele>506</ele>
        <time>2023-10-03T11:41:20Z</time>
      </trkpt>
      <trkpt lat="46.64529" lon="5.60844">
        <ele>506</ele>
        <time>2023-10-03T11:41:23Z</time>
      </trkpt>
      <trkpt lat="46.64532" lon="5.60844">
        <ele>506</ele>
        <time>2023-10-03T11:41:26Z</time>
      </trkpt>
      <trkpt lat="46.64535" lon="5.60846">
        <ele>506</ele>
        <time>2023-10-03T11:41:31Z</time>
      </trkpt>
      <trkpt lat="46.64538" lon="5.60848">
        <ele>506</ele>
        <time>2023-10-03T11:41:33Z</time>
      </trkpt>
      <trkpt lat="46.64541" lon="5.6085">
        <ele>506</ele>
        <time>2023-10-03T11:41:37Z</time>
      </trkpt>
      <trkpt lat="46.64544" lon="5.60852">
        <ele>506</ele>
        <time>2023-10-03T11:41:40Z</time>
      </trkpt>
      <trkpt lat="46.64547" lon="5.60854">
        <ele>506</ele>
        <time>2023-10-03T11:41:44Z</time>
      </trkpt>
      <trkpt lat="46.6455" lon="5.60856">
        <ele>506</ele>
        <time>2023-10-03T11:41:46Z</time>
      </trkpt>
      <trkpt lat="46.64554" lon="5.60857">
        <ele>506</ele>
        <time>2023-10-03T11:41:49Z</time>
      </trkpt>
      <trkpt lat="46.64557" lon="5.60858">
        <ele>506</ele>
        <time>2023-10-03T11:41:51Z</time>
      </trkpt>
      <trkpt lat="46.64561" lon="5.6086">
        <ele>506</ele>
        <time>2023-10-03T11:41:54Z</time>
      </trkpt>
      <trkpt lat="46.64564" lon="5.60862">
        <ele>506</ele>
        <time>2023-10-03T11:41:56Z</time>
      </trkpt>
      <trkpt lat="46.64567" lon="5.60863">
        <ele>506</ele>
        <time>2023-10-03T11:41:58Z</time>
      </trkpt>
      <trkpt lat="46.6457" lon="5.60864">
        <ele>506</ele>
        <time>2023-10-03T11:42:00Z</time>
      </trkpt>
      <trkpt lat="46.64573" lon="5.60866">
        <ele>505</ele>
        <time>2023-10-03T11:42:02Z</time>
      </trkpt>
      <trkpt lat="46.64576" lon="5.60868">
        <ele>505</ele>
        <time>2023-10-03T11:42:04Z</time>
      </trkpt>
      <trkpt lat="46.64579" lon="5.60871">
        <ele>505</ele>
        <time>2023-10-03T11:42:07Z</time>
      </trkpt>
      <trkpt lat="46.64581" lon="5.60874">
        <ele>505</ele>
        <time>2023-10-03T11:42:09Z</time>
      </trkpt>
      <trkpt lat="46.64583" lon="5.60877">
        <ele>505</ele>
        <time>2023-10-03T11:42:11Z</time>
      </trkpt>
      <trkpt lat="46.64585" lon="5.6088">
        <ele>505</ele>
        <time>2023-10-03T11:42:16Z</time>
      </trkpt>
      <trkpt lat="46.64588" lon="5.60883">
        <ele>505</ele>
        <time>2023-10-03T11:42:19Z</time>
      </trkpt>
      <trkpt lat="46.6459" lon="5.60886">
        <ele>504</ele>
        <time>2023-10-03T11:42:22Z</time>
      </trkpt>
      <trkpt lat="46.64592" lon="5.60888">
        <ele>504</ele>
        <time>2023-10-03T11:42:24Z</time>
      </trkpt>
      <trkpt lat="46.64595" lon="5.60889">
        <ele>504</ele>
        <time>2023-10-03T11:42:26Z</time>
      </trkpt>
      <trkpt lat="46.64597" lon="5.60891">
        <ele>504</ele>
        <time>2023-10-03T11:42:28Z</time>
      </trkpt>
      <trkpt lat="46.646" lon="5.60893">
        <ele>504</ele>
        <time>2023-10-03T11:42:31Z</time>
      </trkpt>
      <trkpt lat="46.64603" lon="5.60895">
        <ele>504</ele>
        <time>2023-10-03T11:42:35Z</time>
      </trkpt>
      <trkpt lat="46.64605" lon="5.60899">
        <ele>504</ele>
        <time>2023-10-03T11:42:38Z</time>
      </trkpt>
      <trkpt lat="46.64604" lon="5.60904">
        <ele>503</ele>
        <time>2023-10-03T11:42:44Z</time>
      </trkpt>
      <trkpt lat="46.64604" lon="5.60909">
        <ele>503</ele>
        <time>2023-10-03T11:42:47Z</time>
      </trkpt>
      <trkpt lat="46.64603" lon="5.60914">
        <ele>503</ele>
        <time>2023-10-03T11:42:49Z</time>
      </trkpt>
      <trkpt lat="46.64602" lon="5.60919">
        <ele>503</ele>
        <time>2023-10-03T11:42:51Z</time>
      </trkpt>
      <trkpt lat="46.64601" lon="5.60924">
        <ele>503</ele>
        <time>2023-10-03T11:42:53Z</time>
      </trkpt>
      <trkpt lat="46.64601" lon="5.60928">
        <ele>503</ele>
        <time>2023-10-03T11:42:56Z</time>
      </trkpt>
      <trkpt lat="46.64601" lon="5.60932">
        <ele>503</ele>
        <time>2023-10-03T11:42:59Z</time>
      </trkpt>
      <trkpt lat="46.64598" lon="5.60934">
        <ele>503</ele>
        <time>2023-10-03T11:43:12Z</time>
      </trkpt>
      <trkpt lat="46.64598" lon="5.60937">
        <ele>503</ele>
        <time>2023-10-03T11:43:21Z</time>
      </trkpt>
      <trkpt lat="46.64597" lon="5.60939">
        <ele>503</ele>
        <time>2023-10-03T11:43:33Z</time>
      </trkpt>
      <trkpt lat="46.64598" lon="5.6094">
        <ele>503</ele>
        <time>2023-10-03T11:43:36Z</time>
      </trkpt>
      <trkpt lat="46.64601" lon="5.6094">
        <ele>503</ele>
        <time>2023-10-03T11:43:39Z</time>
      </trkpt>
      <trkpt lat="46.64604" lon="5.60941">
        <ele>503</ele>
        <time>2023-10-03T11:43:44Z</time>
      </trkpt>
      <trkpt lat="46.64603" lon="5.6094">
        <ele>503</ele>
        <time>2023-10-03T11:43:55Z</time>
      </trkpt>
      <trkpt lat="46.64602" lon="5.60937">
        <ele>503</ele>
        <time>2023-10-03T11:43:58Z</time>
      </trkpt>
      <trkpt lat="46.646" lon="5.60934">
        <ele>503</ele>
        <time>2023-10-03T11:44:02Z</time>
      </trkpt>
      <trkpt lat="46.64598" lon="5.60931">
        <ele>503</ele>
        <time>2023-10-03T11:44:57Z</time>
      </trkpt>
      <trkpt lat="46.646" lon="5.60928">
        <ele>503</ele>
        <time>2023-10-03T11:45:04Z</time>
      </trkpt>
      <trkpt lat="46.64602" lon="5.60928">
        <ele>503</ele>
        <time>2023-10-03T11:45:07Z</time>
      </trkpt>
      <trkpt lat="46.64604" lon="5.60928">
        <ele>502</ele>
        <time>2023-10-03T11:45:09Z</time>
      </trkpt>
      <trkpt lat="46.64607" lon="5.60928">
        <ele>502</ele>
        <time>2023-10-03T11:45:11Z</time>
      </trkpt>
      <trkpt lat="46.6461" lon="5.60929">
        <ele>502</ele>
        <time>2023-10-03T11:45:13Z</time>
      </trkpt>
      <trkpt lat="46.64614" lon="5.60931">
        <ele>501</ele>
        <time>2023-10-03T11:45:16Z</time>
      </trkpt>
      <trkpt lat="46.64617" lon="5.60933">
        <ele>501</ele>
        <time>2023-10-03T11:45:20Z</time>
      </trkpt>
      <trkpt lat="46.64619" lon="5.60935">
        <ele>501</ele>
        <time>2023-10-03T11:45:23Z</time>
      </trkpt>
      <trkpt lat="46.64622" lon="5.60936">
        <ele>500</ele>
        <time>2023-10-03T11:45:26Z</time>
      </trkpt>
      <trkpt lat="46.64625" lon="5.60937">
        <ele>500</ele>
        <time>2023-10-03T11:45:29Z</time>
      </trkpt>
      <trkpt lat="46.6463" lon="5.6094">
        <ele>499</ele>
        <time>2023-10-03T11:45:37Z</time>
      </trkpt>
      <trkpt lat="46.64633" lon="5.60942">
        <ele>499</ele>
        <time>2023-10-03T11:45:40Z</time>
      </trkpt>
      <trkpt lat="46.64636" lon="5.60945">
        <ele>499</ele>
        <time>2023-10-03T11:45:43Z</time>
      </trkpt>
      <trkpt lat="46.64639" lon="5.60948">
        <ele>499</ele>
        <time>2023-10-03T11:45:46Z</time>
      </trkpt>
      <trkpt lat="46.64642" lon="5.6095">
        <ele>499</ele>
        <time>2023-10-03T11:45:49Z</time>
      </trkpt>
      <trkpt lat="46.64645" lon="5.60951">
        <ele>499</ele>
        <time>2023-10-03T11:45:52Z</time>
      </trkpt>
      <trkpt lat="46.64648" lon="5.60952">
        <ele>499</ele>
        <time>2023-10-03T11:45:55Z</time>
      </trkpt>
      <trkpt lat="46.64651" lon="5.60954">
        <ele>499</ele>
        <time>2023-10-03T11:45:58Z</time>
      </trkpt>
      <trkpt lat="46.64654" lon="5.60956">
        <ele>499</ele>
        <time>2023-10-03T11:46:00Z</time>
      </trkpt>
      <trkpt lat="46.64657" lon="5.60958">
        <ele>499</ele>
        <time>2023-10-03T11:46:02Z</time>
      </trkpt>
      <trkpt lat="46.6466" lon="5.6096">
        <ele>499</ele>
        <time>2023-10-03T11:46:04Z</time>
      </trkpt>
      <trkpt lat="46.64663" lon="5.60963">
        <ele>498</ele>
        <time>2023-10-03T11:46:07Z</time>
      </trkpt>
      <trkpt lat="46.64665" lon="5.60966">
        <ele>498</ele>
        <time>2023-10-03T11:46:10Z</time>
      </trkpt>
      <trkpt lat="46.64668" lon="5.60969">
        <ele>498</ele>
        <time>2023-10-03T11:46:13Z</time>
      </trkpt>
      <trkpt lat="46.64671" lon="5.6097">
        <ele>498</ele>
        <time>2023-10-03T11:46:15Z</time>
      </trkpt>
      <trkpt lat="46.64674" lon="5.60971">
        <ele>498</ele>
        <time>2023-10-03T11:46:17Z</time>
      </trkpt>
      <trkpt lat="46.64677" lon="5.6097">
        <ele>498</ele>
        <time>2023-10-03T11:46:20Z</time>
      </trkpt>
      <trkpt lat="46.64681" lon="5.6097">
        <ele>498</ele>
        <time>2023-10-03T11:46:23Z</time>
      </trkpt>
      <trkpt lat="46.64684" lon="5.60969">
        <ele>498</ele>
        <time>2023-10-03T11:46:25Z</time>
      </trkpt>
      <trkpt lat="46.64687" lon="5.60969">
        <ele>498</ele>
        <time>2023-10-03T11:46:28Z</time>
      </trkpt>
      <trkpt lat="46.6469" lon="5.60966">
        <ele>498</ele>
        <time>2023-10-03T11:46:31Z</time>
      </trkpt>
      <trkpt lat="46.64693" lon="5.60964">
        <ele>497</ele>
        <time>2023-10-03T11:46:34Z</time>
      </trkpt>
      <trkpt lat="46.64695" lon="5.60961">
        <ele>497</ele>
        <time>2023-10-03T11:46:37Z</time>
      </trkpt>
      <trkpt lat="46.64698" lon="5.60958">
        <ele>497</ele>
        <time>2023-10-03T11:46:40Z</time>
      </trkpt>
      <trkpt lat="46.64701" lon="5.60956">
        <ele>496</ele>
        <time>2023-10-03T11:46:42Z</time>
      </trkpt>
      <trkpt lat="46.64704" lon="5.60953">
        <ele>496</ele>
        <time>2023-10-03T11:46:44Z</time>
      </trkpt>
      <trkpt lat="46.64707" lon="5.60951">
        <ele>496</ele>
        <time>2023-10-03T11:46:47Z</time>
      </trkpt>
      <trkpt lat="46.6471" lon="5.60949">
        <ele>495</ele>
        <time>2023-10-03T11:46:52Z</time>
      </trkpt>
      <trkpt lat="46.64713" lon="5.60948">
        <ele>495</ele>
        <time>2023-10-03T11:46:57Z</time>
      </trkpt>
      <trkpt lat="46.64716" lon="5.60945">
        <ele>494</ele>
        <time>2023-10-03T11:47:03Z</time>
      </trkpt>
      <trkpt lat="46.64718" lon="5.60943">
        <ele>494</ele>
        <time>2023-10-03T11:47:06Z</time>
      </trkpt>
      <trkpt lat="46.6472" lon="5.60939">
        <ele>493</ele>
        <time>2023-10-03T11:47:11Z</time>
      </trkpt>
      <trkpt lat="46.64722" lon="5.60934">
        <ele>493</ele>
        <time>2023-10-03T11:47:14Z</time>
      </trkpt>
      <trkpt lat="46.64722" lon="5.6093">
        <ele>492</ele>
        <time>2023-10-03T11:47:17Z</time>
      </trkpt>
      <trkpt lat="46.64723" lon="5.60925">
        <ele>492</ele>
        <time>2023-10-03T11:47:19Z</time>
      </trkpt>
      <trkpt lat="46.64725" lon="5.60922">
        <ele>492</ele>
        <time>2023-10-03T11:47:21Z</time>
      </trkpt>
      <trkpt lat="46.64726" lon="5.60918">
        <ele>491</ele>
        <time>2023-10-03T11:47:24Z</time>
      </trkpt>
      <trkpt lat="46.64727" lon="5.60913">
        <ele>491</ele>
        <time>2023-10-03T11:47:29Z</time>
      </trkpt>
      <trkpt lat="46.64728" lon="5.60909">
        <ele>490</ele>
        <time>2023-10-03T11:47:32Z</time>
      </trkpt>
      <trkpt lat="46.6473" lon="5.60905">
        <ele>490</ele>
        <time>2023-10-03T11:47:34Z</time>
      </trkpt>
      <trkpt lat="46.64731" lon="5.60901">
        <ele>489</ele>
        <time>2023-10-03T11:47:37Z</time>
      </trkpt>
      <trkpt lat="46.64733" lon="5.60897">
        <ele>489</ele>
        <time>2023-10-03T11:47:42Z</time>
      </trkpt>
      <trkpt lat="46.64734" lon="5.60892">
        <ele>488</ele>
        <time>2023-10-03T11:47:46Z</time>
      </trkpt>
      <trkpt lat="46.64736" lon="5.60888">
        <ele>487</ele>
        <time>2023-10-03T11:47:51Z</time>
      </trkpt>
      <trkpt lat="46.64737" lon="5.60883">
        <ele>486</ele>
        <time>2023-10-03T11:47:59Z</time>
      </trkpt>
      <trkpt lat="46.64738" lon="5.60879">
        <ele>486</ele>
        <time>2023-10-03T11:48:03Z</time>
      </trkpt>
      <trkpt lat="46.6474" lon="5.60876">
        <ele>485</ele>
        <time>2023-10-03T11:48:07Z</time>
      </trkpt>
      <trkpt lat="46.64742" lon="5.60872">
        <ele>485</ele>
        <time>2023-10-03T11:48:11Z</time>
      </trkpt>
      <trkpt lat="46.64742" lon="5.60867">
        <ele>484</ele>
        <time>2023-10-03T11:48:14Z</time>
      </trkpt>
      <trkpt lat="46.64743" lon="5.60861">
        <ele>484</ele>
        <time>2023-10-03T11:48:17Z</time>
      </trkpt>
      <trkpt lat="46.64743" lon="5.60856">
        <ele>483</ele>
        <time>2023-10-03T11:48:19Z</time>
      </trkpt>
      <trkpt lat="46.64744" lon="5.60852">
        <ele>483</ele>
        <time>2023-10-03T11:48:21Z</time>
      </trkpt>
      <trkpt lat="46.64744" lon="5.60848">
        <ele>483</ele>
        <time>2023-10-03T11:48:23Z</time>
      </trkpt>
      <trkpt lat="46.64745" lon="5.60844">
        <ele>482</ele>
        <time>2023-10-03T11:48:26Z</time>
      </trkpt>
      <trkpt lat="46.64748" lon="5.60841">
        <ele>482</ele>
        <time>2023-10-03T11:48:29Z</time>
      </trkpt>
      <trkpt lat="46.6475" lon="5.60837">
        <ele>482</ele>
        <time>2023-10-03T11:48:32Z</time>
      </trkpt>
      <trkpt lat="46.64752" lon="5.60834">
        <ele>481</ele>
        <time>2023-10-03T11:48:35Z</time>
      </trkpt>
      <trkpt lat="46.64754" lon="5.60831">
        <ele>481</ele>
        <time>2023-10-03T11:48:39Z</time>
      </trkpt>
      <trkpt lat="46.64757" lon="5.60828">
        <ele>481</ele>
        <time>2023-10-03T11:48:44Z</time>
      </trkpt>
      <trkpt lat="46.64759" lon="5.60825">
        <ele>480</ele>
        <time>2023-10-03T11:48:48Z</time>
      </trkpt>
      <trkpt lat="46.6476" lon="5.60821">
        <ele>480</ele>
        <time>2023-10-03T11:48:50Z</time>
      </trkpt>
      <trkpt lat="46.64761" lon="5.60817">
        <ele>480</ele>
        <time>2023-10-03T11:48:54Z</time>
      </trkpt>
      <trkpt lat="46.64762" lon="5.60812">
        <ele>480</ele>
        <time>2023-10-03T11:48:56Z</time>
      </trkpt>
      <trkpt lat="46.64762" lon="5.60808">
        <ele>479</ele>
        <time>2023-10-03T11:48:58Z</time>
      </trkpt>
      <trkpt lat="46.64763" lon="5.60803">
        <ele>479</ele>
        <time>2023-10-03T11:49:01Z</time>
      </trkpt>
      <trkpt lat="46.64764" lon="5.60798">
        <ele>479</ele>
        <time>2023-10-03T11:49:04Z</time>
      </trkpt>
      <trkpt lat="46.64765" lon="5.60793">
        <ele>478</ele>
        <time>2023-10-03T11:49:07Z</time>
      </trkpt>
      <trkpt lat="46.64766" lon="5.60789">
        <ele>478</ele>
        <time>2023-10-03T11:49:11Z</time>
      </trkpt>
      <trkpt lat="46.64769" lon="5.60785">
        <ele>477</ele>
        <time>2023-10-03T11:49:16Z</time>
      </trkpt>
      <trkpt lat="46.64771" lon="5.60783">
        <ele>476</ele>
        <time>2023-10-03T11:49:21Z</time>
      </trkpt>
      <trkpt lat="46.64772" lon="5.6078">
        <ele>475</ele>
        <time>2023-10-03T11:49:27Z</time>
      </trkpt>
      <trkpt lat="46.6477" lon="5.60778">
        <ele>474</ele>
        <time>2023-10-03T11:49:37Z</time>
      </trkpt>
      <trkpt lat="46.64768" lon="5.60777">
        <ele>474</ele>
        <time>2023-10-03T11:49:41Z</time>
      </trkpt>
      <trkpt lat="46.64766" lon="5.60778">
        <ele>473</ele>
        <time>2023-10-03T11:49:45Z</time>
      </trkpt>
      <trkpt lat="46.64763" lon="5.60778">
        <ele>473</ele>
        <time>2023-10-03T11:49:50Z</time>
      </trkpt>
      <trkpt lat="46.6476" lon="5.6078">
        <ele>472</ele>
        <time>2023-10-03T11:49:54Z</time>
      </trkpt>
      <trkpt lat="46.64757" lon="5.60782">
        <ele>472</ele>
        <time>2023-10-03T11:49:59Z</time>
      </trkpt>
      <trkpt lat="46.64755" lon="5.60784">
        <ele>472</ele>
        <time>2023-10-03T11:50:02Z</time>
      </trkpt>
      <trkpt lat="46.64752" lon="5.60787">
        <ele>472</ele>
        <time>2023-10-03T11:50:05Z</time>
      </trkpt>
      <trkpt lat="46.64749" lon="5.6079">
        <ele>471</ele>
        <time>2023-10-03T11:50:08Z</time>
      </trkpt>
      <trkpt lat="46.64746" lon="5.60792">
        <ele>471</ele>
        <time>2023-10-03T11:50:12Z</time>
      </trkpt>
      <trkpt lat="46.64743" lon="5.60794">
        <ele>471</ele>
        <time>2023-10-03T11:50:15Z</time>
      </trkpt>
      <trkpt lat="46.64741" lon="5.60796">
        <ele>471</ele>
        <time>2023-10-03T11:50:17Z</time>
      </trkpt>
      <trkpt lat="46.64738" lon="5.60799">
        <ele>470</ele>
        <time>2023-10-03T11:50:19Z</time>
      </trkpt>
      <trkpt lat="46.64736" lon="5.60803">
        <ele>470</ele>
        <time>2023-10-03T11:50:23Z</time>
      </trkpt>
      <trkpt lat="46.64734" lon="5.60807">
        <ele>470</ele>
        <time>2023-10-03T11:50:25Z</time>
      </trkpt>
      <trkpt lat="46.64731" lon="5.60809">
        <ele>469</ele>
        <time>2023-10-03T11:50:27Z</time>
      </trkpt>
      <trkpt lat="46.64728" lon="5.60811">
        <ele>469</ele>
        <time>2023-10-03T11:50:30Z</time>
      </trkpt>
      <trkpt lat="46.64725" lon="5.60814">
        <ele>468</ele>
        <time>2023-10-03T11:50:34Z</time>
      </trkpt>
      <trkpt lat="46.64722" lon="5.60816">
        <ele>468</ele>
        <time>2023-10-03T11:50:36Z</time>
      </trkpt>
      <trkpt lat="46.64719" lon="5.60819">
        <ele>468</ele>
        <time>2023-10-03T11:50:38Z</time>
      </trkpt>
      <trkpt lat="46.64717" lon="5.60821">
        <ele>468</ele>
        <time>2023-10-03T11:50:40Z</time>
      </trkpt>
      <trkpt lat="46.64714" lon="5.60823">
        <ele>468</ele>
        <time>2023-10-03T11:50:43Z</time>
      </trkpt>
      <trkpt lat="46.64712" lon="5.60826">
        <ele>467</ele>
        <time>2023-10-03T11:50:49Z</time>
      </trkpt>
      <trkpt lat="46.64709" lon="5.60831">
        <ele>467</ele>
        <time>2023-10-03T11:50:56Z</time>
      </trkpt>
      <trkpt lat="46.64707" lon="5.60836">
        <ele>467</ele>
        <time>2023-10-03T11:50:58Z</time>
      </trkpt>
      <trkpt lat="46.64707" lon="5.6084">
        <ele>467</ele>
        <time>2023-10-03T11:50:59Z</time>
      </trkpt>
      <trkpt lat="46.64706" lon="5.60844">
        <ele>467</ele>
        <time>2023-10-03T11:51:01Z</time>
      </trkpt>
      <trkpt lat="46.64704" lon="5.60847">
        <ele>467</ele>
        <time>2023-10-03T11:51:03Z</time>
      </trkpt>
      <trkpt lat="46.64702" lon="5.60849">
        <ele>467</ele>
        <time>2023-10-03T11:51:05Z</time>
      </trkpt>
      <trkpt lat="46.64699" lon="5.60851">
        <ele>467</ele>
        <time>2023-10-03T11:51:08Z</time>
      </trkpt>
      <trkpt lat="46.64696" lon="5.60854">
        <ele>466</ele>
        <time>2023-10-03T11:51:15Z</time>
      </trkpt>
      <trkpt lat="46.64693" lon="5.60855">
        <ele>465</ele>
        <time>2023-10-03T11:51:20Z</time>
      </trkpt>
      <trkpt lat="46.6469" lon="5.60856">
        <ele>463</ele>
        <time>2023-10-03T11:51:26Z</time>
      </trkpt>
      <trkpt lat="46.64691" lon="5.60858">
        <ele>463</ele>
        <time>2023-10-03T11:51:32Z</time>
      </trkpt>
      <trkpt lat="46.64693" lon="5.60861">
        <ele>463</ele>
        <time>2023-10-03T11:51:34Z</time>
      </trkpt>
      <trkpt lat="46.64697" lon="5.60865">
        <ele>463</ele>
        <time>2023-10-03T11:51:35Z</time>
      </trkpt>
      <trkpt lat="46.64699" lon="5.60869">
        <ele>463</ele>
        <time>2023-10-03T11:51:37Z</time>
      </trkpt>
      <trkpt lat="46.64698" lon="5.60869">
        <ele>463</ele>
        <time>2023-10-03T11:52:09Z</time>
      </trkpt>
      <trkpt lat="46.64698" lon="5.60867">
        <ele>463</ele>
        <time>2023-10-03T11:52:14Z</time>
      </trkpt>
      <trkpt lat="46.647" lon="5.60863">
        <ele>463</ele>
        <time>2023-10-03T11:52:33Z</time>
      </trkpt>
      <trkpt lat="46.647" lon="5.60863">
        <ele>462</ele>
        <time>2023-10-03T11:52:37Z</time>
      </trkpt>
      <trkpt lat="46.64698" lon="5.60862">
        <ele>461</ele>
        <time>2023-10-03T11:52:41Z</time>
      </trkpt>
      <trkpt lat="46.64695" lon="5.60858">
        <ele>461</ele>
        <time>2023-10-03T11:52:45Z</time>
      </trkpt>
      <trkpt lat="46.64692" lon="5.60854">
        <ele>460</ele>
        <time>2023-10-03T11:52:49Z</time>
      </trkpt>
      <trkpt lat="46.64689" lon="5.60851">
        <ele>459</ele>
        <time>2023-10-03T11:52:51Z</time>
      </trkpt>
      <trkpt lat="46.64687" lon="5.60847">
        <ele>459</ele>
        <time>2023-10-03T11:52:53Z</time>
      </trkpt>
      <trkpt lat="46.64684" lon="5.60846">
        <ele>458</ele>
        <time>2023-10-03T11:52:58Z</time>
      </trkpt>
      <trkpt lat="46.64681" lon="5.60845">
        <ele>457</ele>
        <time>2023-10-03T11:53:03Z</time>
      </trkpt>
      <trkpt lat="46.6468" lon="5.60842">
        <ele>456</ele>
        <time>2023-10-03T11:53:09Z</time>
      </trkpt>
      <trkpt lat="46.6468" lon="5.60838">
        <ele>456</ele>
        <time>2023-10-03T11:53:13Z</time>
      </trkpt>
      <trkpt lat="46.64682" lon="5.60836">
        <ele>455</ele>
        <time>2023-10-03T11:53:16Z</time>
      </trkpt>
      <trkpt lat="46.64684" lon="5.60834">
        <ele>455</ele>
        <time>2023-10-03T11:53:19Z</time>
      </trkpt>
      <trkpt lat="46.64687" lon="5.60832">
        <ele>454</ele>
        <time>2023-10-03T11:53:26Z</time>
      </trkpt>
      <trkpt lat="46.6469" lon="5.60831">
        <ele>453</ele>
        <time>2023-10-03T11:53:30Z</time>
      </trkpt>
      <trkpt lat="46.64692" lon="5.60831">
        <ele>452</ele>
        <time>2023-10-03T11:53:35Z</time>
      </trkpt>
      <trkpt lat="46.64695" lon="5.6083">
        <ele>452</ele>
        <time>2023-10-03T11:53:42Z</time>
      </trkpt>
      <trkpt lat="46.64696" lon="5.60828">
        <ele>451</ele>
        <time>2023-10-03T11:53:54Z</time>
      </trkpt>
      <trkpt lat="46.64694" lon="5.60825">
        <ele>451</ele>
        <time>2023-10-03T11:53:58Z</time>
      </trkpt>
      <trkpt lat="46.64692" lon="5.60822">
        <ele>450</ele>
        <time>2023-10-03T11:54:08Z</time>
      </trkpt>
      <trkpt lat="46.64689" lon="5.60819">
        <ele>450</ele>
        <time>2023-10-03T11:54:14Z</time>
      </trkpt>
      <trkpt lat="46.64687" lon="5.6082">
        <ele>449</ele>
        <time>2023-10-03T11:54:17Z</time>
      </trkpt>
      <trkpt lat="46.64686" lon="5.60823">
        <ele>448</ele>
        <time>2023-10-03T11:54:24Z</time>
      </trkpt>
      <trkpt lat="46.64685" lon="5.60821">
        <ele>447</ele>
        <time>2023-10-03T11:54:31Z</time>
      </trkpt>
      <trkpt lat="46.64684" lon="5.60818">
        <ele>447</ele>
        <time>2023-10-03T11:54:35Z</time>
      </trkpt>
      <trkpt lat="46.64686" lon="5.60815">
        <ele>447</ele>
        <time>2023-10-03T11:54:37Z</time>
      </trkpt>
      <trkpt lat="46.64689" lon="5.60814">
        <ele>447</ele>
        <time>2023-10-03T11:54:43Z</time>
      </trkpt>
      <trkpt lat="46.64692" lon="5.60813">
        <ele>447</ele>
        <time>2023-10-03T11:54:51Z</time>
      </trkpt>
      <trkpt lat="46.64693" lon="5.60809">
        <ele>446</ele>
        <time>2023-10-03T11:54:56Z</time>
      </trkpt>
      <trkpt lat="46.64693" lon="5.60804">
        <ele>446</ele>
        <time>2023-10-03T11:54:59Z</time>
      </trkpt>
      <trkpt lat="46.64693" lon="5.60799">
        <ele>446</ele>
        <time>2023-10-03T11:55:00Z</time>
      </trkpt>
      <trkpt lat="46.64705" lon="5.60789">
        <ele>446</ele>
        <time>2023-10-03T11:55:01Z</time>
      </trkpt>
      <trkpt lat="46.64711" lon="5.60781">
        <ele>446</ele>
        <time>2023-10-03T11:55:02Z</time>
      </trkpt>
      <trkpt lat="46.64714" lon="5.60775">
        <ele>446</ele>
        <time>2023-10-03T11:55:03Z</time>
      </trkpt>
      <trkpt lat="46.647" lon="5.60735">
        <ele>428</ele>
        <time>2023-10-03T11:57:15Z</time>
      </trkpt>
      <trkpt lat="46.64692" lon="5.60724">
        <ele>428</ele>
        <time>2023-10-03T11:57:16Z</time>
      </trkpt>
      <trkpt lat="46.64687" lon="5.6072">
        <ele>427</ele>
        <time>2023-10-03T11:57:18Z</time>
      </trkpt>
      <trkpt lat="46.64685" lon="5.60715">
        <ele>427</ele>
        <time>2023-10-03T11:57:21Z</time>
      </trkpt>
      <trkpt lat="46.64684" lon="5.60711">
        <ele>426</ele>
        <time>2023-10-03T11:57:22Z</time>
      </trkpt>
      <trkpt lat="46.64683" lon="5.60714">
        <ele>426</ele>
        <time>2023-10-03T11:57:29Z</time>
      </trkpt>
      <trkpt lat="46.64682" lon="5.60717">
        <ele>427</ele>
        <time>2023-10-03T11:57:36Z</time>
      </trkpt>
      <trkpt lat="46.6468" lon="5.60719">
        <ele>426</ele>
        <time>2023-10-03T11:57:42Z</time>
      </trkpt>
      <trkpt lat="46.64679" lon="5.60722">
        <ele>426</ele>
        <time>2023-10-03T11:57:46Z</time>
      </trkpt>
      <trkpt lat="46.6468" lon="5.60722">
        <ele>426</ele>
        <time>2023-10-03T11:57:52Z</time>
      </trkpt>
      <trkpt lat="46.64678" lon="5.60721">
        <ele>426</ele>
        <time>2023-10-03T11:58:17Z</time>
      </trkpt>
      <trkpt lat="46.64678" lon="5.60717">
        <ele>426</ele>
        <time>2023-10-03T11:58:30Z</time>
      </trkpt>
      <trkpt lat="46.6468" lon="5.60713">
        <ele>425</ele>
        <time>2023-10-03T11:58:35Z</time>
      </trkpt>
      <trkpt lat="46.64683" lon="5.60714">
        <ele>425</ele>
        <time>2023-10-03T11:58:40Z</time>
      </trkpt>
      <trkpt lat="46.64686" lon="5.60714">
        <ele>425</ele>
        <time>2023-10-03T11:58:44Z</time>
      </trkpt>
      <trkpt lat="46.64688" lon="5.60711">
        <ele>424</ele>
        <time>2023-10-03T11:58:46Z</time>
      </trkpt>
      <trkpt lat="46.64689" lon="5.60708">
        <ele>424</ele>
        <time>2023-10-03T11:58:50Z</time>
      </trkpt>
      <trkpt lat="46.64691" lon="5.60704">
        <ele>423</ele>
        <time>2023-10-03T11:58:54Z</time>
      </trkpt>
      <trkpt lat="46.64692" lon="5.607">
        <ele>423</ele>
        <time>2023-10-03T11:58:59Z</time>
      </trkpt>
      <trkpt lat="46.64694" lon="5.60697">
        <ele>422</ele>
        <time>2023-10-03T11:59:03Z</time>
      </trkpt>
      <trkpt lat="46.64695" lon="5.60693">
        <ele>422</ele>
        <time>2023-10-03T11:59:10Z</time>
      </trkpt>
      <trkpt lat="46.64696" lon="5.60689">
        <ele>421</ele>
        <time>2023-10-03T11:59:16Z</time>
      </trkpt>
      <trkpt lat="46.64697" lon="5.60686">
        <ele>420</ele>
        <time>2023-10-03T11:59:21Z</time>
      </trkpt>
      <trkpt lat="46.64698" lon="5.60681">
        <ele>420</ele>
        <time>2023-10-03T11:59:24Z</time>
      </trkpt>
      <trkpt lat="46.647" lon="5.60677">
        <ele>419</ele>
        <time>2023-10-03T11:59:27Z</time>
      </trkpt>
      <trkpt lat="46.64701" lon="5.60673">
        <ele>419</ele>
        <time>2023-10-03T11:59:30Z</time>
      </trkpt>
      <trkpt lat="46.64703" lon="5.60669">
        <ele>418</ele>
        <time>2023-10-03T11:59:33Z</time>
      </trkpt>
      <trkpt lat="46.64705" lon="5.60664">
        <ele>418</ele>
        <time>2023-10-03T11:59:36Z</time>
      </trkpt>
      <trkpt lat="46.64708" lon="5.6066">
        <ele>417</ele>
        <time>2023-10-03T11:59:39Z</time>
      </trkpt>
      <trkpt lat="46.64711" lon="5.60657">
        <ele>416</ele>
        <time>2023-10-03T11:59:41Z</time>
      </trkpt>
      <trkpt lat="46.64714" lon="5.60653">
        <ele>416</ele>
        <time>2023-10-03T11:59:44Z</time>
      </trkpt>
      <trkpt lat="46.64715" lon="5.60649">
        <ele>416</ele>
        <time>2023-10-03T11:59:47Z</time>
      </trkpt>
      <trkpt lat="46.64717" lon="5.60644">
        <ele>415</ele>
        <time>2023-10-03T11:59:49Z</time>
      </trkpt>
      <trkpt lat="46.64719" lon="5.6064">
        <ele>415</ele>
        <time>2023-10-03T11:59:52Z</time>
      </trkpt>
      <trkpt lat="46.64721" lon="5.60636">
        <ele>415</ele>
        <time>2023-10-03T11:59:55Z</time>
      </trkpt>
      <trkpt lat="46.64723" lon="5.60634">
        <ele>414</ele>
        <time>2023-10-03T11:59:58Z</time>
      </trkpt>
      <trkpt lat="46.64726" lon="5.60632">
        <ele>414</ele>
        <time>2023-10-03T12:00:02Z</time>
      </trkpt>
      <trkpt lat="46.64728" lon="5.60629">
        <ele>413</ele>
        <time>2023-10-03T12:00:06Z</time>
      </trkpt>
      <trkpt lat="46.6473" lon="5.60626">
        <ele>412</ele>
        <time>2023-10-03T12:00:10Z</time>
      </trkpt>
      <trkpt lat="46.64731" lon="5.60621">
        <ele>412</ele>
        <time>2023-10-03T12:00:13Z</time>
      </trkpt>
      <trkpt lat="46.64734" lon="5.60619">
        <ele>411</ele>
        <time>2023-10-03T12:00:17Z</time>
      </trkpt>
      <trkpt lat="46.64737" lon="5.60617">
        <ele>410</ele>
        <time>2023-10-03T12:00:20Z</time>
      </trkpt>
      <trkpt lat="46.6474" lon="5.60617">
        <ele>410</ele>
        <time>2023-10-03T12:00:22Z</time>
      </trkpt>
      <trkpt lat="46.64742" lon="5.60614">
        <ele>410</ele>
        <time>2023-10-03T12:00:25Z</time>
      </trkpt>
      <trkpt lat="46.64743" lon="5.6061">
        <ele>409</ele>
        <time>2023-10-03T12:00:28Z</time>
      </trkpt>
      <trkpt lat="46.64744" lon="5.60607">
        <ele>408</ele>
        <time>2023-10-03T12:00:32Z</time>
      </trkpt>
      <trkpt lat="46.64745" lon="5.60603">
        <ele>408</ele>
        <time>2023-10-03T12:00:35Z</time>
      </trkpt>
      <trkpt lat="46.64746" lon="5.60599">
        <ele>407</ele>
        <time>2023-10-03T12:00:39Z</time>
      </trkpt>
      <trkpt lat="46.64749" lon="5.60597">
        <ele>406</ele>
        <time>2023-10-03T12:00:46Z</time>
      </trkpt>
      <trkpt lat="46.64751" lon="5.60596">
        <ele>405</ele>
        <time>2023-10-03T12:00:50Z</time>
      </trkpt>
      <trkpt lat="46.64754" lon="5.60595">
        <ele>405</ele>
        <time>2023-10-03T12:00:53Z</time>
      </trkpt>
      <trkpt lat="46.64757" lon="5.60594">
        <ele>405</ele>
        <time>2023-10-03T12:00:56Z</time>
      </trkpt>
      <trkpt lat="46.6476" lon="5.60594">
        <ele>404</ele>
        <time>2023-10-03T12:01:00Z</time>
      </trkpt>
      <trkpt lat="46.64763" lon="5.60593">
        <ele>403</ele>
        <time>2023-10-03T12:01:04Z</time>
      </trkpt>
      <trkpt lat="46.64766" lon="5.60591">
        <ele>402</ele>
        <time>2023-10-03T12:01:09Z</time>
      </trkpt>
      <trkpt lat="46.64769" lon="5.60589">
        <ele>402</ele>
        <time>2023-10-03T12:01:13Z</time>
      </trkpt>
      <trkpt lat="46.64772" lon="5.60588">
        <ele>401</ele>
        <time>2023-10-03T12:01:18Z</time>
      </trkpt>
      <trkpt lat="46.64774" lon="5.60584">
        <ele>399</ele>
        <time>2023-10-03T12:01:26Z</time>
      </trkpt>
      <trkpt lat="46.64776" lon="5.6058">
        <ele>398</ele>
        <time>2023-10-03T12:01:29Z</time>
      </trkpt>
      <trkpt lat="46.64778" lon="5.60576">
        <ele>398</ele>
        <time>2023-10-03T12:01:33Z</time>
      </trkpt>
      <trkpt lat="46.64779" lon="5.60572">
        <ele>397</ele>
        <time>2023-10-03T12:01:37Z</time>
      </trkpt>
      <trkpt lat="46.6478" lon="5.60567">
        <ele>396</ele>
        <time>2023-10-03T12:01:41Z</time>
      </trkpt>
      <trkpt lat="46.64782" lon="5.60564">
        <ele>395</ele>
        <time>2023-10-03T12:01:44Z</time>
      </trkpt>
      <trkpt lat="46.64784" lon="5.60561">
        <ele>395</ele>
        <time>2023-10-03T12:01:46Z</time>
      </trkpt>
      <trkpt lat="46.64786" lon="5.60557">
        <ele>394</ele>
        <time>2023-10-03T12:01:49Z</time>
      </trkpt>
      <trkpt lat="46.64788" lon="5.60553">
        <ele>394</ele>
        <time>2023-10-03T12:01:52Z</time>
      </trkpt>
      <trkpt lat="46.6479" lon="5.6055">
        <ele>393</ele>
        <time>2023-10-03T12:01:55Z</time>
      </trkpt>
      <trkpt lat="46.64794" lon="5.60549">
        <ele>392</ele>
        <time>2023-10-03T12:01:58Z</time>
      </trkpt>
      <trkpt lat="46.64797" lon="5.60548">
        <ele>392</ele>
        <time>2023-10-03T12:02:00Z</time>
      </trkpt>
      <trkpt lat="46.648" lon="5.60548">
        <ele>391</ele>
        <time>2023-10-03T12:02:04Z</time>
      </trkpt>
      <trkpt lat="46.64803" lon="5.60548">
        <ele>391</ele>
        <time>2023-10-03T12:02:06Z</time>
      </trkpt>
      <trkpt lat="46.64807" lon="5.60549">
        <ele>391</ele>
        <time>2023-10-03T12:02:10Z</time>
      </trkpt>
      <trkpt lat="46.6481" lon="5.60549">
        <ele>390</ele>
        <time>2023-10-03T12:02:13Z</time>
      </trkpt>
      <trkpt lat="46.64812" lon="5.60547">
        <ele>389</ele>
        <time>2023-10-03T12:02:21Z</time>
      </trkpt>
      <trkpt lat="46.64815" lon="5.60545">
        <ele>388</ele>
        <time>2023-10-03T12:02:25Z</time>
      </trkpt>
      <trkpt lat="46.64818" lon="5.60542">
        <ele>388</ele>
        <time>2023-10-03T12:02:28Z</time>
      </trkpt>
      <trkpt lat="46.64821" lon="5.60541">
        <ele>388</ele>
        <time>2023-10-03T12:02:30Z</time>
      </trkpt>
      <trkpt lat="46.64824" lon="5.60539">
        <ele>388</ele>
        <time>2023-10-03T12:02:33Z</time>
      </trkpt>
      <trkpt lat="46.64826" lon="5.60537">
        <ele>387</ele>
        <time>2023-10-03T12:02:36Z</time>
      </trkpt>
      <trkpt lat="46.64829" lon="5.60535">
        <ele>387</ele>
        <time>2023-10-03T12:02:38Z</time>
      </trkpt>
      <trkpt lat="46.6483" lon="5.60531">
        <ele>387</ele>
        <time>2023-10-03T12:02:43Z</time>
      </trkpt>
      <trkpt lat="46.64828" lon="5.6053">
        <ele>386</ele>
        <time>2023-10-03T12:02:57Z</time>
      </trkpt>
      <trkpt lat="46.64826" lon="5.60532">
        <ele>386</ele>
        <time>2023-10-03T12:03:02Z</time>
      </trkpt>
      <trkpt lat="46.64824" lon="5.6053">
        <ele>386</ele>
        <time>2023-10-03T12:03:14Z</time>
      </trkpt>
      <trkpt lat="46.64821" lon="5.6053">
        <ele>386</ele>
        <time>2023-10-03T12:03:53Z</time>
      </trkpt>
      <trkpt lat="46.64817" lon="5.60531">
        <ele>386</ele>
        <time>2023-10-03T12:03:54Z</time>
      </trkpt>
      <trkpt lat="46.64814" lon="5.60534">
        <ele>386</ele>
        <time>2023-10-03T12:03:55Z</time>
      </trkpt>
      <trkpt lat="46.64812" lon="5.60539">
        <ele>386</ele>
        <time>2023-10-03T12:04:01Z</time>
      </trkpt>
      <trkpt lat="46.64813" lon="5.60542">
        <ele>386</ele>
        <time>2023-10-03T12:04:17Z</time>
      </trkpt>
      <trkpt lat="46.64815" lon="5.60541">
        <ele>386</ele>
        <time>2023-10-03T12:04:20Z</time>
      </trkpt>
      <trkpt lat="46.64817" lon="5.60537">
        <ele>386</ele>
        <time>2023-10-03T12:04:26Z</time>
      </trkpt>
      <trkpt lat="46.6482" lon="5.60535">
        <ele>385</ele>
        <time>2023-10-03T12:04:39Z</time>
      </trkpt>
      <trkpt lat="46.64823" lon="5.60532">
        <ele>385</ele>
        <time>2023-10-03T12:04:42Z</time>
      </trkpt>
      <trkpt lat="46.64826" lon="5.60529">
        <ele>385</ele>
        <time>2023-10-03T12:04:45Z</time>
      </trkpt>
      <trkpt lat="46.6483" lon="5.60527">
        <ele>384</ele>
        <time>2023-10-03T12:04:47Z</time>
      </trkpt>
      <trkpt lat="46.64834" lon="5.60526">
        <ele>384</ele>
        <time>2023-10-03T12:04:49Z</time>
      </trkpt>
      <trkpt lat="46.64838" lon="5.60526">
        <ele>384</ele>
        <time>2023-10-03T12:04:51Z</time>
      </trkpt>
      <trkpt lat="46.6484" lon="5.60525">
        <ele>384</ele>
        <time>2023-10-03T12:04:53Z</time>
      </trkpt>
      <trkpt lat="46.64843" lon="5.60523">
        <ele>384</ele>
        <time>2023-10-03T12:04:55Z</time>
      </trkpt>
      <trkpt lat="46.64846" lon="5.60522">
        <ele>383</ele>
        <time>2023-10-03T12:04:57Z</time>
      </trkpt>
      <trkpt lat="46.64848" lon="5.6052">
        <ele>383</ele>
        <time>2023-10-03T12:04:59Z</time>
      </trkpt>
      <trkpt lat="46.64851" lon="5.60518">
        <ele>383</ele>
        <time>2023-10-03T12:05:01Z</time>
      </trkpt>
      <trkpt lat="46.64853" lon="5.60515">
        <ele>383</ele>
        <time>2023-10-03T12:05:04Z</time>
      </trkpt>
      <trkpt lat="46.64856" lon="5.60513">
        <ele>383</ele>
        <time>2023-10-03T12:05:07Z</time>
      </trkpt>
      <trkpt lat="46.64859" lon="5.60511">
        <ele>382</ele>
        <time>2023-10-03T12:05:09Z</time>
      </trkpt>
      <trkpt lat="46.64862" lon="5.60509">
        <ele>382</ele>
        <time>2023-10-03T12:05:11Z</time>
      </trkpt>
      <trkpt lat="46.64865" lon="5.60509">
        <ele>382</ele>
        <time>2023-10-03T12:05:13Z</time>
      </trkpt>
      <trkpt lat="46.64868" lon="5.60508">
        <ele>382</ele>
        <time>2023-10-03T12:05:15Z</time>
      </trkpt>
      <trkpt lat="46.6487" lon="5.60506">
        <ele>382</ele>
        <time>2023-10-03T12:05:18Z</time>
      </trkpt>
      <trkpt lat="46.64872" lon="5.60503">
        <ele>381</ele>
        <time>2023-10-03T12:05:22Z</time>
      </trkpt>
      <trkpt lat="46.64875" lon="5.605">
        <ele>381</ele>
        <time>2023-10-03T12:05:26Z</time>
      </trkpt>
      <trkpt lat="46.64877" lon="5.60498">
        <ele>381</ele>
        <time>2023-10-03T12:05:33Z</time>
      </trkpt>
      <trkpt lat="46.6488" lon="5.60495">
        <ele>381</ele>
        <time>2023-10-03T12:05:40Z</time>
      </trkpt>
      <trkpt lat="46.64884" lon="5.60493">
        <ele>380</ele>
        <time>2023-10-03T12:05:43Z</time>
      </trkpt>
      <trkpt lat="46.64887" lon="5.60492">
        <ele>380</ele>
        <time>2023-10-03T12:05:45Z</time>
      </trkpt>
      <trkpt lat="46.6489" lon="5.6049">
        <ele>380</ele>
        <time>2023-10-03T12:05:48Z</time>
      </trkpt>
      <trkpt lat="46.64893" lon="5.60489">
        <ele>380</ele>
        <time>2023-10-03T12:05:51Z</time>
      </trkpt>
      <trkpt lat="46.64896" lon="5.60486">
        <ele>380</ele>
        <time>2023-10-03T12:05:54Z</time>
      </trkpt>
      <trkpt lat="46.64898" lon="5.60484">
        <ele>380</ele>
        <time>2023-10-03T12:05:57Z</time>
      </trkpt>
      <trkpt lat="46.64901" lon="5.60482">
        <ele>380</ele>
        <time>2023-10-03T12:06:01Z</time>
      </trkpt>
      <trkpt lat="46.64905" lon="5.60481">
        <ele>380</ele>
        <time>2023-10-03T12:06:04Z</time>
      </trkpt>
      <trkpt lat="46.64908" lon="5.60479">
        <ele>380</ele>
        <time>2023-10-03T12:06:06Z</time>
      </trkpt>
      <trkpt lat="46.64911" lon="5.60478">
        <ele>380</ele>
        <time>2023-10-03T12:06:09Z</time>
      </trkpt>
      <trkpt lat="46.64915" lon="5.60477">
        <ele>380</ele>
        <time>2023-10-03T12:06:15Z</time>
      </trkpt>
      <trkpt lat="46.64918" lon="5.60478">
        <ele>380</ele>
        <time>2023-10-03T12:06:18Z</time>
      </trkpt>
      <trkpt lat="46.64922" lon="5.60478">
        <ele>379</ele>
        <time>2023-10-03T12:06:22Z</time>
      </trkpt>
      <trkpt lat="46.64925" lon="5.60477">
        <ele>379</ele>
        <time>2023-10-03T12:06:25Z</time>
      </trkpt>
      <trkpt lat="46.64928" lon="5.60476">
        <ele>379</ele>
        <time>2023-10-03T12:06:28Z</time>
      </trkpt>
      <trkpt lat="46.64931" lon="5.60474">
        <ele>378</ele>
        <time>2023-10-03T12:06:32Z</time>
      </trkpt>
      <trkpt lat="46.64934" lon="5.60472">
        <ele>378</ele>
        <time>2023-10-03T12:06:36Z</time>
      </trkpt>
      <trkpt lat="46.64937" lon="5.6047">
        <ele>378</ele>
        <time>2023-10-03T12:06:40Z</time>
      </trkpt>
      <trkpt lat="46.6494" lon="5.60468">
        <ele>377</ele>
        <time>2023-10-03T12:06:44Z</time>
      </trkpt>
      <trkpt lat="46.64942" lon="5.60467">
        <ele>377</ele>
        <time>2023-10-03T12:06:47Z</time>
      </trkpt>
      <trkpt lat="46.64946" lon="5.60466">
        <ele>377</ele>
        <time>2023-10-03T12:06:51Z</time>
      </trkpt>
      <trkpt lat="46.64949" lon="5.60465">
        <ele>377</ele>
        <time>2023-10-03T12:06:54Z</time>
      </trkpt>
      <trkpt lat="46.64952" lon="5.60464">
        <ele>377</ele>
        <time>2023-10-03T12:06:56Z</time>
      </trkpt>
      <trkpt lat="46.64955" lon="5.60463">
        <ele>377</ele>
        <time>2023-10-03T12:06:59Z</time>
      </trkpt>
      <trkpt lat="46.64958" lon="5.60462">
        <ele>377</ele>
        <time>2023-10-03T12:07:03Z</time>
      </trkpt>
      <trkpt lat="46.6496" lon="5.60459">
        <ele>376</ele>
        <time>2023-10-03T12:07:06Z</time>
      </trkpt>
      <trkpt lat="46.64962" lon="5.60456">
        <ele>376</ele>
        <time>2023-10-03T12:07:10Z</time>
      </trkpt>
      <trkpt lat="46.64963" lon="5.60452">
        <ele>376</ele>
        <time>2023-10-03T12:07:13Z</time>
      </trkpt>
      <trkpt lat="46.64965" lon="5.6045">
        <ele>375</ele>
        <time>2023-10-03T12:07:16Z</time>
      </trkpt>
      <trkpt lat="46.64968" lon="5.60447">
        <ele>375</ele>
        <time>2023-10-03T12:07:20Z</time>
      </trkpt>
      <trkpt lat="46.6497" lon="5.60444">
        <ele>374</ele>
        <time>2023-10-03T12:07:23Z</time>
      </trkpt>
      <trkpt lat="46.64972" lon="5.60442">
        <ele>374</ele>
        <time>2023-10-03T12:07:26Z</time>
      </trkpt>
      <trkpt lat="46.64974" lon="5.60439">
        <ele>374</ele>
        <time>2023-10-03T12:07:29Z</time>
      </trkpt>
      <trkpt lat="46.64976" lon="5.60436">
        <ele>374</ele>
        <time>2023-10-03T12:07:32Z</time>
      </trkpt>
      <trkpt lat="46.64979" lon="5.60434">
        <ele>374</ele>
        <time>2023-10-03T12:07:35Z</time>
      </trkpt>
      <trkpt lat="46.64982" lon="5.60432">
        <ele>373</ele>
        <time>2023-10-03T12:07:38Z</time>
      </trkpt>
      <trkpt lat="46.64985" lon="5.60431">
        <ele>373</ele>
        <time>2023-10-03T12:07:40Z</time>
      </trkpt>
      <trkpt lat="46.64988" lon="5.60431">
        <ele>373</ele>
        <time>2023-10-03T12:07:42Z</time>
      </trkpt>
      <trkpt lat="46.64992" lon="5.6043">
        <ele>373</ele>
        <time>2023-10-03T12:07:44Z</time>
      </trkpt>
      <trkpt lat="46.64995" lon="5.60429">
        <ele>373</ele>
        <time>2023-10-03T12:07:47Z</time>
      </trkpt>
      <trkpt lat="46.64999" lon="5.60429">
        <ele>373</ele>
        <time>2023-10-03T12:07:50Z</time>
      </trkpt>
      <trkpt lat="46.65002" lon="5.60428">
        <ele>373</ele>
        <time>2023-10-03T12:07:53Z</time>
      </trkpt>
      <trkpt lat="46.65005" lon="5.60427">
        <ele>373</ele>
        <time>2023-10-03T12:07:56Z</time>
      </trkpt>
      <trkpt lat="46.65008" lon="5.60426">
        <ele>373</ele>
        <time>2023-10-03T12:08:00Z</time>
      </trkpt>
      <trkpt lat="46.65011" lon="5.60426">
        <ele>373</ele>
        <time>2023-10-03T12:08:04Z</time>
      </trkpt>
      <trkpt lat="46.65015" lon="5.60425">
        <ele>372</ele>
        <time>2023-10-03T12:08:07Z</time>
      </trkpt>
      <trkpt lat="46.65018" lon="5.60424">
        <ele>372</ele>
        <time>2023-10-03T12:08:10Z</time>
      </trkpt>
      <trkpt lat="46.6502" lon="5.60422">
        <ele>372</ele>
        <time>2023-10-03T12:08:13Z</time>
      </trkpt>
      <trkpt lat="46.65023" lon="5.60419">
        <ele>372</ele>
        <time>2023-10-03T12:08:17Z</time>
      </trkpt>
      <trkpt lat="46.65026" lon="5.60418">
        <ele>371</ele>
        <time>2023-10-03T12:08:20Z</time>
      </trkpt>
      <trkpt lat="46.65029" lon="5.60418">
        <ele>371</ele>
        <time>2023-10-03T12:08:22Z</time>
      </trkpt>
      <trkpt lat="46.65032" lon="5.6042">
        <ele>371</ele>
        <time>2023-10-03T12:08:25Z</time>
      </trkpt>
      <trkpt lat="46.65034" lon="5.60419">
        <ele>371</ele>
        <time>2023-10-03T12:08:28Z</time>
      </trkpt>
      <trkpt lat="46.65037" lon="5.60417">
        <ele>371</ele>
        <time>2023-10-03T12:08:30Z</time>
      </trkpt>
      <trkpt lat="46.65041" lon="5.60415">
        <ele>370</ele>
        <time>2023-10-03T12:08:32Z</time>
      </trkpt>
      <trkpt lat="46.65044" lon="5.60413">
        <ele>370</ele>
        <time>2023-10-03T12:08:34Z</time>
      </trkpt>
      <trkpt lat="46.65047" lon="5.60411">
        <ele>370</ele>
        <time>2023-10-03T12:08:36Z</time>
      </trkpt>
      <trkpt lat="46.6505" lon="5.60409">
        <ele>369</ele>
        <time>2023-10-03T12:08:39Z</time>
      </trkpt>
      <trkpt lat="46.65053" lon="5.60408">
        <ele>369</ele>
        <time>2023-10-03T12:08:42Z</time>
      </trkpt>
      <trkpt lat="46.65056" lon="5.60407">
        <ele>369</ele>
        <time>2023-10-03T12:08:45Z</time>
      </trkpt>
      <trkpt lat="46.65059" lon="5.60406">
        <ele>369</ele>
        <time>2023-10-03T12:08:49Z</time>
      </trkpt>
      <trkpt lat="46.65062" lon="5.60406">
        <ele>369</ele>
        <time>2023-10-03T12:08:52Z</time>
      </trkpt>
      <trkpt lat="46.65065" lon="5.60405">
        <ele>369</ele>
        <time>2023-10-03T12:08:56Z</time>
      </trkpt>
      <trkpt lat="46.65068" lon="5.60403">
        <ele>368</ele>
        <time>2023-10-03T12:09:01Z</time>
      </trkpt>
      <trkpt lat="46.65071" lon="5.60401">
        <ele>368</ele>
        <time>2023-10-03T12:09:04Z</time>
      </trkpt>
      <trkpt lat="46.65073" lon="5.60398">
        <ele>368</ele>
        <time>2023-10-03T12:09:07Z</time>
      </trkpt>
      <trkpt lat="46.65076" lon="5.60395">
        <ele>368</ele>
        <time>2023-10-03T12:09:11Z</time>
      </trkpt>
      <trkpt lat="46.65078" lon="5.60392">
        <ele>368</ele>
        <time>2023-10-03T12:09:14Z</time>
      </trkpt>
      <trkpt lat="46.65081" lon="5.6039">
        <ele>367</ele>
        <time>2023-10-03T12:09:17Z</time>
      </trkpt>
      <trkpt lat="46.65083" lon="5.60386">
        <ele>367</ele>
        <time>2023-10-03T12:09:21Z</time>
      </trkpt>
      <trkpt lat="46.65086" lon="5.60384">
        <ele>367</ele>
        <time>2023-10-03T12:09:24Z</time>
      </trkpt>
      <trkpt lat="46.65089" lon="5.60382">
        <ele>367</ele>
        <time>2023-10-03T12:09:27Z</time>
      </trkpt>
      <trkpt lat="46.65092" lon="5.6038">
        <ele>366</ele>
        <time>2023-10-03T12:09:30Z</time>
      </trkpt>
      <trkpt lat="46.65094" lon="5.60377">
        <ele>366</ele>
        <time>2023-10-03T12:09:33Z</time>
      </trkpt>
      <trkpt lat="46.65095" lon="5.60373">
        <ele>366</ele>
        <time>2023-10-03T12:09:39Z</time>
      </trkpt>
      <trkpt lat="46.65097" lon="5.60368">
        <ele>365</ele>
        <time>2023-10-03T12:09:42Z</time>
      </trkpt>
      <trkpt lat="46.65098" lon="5.60364">
        <ele>365</ele>
        <time>2023-10-03T12:09:45Z</time>
      </trkpt>
      <trkpt lat="46.65101" lon="5.60361">
        <ele>365</ele>
        <time>2023-10-03T12:09:47Z</time>
      </trkpt>
      <trkpt lat="46.65103" lon="5.60359">
        <ele>364</ele>
        <time>2023-10-03T12:09:49Z</time>
      </trkpt>
      <trkpt lat="46.65107" lon="5.60356">
        <ele>364</ele>
        <time>2023-10-03T12:09:52Z</time>
      </trkpt>
      <trkpt lat="46.6511" lon="5.60354">
        <ele>364</ele>
        <time>2023-10-03T12:09:54Z</time>
      </trkpt>
      <trkpt lat="46.65114" lon="5.60353">
        <ele>363</ele>
        <time>2023-10-03T12:09:56Z</time>
      </trkpt>
      <trkpt lat="46.65117" lon="5.60353">
        <ele>363</ele>
        <time>2023-10-03T12:09:58Z</time>
      </trkpt>
      <trkpt lat="46.65121" lon="5.60353">
        <ele>363</ele>
        <time>2023-10-03T12:10:01Z</time>
      </trkpt>
      <trkpt lat="46.65124" lon="5.60354">
        <ele>363</ele>
        <time>2023-10-03T12:10:04Z</time>
      </trkpt>
      <trkpt lat="46.65127" lon="5.60353">
        <ele>363</ele>
        <time>2023-10-03T12:10:07Z</time>
      </trkpt>
      <trkpt lat="46.6513" lon="5.60351">
        <ele>362</ele>
        <time>2023-10-03T12:10:10Z</time>
      </trkpt>
      <trkpt lat="46.65133" lon="5.6035">
        <ele>362</ele>
        <time>2023-10-03T12:10:14Z</time>
      </trkpt>
      <trkpt lat="46.65136" lon="5.60349">
        <ele>361</ele>
        <time>2023-10-03T12:10:18Z</time>
      </trkpt>
      <trkpt lat="46.65138" lon="5.60346">
        <ele>361</ele>
        <time>2023-10-03T12:10:21Z</time>
      </trkpt>
      <trkpt lat="46.65141" lon="5.60343">
        <ele>361</ele>
        <time>2023-10-03T12:10:24Z</time>
      </trkpt>
      <trkpt lat="46.65143" lon="5.60341">
        <ele>361</ele>
        <time>2023-10-03T12:10:27Z</time>
      </trkpt>
      <trkpt lat="46.65146" lon="5.60338">
        <ele>360</ele>
        <time>2023-10-03T12:10:30Z</time>
      </trkpt>
      <trkpt lat="46.6515" lon="5.60339">
        <ele>360</ele>
        <time>2023-10-03T12:10:45Z</time>
      </trkpt>
      <trkpt lat="46.6515" lon="5.60341">
        <ele>360</ele>
        <time>2023-10-03T12:10:55Z</time>
      </trkpt>
      <trkpt lat="46.65148" lon="5.60344">
        <ele>361</ele>
        <time>2023-10-03T12:11:05Z</time>
      </trkpt>
      <trkpt lat="46.65146" lon="5.60345">
        <ele>361</ele>
        <time>2023-10-03T12:11:09Z</time>
      </trkpt>
      <trkpt lat="46.65143" lon="5.60346">
        <ele>361</ele>
        <time>2023-10-03T12:11:27Z</time>
      </trkpt>
      <trkpt lat="46.65143" lon="5.60348">
        <ele>361</ele>
        <time>2023-10-03T12:11:38Z</time>
      </trkpt>
      <trkpt lat="46.65143" lon="5.60346">
        <ele>360</ele>
        <time>2023-10-03T12:11:46Z</time>
      </trkpt>
      <trkpt lat="46.65143" lon="5.60342">
        <ele>361</ele>
        <time>2023-10-03T12:12:10Z</time>
      </trkpt>
      <trkpt lat="46.65145" lon="5.60342">
        <ele>360</ele>
        <time>2023-10-03T12:12:26Z</time>
      </trkpt>
      <trkpt lat="46.65145" lon="5.60345">
        <ele>361</ele>
        <time>2023-10-03T12:12:42Z</time>
      </trkpt>
      <trkpt lat="46.65145" lon="5.60343">
        <ele>361</ele>
        <time>2023-10-03T12:12:56Z</time>
      </trkpt>
      <trkpt lat="46.65147" lon="5.60341">
        <ele>360</ele>
        <time>2023-10-03T12:13:14Z</time>
      </trkpt>
      <trkpt lat="46.65149" lon="5.60338">
        <ele>360</ele>
        <time>2023-10-03T12:13:19Z</time>
      </trkpt>
      <trkpt lat="46.65151" lon="5.60335">
        <ele>359</ele>
        <time>2023-10-03T12:13:23Z</time>
      </trkpt>
      <trkpt lat="46.65154" lon="5.60333">
        <ele>359</ele>
        <time>2023-10-03T12:13:25Z</time>
      </trkpt>
      <trkpt lat="46.65155" lon="5.6033">
        <ele>359</ele>
        <time>2023-10-03T12:13:27Z</time>
      </trkpt>
      <trkpt lat="46.65157" lon="5.60326">
        <ele>359</ele>
        <time>2023-10-03T12:13:30Z</time>
      </trkpt>
      <trkpt lat="46.65157" lon="5.60321">
        <ele>358</ele>
        <time>2023-10-03T12:13:32Z</time>
      </trkpt>
      <trkpt lat="46.65159" lon="5.60317">
        <ele>358</ele>
        <time>2023-10-03T12:13:35Z</time>
      </trkpt>
      <trkpt lat="46.65161" lon="5.60314">
        <ele>358</ele>
        <time>2023-10-03T12:13:37Z</time>
      </trkpt>
      <trkpt lat="46.65164" lon="5.60311">
        <ele>357</ele>
        <time>2023-10-03T12:13:40Z</time>
      </trkpt>
      <trkpt lat="46.65166" lon="5.60308">
        <ele>357</ele>
        <time>2023-10-03T12:13:44Z</time>
      </trkpt>
      <trkpt lat="46.65168" lon="5.60304">
        <ele>356</ele>
        <time>2023-10-03T12:13:47Z</time>
      </trkpt>
      <trkpt lat="46.65169" lon="5.60301">
        <ele>356</ele>
        <time>2023-10-03T12:13:50Z</time>
      </trkpt>
      <trkpt lat="46.65171" lon="5.60297">
        <ele>355</ele>
        <time>2023-10-03T12:13:54Z</time>
      </trkpt>
      <trkpt lat="46.65173" lon="5.60293">
        <ele>354</ele>
        <time>2023-10-03T12:13:57Z</time>
      </trkpt>
      <trkpt lat="46.65174" lon="5.60289">
        <ele>353</ele>
        <time>2023-10-03T12:14:01Z</time>
      </trkpt>
      <trkpt lat="46.65176" lon="5.60284">
        <ele>352</ele>
        <time>2023-10-03T12:14:04Z</time>
      </trkpt>
      <trkpt lat="46.65179" lon="5.60281">
        <ele>352</ele>
        <time>2023-10-03T12:14:07Z</time>
      </trkpt>
      <trkpt lat="46.65181" lon="5.60277">
        <ele>351</ele>
        <time>2023-10-03T12:14:09Z</time>
      </trkpt>
      <trkpt lat="46.65183" lon="5.60273">
        <ele>351</ele>
        <time>2023-10-03T12:14:12Z</time>
      </trkpt>
      <trkpt lat="46.65185" lon="5.6027">
        <ele>350</ele>
        <time>2023-10-03T12:14:17Z</time>
      </trkpt>
      <trkpt lat="46.65187" lon="5.60267">
        <ele>350</ele>
        <time>2023-10-03T12:14:21Z</time>
      </trkpt>
      <trkpt lat="46.6519" lon="5.60265">
        <ele>349</ele>
        <time>2023-10-03T12:14:24Z</time>
      </trkpt>
      <trkpt lat="46.65192" lon="5.60262">
        <ele>348</ele>
        <time>2023-10-03T12:14:31Z</time>
      </trkpt>
      <trkpt lat="46.65194" lon="5.60258">
        <ele>347</ele>
        <time>2023-10-03T12:14:36Z</time>
      </trkpt>
      <trkpt lat="46.65196" lon="5.60254">
        <ele>347</ele>
        <time>2023-10-03T12:14:40Z</time>
      </trkpt>
      <trkpt lat="46.65198" lon="5.6025">
        <ele>345</ele>
        <time>2023-10-03T12:14:45Z</time>
      </trkpt>
      <trkpt lat="46.652" lon="5.60248">
        <ele>345</ele>
        <time>2023-10-03T12:14:48Z</time>
      </trkpt>
      <trkpt lat="46.65202" lon="5.60245">
        <ele>344</ele>
        <time>2023-10-03T12:14:52Z</time>
      </trkpt>
      <trkpt lat="46.65205" lon="5.60242">
        <ele>344</ele>
        <time>2023-10-03T12:14:56Z</time>
      </trkpt>
      <trkpt lat="46.65207" lon="5.60239">
        <ele>343</ele>
        <time>2023-10-03T12:15:00Z</time>
      </trkpt>
      <trkpt lat="46.65208" lon="5.60235">
        <ele>342</ele>
        <time>2023-10-03T12:15:04Z</time>
      </trkpt>
      <trkpt lat="46.65211" lon="5.60232">
        <ele>342</ele>
        <time>2023-10-03T12:15:08Z</time>
      </trkpt>
      <trkpt lat="46.65213" lon="5.6023">
        <ele>341</ele>
        <time>2023-10-03T12:15:13Z</time>
      </trkpt>
      <trkpt lat="46.65215" lon="5.60227">
        <ele>340</ele>
        <time>2023-10-03T12:15:16Z</time>
      </trkpt>
      <trkpt lat="46.65218" lon="5.60225">
        <ele>340</ele>
        <time>2023-10-03T12:15:19Z</time>
      </trkpt>
      <trkpt lat="46.65221" lon="5.60222">
        <ele>339</ele>
        <time>2023-10-03T12:15:22Z</time>
      </trkpt>
      <trkpt lat="46.65223" lon="5.60217">
        <ele>338</ele>
        <time>2023-10-03T12:15:25Z</time>
      </trkpt>
      <trkpt lat="46.65224" lon="5.60213">
        <ele>338</ele>
        <time>2023-10-03T12:15:29Z</time>
      </trkpt>
      <trkpt lat="46.65224" lon="5.60209">
        <ele>337</ele>
        <time>2023-10-03T12:15:32Z</time>
      </trkpt>
      <trkpt lat="46.65225" lon="5.60205">
        <ele>337</ele>
        <time>2023-10-03T12:15:35Z</time>
      </trkpt>
      <trkpt lat="46.65227" lon="5.60201">
        <ele>336</ele>
        <time>2023-10-03T12:15:38Z</time>
      </trkpt>
      <trkpt lat="46.65228" lon="5.60197">
        <ele>336</ele>
        <time>2023-10-03T12:15:41Z</time>
      </trkpt>
      <trkpt lat="46.65229" lon="5.60192">
        <ele>335</ele>
        <time>2023-10-03T12:15:44Z</time>
      </trkpt>
      <trkpt lat="46.65231" lon="5.60188">
        <ele>334</ele>
        <time>2023-10-03T12:15:47Z</time>
      </trkpt>
      <trkpt lat="46.65232" lon="5.60183">
        <ele>334</ele>
        <time>2023-10-03T12:15:50Z</time>
      </trkpt>
      <trkpt lat="46.65234" lon="5.6018">
        <ele>334</ele>
        <time>2023-10-03T12:15:53Z</time>
      </trkpt>
      <trkpt lat="46.65236" lon="5.60177">
        <ele>333</ele>
        <time>2023-10-03T12:15:56Z</time>
      </trkpt>
      <trkpt lat="46.65238" lon="5.60175">
        <ele>333</ele>
        <time>2023-10-03T12:15:59Z</time>
      </trkpt>
      <trkpt lat="46.65241" lon="5.60175">
        <ele>332</ele>
        <time>2023-10-03T12:16:05Z</time>
      </trkpt>
      <trkpt lat="46.65244" lon="5.60174">
        <ele>332</ele>
        <time>2023-10-03T12:16:08Z</time>
      </trkpt>
      <trkpt lat="46.65247" lon="5.60172">
        <ele>331</ele>
        <time>2023-10-03T12:16:11Z</time>
      </trkpt>
      <trkpt lat="46.6525" lon="5.60173">
        <ele>331</ele>
        <time>2023-10-03T12:16:15Z</time>
      </trkpt>
      <trkpt lat="46.65253" lon="5.60171">
        <ele>330</ele>
        <time>2023-10-03T12:16:18Z</time>
      </trkpt>
      <trkpt lat="46.65256" lon="5.60169">
        <ele>330</ele>
        <time>2023-10-03T12:16:21Z</time>
      </trkpt>
      <trkpt lat="46.65258" lon="5.60167">
        <ele>330</ele>
        <time>2023-10-03T12:16:24Z</time>
      </trkpt>
      <trkpt lat="46.65259" lon="5.60164">
        <ele>329</ele>
        <time>2023-10-03T12:16:28Z</time>
      </trkpt>
      <trkpt lat="46.65261" lon="5.6016">
        <ele>329</ele>
        <time>2023-10-03T12:16:32Z</time>
      </trkpt>
      <trkpt lat="46.65264" lon="5.60157">
        <ele>329</ele>
        <time>2023-10-03T12:16:36Z</time>
      </trkpt>
      <trkpt lat="46.65266" lon="5.60155">
        <ele>328</ele>
        <time>2023-10-03T12:16:40Z</time>
      </trkpt>
      <trkpt lat="46.65268" lon="5.60151">
        <ele>328</ele>
        <time>2023-10-03T12:16:44Z</time>
      </trkpt>
      <trkpt lat="46.65271" lon="5.60148">
        <ele>327</ele>
        <time>2023-10-03T12:16:47Z</time>
      </trkpt>
      <trkpt lat="46.65273" lon="5.60144">
        <ele>326</ele>
        <time>2023-10-03T12:16:51Z</time>
      </trkpt>
      <trkpt lat="46.65275" lon="5.6014">
        <ele>326</ele>
        <time>2023-10-03T12:16:54Z</time>
      </trkpt>
      <trkpt lat="46.65277" lon="5.60136">
        <ele>326</ele>
        <time>2023-10-03T12:16:56Z</time>
      </trkpt>
      <trkpt lat="46.65278" lon="5.60131">
        <ele>325</ele>
        <time>2023-10-03T12:16:58Z</time>
      </trkpt>
      <trkpt lat="46.6528" lon="5.60126">
        <ele>325</ele>
        <time>2023-10-03T12:17:01Z</time>
      </trkpt>
      <trkpt lat="46.65281" lon="5.60121">
        <ele>325</ele>
        <time>2023-10-03T12:17:03Z</time>
      </trkpt>
      <trkpt lat="46.65283" lon="5.60119">
        <ele>324</ele>
        <time>2023-10-03T12:17:09Z</time>
      </trkpt>
      <trkpt lat="46.65284" lon="5.60122">
        <ele>324</ele>
        <time>2023-10-03T12:17:17Z</time>
      </trkpt>
      <trkpt lat="46.65284" lon="5.60126">
        <ele>323</ele>
        <time>2023-10-03T12:18:02Z</time>
      </trkpt>
      <trkpt lat="46.65285" lon="5.6013">
        <ele>323</ele>
        <time>2023-10-03T12:18:08Z</time>
      </trkpt>
      <trkpt lat="46.65284" lon="5.60129">
        <ele>323</ele>
        <time>2023-10-03T12:18:20Z</time>
      </trkpt>
      <trkpt lat="46.65282" lon="5.60128">
        <ele>323</ele>
        <time>2023-10-03T12:18:59Z</time>
      </trkpt>
      <trkpt lat="46.65282" lon="5.60125">
        <ele>323</ele>
        <time>2023-10-03T12:19:21Z</time>
      </trkpt>
      <trkpt lat="46.65282" lon="5.60126">
        <ele>323</ele>
        <time>2023-10-03T12:19:26Z</time>
      </trkpt>
      <trkpt lat="46.65282" lon="5.60129">
        <ele>323</ele>
        <time>2023-10-03T12:19:28Z</time>
      </trkpt>
      <trkpt lat="46.65279" lon="5.60132">
        <ele>324</ele>
        <time>2023-10-03T12:19:32Z</time>
      </trkpt>
      <trkpt lat="46.65277" lon="5.60134">
        <ele>324</ele>
        <time>2023-10-03T12:19:34Z</time>
      </trkpt>
      <trkpt lat="46.65276" lon="5.60138">
        <ele>325</ele>
        <time>2023-10-03T12:19:37Z</time>
      </trkpt>
      <trkpt lat="46.65276" lon="5.60141">
        <ele>325</ele>
        <time>2023-10-03T12:19:42Z</time>
      </trkpt>
      <trkpt lat="46.65275" lon="5.60141">
        <ele>325</ele>
        <time>2023-10-03T12:19:50Z</time>
      </trkpt>
      <trkpt lat="46.65275" lon="5.60144">
        <ele>326</ele>
        <time>2023-10-03T12:20:15Z</time>
      </trkpt>
      <trkpt lat="46.65274" lon="5.60147">
        <ele>325</ele>
        <time>2023-10-03T12:20:19Z</time>
      </trkpt>
      <trkpt lat="46.65275" lon="5.60146">
        <ele>325</ele>
        <time>2023-10-03T12:20:35Z</time>
      </trkpt>
      <trkpt lat="46.65276" lon="5.60144">
        <ele>325</ele>
        <time>2023-10-03T12:20:38Z</time>
      </trkpt>
      <trkpt lat="46.65277" lon="5.60143">
        <ele>325</ele>
        <time>2023-10-03T12:20:39Z</time>
      </trkpt>
      <trkpt lat="46.65279" lon="5.6014">
        <ele>325</ele>
        <time>2023-10-03T12:20:44Z</time>
      </trkpt>
      <trkpt lat="46.6528" lon="5.60137">
        <ele>324</ele>
        <time>2023-10-03T12:21:49Z</time>
      </trkpt>
      <trkpt lat="46.6528" lon="5.60132">
        <ele>323</ele>
        <time>2023-10-03T12:22:13Z</time>
      </trkpt>
      <trkpt lat="46.65282" lon="5.60129">
        <ele>323</ele>
        <time>2023-10-03T12:22:22Z</time>
      </trkpt>
      <trkpt lat="46.65283" lon="5.60125">
        <ele>322</ele>
        <time>2023-10-03T12:22:37Z</time>
      </trkpt>
      <trkpt lat="46.65283" lon="5.60121">
        <ele>322</ele>
        <time>2023-10-03T12:22:41Z</time>
      </trkpt>
      <trkpt lat="46.65284" lon="5.60116">
        <ele>322</ele>
        <time>2023-10-03T12:22:45Z</time>
      </trkpt>
      <trkpt lat="46.65284" lon="5.60114">
        <ele>321</ele>
        <time>2023-10-03T12:22:47Z</time>
      </trkpt>
      <trkpt lat="46.65286" lon="5.6011">
        <ele>321</ele>
        <time>2023-10-03T12:22:51Z</time>
      </trkpt>
      <trkpt lat="46.65288" lon="5.60106">
        <ele>320</ele>
        <time>2023-10-03T12:22:54Z</time>
      </trkpt>
      <trkpt lat="46.6529" lon="5.60103">
        <ele>320</ele>
        <time>2023-10-03T12:22:57Z</time>
      </trkpt>
      <trkpt lat="46.65292" lon="5.601">
        <ele>320</ele>
        <time>2023-10-03T12:23:00Z</time>
      </trkpt>
      <trkpt lat="46.65294" lon="5.60096">
        <ele>319</ele>
        <time>2023-10-03T12:23:03Z</time>
      </trkpt>
      <trkpt lat="46.65296" lon="5.60092">
        <ele>319</ele>
        <time>2023-10-03T12:23:06Z</time>
      </trkpt>
      <trkpt lat="46.65298" lon="5.60089">
        <ele>318</ele>
        <time>2023-10-03T12:23:09Z</time>
      </trkpt>
      <trkpt lat="46.653" lon="5.60085">
        <ele>318</ele>
        <time>2023-10-03T12:23:13Z</time>
      </trkpt>
      <trkpt lat="46.65302" lon="5.60081">
        <ele>317</ele>
        <time>2023-10-03T12:23:17Z</time>
      </trkpt>
      <trkpt lat="46.65304" lon="5.60078">
        <ele>317</ele>
        <time>2023-10-03T12:23:28Z</time>
      </trkpt>
      <trkpt lat="46.65305" lon="5.60074">
        <ele>317</ele>
        <time>2023-10-03T12:23:38Z</time>
      </trkpt>
      <trkpt lat="46.65305" lon="5.6007">
        <ele>317</ele>
        <time>2023-10-03T12:23:41Z</time>
      </trkpt>
      <trkpt lat="46.65306" lon="5.60066">
        <ele>316</ele>
        <time>2023-10-03T12:23:46Z</time>
      </trkpt>
      <trkpt lat="46.65307" lon="5.60062">
        <ele>316</ele>
        <time>2023-10-03T12:23:50Z</time>
      </trkpt>
      <trkpt lat="46.65309" lon="5.60058">
        <ele>315</ele>
        <time>2023-10-03T12:23:55Z</time>
      </trkpt>
      <trkpt lat="46.6531" lon="5.60055">
        <ele>315</ele>
        <time>2023-10-03T12:23:57Z</time>
      </trkpt>
      <trkpt lat="46.65311" lon="5.6005">
        <ele>315</ele>
        <time>2023-10-03T12:24:00Z</time>
      </trkpt>
      <trkpt lat="46.65313" lon="5.60047">
        <ele>314</ele>
        <time>2023-10-03T12:24:10Z</time>
      </trkpt>
      <trkpt lat="46.65313" lon="5.60043">
        <ele>314</ele>
        <time>2023-10-03T12:24:19Z</time>
      </trkpt>
      <trkpt lat="46.65312" lon="5.60039">
        <ele>314</ele>
        <time>2023-10-03T12:24:23Z</time>
      </trkpt>
      <trkpt lat="46.65312" lon="5.60034">
        <ele>313</ele>
        <time>2023-10-03T12:24:28Z</time>
      </trkpt>
      <trkpt lat="46.65312" lon="5.6003">
        <ele>313</ele>
        <time>2023-10-03T12:24:32Z</time>
      </trkpt>
      <trkpt lat="46.65312" lon="5.60026">
        <ele>312</ele>
        <time>2023-10-03T12:24:36Z</time>
      </trkpt>
      <trkpt lat="46.65312" lon="5.60022">
        <ele>312</ele>
        <time>2023-10-03T12:24:40Z</time>
      </trkpt>
      <trkpt lat="46.65311" lon="5.60017">
        <ele>312</ele>
        <time>2023-10-03T12:24:44Z</time>
      </trkpt>
      <trkpt lat="46.65312" lon="5.60013">
        <ele>311</ele>
        <time>2023-10-03T12:24:58Z</time>
      </trkpt>
      <trkpt lat="46.65312" lon="5.60008">
        <ele>310</ele>
        <time>2023-10-03T12:25:01Z</time>
      </trkpt>
      <trkpt lat="46.65311" lon="5.60004">
        <ele>310</ele>
        <time>2023-10-03T12:25:04Z</time>
      </trkpt>
      <trkpt lat="46.6531" lon="5.59999">
        <ele>310</ele>
        <time>2023-10-03T12:25:07Z</time>
      </trkpt>
      <trkpt lat="46.6531" lon="5.59994">
        <ele>310</ele>
        <time>2023-10-03T12:25:11Z</time>
      </trkpt>
      <trkpt lat="46.65312" lon="5.59991">
        <ele>310</ele>
        <time>2023-10-03T12:25:15Z</time>
      </trkpt>
      <trkpt lat="46.65314" lon="5.59988">
        <ele>310</ele>
        <time>2023-10-03T12:25:18Z</time>
      </trkpt>
      <trkpt lat="46.65316" lon="5.59985">
        <ele>310</ele>
        <time>2023-10-03T12:25:22Z</time>
      </trkpt>
      <trkpt lat="46.65315" lon="5.59983">
        <ele>309</ele>
        <time>2023-10-03T12:25:40Z</time>
      </trkpt>
      <trkpt lat="46.65314" lon="5.59979">
        <ele>309</ele>
        <time>2023-10-03T12:25:43Z</time>
      </trkpt>
      <trkpt lat="46.65314" lon="5.59974">
        <ele>309</ele>
        <time>2023-10-03T12:25:45Z</time>
      </trkpt>
      <trkpt lat="46.65314" lon="5.5997">
        <ele>309</ele>
        <time>2023-10-03T12:25:47Z</time>
      </trkpt>
      <trkpt lat="46.65315" lon="5.59966">
        <ele>309</ele>
        <time>2023-10-03T12:25:50Z</time>
      </trkpt>
      <trkpt lat="46.65317" lon="5.59962">
        <ele>309</ele>
        <time>2023-10-03T12:25:52Z</time>
      </trkpt>
      <trkpt lat="46.65319" lon="5.5996">
        <ele>309</ele>
        <time>2023-10-03T12:25:55Z</time>
      </trkpt>
      <trkpt lat="46.65321" lon="5.59956">
        <ele>309</ele>
        <time>2023-10-03T12:25:58Z</time>
      </trkpt>
      <trkpt lat="46.65324" lon="5.59953">
        <ele>309</ele>
        <time>2023-10-03T12:26:01Z</time>
      </trkpt>
      <trkpt lat="46.65326" lon="5.5995">
        <ele>309</ele>
        <time>2023-10-03T12:26:04Z</time>
      </trkpt>
      <trkpt lat="46.65329" lon="5.59947">
        <ele>309</ele>
        <time>2023-10-03T12:26:07Z</time>
      </trkpt>
      <trkpt lat="46.65331" lon="5.59945">
        <ele>309</ele>
        <time>2023-10-03T12:26:09Z</time>
      </trkpt>
      <trkpt lat="46.65334" lon="5.59942">
        <ele>309</ele>
        <time>2023-10-03T12:26:12Z</time>
      </trkpt>
      <trkpt lat="46.65337" lon="5.59939">
        <ele>308</ele>
        <time>2023-10-03T12:26:15Z</time>
      </trkpt>
      <trkpt lat="46.65339" lon="5.59937">
        <ele>309</ele>
        <time>2023-10-03T12:26:18Z</time>
      </trkpt>
      <trkpt lat="46.65343" lon="5.59935">
        <ele>309</ele>
        <time>2023-10-03T12:26:21Z</time>
      </trkpt>
      <trkpt lat="46.65345" lon="5.59932">
        <ele>309</ele>
        <time>2023-10-03T12:26:25Z</time>
      </trkpt>
      <trkpt lat="46.65347" lon="5.59929">
        <ele>308</ele>
        <time>2023-10-03T12:26:29Z</time>
      </trkpt>
      <trkpt lat="46.6535" lon="5.59927">
        <ele>308</ele>
        <time>2023-10-03T12:26:33Z</time>
      </trkpt>
      <trkpt lat="46.65353" lon="5.59926">
        <ele>308</ele>
        <time>2023-10-03T12:26:35Z</time>
      </trkpt>
      <trkpt lat="46.65356" lon="5.59925">
        <ele>308</ele>
        <time>2023-10-03T12:26:38Z</time>
      </trkpt>
      <trkpt lat="46.65359" lon="5.59924">
        <ele>308</ele>
        <time>2023-10-03T12:26:41Z</time>
      </trkpt>
      <trkpt lat="46.65362" lon="5.59922">
        <ele>308</ele>
        <time>2023-10-03T12:26:44Z</time>
      </trkpt>
      <trkpt lat="46.65365" lon="5.5992">
        <ele>308</ele>
        <time>2023-10-03T12:26:47Z</time>
      </trkpt>
      <trkpt lat="46.65368" lon="5.59918">
        <ele>308</ele>
        <time>2023-10-03T12:26:50Z</time>
      </trkpt>
      <trkpt lat="46.65371" lon="5.59917">
        <ele>308</ele>
        <time>2023-10-03T12:26:54Z</time>
      </trkpt>
      <trkpt lat="46.65374" lon="5.59917">
        <ele>308</ele>
        <time>2023-10-03T12:26:58Z</time>
      </trkpt>
      <trkpt lat="46.65378" lon="5.59916">
        <ele>308</ele>
        <time>2023-10-03T12:27:01Z</time>
      </trkpt>
      <trkpt lat="46.65381" lon="5.59915">
        <ele>308</ele>
        <time>2023-10-03T12:27:03Z</time>
      </trkpt>
      <trkpt lat="46.65384" lon="5.59914">
        <ele>308</ele>
        <time>2023-10-03T12:27:06Z</time>
      </trkpt>
      <trkpt lat="46.65387" lon="5.59912">
        <ele>308</ele>
        <time>2023-10-03T12:27:09Z</time>
      </trkpt>
      <trkpt lat="46.6539" lon="5.59909">
        <ele>308</ele>
        <time>2023-10-03T12:27:12Z</time>
      </trkpt>
      <trkpt lat="46.65392" lon="5.59906">
        <ele>308</ele>
        <time>2023-10-03T12:27:15Z</time>
      </trkpt>
      <trkpt lat="46.65395" lon="5.59904">
        <ele>308</ele>
        <time>2023-10-03T12:27:17Z</time>
      </trkpt>
      <trkpt lat="46.65398" lon="5.59902">
        <ele>308</ele>
        <time>2023-10-03T12:27:20Z</time>
      </trkpt>
      <trkpt lat="46.65401" lon="5.59899">
        <ele>308</ele>
        <time>2023-10-03T12:27:23Z</time>
      </trkpt>
      <trkpt lat="46.65404" lon="5.59897">
        <ele>308</ele>
        <time>2023-10-03T12:27:26Z</time>
      </trkpt>
      <trkpt lat="46.65407" lon="5.59896">
        <ele>308</ele>
        <time>2023-10-03T12:27:28Z</time>
      </trkpt>
      <trkpt lat="46.6541" lon="5.59895">
        <ele>308</ele>
        <time>2023-10-03T12:27:30Z</time>
      </trkpt>
      <trkpt lat="46.65413" lon="5.59893">
        <ele>308</ele>
        <time>2023-10-03T12:27:34Z</time>
      </trkpt>
      <trkpt lat="46.65415" lon="5.5989">
        <ele>308</ele>
        <time>2023-10-03T12:27:38Z</time>
      </trkpt>
      <trkpt lat="46.65418" lon="5.59888">
        <ele>308</ele>
        <time>2023-10-03T12:27:41Z</time>
      </trkpt>
      <trkpt lat="46.65421" lon="5.59887">
        <ele>308</ele>
        <time>2023-10-03T12:27:43Z</time>
      </trkpt>
      <trkpt lat="46.65424" lon="5.59886">
        <ele>307</ele>
        <time>2023-10-03T12:27:46Z</time>
      </trkpt>
      <trkpt lat="46.65428" lon="5.59885">
        <ele>307</ele>
        <time>2023-10-03T12:27:49Z</time>
      </trkpt>
      <trkpt lat="46.65431" lon="5.59883">
        <ele>307</ele>
        <time>2023-10-03T12:27:53Z</time>
      </trkpt>
      <trkpt lat="46.65434" lon="5.59882">
        <ele>307</ele>
        <time>2023-10-03T12:27:55Z</time>
      </trkpt>
      <trkpt lat="46.65437" lon="5.59881">
        <ele>307</ele>
        <time>2023-10-03T12:27:58Z</time>
      </trkpt>
      <trkpt lat="46.6544" lon="5.5988">
        <ele>307</ele>
        <time>2023-10-03T12:28:01Z</time>
      </trkpt>
      <trkpt lat="46.65444" lon="5.59879">
        <ele>307</ele>
        <time>2023-10-03T12:28:04Z</time>
      </trkpt>
      <trkpt lat="46.65447" lon="5.59877">
        <ele>307</ele>
        <time>2023-10-03T12:28:07Z</time>
      </trkpt>
      <trkpt lat="46.6545" lon="5.59875">
        <ele>307</ele>
        <time>2023-10-03T12:28:39Z</time>
      </trkpt>
      <trkpt lat="46.65453" lon="5.59875">
        <ele>308</ele>
        <time>2023-10-03T12:28:45Z</time>
      </trkpt>
      <trkpt lat="46.65456" lon="5.59877">
        <ele>308</ele>
        <time>2023-10-03T12:28:49Z</time>
      </trkpt>
      <trkpt lat="46.65459" lon="5.59878">
        <ele>308</ele>
        <time>2023-10-03T12:28:53Z</time>
      </trkpt>
      <trkpt lat="46.65463" lon="5.59878">
        <ele>308</ele>
        <time>2023-10-03T12:28:55Z</time>
      </trkpt>
      <trkpt lat="46.65466" lon="5.59878">
        <ele>308</ele>
        <time>2023-10-03T12:28:58Z</time>
      </trkpt>
      <trkpt lat="46.65469" lon="5.59878">
        <ele>308</ele>
        <time>2023-10-03T12:29:01Z</time>
      </trkpt>
      <trkpt lat="46.65472" lon="5.5988">
        <ele>308</ele>
        <time>2023-10-03T12:29:04Z</time>
      </trkpt>
      <trkpt lat="46.65475" lon="5.59882">
        <ele>308</ele>
        <time>2023-10-03T12:29:07Z</time>
      </trkpt>
      <trkpt lat="46.65478" lon="5.59885">
        <ele>308</ele>
        <time>2023-10-03T12:29:10Z</time>
      </trkpt>
      <trkpt lat="46.6548" lon="5.59889">
        <ele>308</ele>
        <time>2023-10-03T12:29:13Z</time>
      </trkpt>
      <trkpt lat="46.65483" lon="5.59892">
        <ele>308</ele>
        <time>2023-10-03T12:29:16Z</time>
      </trkpt>
      <trkpt lat="46.65485" lon="5.59895">
        <ele>308</ele>
        <time>2023-10-03T12:29:19Z</time>
      </trkpt>
      <trkpt lat="46.65487" lon="5.59899">
        <ele>308</ele>
        <time>2023-10-03T12:29:22Z</time>
      </trkpt>
      <trkpt lat="46.65488" lon="5.59902">
        <ele>308</ele>
        <time>2023-10-03T12:29:24Z</time>
      </trkpt>
      <trkpt lat="46.6549" lon="5.59905">
        <ele>308</ele>
        <time>2023-10-03T12:29:26Z</time>
      </trkpt>
      <trkpt lat="46.65492" lon="5.59908">
        <ele>308</ele>
        <time>2023-10-03T12:29:29Z</time>
      </trkpt>
      <trkpt lat="46.65494" lon="5.59912">
        <ele>308</ele>
        <time>2023-10-03T12:29:32Z</time>
      </trkpt>
      <trkpt lat="46.65496" lon="5.59916">
        <ele>308</ele>
        <time>2023-10-03T12:29:35Z</time>
      </trkpt>
      <trkpt lat="46.65498" lon="5.59919">
        <ele>308</ele>
        <time>2023-10-03T12:29:38Z</time>
      </trkpt>
      <trkpt lat="46.655" lon="5.59923">
        <ele>308</ele>
        <time>2023-10-03T12:29:41Z</time>
      </trkpt>
      <trkpt lat="46.65503" lon="5.59926">
        <ele>308</ele>
        <time>2023-10-03T12:29:44Z</time>
      </trkpt>
      <trkpt lat="46.65505" lon="5.5993">
        <ele>308</ele>
        <time>2023-10-03T12:29:47Z</time>
      </trkpt>
      <trkpt lat="46.65506" lon="5.59934">
        <ele>309</ele>
        <time>2023-10-03T12:29:50Z</time>
      </trkpt>
      <trkpt lat="46.65507" lon="5.59939">
        <ele>309</ele>
        <time>2023-10-03T12:29:53Z</time>
      </trkpt>
      <trkpt lat="46.65508" lon="5.59943">
        <ele>309</ele>
        <time>2023-10-03T12:29:56Z</time>
      </trkpt>
      <trkpt lat="46.65509" lon="5.59947">
        <ele>309</ele>
        <time>2023-10-03T12:29:59Z</time>
      </trkpt>
      <trkpt lat="46.65511" lon="5.5995">
        <ele>309</ele>
        <time>2023-10-03T12:30:02Z</time>
      </trkpt>
      <trkpt lat="46.65513" lon="5.59952">
        <ele>309</ele>
        <time>2023-10-03T12:30:04Z</time>
      </trkpt>
      <trkpt lat="46.65516" lon="5.59954">
        <ele>309</ele>
        <time>2023-10-03T12:30:07Z</time>
      </trkpt>
      <trkpt lat="46.65518" lon="5.59958">
        <ele>309</ele>
        <time>2023-10-03T12:30:10Z</time>
      </trkpt>
      <trkpt lat="46.65518" lon="5.59962">
        <ele>309</ele>
        <time>2023-10-03T12:30:13Z</time>
      </trkpt>
      <trkpt lat="46.65519" lon="5.59966">
        <ele>309</ele>
        <time>2023-10-03T12:30:15Z</time>
      </trkpt>
      <trkpt lat="46.65519" lon="5.5997">
        <ele>309</ele>
        <time>2023-10-03T12:30:17Z</time>
      </trkpt>
      <trkpt lat="46.6552" lon="5.59974">
        <ele>309</ele>
        <time>2023-10-03T12:30:20Z</time>
      </trkpt>
      <trkpt lat="46.65521" lon="5.59978">
        <ele>309</ele>
        <time>2023-10-03T12:30:23Z</time>
      </trkpt>
      <trkpt lat="46.65522" lon="5.59983">
        <ele>309</ele>
        <time>2023-10-03T12:30:27Z</time>
      </trkpt>
      <trkpt lat="46.65522" lon="5.59987">
        <ele>310</ele>
        <time>2023-10-03T12:30:29Z</time>
      </trkpt>
      <trkpt lat="46.65521" lon="5.59991">
        <ele>310</ele>
        <time>2023-10-03T12:30:32Z</time>
      </trkpt>
      <trkpt lat="46.65521" lon="5.59995">
        <ele>310</ele>
        <time>2023-10-03T12:30:35Z</time>
      </trkpt>
      <trkpt lat="46.65521" lon="5.6">
        <ele>310</ele>
        <time>2023-10-03T12:30:38Z</time>
      </trkpt>
      <trkpt lat="46.65521" lon="5.60005">
        <ele>310</ele>
        <time>2023-10-03T12:30:40Z</time>
      </trkpt>
      <trkpt lat="46.65521" lon="5.60009">
        <ele>310</ele>
        <time>2023-10-03T12:30:43Z</time>
      </trkpt>
      <trkpt lat="46.65521" lon="5.60014">
        <ele>310</ele>
        <time>2023-10-03T12:30:46Z</time>
      </trkpt>
      <trkpt lat="46.6552" lon="5.60019">
        <ele>310</ele>
        <time>2023-10-03T12:30:49Z</time>
      </trkpt>
      <trkpt lat="46.6552" lon="5.60022">
        <ele>310</ele>
        <time>2023-10-03T12:30:50Z</time>
      </trkpt>
      <trkpt lat="46.65521" lon="5.60024">
        <ele>310</ele>
        <time>2023-10-03T12:30:51Z</time>
      </trkpt>
      <trkpt lat="46.6552" lon="5.60027">
        <ele>311</ele>
        <time>2023-10-03T12:30:56Z</time>
      </trkpt>
      <trkpt lat="46.65519" lon="5.60031">
        <ele>311</ele>
        <time>2023-10-03T12:30:59Z</time>
      </trkpt>
      <trkpt lat="46.65518" lon="5.60036">
        <ele>311</ele>
        <time>2023-10-03T12:31:02Z</time>
      </trkpt>
      <trkpt lat="46.65517" lon="5.60041">
        <ele>311</ele>
        <time>2023-10-03T12:31:05Z</time>
      </trkpt>
      <trkpt lat="46.65518" lon="5.60047">
        <ele>311</ele>
        <time>2023-10-03T12:31:09Z</time>
      </trkpt>
      <trkpt lat="46.65518" lon="5.60052">
        <ele>311</ele>
        <time>2023-10-03T12:31:10Z</time>
      </trkpt>
      <trkpt lat="46.65518" lon="5.60057">
        <ele>311</ele>
        <time>2023-10-03T12:31:12Z</time>
      </trkpt>
      <trkpt lat="46.65519" lon="5.60061">
        <ele>312</ele>
        <time>2023-10-03T12:31:15Z</time>
      </trkpt>
      <trkpt lat="46.65518" lon="5.60066">
        <ele>312</ele>
        <time>2023-10-03T12:31:18Z</time>
      </trkpt>
      <trkpt lat="46.65518" lon="5.60069">
        <ele>312</ele>
        <time>2023-10-03T12:31:19Z</time>
      </trkpt>
      <trkpt lat="46.65517" lon="5.60073">
        <ele>312</ele>
        <time>2023-10-03T12:31:21Z</time>
      </trkpt>
      <trkpt lat="46.65516" lon="5.60077">
        <ele>312</ele>
        <time>2023-10-03T12:31:24Z</time>
      </trkpt>
      <trkpt lat="46.65515" lon="5.60082">
        <ele>312</ele>
        <time>2023-10-03T12:31:27Z</time>
      </trkpt>
      <trkpt lat="46.65514" lon="5.60087">
        <ele>313</ele>
        <time>2023-10-03T12:31:31Z</time>
      </trkpt>
      <trkpt lat="46.65513" lon="5.60091">
        <ele>313</ele>
        <time>2023-10-03T12:31:36Z</time>
      </trkpt>
      <trkpt lat="46.65513" lon="5.60095">
        <ele>313</ele>
        <time>2023-10-03T12:31:39Z</time>
      </trkpt>
      <trkpt lat="46.65513" lon="5.601">
        <ele>313</ele>
        <time>2023-10-03T12:31:42Z</time>
      </trkpt>
      <trkpt lat="46.65514" lon="5.60105">
        <ele>313</ele>
        <time>2023-10-03T12:31:45Z</time>
      </trkpt>
      <trkpt lat="46.65514" lon="5.6011">
        <ele>313</ele>
        <time>2023-10-03T12:31:48Z</time>
      </trkpt>
      <trkpt lat="46.65513" lon="5.60115">
        <ele>314</ele>
        <time>2023-10-03T12:31:51Z</time>
      </trkpt>
      <trkpt lat="46.65513" lon="5.60119">
        <ele>314</ele>
        <time>2023-10-03T12:31:54Z</time>
      </trkpt>
      <trkpt lat="46.65513" lon="5.60125">
        <ele>314</ele>
        <time>2023-10-03T12:31:57Z</time>
      </trkpt>
      <trkpt lat="46.65512" lon="5.6013">
        <ele>314</ele>
        <time>2023-10-03T12:32:00Z</time>
      </trkpt>
      <trkpt lat="46.65512" lon="5.60134">
        <ele>314</ele>
        <time>2023-10-03T12:32:02Z</time>
      </trkpt>
      <trkpt lat="46.65511" lon="5.60139">
        <ele>314</ele>
        <time>2023-10-03T12:32:05Z</time>
      </trkpt>
      <trkpt lat="46.65511" lon="5.60143">
        <ele>314</ele>
        <time>2023-10-03T12:32:08Z</time>
      </trkpt>
      <trkpt lat="46.6551" lon="5.60147">
        <ele>314</ele>
        <time>2023-10-03T12:32:11Z</time>
      </trkpt>
      <trkpt lat="46.6551" lon="5.60151">
        <ele>314</ele>
        <time>2023-10-03T12:32:13Z</time>
      </trkpt>
      <trkpt lat="46.65509" lon="5.60155">
        <ele>314</ele>
        <time>2023-10-03T12:32:15Z</time>
      </trkpt>
      <trkpt lat="46.65509" lon="5.6016">
        <ele>315</ele>
        <time>2023-10-03T12:32:17Z</time>
      </trkpt>
      <trkpt lat="46.65509" lon="5.60165">
        <ele>315</ele>
        <time>2023-10-03T12:32:20Z</time>
      </trkpt>
      <trkpt lat="46.6551" lon="5.6017">
        <ele>315</ele>
        <time>2023-10-03T12:32:23Z</time>
      </trkpt>
      <trkpt lat="46.65511" lon="5.60175">
        <ele>315</ele>
        <time>2023-10-03T12:32:26Z</time>
      </trkpt>
      <trkpt lat="46.65513" lon="5.6018">
        <ele>315</ele>
        <time>2023-10-03T12:32:29Z</time>
      </trkpt>
      <trkpt lat="46.65514" lon="5.60182">
        <ele>315</ele>
        <time>2023-10-03T12:32:30Z</time>
      </trkpt>
      <trkpt lat="46.65514" lon="5.60186">
        <ele>315</ele>
        <time>2023-10-03T12:32:33Z</time>
      </trkpt>
      <trkpt lat="46.65516" lon="5.6019">
        <ele>315</ele>
        <time>2023-10-03T12:32:36Z</time>
      </trkpt>
      <trkpt lat="46.65517" lon="5.60194">
        <ele>315</ele>
        <time>2023-10-03T12:32:39Z</time>
      </trkpt>
      <trkpt lat="46.65518" lon="5.60198">
        <ele>315</ele>
        <time>2023-10-03T12:32:42Z</time>
      </trkpt>
      <trkpt lat="46.65519" lon="5.60203">
        <ele>315</ele>
        <time>2023-10-03T12:32:45Z</time>
      </trkpt>
      <trkpt lat="46.6552" lon="5.60207">
        <ele>316</ele>
        <time>2023-10-03T12:32:47Z</time>
      </trkpt>
      <trkpt lat="46.65521" lon="5.60212">
        <ele>316</ele>
        <time>2023-10-03T12:32:50Z</time>
      </trkpt>
      <trkpt lat="46.65523" lon="5.60216">
        <ele>316</ele>
        <time>2023-10-03T12:32:53Z</time>
      </trkpt>
      <trkpt lat="46.65525" lon="5.60219">
        <ele>316</ele>
        <time>2023-10-03T12:32:56Z</time>
      </trkpt>
      <trkpt lat="46.65528" lon="5.60222">
        <ele>316</ele>
        <time>2023-10-03T12:32:59Z</time>
      </trkpt>
      <trkpt lat="46.65528" lon="5.60226">
        <ele>316</ele>
        <time>2023-10-03T12:33:02Z</time>
      </trkpt>
      <trkpt lat="46.65528" lon="5.60229">
        <ele>316</ele>
        <time>2023-10-03T12:33:04Z</time>
      </trkpt>
      <trkpt lat="46.65528" lon="5.60234">
        <ele>316</ele>
        <time>2023-10-03T12:33:07Z</time>
      </trkpt>
      <trkpt lat="46.65529" lon="5.60239">
        <ele>316</ele>
        <time>2023-10-03T12:33:10Z</time>
      </trkpt>
      <trkpt lat="46.65531" lon="5.60242">
        <ele>316</ele>
        <time>2023-10-03T12:33:13Z</time>
      </trkpt>
      <trkpt lat="46.65533" lon="5.60243">
        <ele>316</ele>
        <time>2023-10-03T12:33:15Z</time>
      </trkpt>
      <trkpt lat="46.65536" lon="5.60243">
        <ele>317</ele>
        <time>2023-10-03T12:33:17Z</time>
      </trkpt>
      <trkpt lat="46.65539" lon="5.60243">
        <ele>317</ele>
        <time>2023-10-03T12:33:20Z</time>
      </trkpt>
      <trkpt lat="46.65542" lon="5.60243">
        <ele>317</ele>
        <time>2023-10-03T12:33:23Z</time>
      </trkpt>
      <trkpt lat="46.65545" lon="5.60242">
        <ele>317</ele>
        <time>2023-10-03T12:33:27Z</time>
      </trkpt>
      <trkpt lat="46.65548" lon="5.60241">
        <ele>318</ele>
        <time>2023-10-03T12:33:32Z</time>
      </trkpt>
      <trkpt lat="46.65551" lon="5.60239">
        <ele>318</ele>
        <time>2023-10-03T12:33:36Z</time>
      </trkpt>
      <trkpt lat="46.65554" lon="5.60237">
        <ele>319</ele>
        <time>2023-10-03T12:33:39Z</time>
      </trkpt>
      <trkpt lat="46.65556" lon="5.60234">
        <ele>319</ele>
        <time>2023-10-03T12:33:42Z</time>
      </trkpt>
      <trkpt lat="46.65558" lon="5.6023">
        <ele>320</ele>
        <time>2023-10-03T12:33:46Z</time>
      </trkpt>
      <trkpt lat="46.6556" lon="5.60228">
        <ele>320</ele>
        <time>2023-10-03T12:33:52Z</time>
      </trkpt>
      <trkpt lat="46.65563" lon="5.60226">
        <ele>321</ele>
        <time>2023-10-03T12:33:57Z</time>
      </trkpt>
      <trkpt lat="46.65565" lon="5.60223">
        <ele>322</ele>
        <time>2023-10-03T12:34:01Z</time>
      </trkpt>
      <trkpt lat="46.65567" lon="5.6022">
        <ele>322</ele>
        <time>2023-10-03T12:34:04Z</time>
      </trkpt>
      <trkpt lat="46.6557" lon="5.60217">
        <ele>323</ele>
        <time>2023-10-03T12:34:08Z</time>
      </trkpt>
      <trkpt lat="46.65572" lon="5.60214">
        <ele>323</ele>
        <time>2023-10-03T12:34:12Z</time>
      </trkpt>
      <trkpt lat="46.65576" lon="5.60213">
        <ele>323</ele>
        <time>2023-10-03T12:34:15Z</time>
      </trkpt>
      <trkpt lat="46.65579" lon="5.60213">
        <ele>324</ele>
        <time>2023-10-03T12:34:19Z</time>
      </trkpt>
      <trkpt lat="46.65582" lon="5.60214">
        <ele>325</ele>
        <time>2023-10-03T12:34:23Z</time>
      </trkpt>
      <trkpt lat="46.65584" lon="5.60214">
        <ele>325</ele>
        <time>2023-10-03T12:34:27Z</time>
      </trkpt>
      <trkpt lat="46.65588" lon="5.60213">
        <ele>326</ele>
        <time>2023-10-03T12:34:32Z</time>
      </trkpt>
      <trkpt lat="46.65591" lon="5.60213">
        <ele>326</ele>
        <time>2023-10-03T12:34:36Z</time>
      </trkpt>
      <trkpt lat="46.65594" lon="5.60213">
        <ele>327</ele>
        <time>2023-10-03T12:34:39Z</time>
      </trkpt>
      <trkpt lat="46.65598" lon="5.60214">
        <ele>327</ele>
        <time>2023-10-03T12:34:43Z</time>
      </trkpt>
      <trkpt lat="46.65601" lon="5.60215">
        <ele>327</ele>
        <time>2023-10-03T12:34:49Z</time>
      </trkpt>
      <trkpt lat="46.65604" lon="5.60215">
        <ele>328</ele>
        <time>2023-10-03T12:34:52Z</time>
      </trkpt>
      <trkpt lat="46.65607" lon="5.60217">
        <ele>329</ele>
        <time>2023-10-03T12:34:57Z</time>
      </trkpt>
      <trkpt lat="46.65608" lon="5.60221">
        <ele>329</ele>
        <time>2023-10-03T12:35:02Z</time>
      </trkpt>
      <trkpt lat="46.65609" lon="5.60225">
        <ele>330</ele>
        <time>2023-10-03T12:35:06Z</time>
      </trkpt>
      <trkpt lat="46.65609" lon="5.60229">
        <ele>330</ele>
        <time>2023-10-03T12:35:10Z</time>
      </trkpt>
      <trkpt lat="46.65608" lon="5.60234">
        <ele>331</ele>
        <time>2023-10-03T12:35:15Z</time>
      </trkpt>
      <trkpt lat="46.65608" lon="5.60239">
        <ele>331</ele>
        <time>2023-10-03T12:35:19Z</time>
      </trkpt>
      <trkpt lat="46.65609" lon="5.60243">
        <ele>332</ele>
        <time>2023-10-03T12:35:23Z</time>
      </trkpt>
      <trkpt lat="46.6561" lon="5.60247">
        <ele>332</ele>
        <time>2023-10-03T12:35:27Z</time>
      </trkpt>
      <trkpt lat="46.65611" lon="5.60252">
        <ele>333</ele>
        <time>2023-10-03T12:35:30Z</time>
      </trkpt>
      <trkpt lat="46.65611" lon="5.60256">
        <ele>333</ele>
        <time>2023-10-03T12:35:33Z</time>
      </trkpt>
      <trkpt lat="46.65613" lon="5.60261">
        <ele>333</ele>
        <time>2023-10-03T12:35:37Z</time>
      </trkpt>
      <trkpt lat="46.65614" lon="5.60265">
        <ele>334</ele>
        <time>2023-10-03T12:35:40Z</time>
      </trkpt>
      <trkpt lat="46.65616" lon="5.60269">
        <ele>334</ele>
        <time>2023-10-03T12:35:43Z</time>
      </trkpt>
      <trkpt lat="46.65616" lon="5.60273">
        <ele>335</ele>
        <time>2023-10-03T12:35:46Z</time>
      </trkpt>
      <trkpt lat="46.65617" lon="5.60277">
        <ele>335</ele>
        <time>2023-10-03T12:35:50Z</time>
      </trkpt>
      <trkpt lat="46.65617" lon="5.60281">
        <ele>335</ele>
        <time>2023-10-03T12:35:53Z</time>
      </trkpt>
      <trkpt lat="46.65617" lon="5.60286">
        <ele>335</ele>
        <time>2023-10-03T12:35:56Z</time>
      </trkpt>
      <trkpt lat="46.65617" lon="5.6029">
        <ele>336</ele>
        <time>2023-10-03T12:35:59Z</time>
      </trkpt>
      <trkpt lat="46.65617" lon="5.60295">
        <ele>336</ele>
        <time>2023-10-03T12:36:02Z</time>
      </trkpt>
      <trkpt lat="46.65618" lon="5.60299">
        <ele>336</ele>
        <time>2023-10-03T12:36:05Z</time>
      </trkpt>
      <trkpt lat="46.6562" lon="5.60303">
        <ele>336</ele>
        <time>2023-10-03T12:36:08Z</time>
      </trkpt>
      <trkpt lat="46.65623" lon="5.60305">
        <ele>337</ele>
        <time>2023-10-03T12:36:11Z</time>
      </trkpt>
      <trkpt lat="46.65626" lon="5.60307">
        <ele>337</ele>
        <time>2023-10-03T12:36:14Z</time>
      </trkpt>
      <trkpt lat="46.65629" lon="5.60307">
        <ele>337</ele>
        <time>2023-10-03T12:36:17Z</time>
      </trkpt>
      <trkpt lat="46.65633" lon="5.60306">
        <ele>337</ele>
        <time>2023-10-03T12:36:20Z</time>
      </trkpt>
      <trkpt lat="46.65636" lon="5.60305">
        <ele>338</ele>
        <time>2023-10-03T12:36:25Z</time>
      </trkpt>
      <trkpt lat="46.65639" lon="5.60304">
        <ele>338</ele>
        <time>2023-10-03T12:36:30Z</time>
      </trkpt>
      <trkpt lat="46.65641" lon="5.60304">
        <ele>339</ele>
        <time>2023-10-03T12:36:34Z</time>
      </trkpt>
      <trkpt lat="46.65644" lon="5.60303">
        <ele>339</ele>
        <time>2023-10-03T12:36:38Z</time>
      </trkpt>
      <trkpt lat="46.65647" lon="5.60302">
        <ele>340</ele>
        <time>2023-10-03T12:36:42Z</time>
      </trkpt>
      <trkpt lat="46.6565" lon="5.60302">
        <ele>340</ele>
        <time>2023-10-03T12:36:45Z</time>
      </trkpt>
      <trkpt lat="46.65653" lon="5.60302">
        <ele>341</ele>
        <time>2023-10-03T12:36:50Z</time>
      </trkpt>
      <trkpt lat="46.65657" lon="5.60301">
        <ele>341</ele>
        <time>2023-10-03T12:36:54Z</time>
      </trkpt>
      <trkpt lat="46.6566" lon="5.603">
        <ele>342</ele>
        <time>2023-10-03T12:36:57Z</time>
      </trkpt>
      <trkpt lat="46.65663" lon="5.60299">
        <ele>342</ele>
        <time>2023-10-03T12:37:01Z</time>
      </trkpt>
      <trkpt lat="46.65666" lon="5.60298">
        <ele>343</ele>
        <time>2023-10-03T12:37:07Z</time>
      </trkpt>
      <trkpt lat="46.65669" lon="5.60297">
        <ele>344</ele>
        <time>2023-10-03T12:37:13Z</time>
      </trkpt>
      <trkpt lat="46.65672" lon="5.60296">
        <ele>344</ele>
        <time>2023-10-03T12:37:17Z</time>
      </trkpt>
      <trkpt lat="46.65675" lon="5.60294">
        <ele>345</ele>
        <time>2023-10-03T12:37:20Z</time>
      </trkpt>
      <trkpt lat="46.65678" lon="5.60294">
        <ele>345</ele>
        <time>2023-10-03T12:37:22Z</time>
      </trkpt>
      <trkpt lat="46.65681" lon="5.60294">
        <ele>345</ele>
        <time>2023-10-03T12:37:25Z</time>
      </trkpt>
      <trkpt lat="46.65684" lon="5.60294">
        <ele>345</ele>
        <time>2023-10-03T12:37:29Z</time>
      </trkpt>
      <trkpt lat="46.65687" lon="5.60294">
        <ele>346</ele>
        <time>2023-10-03T12:37:32Z</time>
      </trkpt>
      <trkpt lat="46.6569" lon="5.60293">
        <ele>346</ele>
        <time>2023-10-03T12:37:36Z</time>
      </trkpt>
      <trkpt lat="46.65693" lon="5.60293">
        <ele>347</ele>
        <time>2023-10-03T12:37:42Z</time>
      </trkpt>
      <trkpt lat="46.65696" lon="5.60295">
        <ele>348</ele>
        <time>2023-10-03T12:37:51Z</time>
      </trkpt>
      <trkpt lat="46.65699" lon="5.60296">
        <ele>349</ele>
        <time>2023-10-03T12:37:56Z</time>
      </trkpt>
      <trkpt lat="46.65702" lon="5.60296">
        <ele>350</ele>
        <time>2023-10-03T12:38:00Z</time>
      </trkpt>
      <trkpt lat="46.65705" lon="5.60296">
        <ele>351</ele>
        <time>2023-10-03T12:38:05Z</time>
      </trkpt>
      <trkpt lat="46.65708" lon="5.60295">
        <ele>352</ele>
        <time>2023-10-03T12:38:10Z</time>
      </trkpt>
      <trkpt lat="46.65711" lon="5.60295">
        <ele>352</ele>
        <time>2023-10-03T12:38:15Z</time>
      </trkpt>
      <trkpt lat="46.65714" lon="5.60296">
        <ele>353</ele>
        <time>2023-10-03T12:38:21Z</time>
      </trkpt>
      <trkpt lat="46.65717" lon="5.60295">
        <ele>354</ele>
        <time>2023-10-03T12:38:25Z</time>
      </trkpt>
      <trkpt lat="46.6572" lon="5.60294">
        <ele>355</ele>
        <time>2023-10-03T12:38:31Z</time>
      </trkpt>
      <trkpt lat="46.65723" lon="5.60294">
        <ele>356</ele>
        <time>2023-10-03T12:38:35Z</time>
      </trkpt>
      <trkpt lat="46.65725" lon="5.60293">
        <ele>356</ele>
        <time>2023-10-03T12:38:38Z</time>
      </trkpt>
      <trkpt lat="46.65728" lon="5.60292">
        <ele>357</ele>
        <time>2023-10-03T12:38:43Z</time>
      </trkpt>
      <trkpt lat="46.65731" lon="5.60292">
        <ele>357</ele>
        <time>2023-10-03T12:38:49Z</time>
      </trkpt>
      <trkpt lat="46.65733" lon="5.60291">
        <ele>358</ele>
        <time>2023-10-03T12:38:55Z</time>
      </trkpt>
      <trkpt lat="46.65736" lon="5.60289">
        <ele>359</ele>
        <time>2023-10-03T12:38:59Z</time>
      </trkpt>
      <trkpt lat="46.65739" lon="5.60288">
        <ele>360</ele>
        <time>2023-10-03T12:39:05Z</time>
      </trkpt>
      <trkpt lat="46.65741" lon="5.6029">
        <ele>360</ele>
        <time>2023-10-03T12:39:09Z</time>
      </trkpt>
      <trkpt lat="46.65742" lon="5.60294">
        <ele>360</ele>
        <time>2023-10-03T12:39:12Z</time>
      </trkpt>
      <trkpt lat="46.65744" lon="5.60297">
        <ele>361</ele>
        <time>2023-10-03T12:39:16Z</time>
      </trkpt>
      <trkpt lat="46.65746" lon="5.603">
        <ele>362</ele>
        <time>2023-10-03T12:39:20Z</time>
      </trkpt>
      <trkpt lat="46.65748" lon="5.60303">
        <ele>362</ele>
        <time>2023-10-03T12:39:24Z</time>
      </trkpt>
      <trkpt lat="46.65749" lon="5.60306">
        <ele>363</ele>
        <time>2023-10-03T12:39:28Z</time>
      </trkpt>
      <trkpt lat="46.6575" lon="5.6031">
        <ele>363</ele>
        <time>2023-10-03T12:39:33Z</time>
      </trkpt>
      <trkpt lat="46.6575" lon="5.60315">
        <ele>364</ele>
        <time>2023-10-03T12:39:36Z</time>
      </trkpt>
      <trkpt lat="46.65751" lon="5.60319">
        <ele>364</ele>
        <time>2023-10-03T12:39:41Z</time>
      </trkpt>
      <trkpt lat="46.6575" lon="5.60323">
        <ele>365</ele>
        <time>2023-10-03T12:39:44Z</time>
      </trkpt>
      <trkpt lat="46.65751" lon="5.60327">
        <ele>365</ele>
        <time>2023-10-03T12:39:48Z</time>
      </trkpt>
      <trkpt lat="46.65752" lon="5.60331">
        <ele>366</ele>
        <time>2023-10-03T12:39:52Z</time>
      </trkpt>
      <trkpt lat="46.65753" lon="5.60334">
        <ele>366</ele>
        <time>2023-10-03T12:39:58Z</time>
      </trkpt>
      <trkpt lat="46.65756" lon="5.60336">
        <ele>367</ele>
        <time>2023-10-03T12:40:03Z</time>
      </trkpt>
      <trkpt lat="46.65759" lon="5.60337">
        <ele>368</ele>
        <time>2023-10-03T12:40:08Z</time>
      </trkpt>
      <trkpt lat="46.65762" lon="5.60337">
        <ele>368</ele>
        <time>2023-10-03T12:40:12Z</time>
      </trkpt>
      <trkpt lat="46.65764" lon="5.6034">
        <ele>369</ele>
        <time>2023-10-03T12:40:16Z</time>
      </trkpt>
      <trkpt lat="46.65766" lon="5.60343">
        <ele>370</ele>
        <time>2023-10-03T12:40:22Z</time>
      </trkpt>
      <trkpt lat="46.65767" lon="5.60347">
        <ele>370</ele>
        <time>2023-10-03T12:40:25Z</time>
      </trkpt>
      <trkpt lat="46.65768" lon="5.60352">
        <ele>370</ele>
        <time>2023-10-03T12:40:28Z</time>
      </trkpt>
      <trkpt lat="46.6577" lon="5.60356">
        <ele>371</ele>
        <time>2023-10-03T12:40:32Z</time>
      </trkpt>
      <trkpt lat="46.65772" lon="5.60358">
        <ele>372</ele>
        <time>2023-10-03T12:40:37Z</time>
      </trkpt>
      <trkpt lat="46.65774" lon="5.60361">
        <ele>372</ele>
        <time>2023-10-03T12:40:41Z</time>
      </trkpt>
      <trkpt lat="46.65777" lon="5.60365">
        <ele>373</ele>
        <time>2023-10-03T12:40:45Z</time>
      </trkpt>
      <trkpt lat="46.65778" lon="5.60369">
        <ele>373</ele>
        <time>2023-10-03T12:40:50Z</time>
      </trkpt>
      <trkpt lat="46.65778" lon="5.60373">
        <ele>374</ele>
        <time>2023-10-03T12:40:54Z</time>
      </trkpt>
      <trkpt lat="46.65781" lon="5.60376">
        <ele>374</ele>
        <time>2023-10-03T12:41:01Z</time>
      </trkpt>
      <trkpt lat="46.65782" lon="5.60379">
        <ele>375</ele>
        <time>2023-10-03T12:41:14Z</time>
      </trkpt>
      <trkpt lat="46.65784" lon="5.60383">
        <ele>375</ele>
        <time>2023-10-03T12:41:19Z</time>
      </trkpt>
      <trkpt lat="46.65786" lon="5.60386">
        <ele>376</ele>
        <time>2023-10-03T12:41:23Z</time>
      </trkpt>
      <trkpt lat="46.65788" lon="5.6039">
        <ele>376</ele>
        <time>2023-10-03T12:41:28Z</time>
      </trkpt>
      <trkpt lat="46.65789" lon="5.60394">
        <ele>377</ele>
        <time>2023-10-03T12:41:32Z</time>
      </trkpt>
      <trkpt lat="46.6579" lon="5.60398">
        <ele>377</ele>
        <time>2023-10-03T12:41:36Z</time>
      </trkpt>
      <trkpt lat="46.65792" lon="5.60401">
        <ele>378</ele>
        <time>2023-10-03T12:41:41Z</time>
      </trkpt>
      <trkpt lat="46.65795" lon="5.60403">
        <ele>379</ele>
        <time>2023-10-03T12:41:46Z</time>
      </trkpt>
      <trkpt lat="46.65797" lon="5.60405">
        <ele>379</ele>
        <time>2023-10-03T12:41:50Z</time>
      </trkpt>
      <trkpt lat="46.658" lon="5.60405">
        <ele>380</ele>
        <time>2023-10-03T12:41:53Z</time>
      </trkpt>
      <trkpt lat="46.65803" lon="5.60406">
        <ele>381</ele>
        <time>2023-10-03T12:41:58Z</time>
      </trkpt>
      <trkpt lat="46.65806" lon="5.60409">
        <ele>382</ele>
        <time>2023-10-03T12:42:03Z</time>
      </trkpt>
      <trkpt lat="46.65808" lon="5.6041">
        <ele>382</ele>
        <time>2023-10-03T12:42:07Z</time>
      </trkpt>
      <trkpt lat="46.65811" lon="5.60412">
        <ele>383</ele>
        <time>2023-10-03T12:42:11Z</time>
      </trkpt>
      <trkpt lat="46.65813" lon="5.60415">
        <ele>384</ele>
        <time>2023-10-03T12:42:16Z</time>
      </trkpt>
      <trkpt lat="46.65815" lon="5.60418">
        <ele>385</ele>
        <time>2023-10-03T12:42:22Z</time>
      </trkpt>
      <trkpt lat="46.65818" lon="5.6042">
        <ele>385</ele>
        <time>2023-10-03T12:42:27Z</time>
      </trkpt>
      <trkpt lat="46.6582" lon="5.60421">
        <ele>386</ele>
        <time>2023-10-03T12:42:31Z</time>
      </trkpt>
      <trkpt lat="46.65823" lon="5.60421">
        <ele>386</ele>
        <time>2023-10-03T12:42:34Z</time>
      </trkpt>
      <trkpt lat="46.65826" lon="5.60421">
        <ele>387</ele>
        <time>2023-10-03T12:42:38Z</time>
      </trkpt>
      <trkpt lat="46.65829" lon="5.60421">
        <ele>387</ele>
        <time>2023-10-03T12:42:43Z</time>
      </trkpt>
      <trkpt lat="46.65832" lon="5.60421">
        <ele>389</ele>
        <time>2023-10-03T12:42:51Z</time>
      </trkpt>
      <trkpt lat="46.65833" lon="5.60423">
        <ele>389</ele>
        <time>2023-10-03T12:43:13Z</time>
      </trkpt>
      <trkpt lat="46.65835" lon="5.60427">
        <ele>389</ele>
        <time>2023-10-03T12:43:17Z</time>
      </trkpt>
      <trkpt lat="46.65836" lon="5.6043">
        <ele>390</ele>
        <time>2023-10-03T12:43:22Z</time>
      </trkpt>
      <trkpt lat="46.65839" lon="5.60433">
        <ele>390</ele>
        <time>2023-10-03T12:43:26Z</time>
      </trkpt>
      <trkpt lat="46.65842" lon="5.60436">
        <ele>390</ele>
        <time>2023-10-03T12:43:29Z</time>
      </trkpt>
      <trkpt lat="46.65844" lon="5.60438">
        <ele>391</ele>
        <time>2023-10-03T12:43:32Z</time>
      </trkpt>
      <trkpt lat="46.65847" lon="5.6044">
        <ele>391</ele>
        <time>2023-10-03T12:43:35Z</time>
      </trkpt>
      <trkpt lat="46.6585" lon="5.6044">
        <ele>391</ele>
        <time>2023-10-03T12:43:37Z</time>
      </trkpt>
      <trkpt lat="46.65852" lon="5.60439">
        <ele>391</ele>
        <time>2023-10-03T12:43:39Z</time>
      </trkpt>
      <trkpt lat="46.65855" lon="5.60437">
        <ele>391</ele>
        <time>2023-10-03T12:43:42Z</time>
      </trkpt>
      <trkpt lat="46.65854" lon="5.60434">
        <ele>392</ele>
        <time>2023-10-03T12:43:53Z</time>
      </trkpt>
      <trkpt lat="46.65852" lon="5.60435">
        <ele>392</ele>
        <time>2023-10-03T12:43:59Z</time>
      </trkpt>
      <trkpt lat="46.65851" lon="5.60432">
        <ele>392</ele>
        <time>2023-10-03T12:44:36Z</time>
      </trkpt>
      <trkpt lat="46.6585" lon="5.60432">
        <ele>392</ele>
        <time>2023-10-03T12:45:00Z</time>
      </trkpt>
      <trkpt lat="46.65853" lon="5.60431">
        <ele>392</ele>
        <time>2023-10-03T12:45:44Z</time>
      </trkpt>
      <trkpt lat="46.65852" lon="5.60429">
        <ele>392</ele>
        <time>2023-10-03T12:45:49Z</time>
      </trkpt>
      <trkpt lat="46.65852" lon="5.60428">
        <ele>392</ele>
        <time>2023-10-03T12:45:50Z</time>
      </trkpt>
      <trkpt lat="46.65849" lon="5.60425">
        <ele>393</ele>
        <time>2023-10-03T12:46:00Z</time>
      </trkpt>
      <trkpt lat="46.65847" lon="5.60423">
        <ele>393</ele>
        <time>2023-10-03T12:46:03Z</time>
      </trkpt>
      <trkpt lat="46.65844" lon="5.60419">
        <ele>393</ele>
        <time>2023-10-03T12:46:05Z</time>
      </trkpt>
      <trkpt lat="46.65842" lon="5.60416">
        <ele>393</ele>
        <time>2023-10-03T12:46:07Z</time>
      </trkpt>
      <trkpt lat="46.6584" lon="5.60413">
        <ele>393</ele>
        <time>2023-10-03T12:46:10Z</time>
      </trkpt>
      <trkpt lat="46.65838" lon="5.60409">
        <ele>393</ele>
        <time>2023-10-03T12:46:13Z</time>
      </trkpt>
      <trkpt lat="46.65837" lon="5.60404">
        <ele>393</ele>
        <time>2023-10-03T12:46:16Z</time>
      </trkpt>
      <trkpt lat="46.65836" lon="5.604">
        <ele>393</ele>
        <time>2023-10-03T12:46:19Z</time>
      </trkpt>
      <trkpt lat="46.65834" lon="5.60396">
        <ele>393</ele>
        <time>2023-10-03T12:46:23Z</time>
      </trkpt>
      <trkpt lat="46.65833" lon="5.60392">
        <ele>393</ele>
        <time>2023-10-03T12:46:26Z</time>
      </trkpt>
      <trkpt lat="46.65831" lon="5.60389">
        <ele>393</ele>
        <time>2023-10-03T12:46:39Z</time>
      </trkpt>
      <trkpt lat="46.6583" lon="5.60385">
        <ele>392</ele>
        <time>2023-10-03T12:46:42Z</time>
      </trkpt>
      <trkpt lat="46.65829" lon="5.6038">
        <ele>392</ele>
        <time>2023-10-03T12:46:44Z</time>
      </trkpt>
      <trkpt lat="46.65828" lon="5.60376">
        <ele>392</ele>
        <time>2023-10-03T12:46:46Z</time>
      </trkpt>
      <trkpt lat="46.65827" lon="5.60372">
        <ele>392</ele>
        <time>2023-10-03T12:46:48Z</time>
      </trkpt>
      <trkpt lat="46.65827" lon="5.60368">
        <ele>392</ele>
        <time>2023-10-03T12:46:50Z</time>
      </trkpt>
      <trkpt lat="46.65826" lon="5.60364">
        <ele>392</ele>
        <time>2023-10-03T12:46:52Z</time>
      </trkpt>
      <trkpt lat="46.65826" lon="5.6036">
        <ele>392</ele>
        <time>2023-10-03T12:46:54Z</time>
      </trkpt>
      <trkpt lat="46.65825" lon="5.60355">
        <ele>392</ele>
        <time>2023-10-03T12:46:56Z</time>
      </trkpt>
      <trkpt lat="46.65825" lon="5.60351">
        <ele>392</ele>
        <time>2023-10-03T12:46:59Z</time>
      </trkpt>
      <trkpt lat="46.65824" lon="5.60347">
        <ele>393</ele>
        <time>2023-10-03T12:47:02Z</time>
      </trkpt>
      <trkpt lat="46.65824" lon="5.60342">
        <ele>393</ele>
        <time>2023-10-03T12:47:05Z</time>
      </trkpt>
      <trkpt lat="46.65823" lon="5.60337">
        <ele>393</ele>
        <time>2023-10-03T12:47:08Z</time>
      </trkpt>
      <trkpt lat="46.65822" lon="5.60332">
        <ele>393</ele>
        <time>2023-10-03T12:47:11Z</time>
      </trkpt>
      <trkpt lat="46.65822" lon="5.60328">
        <ele>392</ele>
        <time>2023-10-03T12:47:14Z</time>
      </trkpt>
      <trkpt lat="46.65821" lon="5.60323">
        <ele>392</ele>
        <time>2023-10-03T12:47:17Z</time>
      </trkpt>
      <trkpt lat="46.65821" lon="5.60319">
        <ele>392</ele>
        <time>2023-10-03T12:47:21Z</time>
      </trkpt>
      <trkpt lat="46.65819" lon="5.60316">
        <ele>393</ele>
        <time>2023-10-03T12:47:25Z</time>
      </trkpt>
      <trkpt lat="46.65818" lon="5.60311">
        <ele>392</ele>
        <time>2023-10-03T12:47:28Z</time>
      </trkpt>
      <trkpt lat="46.65817" lon="5.60305">
        <ele>392</ele>
        <time>2023-10-03T12:47:31Z</time>
      </trkpt>
      <trkpt lat="46.65817" lon="5.603">
        <ele>392</ele>
        <time>2023-10-03T12:47:34Z</time>
      </trkpt>
      <trkpt lat="46.65817" lon="5.60296">
        <ele>392</ele>
        <time>2023-10-03T12:47:36Z</time>
      </trkpt>
      <trkpt lat="46.65817" lon="5.60291">
        <ele>392</ele>
        <time>2023-10-03T12:47:39Z</time>
      </trkpt>
      <trkpt lat="46.65817" lon="5.60285">
        <ele>392</ele>
        <time>2023-10-03T12:47:42Z</time>
      </trkpt>
      <trkpt lat="46.65817" lon="5.60281">
        <ele>393</ele>
        <time>2023-10-03T12:47:45Z</time>
      </trkpt>
      <trkpt lat="46.65818" lon="5.60277">
        <ele>393</ele>
        <time>2023-10-03T12:47:47Z</time>
      </trkpt>
      <trkpt lat="46.65819" lon="5.60272">
        <ele>392</ele>
        <time>2023-10-03T12:47:50Z</time>
      </trkpt>
      <trkpt lat="46.6582" lon="5.60268">
        <ele>393</ele>
        <time>2023-10-03T12:47:53Z</time>
      </trkpt>
      <trkpt lat="46.65821" lon="5.60264">
        <ele>393</ele>
        <time>2023-10-03T12:47:56Z</time>
      </trkpt>
      <trkpt lat="46.65823" lon="5.60261">
        <ele>393</ele>
        <time>2023-10-03T12:47:59Z</time>
      </trkpt>
      <trkpt lat="46.65826" lon="5.60259">
        <ele>392</ele>
        <time>2023-10-03T12:48:01Z</time>
      </trkpt>
      <trkpt lat="46.65825" lon="5.60258">
        <ele>392</ele>
        <time>2023-10-03T12:48:40Z</time>
      </trkpt>
      <trkpt lat="46.65825" lon="5.60255">
        <ele>392</ele>
        <time>2023-10-03T12:48:57Z</time>
      </trkpt>
      <trkpt lat="46.65826" lon="5.6025">
        <ele>392</ele>
        <time>2023-10-03T12:49:01Z</time>
      </trkpt>
      <trkpt lat="46.65827" lon="5.60246">
        <ele>391</ele>
        <time>2023-10-03T12:49:03Z</time>
      </trkpt>
      <trkpt lat="46.65828" lon="5.60241">
        <ele>391</ele>
        <time>2023-10-03T12:49:06Z</time>
      </trkpt>
      <trkpt lat="46.65828" lon="5.60236">
        <ele>391</ele>
        <time>2023-10-03T12:49:08Z</time>
      </trkpt>
      <trkpt lat="46.65829" lon="5.60232">
        <ele>391</ele>
        <time>2023-10-03T12:49:11Z</time>
      </trkpt>
      <trkpt lat="46.65829" lon="5.60227">
        <ele>392</ele>
        <time>2023-10-03T12:49:14Z</time>
      </trkpt>
      <trkpt lat="46.65829" lon="5.60222">
        <ele>391</ele>
        <time>2023-10-03T12:49:17Z</time>
      </trkpt>
      <trkpt lat="46.6583" lon="5.60217">
        <ele>391</ele>
        <time>2023-10-03T12:49:21Z</time>
      </trkpt>
      <trkpt lat="46.6583" lon="5.60212">
        <ele>391</ele>
        <time>2023-10-03T12:49:24Z</time>
      </trkpt>
      <trkpt lat="46.6583" lon="5.60208">
        <ele>392</ele>
        <time>2023-10-03T12:49:28Z</time>
      </trkpt>
      <trkpt lat="46.65831" lon="5.60203">
        <ele>392</ele>
        <time>2023-10-03T12:49:31Z</time>
      </trkpt>
      <trkpt lat="46.65832" lon="5.60198">
        <ele>391</ele>
        <time>2023-10-03T12:49:34Z</time>
      </trkpt>
      <trkpt lat="46.65833" lon="5.60194">
        <ele>391</ele>
        <time>2023-10-03T12:49:36Z</time>
      </trkpt>
      <trkpt lat="46.65833" lon="5.6019">
        <ele>392</ele>
        <time>2023-10-03T12:49:38Z</time>
      </trkpt>
      <trkpt lat="46.65834" lon="5.60185">
        <ele>392</ele>
        <time>2023-10-03T12:49:40Z</time>
      </trkpt>
      <trkpt lat="46.65835" lon="5.6018">
        <ele>391</ele>
        <time>2023-10-03T12:49:43Z</time>
      </trkpt>
      <trkpt lat="46.65835" lon="5.60175">
        <ele>391</ele>
        <time>2023-10-03T12:49:46Z</time>
      </trkpt>
      <trkpt lat="46.65836" lon="5.6017">
        <ele>391</ele>
        <time>2023-10-03T12:49:49Z</time>
      </trkpt>
      <trkpt lat="46.65837" lon="5.60164">
        <ele>392</ele>
        <time>2023-10-03T12:49:52Z</time>
      </trkpt>
      <trkpt lat="46.65837" lon="5.60159">
        <ele>392</ele>
        <time>2023-10-03T12:49:55Z</time>
      </trkpt>
      <trkpt lat="46.65838" lon="5.60155">
        <ele>392</ele>
        <time>2023-10-03T12:49:58Z</time>
      </trkpt>
      <trkpt lat="46.65839" lon="5.6015">
        <ele>392</ele>
        <time>2023-10-03T12:50:01Z</time>
      </trkpt>
      <trkpt lat="46.6584" lon="5.60144">
        <ele>391</ele>
        <time>2023-10-03T12:50:04Z</time>
      </trkpt>
      <trkpt lat="46.65841" lon="5.6014">
        <ele>391</ele>
        <time>2023-10-03T12:50:06Z</time>
      </trkpt>
      <trkpt lat="46.65842" lon="5.60136">
        <ele>391</ele>
        <time>2023-10-03T12:50:09Z</time>
      </trkpt>
      <trkpt lat="46.65843" lon="5.60131">
        <ele>392</ele>
        <time>2023-10-03T12:50:12Z</time>
      </trkpt>
      <trkpt lat="46.65844" lon="5.60126">
        <ele>391</ele>
        <time>2023-10-03T12:50:15Z</time>
      </trkpt>
      <trkpt lat="46.65845" lon="5.60121">
        <ele>391</ele>
        <time>2023-10-03T12:50:18Z</time>
      </trkpt>
      <trkpt lat="46.65847" lon="5.60116">
        <ele>391</ele>
        <time>2023-10-03T12:50:21Z</time>
      </trkpt>
      <trkpt lat="46.65849" lon="5.60111">
        <ele>391</ele>
        <time>2023-10-03T12:50:24Z</time>
      </trkpt>
      <trkpt lat="46.6585" lon="5.60107">
        <ele>391</ele>
        <time>2023-10-03T12:50:27Z</time>
      </trkpt>
      <trkpt lat="46.65852" lon="5.60102">
        <ele>391</ele>
        <time>2023-10-03T12:50:30Z</time>
      </trkpt>
      <trkpt lat="46.65854" lon="5.60098">
        <ele>391</ele>
        <time>2023-10-03T12:50:33Z</time>
      </trkpt>
      <trkpt lat="46.65855" lon="5.60094">
        <ele>391</ele>
        <time>2023-10-03T12:50:36Z</time>
      </trkpt>
      <trkpt lat="46.65857" lon="5.6009">
        <ele>391</ele>
        <time>2023-10-03T12:50:39Z</time>
      </trkpt>
      <trkpt lat="46.65859" lon="5.60086">
        <ele>391</ele>
        <time>2023-10-03T12:50:42Z</time>
      </trkpt>
      <trkpt lat="46.6586" lon="5.60082">
        <ele>391</ele>
        <time>2023-10-03T12:50:45Z</time>
      </trkpt>
      <trkpt lat="46.65861" lon="5.60078">
        <ele>391</ele>
        <time>2023-10-03T12:50:48Z</time>
      </trkpt>
      <trkpt lat="46.65863" lon="5.60074">
        <ele>391</ele>
        <time>2023-10-03T12:50:51Z</time>
      </trkpt>
      <trkpt lat="46.65864" lon="5.60069">
        <ele>391</ele>
        <time>2023-10-03T12:50:54Z</time>
      </trkpt>
      <trkpt lat="46.65866" lon="5.60065">
        <ele>391</ele>
        <time>2023-10-03T12:50:57Z</time>
      </trkpt>
      <trkpt lat="46.65869" lon="5.60061">
        <ele>391</ele>
        <time>2023-10-03T12:51:00Z</time>
      </trkpt>
      <trkpt lat="46.65871" lon="5.60059">
        <ele>390</ele>
        <time>2023-10-03T12:51:02Z</time>
      </trkpt>
      <trkpt lat="46.65874" lon="5.60055">
        <ele>390</ele>
        <time>2023-10-03T12:51:05Z</time>
      </trkpt>
      <trkpt lat="46.65875" lon="5.60051">
        <ele>391</ele>
        <time>2023-10-03T12:51:08Z</time>
      </trkpt>
      <trkpt lat="46.65876" lon="5.60047">
        <ele>391</ele>
        <time>2023-10-03T12:51:10Z</time>
      </trkpt>
      <trkpt lat="46.65877" lon="5.60043">
        <ele>390</ele>
        <time>2023-10-03T12:51:13Z</time>
      </trkpt>
      <trkpt lat="46.6588" lon="5.6004">
        <ele>390</ele>
        <time>2023-10-03T12:51:16Z</time>
      </trkpt>
      <trkpt lat="46.65882" lon="5.60036">
        <ele>390</ele>
        <time>2023-10-03T12:51:19Z</time>
      </trkpt>
      <trkpt lat="46.65885" lon="5.60033">
        <ele>390</ele>
        <time>2023-10-03T12:51:21Z</time>
      </trkpt>
      <trkpt lat="46.65887" lon="5.60029">
        <ele>390</ele>
        <time>2023-10-03T12:51:23Z</time>
      </trkpt>
      <trkpt lat="46.65889" lon="5.60026">
        <ele>390</ele>
        <time>2023-10-03T12:51:25Z</time>
      </trkpt>
      <trkpt lat="46.65892" lon="5.60023">
        <ele>390</ele>
        <time>2023-10-03T12:51:28Z</time>
      </trkpt>
      <trkpt lat="46.65894" lon="5.6002">
        <ele>391</ele>
        <time>2023-10-03T12:51:30Z</time>
      </trkpt>
      <trkpt lat="46.65897" lon="5.60017">
        <ele>391</ele>
        <time>2023-10-03T12:51:32Z</time>
      </trkpt>
      <trkpt lat="46.65899" lon="5.60014">
        <ele>391</ele>
        <time>2023-10-03T12:51:35Z</time>
      </trkpt>
      <trkpt lat="46.65901" lon="5.6001">
        <ele>390</ele>
        <time>2023-10-03T12:51:38Z</time>
      </trkpt>
      <trkpt lat="46.65903" lon="5.60005">
        <ele>390</ele>
        <time>2023-10-03T12:51:40Z</time>
      </trkpt>
      <trkpt lat="46.65904" lon="5.60001">
        <ele>390</ele>
        <time>2023-10-03T12:51:43Z</time>
      </trkpt>
      <trkpt lat="46.65907" lon="5.59997">
        <ele>390</ele>
        <time>2023-10-03T12:51:46Z</time>
      </trkpt>
      <trkpt lat="46.65909" lon="5.59994">
        <ele>390</ele>
        <time>2023-10-03T12:51:48Z</time>
      </trkpt>
      <trkpt lat="46.65911" lon="5.59991">
        <ele>390</ele>
        <time>2023-10-03T12:51:51Z</time>
      </trkpt>
      <trkpt lat="46.65914" lon="5.59989">
        <ele>390</ele>
        <time>2023-10-03T12:51:56Z</time>
      </trkpt>
      <trkpt lat="46.65916" lon="5.59986">
        <ele>390</ele>
        <time>2023-10-03T12:52:01Z</time>
      </trkpt>
      <trkpt lat="46.65918" lon="5.59983">
        <ele>390</ele>
        <time>2023-10-03T12:52:04Z</time>
      </trkpt>
      <trkpt lat="46.65921" lon="5.59979">
        <ele>390</ele>
        <time>2023-10-03T12:52:07Z</time>
      </trkpt>
      <trkpt lat="46.65923" lon="5.59976">
        <ele>390</ele>
        <time>2023-10-03T12:52:09Z</time>
      </trkpt>
      <trkpt lat="46.65925" lon="5.59972">
        <ele>389</ele>
        <time>2023-10-03T12:52:12Z</time>
      </trkpt>
      <trkpt lat="46.65928" lon="5.59969">
        <ele>389</ele>
        <time>2023-10-03T12:52:14Z</time>
      </trkpt>
      <trkpt lat="46.6593" lon="5.59967">
        <ele>389</ele>
        <time>2023-10-03T12:52:17Z</time>
      </trkpt>
      <trkpt lat="46.65934" lon="5.59965">
        <ele>389</ele>
        <time>2023-10-03T12:52:20Z</time>
      </trkpt>
      <trkpt lat="46.65937" lon="5.59963">
        <ele>389</ele>
        <time>2023-10-03T12:52:23Z</time>
      </trkpt>
      <trkpt lat="46.6594" lon="5.59962">
        <ele>389</ele>
        <time>2023-10-03T12:52:27Z</time>
      </trkpt>
      <trkpt lat="46.65943" lon="5.5996">
        <ele>389</ele>
        <time>2023-10-03T12:52:30Z</time>
      </trkpt>
      <trkpt lat="46.65945" lon="5.59958">
        <ele>389</ele>
        <time>2023-10-03T12:52:33Z</time>
      </trkpt>
      <trkpt lat="46.65948" lon="5.59955">
        <ele>389</ele>
        <time>2023-10-03T12:52:36Z</time>
      </trkpt>
      <trkpt lat="46.65951" lon="5.59953">
        <ele>389</ele>
        <time>2023-10-03T12:52:38Z</time>
      </trkpt>
      <trkpt lat="46.65954" lon="5.59951">
        <ele>388</ele>
        <time>2023-10-03T12:52:41Z</time>
      </trkpt>
      <trkpt lat="46.65957" lon="5.59949">
        <ele>388</ele>
        <time>2023-10-03T12:52:43Z</time>
      </trkpt>
      <trkpt lat="46.6596" lon="5.59946">
        <ele>388</ele>
        <time>2023-10-03T12:52:46Z</time>
      </trkpt>
      <trkpt lat="46.65963" lon="5.59943">
        <ele>388</ele>
        <time>2023-10-03T12:52:48Z</time>
      </trkpt>
      <trkpt lat="46.65965" lon="5.5994">
        <ele>388</ele>
        <time>2023-10-03T12:52:51Z</time>
      </trkpt>
      <trkpt lat="46.65968" lon="5.59938">
        <ele>388</ele>
        <time>2023-10-03T12:52:53Z</time>
      </trkpt>
      <trkpt lat="46.65972" lon="5.59938">
        <ele>388</ele>
        <time>2023-10-03T12:52:55Z</time>
      </trkpt>
      <trkpt lat="46.65974" lon="5.59937">
        <ele>388</ele>
        <time>2023-10-03T12:52:57Z</time>
      </trkpt>
      <trkpt lat="46.65977" lon="5.59934">
        <ele>387</ele>
        <time>2023-10-03T12:53:00Z</time>
      </trkpt>
      <trkpt lat="46.6598" lon="5.59932">
        <ele>387</ele>
        <time>2023-10-03T12:53:02Z</time>
      </trkpt>
      <trkpt lat="46.65982" lon="5.59929">
        <ele>387</ele>
        <time>2023-10-03T12:53:05Z</time>
      </trkpt>
      <trkpt lat="46.65985" lon="5.59927">
        <ele>387</ele>
        <time>2023-10-03T12:53:08Z</time>
      </trkpt>
      <trkpt lat="46.65988" lon="5.59924">
        <ele>387</ele>
        <time>2023-10-03T12:53:10Z</time>
      </trkpt>
      <trkpt lat="46.6599" lon="5.59922">
        <ele>387</ele>
        <time>2023-10-03T12:53:12Z</time>
      </trkpt>
      <trkpt lat="46.65993" lon="5.59919">
        <ele>387</ele>
        <time>2023-10-03T12:53:15Z</time>
      </trkpt>
      <trkpt lat="46.65996" lon="5.59916">
        <ele>387</ele>
        <time>2023-10-03T12:53:18Z</time>
      </trkpt>
      <trkpt lat="46.65999" lon="5.59914">
        <ele>387</ele>
        <time>2023-10-03T12:53:21Z</time>
      </trkpt>
      <trkpt lat="46.66003" lon="5.59913">
        <ele>387</ele>
        <time>2023-10-03T12:53:24Z</time>
      </trkpt>
      <trkpt lat="46.66006" lon="5.59911">
        <ele>387</ele>
        <time>2023-10-03T12:53:27Z</time>
      </trkpt>
      <trkpt lat="46.6601" lon="5.59908">
        <ele>387</ele>
        <time>2023-10-03T12:53:30Z</time>
      </trkpt>
      <trkpt lat="46.66012" lon="5.59905">
        <ele>386</ele>
        <time>2023-10-03T12:53:33Z</time>
      </trkpt>
      <trkpt lat="46.66015" lon="5.59903">
        <ele>386</ele>
        <time>2023-10-03T12:53:36Z</time>
      </trkpt>
      <trkpt lat="46.66019" lon="5.59901">
        <ele>386</ele>
        <time>2023-10-03T12:53:38Z</time>
      </trkpt>
      <trkpt lat="46.66022" lon="5.599">
        <ele>386</ele>
        <time>2023-10-03T12:53:40Z</time>
      </trkpt>
      <trkpt lat="46.66025" lon="5.59899">
        <ele>386</ele>
        <time>2023-10-03T12:53:43Z</time>
      </trkpt>
      <trkpt lat="46.66028" lon="5.59898">
        <ele>386</ele>
        <time>2023-10-03T12:53:45Z</time>
      </trkpt>
      <trkpt lat="46.6603" lon="5.59895">
        <ele>386</ele>
        <time>2023-10-03T12:53:48Z</time>
      </trkpt>
      <trkpt lat="46.66033" lon="5.59892">
        <ele>386</ele>
        <time>2023-10-03T12:53:51Z</time>
      </trkpt>
      <trkpt lat="46.66036" lon="5.59891">
        <ele>386</ele>
        <time>2023-10-03T12:53:55Z</time>
      </trkpt>
      <trkpt lat="46.6604" lon="5.5989">
        <ele>386</ele>
        <time>2023-10-03T12:53:59Z</time>
      </trkpt>
      <trkpt lat="46.66043" lon="5.59888">
        <ele>385</ele>
        <time>2023-10-03T12:54:01Z</time>
      </trkpt>
      <trkpt lat="46.66045" lon="5.59887">
        <ele>385</ele>
        <time>2023-10-03T12:54:03Z</time>
      </trkpt>
      <trkpt lat="46.66048" lon="5.59885">
        <ele>385</ele>
        <time>2023-10-03T12:54:06Z</time>
      </trkpt>
      <trkpt lat="46.66051" lon="5.59883">
        <ele>385</ele>
        <time>2023-10-03T12:54:09Z</time>
      </trkpt>
      <trkpt lat="46.66054" lon="5.59881">
        <ele>385</ele>
        <time>2023-10-03T12:54:12Z</time>
      </trkpt>
      <trkpt lat="46.66058" lon="5.59879">
        <ele>385</ele>
        <time>2023-10-03T12:54:15Z</time>
      </trkpt>
      <trkpt lat="46.66061" lon="5.59878">
        <ele>385</ele>
        <time>2023-10-03T12:54:18Z</time>
      </trkpt>
      <trkpt lat="46.66064" lon="5.59877">
        <ele>385</ele>
        <time>2023-10-03T12:54:21Z</time>
      </trkpt>
      <trkpt lat="46.66067" lon="5.59874">
        <ele>384</ele>
        <time>2023-10-03T12:54:24Z</time>
      </trkpt>
      <trkpt lat="46.66069" lon="5.59873">
        <ele>384</ele>
        <time>2023-10-03T12:54:26Z</time>
      </trkpt>
      <trkpt lat="46.66072" lon="5.59871">
        <ele>384</ele>
        <time>2023-10-03T12:54:28Z</time>
      </trkpt>
      <trkpt lat="46.66076" lon="5.59871">
        <ele>384</ele>
        <time>2023-10-03T12:54:30Z</time>
      </trkpt>
      <trkpt lat="46.66079" lon="5.59872">
        <ele>384</ele>
        <time>2023-10-03T12:54:32Z</time>
      </trkpt>
      <trkpt lat="46.66082" lon="5.59871">
        <ele>384</ele>
        <time>2023-10-03T12:54:35Z</time>
      </trkpt>
      <trkpt lat="46.66085" lon="5.59869">
        <ele>383</ele>
        <time>2023-10-03T12:54:38Z</time>
      </trkpt>
      <trkpt lat="46.66088" lon="5.59869">
        <ele>383</ele>
        <time>2023-10-03T12:54:40Z</time>
      </trkpt>
      <trkpt lat="46.66091" lon="5.59868">
        <ele>383</ele>
        <time>2023-10-03T12:54:42Z</time>
      </trkpt>
      <trkpt lat="46.66095" lon="5.59867">
        <ele>383</ele>
        <time>2023-10-03T12:54:45Z</time>
      </trkpt>
      <trkpt lat="46.66098" lon="5.59866">
        <ele>383</ele>
        <time>2023-10-03T12:54:48Z</time>
      </trkpt>
      <trkpt lat="46.66101" lon="5.59864">
        <ele>383</ele>
        <time>2023-10-03T12:54:50Z</time>
      </trkpt>
      <trkpt lat="46.66103" lon="5.59863">
        <ele>383</ele>
        <time>2023-10-03T12:54:51Z</time>
      </trkpt>
      <trkpt lat="46.66104" lon="5.5986">
        <ele>383</ele>
        <time>2023-10-03T12:54:56Z</time>
      </trkpt>
      <trkpt lat="46.66106" lon="5.59859">
        <ele>383</ele>
        <time>2023-10-03T12:55:09Z</time>
      </trkpt>
      <trkpt lat="46.66109" lon="5.59859">
        <ele>383</ele>
        <time>2023-10-03T12:55:11Z</time>
      </trkpt>
      <trkpt lat="46.66112" lon="5.5986">
        <ele>382</ele>
        <time>2023-10-03T12:55:14Z</time>
      </trkpt>
      <trkpt lat="46.66115" lon="5.5986">
        <ele>382</ele>
        <time>2023-10-03T12:55:16Z</time>
      </trkpt>
      <trkpt lat="46.66117" lon="5.59859">
        <ele>382</ele>
        <time>2023-10-03T12:55:18Z</time>
      </trkpt>
      <trkpt lat="46.6612" lon="5.59858">
        <ele>382</ele>
        <time>2023-10-03T12:55:20Z</time>
      </trkpt>
      <trkpt lat="46.66123" lon="5.59857">
        <ele>382</ele>
        <time>2023-10-03T12:55:23Z</time>
      </trkpt>
      <trkpt lat="46.66127" lon="5.59856">
        <ele>382</ele>
        <time>2023-10-03T12:55:26Z</time>
      </trkpt>
      <trkpt lat="46.6613" lon="5.59856">
        <ele>382</ele>
        <time>2023-10-03T12:55:29Z</time>
      </trkpt>
      <trkpt lat="46.66134" lon="5.59855">
        <ele>382</ele>
        <time>2023-10-03T12:55:32Z</time>
      </trkpt>
      <trkpt lat="46.66137" lon="5.59854">
        <ele>382</ele>
        <time>2023-10-03T12:55:35Z</time>
      </trkpt>
      <trkpt lat="46.66141" lon="5.59853">
        <ele>381</ele>
        <time>2023-10-03T12:55:38Z</time>
      </trkpt>
      <trkpt lat="46.66144" lon="5.59852">
        <ele>381</ele>
        <time>2023-10-03T12:55:40Z</time>
      </trkpt>
      <trkpt lat="46.66148" lon="5.59851">
        <ele>381</ele>
        <time>2023-10-03T12:55:43Z</time>
      </trkpt>
      <trkpt lat="46.66151" lon="5.59852">
        <ele>381</ele>
        <time>2023-10-03T12:55:46Z</time>
      </trkpt>
      <trkpt lat="46.66155" lon="5.59852">
        <ele>381</ele>
        <time>2023-10-03T12:55:49Z</time>
      </trkpt>
      <trkpt lat="46.66158" lon="5.59852">
        <ele>381</ele>
        <time>2023-10-03T12:55:51Z</time>
      </trkpt>
      <trkpt lat="46.66161" lon="5.59851">
        <ele>381</ele>
        <time>2023-10-03T12:55:54Z</time>
      </trkpt>
      <trkpt lat="46.66165" lon="5.59851">
        <ele>381</ele>
        <time>2023-10-03T12:55:57Z</time>
      </trkpt>
      <trkpt lat="46.66168" lon="5.59851">
        <ele>381</ele>
        <time>2023-10-03T12:55:59Z</time>
      </trkpt>
      <trkpt lat="46.66171" lon="5.5985">
        <ele>381</ele>
        <time>2023-10-03T12:56:01Z</time>
      </trkpt>
      <trkpt lat="46.66174" lon="5.5985">
        <ele>381</ele>
        <time>2023-10-03T12:56:04Z</time>
      </trkpt>
      <trkpt lat="46.66177" lon="5.59849">
        <ele>380</ele>
        <time>2023-10-03T12:56:07Z</time>
      </trkpt>
      <trkpt lat="46.66181" lon="5.59848">
        <ele>380</ele>
        <time>2023-10-03T12:56:10Z</time>
      </trkpt>
      <trkpt lat="46.66184" lon="5.59848">
        <ele>380</ele>
        <time>2023-10-03T12:56:13Z</time>
      </trkpt>
      <trkpt lat="46.66188" lon="5.59848">
        <ele>380</ele>
        <time>2023-10-03T12:56:15Z</time>
      </trkpt>
      <trkpt lat="46.66191" lon="5.59847">
        <ele>380</ele>
        <time>2023-10-03T12:56:17Z</time>
      </trkpt>
      <trkpt lat="46.66194" lon="5.59847">
        <ele>380</ele>
        <time>2023-10-03T12:56:19Z</time>
      </trkpt>
      <trkpt lat="46.66197" lon="5.59847">
        <ele>380</ele>
        <time>2023-10-03T12:56:22Z</time>
      </trkpt>
      <trkpt lat="46.662" lon="5.59846">
        <ele>380</ele>
        <time>2023-10-03T12:56:24Z</time>
      </trkpt>
      <trkpt lat="46.66203" lon="5.59845">
        <ele>380</ele>
        <time>2023-10-03T12:56:26Z</time>
      </trkpt>
      <trkpt lat="46.66206" lon="5.59845">
        <ele>380</ele>
        <time>2023-10-03T12:56:29Z</time>
      </trkpt>
      <trkpt lat="46.66209" lon="5.59844">
        <ele>380</ele>
        <time>2023-10-03T12:56:32Z</time>
      </trkpt>
      <trkpt lat="46.66213" lon="5.59844">
        <ele>380</ele>
        <time>2023-10-03T12:56:35Z</time>
      </trkpt>
      <trkpt lat="46.66216" lon="5.59843">
        <ele>380</ele>
        <time>2023-10-03T12:56:37Z</time>
      </trkpt>
      <trkpt lat="46.66219" lon="5.59842">
        <ele>379</ele>
        <time>2023-10-03T12:56:40Z</time>
      </trkpt>
      <trkpt lat="46.66222" lon="5.59841">
        <ele>379</ele>
        <time>2023-10-03T12:56:43Z</time>
      </trkpt>
      <trkpt lat="46.66226" lon="5.59841">
        <ele>379</ele>
        <time>2023-10-03T12:56:46Z</time>
      </trkpt>
      <trkpt lat="46.66229" lon="5.59841">
        <ele>379</ele>
        <time>2023-10-03T12:56:49Z</time>
      </trkpt>
      <trkpt lat="46.66232" lon="5.5984">
        <ele>379</ele>
        <time>2023-10-03T12:56:51Z</time>
      </trkpt>
      <trkpt lat="46.66236" lon="5.59839">
        <ele>379</ele>
        <time>2023-10-03T12:56:54Z</time>
      </trkpt>
      <trkpt lat="46.66239" lon="5.59839">
        <ele>379</ele>
        <time>2023-10-03T12:56:57Z</time>
      </trkpt>
      <trkpt lat="46.66243" lon="5.59838">
        <ele>379</ele>
        <time>2023-10-03T12:57:00Z</time>
      </trkpt>
      <trkpt lat="46.66246" lon="5.59836">
        <ele>378</ele>
        <time>2023-10-03T12:57:03Z</time>
      </trkpt>
      <trkpt lat="46.6625" lon="5.59835">
        <ele>378</ele>
        <time>2023-10-03T12:57:05Z</time>
      </trkpt>
      <trkpt lat="46.66253" lon="5.59833">
        <ele>378</ele>
        <time>2023-10-03T12:57:08Z</time>
      </trkpt>
      <trkpt lat="46.66257" lon="5.59833">
        <ele>378</ele>
        <time>2023-10-03T12:57:11Z</time>
      </trkpt>
      <trkpt lat="46.6626" lon="5.59832">
        <ele>378</ele>
        <time>2023-10-03T12:57:13Z</time>
      </trkpt>
      <trkpt lat="46.66263" lon="5.59831">
        <ele>378</ele>
        <time>2023-10-03T12:57:16Z</time>
      </trkpt>
      <trkpt lat="46.66267" lon="5.5983">
        <ele>378</ele>
        <time>2023-10-03T12:57:19Z</time>
      </trkpt>
      <trkpt lat="46.6627" lon="5.59829">
        <ele>378</ele>
        <time>2023-10-03T12:57:22Z</time>
      </trkpt>
      <trkpt lat="46.66274" lon="5.59829">
        <ele>378</ele>
        <time>2023-10-03T12:57:25Z</time>
      </trkpt>
      <trkpt lat="46.66277" lon="5.59827">
        <ele>378</ele>
        <time>2023-10-03T12:57:28Z</time>
      </trkpt>
      <trkpt lat="46.66279" lon="5.59825">
        <ele>378</ele>
        <time>2023-10-03T12:57:31Z</time>
      </trkpt>
      <trkpt lat="46.66282" lon="5.59824">
        <ele>378</ele>
        <time>2023-10-03T12:57:34Z</time>
      </trkpt>
      <trkpt lat="46.66285" lon="5.59823">
        <ele>378</ele>
        <time>2023-10-03T12:57:37Z</time>
      </trkpt>
      <trkpt lat="46.66288" lon="5.59822">
        <ele>378</ele>
        <time>2023-10-03T12:57:40Z</time>
      </trkpt>
      <trkpt lat="46.66292" lon="5.59822">
        <ele>378</ele>
        <time>2023-10-03T12:57:43Z</time>
      </trkpt>
      <trkpt lat="46.66295" lon="5.59821">
        <ele>378</ele>
        <time>2023-10-03T12:57:45Z</time>
      </trkpt>
      <trkpt lat="46.66297" lon="5.5982">
        <ele>378</ele>
        <time>2023-10-03T12:57:47Z</time>
      </trkpt>
      <trkpt lat="46.66301" lon="5.59819">
        <ele>378</ele>
        <time>2023-10-03T12:57:50Z</time>
      </trkpt>
      <trkpt lat="46.66304" lon="5.59818">
        <ele>378</ele>
        <time>2023-10-03T12:57:52Z</time>
      </trkpt>
      <trkpt lat="46.66307" lon="5.59817">
        <ele>377</ele>
        <time>2023-10-03T12:57:54Z</time>
      </trkpt>
      <trkpt lat="46.6631" lon="5.59816">
        <ele>377</ele>
        <time>2023-10-03T12:57:56Z</time>
      </trkpt>
      <trkpt lat="46.66313" lon="5.59815">
        <ele>377</ele>
        <time>2023-10-03T12:57:58Z</time>
      </trkpt>
      <trkpt lat="46.66316" lon="5.59813">
        <ele>377</ele>
        <time>2023-10-03T12:58:01Z</time>
      </trkpt>
      <trkpt lat="46.66319" lon="5.59811">
        <ele>377</ele>
        <time>2023-10-03T12:58:04Z</time>
      </trkpt>
      <trkpt lat="46.66322" lon="5.59809">
        <ele>377</ele>
        <time>2023-10-03T12:58:07Z</time>
      </trkpt>
      <trkpt lat="46.66326" lon="5.59807">
        <ele>377</ele>
        <time>2023-10-03T12:58:10Z</time>
      </trkpt>
      <trkpt lat="46.66329" lon="5.59805">
        <ele>377</ele>
        <time>2023-10-03T12:58:13Z</time>
      </trkpt>
      <trkpt lat="46.66332" lon="5.59802">
        <ele>377</ele>
        <time>2023-10-03T12:58:16Z</time>
      </trkpt>
      <trkpt lat="46.66335" lon="5.598">
        <ele>377</ele>
        <time>2023-10-03T12:58:19Z</time>
      </trkpt>
      <trkpt lat="46.66338" lon="5.59797">
        <ele>377</ele>
        <time>2023-10-03T12:58:22Z</time>
      </trkpt>
      <trkpt lat="46.66341" lon="5.59796">
        <ele>376</ele>
        <time>2023-10-03T12:58:26Z</time>
      </trkpt>
      <trkpt lat="46.66344" lon="5.59795">
        <ele>376</ele>
        <time>2023-10-03T12:58:29Z</time>
      </trkpt>
      <trkpt lat="46.66346" lon="5.59793">
        <ele>376</ele>
        <time>2023-10-03T12:58:33Z</time>
      </trkpt>
      <trkpt lat="46.66348" lon="5.5979">
        <ele>376</ele>
        <time>2023-10-03T12:58:43Z</time>
      </trkpt>
      <trkpt lat="46.66351" lon="5.59788">
        <ele>376</ele>
        <time>2023-10-03T12:58:52Z</time>
      </trkpt>
      <trkpt lat="46.66353" lon="5.59786">
        <ele>376</ele>
        <time>2023-10-03T12:58:56Z</time>
      </trkpt>
      <trkpt lat="46.66356" lon="5.59784">
        <ele>376</ele>
        <time>2023-10-03T12:58:59Z</time>
      </trkpt>
      <trkpt lat="46.66359" lon="5.59783">
        <ele>376</ele>
        <time>2023-10-03T12:59:02Z</time>
      </trkpt>
      <trkpt lat="46.66362" lon="5.59782">
        <ele>376</ele>
        <time>2023-10-03T12:59:05Z</time>
      </trkpt>
      <trkpt lat="46.66365" lon="5.59782">
        <ele>375</ele>
        <time>2023-10-03T12:59:09Z</time>
      </trkpt>
      <trkpt lat="46.66369" lon="5.5978">
        <ele>375</ele>
        <time>2023-10-03T12:59:13Z</time>
      </trkpt>
      <trkpt lat="46.66372" lon="5.59778">
        <ele>375</ele>
        <time>2023-10-03T12:59:15Z</time>
      </trkpt>
      <trkpt lat="46.66375" lon="5.59775">
        <ele>375</ele>
        <time>2023-10-03T12:59:18Z</time>
      </trkpt>
      <trkpt lat="46.66378" lon="5.59773">
        <ele>375</ele>
        <time>2023-10-03T12:59:20Z</time>
      </trkpt>
      <trkpt lat="46.6638" lon="5.5977">
        <ele>375</ele>
        <time>2023-10-03T12:59:23Z</time>
      </trkpt>
      <trkpt lat="46.66383" lon="5.59767">
        <ele>375</ele>
        <time>2023-10-03T12:59:26Z</time>
      </trkpt>
      <trkpt lat="46.66386" lon="5.59765">
        <ele>375</ele>
        <time>2023-10-03T12:59:29Z</time>
      </trkpt>
      <trkpt lat="46.6639" lon="5.59763">
        <ele>375</ele>
        <time>2023-10-03T12:59:31Z</time>
      </trkpt>
      <trkpt lat="46.66393" lon="5.59762">
        <ele>375</ele>
        <time>2023-10-03T12:59:33Z</time>
      </trkpt>
      <trkpt lat="46.66396" lon="5.59759">
        <ele>375</ele>
        <time>2023-10-03T12:59:36Z</time>
      </trkpt>
      <trkpt lat="46.66398" lon="5.59756">
        <ele>375</ele>
        <time>2023-10-03T12:59:39Z</time>
      </trkpt>
      <trkpt lat="46.664" lon="5.59754">
        <ele>375</ele>
        <time>2023-10-03T12:59:41Z</time>
      </trkpt>
      <trkpt lat="46.66402" lon="5.5975">
        <ele>375</ele>
        <time>2023-10-03T12:59:43Z</time>
      </trkpt>
      <trkpt lat="46.66405" lon="5.59748">
        <ele>375</ele>
        <time>2023-10-03T12:59:45Z</time>
      </trkpt>
      <trkpt lat="46.66407" lon="5.59745">
        <ele>374</ele>
        <time>2023-10-03T12:59:48Z</time>
      </trkpt>
      <trkpt lat="46.6641" lon="5.59743">
        <ele>374</ele>
        <time>2023-10-03T12:59:51Z</time>
      </trkpt>
      <trkpt lat="46.66412" lon="5.5974">
        <ele>374</ele>
        <time>2023-10-03T12:59:54Z</time>
      </trkpt>
      <trkpt lat="46.66415" lon="5.59738">
        <ele>374</ele>
        <time>2023-10-03T12:59:56Z</time>
      </trkpt>
      <trkpt lat="46.66418" lon="5.59736">
        <ele>374</ele>
        <time>2023-10-03T12:59:58Z</time>
      </trkpt>
      <trkpt lat="46.66421" lon="5.59734">
        <ele>374</ele>
        <time>2023-10-03T13:00:00Z</time>
      </trkpt>
      <trkpt lat="46.66424" lon="5.59732">
        <ele>374</ele>
        <time>2023-10-03T13:00:02Z</time>
      </trkpt>
      <trkpt lat="46.66426" lon="5.59728">
        <ele>374</ele>
        <time>2023-10-03T13:00:05Z</time>
      </trkpt>
      <trkpt lat="46.66429" lon="5.59725">
        <ele>373</ele>
        <time>2023-10-03T13:00:07Z</time>
      </trkpt>
      <trkpt lat="46.66432" lon="5.59722">
        <ele>373</ele>
        <time>2023-10-03T13:00:09Z</time>
      </trkpt>
      <trkpt lat="46.66434" lon="5.5972">
        <ele>373</ele>
        <time>2023-10-03T13:00:11Z</time>
      </trkpt>
      <trkpt lat="46.66437" lon="5.59718">
        <ele>373</ele>
        <time>2023-10-03T13:00:13Z</time>
      </trkpt>
      <trkpt lat="46.66439" lon="5.59715">
        <ele>373</ele>
        <time>2023-10-03T13:00:15Z</time>
      </trkpt>
      <trkpt lat="46.66441" lon="5.59712">
        <ele>373</ele>
        <time>2023-10-03T13:00:17Z</time>
      </trkpt>
      <trkpt lat="46.66443" lon="5.59708">
        <ele>373</ele>
        <time>2023-10-03T13:00:20Z</time>
      </trkpt>
      <trkpt lat="46.66445" lon="5.59705">
        <ele>373</ele>
        <time>2023-10-03T13:00:23Z</time>
      </trkpt>
      <trkpt lat="46.66447" lon="5.59701">
        <ele>373</ele>
        <time>2023-10-03T13:00:26Z</time>
      </trkpt>
      <trkpt lat="46.66449" lon="5.59696">
        <ele>373</ele>
        <time>2023-10-03T13:00:29Z</time>
      </trkpt>
      <trkpt lat="46.66451" lon="5.59692">
        <ele>373</ele>
        <time>2023-10-03T13:00:31Z</time>
      </trkpt>
      <trkpt lat="46.66453" lon="5.59688">
        <ele>373</ele>
        <time>2023-10-03T13:00:33Z</time>
      </trkpt>
      <trkpt lat="46.66454" lon="5.59685">
        <ele>372</ele>
        <time>2023-10-03T13:00:35Z</time>
      </trkpt>
      <trkpt lat="46.66457" lon="5.59682">
        <ele>372</ele>
        <time>2023-10-03T13:00:38Z</time>
      </trkpt>
      <trkpt lat="46.66459" lon="5.59679">
        <ele>372</ele>
        <time>2023-10-03T13:00:41Z</time>
      </trkpt>
      <trkpt lat="46.66462" lon="5.59676">
        <ele>372</ele>
        <time>2023-10-03T13:00:43Z</time>
      </trkpt>
      <trkpt lat="46.66464" lon="5.59673">
        <ele>372</ele>
        <time>2023-10-03T13:00:45Z</time>
      </trkpt>
      <trkpt lat="46.66466" lon="5.59669">
        <ele>372</ele>
        <time>2023-10-03T13:00:48Z</time>
      </trkpt>
      <trkpt lat="46.66468" lon="5.59665">
        <ele>372</ele>
        <time>2023-10-03T13:00:51Z</time>
      </trkpt>
      <trkpt lat="46.66469" lon="5.59661">
        <ele>372</ele>
        <time>2023-10-03T13:00:54Z</time>
      </trkpt>
      <trkpt lat="46.6647" lon="5.59657">
        <ele>372</ele>
        <time>2023-10-03T13:00:57Z</time>
      </trkpt>
      <trkpt lat="46.66473" lon="5.59654">
        <ele>372</ele>
        <time>2023-10-03T13:01:00Z</time>
      </trkpt>
      <trkpt lat="46.66475" lon="5.5965">
        <ele>372</ele>
        <time>2023-10-03T13:01:03Z</time>
      </trkpt>
      <trkpt lat="46.66477" lon="5.59646">
        <ele>372</ele>
        <time>2023-10-03T13:01:06Z</time>
      </trkpt>
      <trkpt lat="46.66478" lon="5.59641">
        <ele>372</ele>
        <time>2023-10-03T13:01:09Z</time>
      </trkpt>
      <trkpt lat="46.6648" lon="5.59637">
        <ele>372</ele>
        <time>2023-10-03T13:01:12Z</time>
      </trkpt>
      <trkpt lat="46.66482" lon="5.59633">
        <ele>371</ele>
        <time>2023-10-03T13:01:15Z</time>
      </trkpt>
      <trkpt lat="46.66484" lon="5.59628">
        <ele>371</ele>
        <time>2023-10-03T13:01:18Z</time>
      </trkpt>
      <trkpt lat="46.66486" lon="5.59624">
        <ele>371</ele>
        <time>2023-10-03T13:01:21Z</time>
      </trkpt>
      <trkpt lat="46.66487" lon="5.5962">
        <ele>371</ele>
        <time>2023-10-03T13:01:23Z</time>
      </trkpt>
      <trkpt lat="46.66488" lon="5.59616">
        <ele>371</ele>
        <time>2023-10-03T13:01:25Z</time>
      </trkpt>
      <trkpt lat="46.6649" lon="5.59613">
        <ele>371</ele>
        <time>2023-10-03T13:01:27Z</time>
      </trkpt>
      <trkpt lat="46.66491" lon="5.59608">
        <ele>371</ele>
        <time>2023-10-03T13:01:30Z</time>
      </trkpt>
      <trkpt lat="46.66492" lon="5.59604">
        <ele>371</ele>
        <time>2023-10-03T13:01:32Z</time>
      </trkpt>
      <trkpt lat="46.66494" lon="5.596">
        <ele>371</ele>
        <time>2023-10-03T13:01:34Z</time>
      </trkpt>
      <trkpt lat="46.66495" lon="5.59597">
        <ele>370</ele>
        <time>2023-10-03T13:01:36Z</time>
      </trkpt>
      <trkpt lat="46.66497" lon="5.59592">
        <ele>370</ele>
        <time>2023-10-03T13:01:39Z</time>
      </trkpt>
      <trkpt lat="46.66498" lon="5.59587">
        <ele>370</ele>
        <time>2023-10-03T13:01:41Z</time>
      </trkpt>
      <trkpt lat="46.66498" lon="5.59583">
        <ele>370</ele>
        <time>2023-10-03T13:01:43Z</time>
      </trkpt>
      <trkpt lat="46.66499" lon="5.59579">
        <ele>370</ele>
        <time>2023-10-03T13:01:46Z</time>
      </trkpt>
      <trkpt lat="46.665" lon="5.59575">
        <ele>370</ele>
        <time>2023-10-03T13:01:48Z</time>
      </trkpt>
      <trkpt lat="46.66502" lon="5.5957">
        <ele>370</ele>
        <time>2023-10-03T13:01:51Z</time>
      </trkpt>
      <trkpt lat="46.66503" lon="5.59566">
        <ele>370</ele>
        <time>2023-10-03T13:01:54Z</time>
      </trkpt>
      <trkpt lat="46.66504" lon="5.59562">
        <ele>370</ele>
        <time>2023-10-03T13:01:57Z</time>
      </trkpt>
      <trkpt lat="46.66505" lon="5.59556">
        <ele>369</ele>
        <time>2023-10-03T13:02:00Z</time>
      </trkpt>
      <trkpt lat="46.66507" lon="5.59552">
        <ele>369</ele>
        <time>2023-10-03T13:02:03Z</time>
      </trkpt>
      <trkpt lat="46.66508" lon="5.59546">
        <ele>369</ele>
        <time>2023-10-03T13:02:06Z</time>
      </trkpt>
      <trkpt lat="46.66509" lon="5.59542">
        <ele>369</ele>
        <time>2023-10-03T13:02:09Z</time>
      </trkpt>
      <trkpt lat="46.66511" lon="5.59537">
        <ele>369</ele>
        <time>2023-10-03T13:02:12Z</time>
      </trkpt>
      <trkpt lat="46.66512" lon="5.59532">
        <ele>369</ele>
        <time>2023-10-03T13:02:15Z</time>
      </trkpt>
      <trkpt lat="46.66513" lon="5.59528">
        <ele>369</ele>
        <time>2023-10-03T13:02:17Z</time>
      </trkpt>
      <trkpt lat="46.66514" lon="5.59523">
        <ele>369</ele>
        <time>2023-10-03T13:02:20Z</time>
      </trkpt>
      <trkpt lat="46.66515" lon="5.59518">
        <ele>369</ele>
        <time>2023-10-03T13:02:23Z</time>
      </trkpt>
      <trkpt lat="46.66517" lon="5.59514">
        <ele>368</ele>
        <time>2023-10-03T13:02:26Z</time>
      </trkpt>
      <trkpt lat="46.66518" lon="5.5951">
        <ele>368</ele>
        <time>2023-10-03T13:02:28Z</time>
      </trkpt>
      <trkpt lat="46.66519" lon="5.59505">
        <ele>368</ele>
        <time>2023-10-03T13:02:31Z</time>
      </trkpt>
      <trkpt lat="46.6652" lon="5.595">
        <ele>368</ele>
        <time>2023-10-03T13:02:33Z</time>
      </trkpt>
      <trkpt lat="46.6652" lon="5.59495">
        <ele>368</ele>
        <time>2023-10-03T13:02:35Z</time>
      </trkpt>
      <trkpt lat="46.6652" lon="5.59491">
        <ele>368</ele>
        <time>2023-10-03T13:02:37Z</time>
      </trkpt>
      <trkpt lat="46.6652" lon="5.59485">
        <ele>368</ele>
        <time>2023-10-03T13:02:40Z</time>
      </trkpt>
      <trkpt lat="46.66521" lon="5.59481">
        <ele>368</ele>
        <time>2023-10-03T13:02:42Z</time>
      </trkpt>
      <trkpt lat="46.66521" lon="5.59476">
        <ele>368</ele>
        <time>2023-10-03T13:02:45Z</time>
      </trkpt>
      <trkpt lat="46.66522" lon="5.59471">
        <ele>368</ele>
        <time>2023-10-03T13:02:48Z</time>
      </trkpt>
      <trkpt lat="46.66522" lon="5.59467">
        <ele>368</ele>
        <time>2023-10-03T13:02:51Z</time>
      </trkpt>
      <trkpt lat="46.66523" lon="5.59462">
        <ele>368</ele>
        <time>2023-10-03T13:02:54Z</time>
      </trkpt>
      <trkpt lat="46.66523" lon="5.59457">
        <ele>368</ele>
        <time>2023-10-03T13:02:57Z</time>
      </trkpt>
      <trkpt lat="46.66523" lon="5.59452">
        <ele>368</ele>
        <time>2023-10-03T13:03:00Z</time>
      </trkpt>
      <trkpt lat="46.66524" lon="5.59447">
        <ele>368</ele>
        <time>2023-10-03T13:03:02Z</time>
      </trkpt>
      <trkpt lat="46.66524" lon="5.59442">
        <ele>367</ele>
        <time>2023-10-03T13:03:05Z</time>
      </trkpt>
      <trkpt lat="46.66524" lon="5.59437">
        <ele>367</ele>
        <time>2023-10-03T13:03:08Z</time>
      </trkpt>
      <trkpt lat="46.66525" lon="5.59431">
        <ele>367</ele>
        <time>2023-10-03T13:03:11Z</time>
      </trkpt>
      <trkpt lat="46.66525" lon="5.59427">
        <ele>367</ele>
        <time>2023-10-03T13:03:13Z</time>
      </trkpt>
      <trkpt lat="46.66526" lon="5.59422">
        <ele>367</ele>
        <time>2023-10-03T13:03:16Z</time>
      </trkpt>
      <trkpt lat="46.66526" lon="5.59417">
        <ele>367</ele>
        <time>2023-10-03T13:03:19Z</time>
      </trkpt>
      <trkpt lat="46.66527" lon="5.59413">
        <ele>367</ele>
        <time>2023-10-03T13:03:22Z</time>
      </trkpt>
      <trkpt lat="46.66527" lon="5.59408">
        <ele>367</ele>
        <time>2023-10-03T13:03:25Z</time>
      </trkpt>
      <trkpt lat="46.66527" lon="5.59404">
        <ele>367</ele>
        <time>2023-10-03T13:03:28Z</time>
      </trkpt>
      <trkpt lat="46.66527" lon="5.59399">
        <ele>367</ele>
        <time>2023-10-03T13:03:31Z</time>
      </trkpt>
      <trkpt lat="46.66527" lon="5.59395">
        <ele>367</ele>
        <time>2023-10-03T13:03:33Z</time>
      </trkpt>
      <trkpt lat="46.66527" lon="5.59389">
        <ele>367</ele>
        <time>2023-10-03T13:03:36Z</time>
      </trkpt>
      <trkpt lat="46.66528" lon="5.59384">
        <ele>366</ele>
        <time>2023-10-03T13:03:39Z</time>
      </trkpt>
      <trkpt lat="46.66528" lon="5.59378">
        <ele>366</ele>
        <time>2023-10-03T13:03:42Z</time>
      </trkpt>
      <trkpt lat="46.66529" lon="5.59373">
        <ele>366</ele>
        <time>2023-10-03T13:03:45Z</time>
      </trkpt>
      <trkpt lat="46.6653" lon="5.59369">
        <ele>366</ele>
        <time>2023-10-03T13:03:48Z</time>
      </trkpt>
      <trkpt lat="46.66531" lon="5.59364">
        <ele>366</ele>
        <time>2023-10-03T13:03:51Z</time>
      </trkpt>
      <trkpt lat="46.66531" lon="5.59359">
        <ele>366</ele>
        <time>2023-10-03T13:03:53Z</time>
      </trkpt>
      <trkpt lat="46.66531" lon="5.59355">
        <ele>366</ele>
        <time>2023-10-03T13:03:55Z</time>
      </trkpt>
      <trkpt lat="46.66531" lon="5.5935">
        <ele>366</ele>
        <time>2023-10-03T13:03:58Z</time>
      </trkpt>
      <trkpt lat="46.66532" lon="5.59346">
        <ele>366</ele>
        <time>2023-10-03T13:04:00Z</time>
      </trkpt>
      <trkpt lat="46.66532" lon="5.59341">
        <ele>366</ele>
        <time>2023-10-03T13:04:03Z</time>
      </trkpt>
      <trkpt lat="46.66533" lon="5.59336">
        <ele>365</ele>
        <time>2023-10-03T13:04:05Z</time>
      </trkpt>
      <trkpt lat="46.66533" lon="5.59332">
        <ele>365</ele>
        <time>2023-10-03T13:04:07Z</time>
      </trkpt>
      <trkpt lat="46.66533" lon="5.59327">
        <ele>365</ele>
        <time>2023-10-03T13:04:09Z</time>
      </trkpt>
      <trkpt lat="46.66533" lon="5.59323">
        <ele>365</ele>
        <time>2023-10-03T13:04:11Z</time>
      </trkpt>
      <trkpt lat="46.66533" lon="5.59319">
        <ele>365</ele>
        <time>2023-10-03T13:04:13Z</time>
      </trkpt>
      <trkpt lat="46.66534" lon="5.59314">
        <ele>365</ele>
        <time>2023-10-03T13:04:15Z</time>
      </trkpt>
      <trkpt lat="46.66534" lon="5.5931">
        <ele>365</ele>
        <time>2023-10-03T13:04:17Z</time>
      </trkpt>
      <trkpt lat="46.66535" lon="5.59306">
        <ele>365</ele>
        <time>2023-10-03T13:04:19Z</time>
      </trkpt>
      <trkpt lat="46.66535" lon="5.59302">
        <ele>365</ele>
        <time>2023-10-03T13:04:21Z</time>
      </trkpt>
      <trkpt lat="46.66536" lon="5.59297">
        <ele>365</ele>
        <time>2023-10-03T13:04:24Z</time>
      </trkpt>
      <trkpt lat="46.66537" lon="5.59293">
        <ele>365</ele>
        <time>2023-10-03T13:04:27Z</time>
      </trkpt>
      <trkpt lat="46.66537" lon="5.59288">
        <ele>365</ele>
        <time>2023-10-03T13:04:30Z</time>
      </trkpt>
      <trkpt lat="46.66537" lon="5.59284">
        <ele>365</ele>
        <time>2023-10-03T13:04:32Z</time>
      </trkpt>
      <trkpt lat="46.66538" lon="5.59279">
        <ele>365</ele>
        <time>2023-10-03T13:04:34Z</time>
      </trkpt>
      <trkpt lat="46.66539" lon="5.59275">
        <ele>364</ele>
        <time>2023-10-03T13:04:36Z</time>
      </trkpt>
      <trkpt lat="46.6654" lon="5.5927">
        <ele>364</ele>
        <time>2023-10-03T13:04:39Z</time>
      </trkpt>
      <trkpt lat="46.66541" lon="5.59266">
        <ele>364</ele>
        <time>2023-10-03T13:04:41Z</time>
      </trkpt>
      <trkpt lat="46.66542" lon="5.5926">
        <ele>364</ele>
        <time>2023-10-03T13:04:44Z</time>
      </trkpt>
      <trkpt lat="46.66543" lon="5.59255">
        <ele>364</ele>
        <time>2023-10-03T13:04:47Z</time>
      </trkpt>
      <trkpt lat="46.66543" lon="5.5925">
        <ele>364</ele>
        <time>2023-10-03T13:04:50Z</time>
      </trkpt>
      <trkpt lat="46.66544" lon="5.59245">
        <ele>363</ele>
        <time>2023-10-03T13:04:53Z</time>
      </trkpt>
      <trkpt lat="46.66546" lon="5.59239">
        <ele>363</ele>
        <time>2023-10-03T13:04:56Z</time>
      </trkpt>
      <trkpt lat="46.66546" lon="5.59235">
        <ele>363</ele>
        <time>2023-10-03T13:04:58Z</time>
      </trkpt>
      <trkpt lat="46.66547" lon="5.5923">
        <ele>363</ele>
        <time>2023-10-03T13:05:01Z</time>
      </trkpt>
      <trkpt lat="46.66548" lon="5.59225">
        <ele>364</ele>
        <time>2023-10-03T13:05:04Z</time>
      </trkpt>
      <trkpt lat="46.66549" lon="5.59221">
        <ele>363</ele>
        <time>2023-10-03T13:05:06Z</time>
      </trkpt>
      <trkpt lat="46.6655" lon="5.59217">
        <ele>363</ele>
        <time>2023-10-03T13:05:09Z</time>
      </trkpt>
      <trkpt lat="46.66551" lon="5.59212">
        <ele>363</ele>
        <time>2023-10-03T13:05:13Z</time>
      </trkpt>
      <trkpt lat="46.66551" lon="5.59207">
        <ele>363</ele>
        <time>2023-10-03T13:05:15Z</time>
      </trkpt>
      <trkpt lat="46.66552" lon="5.59203">
        <ele>363</ele>
        <time>2023-10-03T13:05:17Z</time>
      </trkpt>
      <trkpt lat="46.66553" lon="5.59198">
        <ele>362</ele>
        <time>2023-10-03T13:05:19Z</time>
      </trkpt>
      <trkpt lat="46.66554" lon="5.59194">
        <ele>362</ele>
        <time>2023-10-03T13:05:21Z</time>
      </trkpt>
      <trkpt lat="46.66556" lon="5.5919">
        <ele>362</ele>
        <time>2023-10-03T13:05:23Z</time>
      </trkpt>
      <trkpt lat="46.66557" lon="5.59185">
        <ele>362</ele>
        <time>2023-10-03T13:05:26Z</time>
      </trkpt>
      <trkpt lat="46.66559" lon="5.59181">
        <ele>362</ele>
        <time>2023-10-03T13:05:28Z</time>
      </trkpt>
      <trkpt lat="46.6656" lon="5.59176">
        <ele>362</ele>
        <time>2023-10-03T13:05:30Z</time>
      </trkpt>
      <trkpt lat="46.66561" lon="5.59172">
        <ele>362</ele>
        <time>2023-10-03T13:05:33Z</time>
      </trkpt>
      <trkpt lat="46.66562" lon="5.59167">
        <ele>362</ele>
        <time>2023-10-03T13:05:35Z</time>
      </trkpt>
      <trkpt lat="46.66564" lon="5.59162">
        <ele>362</ele>
        <time>2023-10-03T13:05:38Z</time>
      </trkpt>
      <trkpt lat="46.66565" lon="5.59158">
        <ele>361</ele>
        <time>2023-10-03T13:05:42Z</time>
      </trkpt>
      <trkpt lat="46.66566" lon="5.59154">
        <ele>361</ele>
        <time>2023-10-03T13:05:45Z</time>
      </trkpt>
      <trkpt lat="46.66568" lon="5.5915">
        <ele>361</ele>
        <time>2023-10-03T13:05:47Z</time>
      </trkpt>
      <trkpt lat="46.6657" lon="5.59147">
        <ele>361</ele>
        <time>2023-10-03T13:05:49Z</time>
      </trkpt>
      <trkpt lat="46.66571" lon="5.59143">
        <ele>361</ele>
        <time>2023-10-03T13:05:51Z</time>
      </trkpt>
      <trkpt lat="46.66573" lon="5.5914">
        <ele>361</ele>
        <time>2023-10-03T13:05:54Z</time>
      </trkpt>
      <trkpt lat="46.66576" lon="5.59135">
        <ele>361</ele>
        <time>2023-10-03T13:05:57Z</time>
      </trkpt>
      <trkpt lat="46.66577" lon="5.59131">
        <ele>361</ele>
        <time>2023-10-03T13:05:59Z</time>
      </trkpt>
      <trkpt lat="46.66579" lon="5.59127">
        <ele>361</ele>
        <time>2023-10-03T13:06:01Z</time>
      </trkpt>
      <trkpt lat="46.66581" lon="5.59122">
        <ele>361</ele>
        <time>2023-10-03T13:06:04Z</time>
      </trkpt>
      <trkpt lat="46.66582" lon="5.59118">
        <ele>360</ele>
        <time>2023-10-03T13:06:06Z</time>
      </trkpt>
      <trkpt lat="46.66584" lon="5.59113">
        <ele>360</ele>
        <time>2023-10-03T13:06:09Z</time>
      </trkpt>
      <trkpt lat="46.66585" lon="5.59109">
        <ele>360</ele>
        <time>2023-10-03T13:06:12Z</time>
      </trkpt>
      <trkpt lat="46.66587" lon="5.59104">
        <ele>360</ele>
        <time>2023-10-03T13:06:14Z</time>
      </trkpt>
      <trkpt lat="46.6659" lon="5.591">
        <ele>360</ele>
        <time>2023-10-03T13:06:17Z</time>
      </trkpt>
      <trkpt lat="46.66592" lon="5.59096">
        <ele>360</ele>
        <time>2023-10-03T13:06:20Z</time>
      </trkpt>
      <trkpt lat="46.66594" lon="5.59091">
        <ele>360</ele>
        <time>2023-10-03T13:06:23Z</time>
      </trkpt>
      <trkpt lat="46.66595" lon="5.59087">
        <ele>359</ele>
        <time>2023-10-03T13:06:25Z</time>
      </trkpt>
      <trkpt lat="46.66597" lon="5.59083">
        <ele>359</ele>
        <time>2023-10-03T13:06:28Z</time>
      </trkpt>
      <trkpt lat="46.66599" lon="5.59079">
        <ele>359</ele>
        <time>2023-10-03T13:06:30Z</time>
      </trkpt>
      <trkpt lat="46.66601" lon="5.59075">
        <ele>359</ele>
        <time>2023-10-03T13:06:32Z</time>
      </trkpt>
      <trkpt lat="46.66602" lon="5.59071">
        <ele>359</ele>
        <time>2023-10-03T13:06:35Z</time>
      </trkpt>
      <trkpt lat="46.66603" lon="5.59067">
        <ele>359</ele>
        <time>2023-10-03T13:06:38Z</time>
      </trkpt>
      <trkpt lat="46.66605" lon="5.59064">
        <ele>359</ele>
        <time>2023-10-03T13:06:40Z</time>
      </trkpt>
      <trkpt lat="46.66607" lon="5.5906">
        <ele>358</ele>
        <time>2023-10-03T13:06:43Z</time>
      </trkpt>
      <trkpt lat="46.66609" lon="5.59055">
        <ele>358</ele>
        <time>2023-10-03T13:06:46Z</time>
      </trkpt>
      <trkpt lat="46.66611" lon="5.59051">
        <ele>358</ele>
        <time>2023-10-03T13:06:49Z</time>
      </trkpt>
      <trkpt lat="46.66613" lon="5.59046">
        <ele>358</ele>
        <time>2023-10-03T13:06:52Z</time>
      </trkpt>
      <trkpt lat="46.66615" lon="5.59042">
        <ele>358</ele>
        <time>2023-10-03T13:06:55Z</time>
      </trkpt>
      <trkpt lat="46.66616" lon="5.59038">
        <ele>358</ele>
        <time>2023-10-03T13:06:58Z</time>
      </trkpt>
      <trkpt lat="46.66618" lon="5.59033">
        <ele>358</ele>
        <time>2023-10-03T13:07:01Z</time>
      </trkpt>
      <trkpt lat="46.66619" lon="5.59029">
        <ele>357</ele>
        <time>2023-10-03T13:07:03Z</time>
      </trkpt>
      <trkpt lat="46.6662" lon="5.59024">
        <ele>357</ele>
        <time>2023-10-03T13:07:06Z</time>
      </trkpt>
      <trkpt lat="46.66622" lon="5.59021">
        <ele>357</ele>
        <time>2023-10-03T13:07:08Z</time>
      </trkpt>
      <trkpt lat="46.66624" lon="5.59017">
        <ele>357</ele>
        <time>2023-10-03T13:07:10Z</time>
      </trkpt>
      <trkpt lat="46.66626" lon="5.59014">
        <ele>357</ele>
        <time>2023-10-03T13:07:12Z</time>
      </trkpt>
      <trkpt lat="46.66628" lon="5.59011">
        <ele>357</ele>
        <time>2023-10-03T13:07:14Z</time>
      </trkpt>
      <trkpt lat="46.6663" lon="5.59009">
        <ele>357</ele>
        <time>2023-10-03T13:07:16Z</time>
      </trkpt>
      <trkpt lat="46.66632" lon="5.59005">
        <ele>357</ele>
        <time>2023-10-03T13:07:19Z</time>
      </trkpt>
      <trkpt lat="46.66634" lon="5.59001">
        <ele>357</ele>
        <time>2023-10-03T13:07:22Z</time>
      </trkpt>
      <trkpt lat="46.66637" lon="5.58997">
        <ele>357</ele>
        <time>2023-10-03T13:07:25Z</time>
      </trkpt>
      <trkpt lat="46.6664" lon="5.58995">
        <ele>357</ele>
        <time>2023-10-03T13:07:27Z</time>
      </trkpt>
      <trkpt lat="46.66642" lon="5.58992">
        <ele>356</ele>
        <time>2023-10-03T13:07:30Z</time>
      </trkpt>
      <trkpt lat="46.66644" lon="5.58988">
        <ele>356</ele>
        <time>2023-10-03T13:07:33Z</time>
      </trkpt>
      <trkpt lat="46.66646" lon="5.58984">
        <ele>356</ele>
        <time>2023-10-03T13:07:36Z</time>
      </trkpt>
      <trkpt lat="46.66648" lon="5.58981">
        <ele>356</ele>
        <time>2023-10-03T13:07:39Z</time>
      </trkpt>
      <trkpt lat="46.6665" lon="5.58978">
        <ele>356</ele>
        <time>2023-10-03T13:07:42Z</time>
      </trkpt>
      <trkpt lat="46.66652" lon="5.58975">
        <ele>356</ele>
        <time>2023-10-03T13:07:45Z</time>
      </trkpt>
      <trkpt lat="46.66655" lon="5.58973">
        <ele>356</ele>
        <time>2023-10-03T13:07:48Z</time>
      </trkpt>
      <trkpt lat="46.66658" lon="5.58971">
        <ele>356</ele>
        <time>2023-10-03T13:07:50Z</time>
      </trkpt>
      <trkpt lat="46.66661" lon="5.5897">
        <ele>356</ele>
        <time>2023-10-03T13:07:53Z</time>
      </trkpt>
      <trkpt lat="46.66664" lon="5.58969">
        <ele>356</ele>
        <time>2023-10-03T13:07:55Z</time>
      </trkpt>
      <trkpt lat="46.66668" lon="5.58967">
        <ele>356</ele>
        <time>2023-10-03T13:07:58Z</time>
      </trkpt>
      <trkpt lat="46.66672" lon="5.58965">
        <ele>356</ele>
        <time>2023-10-03T13:08:01Z</time>
      </trkpt>
      <trkpt lat="46.66675" lon="5.58963">
        <ele>356</ele>
        <time>2023-10-03T13:08:04Z</time>
      </trkpt>
      <trkpt lat="46.66678" lon="5.5896">
        <ele>356</ele>
        <time>2023-10-03T13:08:07Z</time>
      </trkpt>
      <trkpt lat="46.66682" lon="5.58958">
        <ele>355</ele>
        <time>2023-10-03T13:08:10Z</time>
      </trkpt>
      <trkpt lat="46.66685" lon="5.58955">
        <ele>355</ele>
        <time>2023-10-03T13:08:13Z</time>
      </trkpt>
      <trkpt lat="46.66688" lon="5.58953">
        <ele>355</ele>
        <time>2023-10-03T13:08:16Z</time>
      </trkpt>
      <trkpt lat="46.66692" lon="5.58951">
        <ele>355</ele>
        <time>2023-10-03T13:08:18Z</time>
      </trkpt>
      <trkpt lat="46.66695" lon="5.58949">
        <ele>355</ele>
        <time>2023-10-03T13:08:20Z</time>
      </trkpt>
      <trkpt lat="46.66698" lon="5.58947">
        <ele>355</ele>
        <time>2023-10-03T13:08:23Z</time>
      </trkpt>
      <trkpt lat="46.66701" lon="5.58945">
        <ele>354</ele>
        <time>2023-10-03T13:08:26Z</time>
      </trkpt>
      <trkpt lat="46.66704" lon="5.58943">
        <ele>354</ele>
        <time>2023-10-03T13:08:29Z</time>
      </trkpt>
      <trkpt lat="46.66707" lon="5.58941">
        <ele>354</ele>
        <time>2023-10-03T13:08:32Z</time>
      </trkpt>
      <trkpt lat="46.66711" lon="5.5894">
        <ele>354</ele>
        <time>2023-10-03T13:08:35Z</time>
      </trkpt>
      <trkpt lat="46.66714" lon="5.58938">
        <ele>354</ele>
        <time>2023-10-03T13:08:38Z</time>
      </trkpt>
      <trkpt lat="46.66717" lon="5.58936">
        <ele>354</ele>
        <time>2023-10-03T13:08:41Z</time>
      </trkpt>
      <trkpt lat="46.66721" lon="5.58935">
        <ele>354</ele>
        <time>2023-10-03T13:08:42Z</time>
      </trkpt>
      <trkpt lat="46.66724" lon="5.58934">
        <ele>354</ele>
        <time>2023-10-03T13:08:44Z</time>
      </trkpt>
      <trkpt lat="46.66727" lon="5.58934">
        <ele>354</ele>
        <time>2023-10-03T13:08:46Z</time>
      </trkpt>
      <trkpt lat="46.66731" lon="5.58933">
        <ele>354</ele>
        <time>2023-10-03T13:08:48Z</time>
      </trkpt>
      <trkpt lat="46.66734" lon="5.58933">
        <ele>354</ele>
        <time>2023-10-03T13:08:50Z</time>
      </trkpt>
      <trkpt lat="46.66737" lon="5.58934">
        <ele>353</ele>
        <time>2023-10-03T13:08:53Z</time>
      </trkpt>
      <trkpt lat="46.6674" lon="5.58936">
        <ele>353</ele>
        <time>2023-10-03T13:08:55Z</time>
      </trkpt>
      <trkpt lat="46.66743" lon="5.58937">
        <ele>353</ele>
        <time>2023-10-03T13:08:58Z</time>
      </trkpt>
      <trkpt lat="46.66747" lon="5.58938">
        <ele>353</ele>
        <time>2023-10-03T13:09:01Z</time>
      </trkpt>
      <trkpt lat="46.6675" lon="5.58938">
        <ele>353</ele>
        <time>2023-10-03T13:09:04Z</time>
      </trkpt>
      <trkpt lat="46.66753" lon="5.58939">
        <ele>352</ele>
        <time>2023-10-03T13:09:06Z</time>
      </trkpt>
      <trkpt lat="46.66756" lon="5.58938">
        <ele>352</ele>
        <time>2023-10-03T13:09:08Z</time>
      </trkpt>
      <trkpt lat="46.66759" lon="5.58938">
        <ele>352</ele>
        <time>2023-10-03T13:09:10Z</time>
      </trkpt>
      <trkpt lat="46.66762" lon="5.58938">
        <ele>352</ele>
        <time>2023-10-03T13:09:12Z</time>
      </trkpt>
      <trkpt lat="46.66765" lon="5.58937">
        <ele>352</ele>
        <time>2023-10-03T13:09:14Z</time>
      </trkpt>
      <trkpt lat="46.66769" lon="5.58936">
        <ele>351</ele>
        <time>2023-10-03T13:09:17Z</time>
      </trkpt>
      <trkpt lat="46.66772" lon="5.58934">
        <ele>351</ele>
        <time>2023-10-03T13:09:19Z</time>
      </trkpt>
      <trkpt lat="46.66775" lon="5.58933">
        <ele>351</ele>
        <time>2023-10-03T13:09:22Z</time>
      </trkpt>
      <trkpt lat="46.66779" lon="5.58932">
        <ele>351</ele>
        <time>2023-10-03T13:09:25Z</time>
      </trkpt>
      <trkpt lat="46.66782" lon="5.58931">
        <ele>350</ele>
        <time>2023-10-03T13:09:28Z</time>
      </trkpt>
      <trkpt lat="46.66786" lon="5.5893">
        <ele>350</ele>
        <time>2023-10-03T13:09:31Z</time>
      </trkpt>
      <trkpt lat="46.66789" lon="5.58928">
        <ele>349</ele>
        <time>2023-10-03T13:09:34Z</time>
      </trkpt>
      <trkpt lat="46.66792" lon="5.58926">
        <ele>349</ele>
        <time>2023-10-03T13:09:37Z</time>
      </trkpt>
      <trkpt lat="46.66795" lon="5.58924">
        <ele>348</ele>
        <time>2023-10-03T13:09:40Z</time>
      </trkpt>
      <trkpt lat="46.66799" lon="5.58922">
        <ele>348</ele>
        <time>2023-10-03T13:09:43Z</time>
      </trkpt>
      <trkpt lat="46.66802" lon="5.5892">
        <ele>348</ele>
        <time>2023-10-03T13:09:46Z</time>
      </trkpt>
      <trkpt lat="46.66805" lon="5.58917">
        <ele>348</ele>
        <time>2023-10-03T13:09:51Z</time>
      </trkpt>
      <trkpt lat="46.66808" lon="5.58915">
        <ele>347</ele>
        <time>2023-10-03T13:09:54Z</time>
      </trkpt>
      <trkpt lat="46.66811" lon="5.58913">
        <ele>348</ele>
        <time>2023-10-03T13:09:57Z</time>
      </trkpt>
      <trkpt lat="46.66814" lon="5.58912">
        <ele>348</ele>
        <time>2023-10-03T13:10:00Z</time>
      </trkpt>
      <trkpt lat="46.66817" lon="5.58911">
        <ele>348</ele>
        <time>2023-10-03T13:10:03Z</time>
      </trkpt>
      <trkpt lat="46.6682" lon="5.5891">
        <ele>349</ele>
        <time>2023-10-03T13:10:06Z</time>
      </trkpt>
      <trkpt lat="46.66823" lon="5.58909">
        <ele>349</ele>
        <time>2023-10-03T13:10:08Z</time>
      </trkpt>
      <trkpt lat="46.66826" lon="5.58907">
        <ele>349</ele>
        <time>2023-10-03T13:10:10Z</time>
      </trkpt>
      <trkpt lat="46.66829" lon="5.58905">
        <ele>349</ele>
        <time>2023-10-03T13:10:12Z</time>
      </trkpt>
      <trkpt lat="46.66831" lon="5.58903">
        <ele>349</ele>
        <time>2023-10-03T13:10:14Z</time>
      </trkpt>
      <trkpt lat="46.66834" lon="5.58901">
        <ele>349</ele>
        <time>2023-10-03T13:10:17Z</time>
      </trkpt>
      <trkpt lat="46.66838" lon="5.58901">
        <ele>349</ele>
        <time>2023-10-03T13:10:21Z</time>
      </trkpt>
      <trkpt lat="46.66838" lon="5.58901">
        <ele>349</ele>
        <time>2023-10-03T13:11:01Z</time>
      </trkpt>
    </trkseg>
  </trk>
</gpx>